<?xml version='1.0' encoding='UTF-8'?><gpx version="1.1" creator="JPX - https://github.com/jenetics/jpx" xmlns="http://www.topografix.com/GPX/1/1"><trk><trkseg><trkpt lat="41.71691818588423" lon="15.7399600784072"><ele>823.0</ele><time>2026-04-14T13:52:42.004Z</time></trkpt><trkpt lat="41.716994143780745" lon="15.73996453651281"><ele>823.0</ele><time>2026-04-14T13:52:43.004Z</time></trkpt><trkpt lat="41.71706925543696" lon="15.739935613813614"><ele>823.0</ele><time>2026-04-14T13:52:45.003Z</time></trkpt><trkpt lat="41.717184370487466" lon="15.73994593992991"><ele>823.0</ele><time>2026-04-14T13:52:47.003Z</time></trkpt><trkpt lat="41.717259199817065" lon="15.739935798568279"><ele>823.0</ele><time>2026-04-14T13:52:48.002Z</time></trkpt><trkpt lat="41.71736402807495" lon="15.739964508682755"><ele>823.0</ele><time>2026-04-14T13:52:49.002Z</time></trkpt><trkpt lat="41.71748187521644" lon="15.740026442500415"><ele>823.0</ele><time>2026-04-14T13:52:50.002Z</time></trkpt><trkpt lat="41.71759972426367" lon="15.740081269863143"><ele>823.0</ele><time>2026-04-14T13:52:51.002Z</time></trkpt><trkpt lat="41.71770388463139" lon="15.740139081716"><ele>823.0</ele><time>2026-04-14T13:52:52.002Z</time></trkpt><trkpt lat="41.717795921927134" lon="15.740187881753421"><ele>822.5714285714286</ele><time>2026-04-14T13:52:53.001Z</time></trkpt><trkpt lat="41.71787651738226" lon="15.740226079296727"><ele>822.1428571428571</ele><time>2026-04-14T13:52:54.001Z</time></trkpt><trkpt lat="41.71794539011156" lon="15.74021866354576"><ele>821.7142857142858</ele><time>2026-04-14T13:52:55.001Z</time></trkpt><trkpt lat="41.718013046246085" lon="15.740198169004929"><ele>821.2857142857142</ele><time>2026-04-14T13:52:56.001Z</time></trkpt><trkpt lat="41.71807512682548" lon="15.740155462704879"><ele>820.8571428571428</ele><time>2026-04-14T13:52:57.001Z</time></trkpt><trkpt lat="41.71811674539984" lon="15.74007447961545"><ele>820.4285714285714</ele><time>2026-04-14T13:52:58.001Z</time></trkpt><trkpt lat="41.718179479930036" lon="15.740042720755984"><ele>820.0</ele><time>2026-04-14T13:52:59.001Z</time></trkpt><trkpt lat="41.71825431858894" lon="15.740045572780327"><ele>819.9999999999999</ele><time>2026-04-14T13:53:00.001Z</time></trkpt><trkpt lat="41.718338222922675" lon="15.740093476095305"><ele>820.0</ele><time>2026-04-14T13:53:01Z</time></trkpt><trkpt lat="41.718418807198375" lon="15.740143357008236"><ele>820.0</ele><time>2026-04-14T13:53:02Z</time></trkpt><trkpt lat="41.718495444556964" lon="15.740161016176662"><ele>820.0</ele><time>2026-04-14T13:53:03Z</time></trkpt><trkpt lat="41.71859318531963" lon="15.740180158342518"><ele>819.9999999999999</ele><time>2026-04-14T13:53:05Z</time></trkpt><trkpt lat="41.718656066846926" lon="15.740214893229334"><ele>820.0</ele><time>2026-04-14T13:53:06Z</time></trkpt><trkpt lat="41.71875062525184" lon="15.740263239129838"><ele>817.75</ele><time>2026-04-14T13:53:07Z</time></trkpt><trkpt lat="41.71886426679384" lon="15.740326762938755"><ele>815.5</ele><time>2026-04-14T13:53:08Z</time></trkpt><trkpt lat="41.71896021859834" lon="15.740402287992131"><ele>813.25</ele><time>2026-04-14T13:53:09Z</time></trkpt><trkpt lat="41.71906762361152" lon="15.740490628546297"><ele>811.0</ele><time>2026-04-14T13:53:10Z</time></trkpt><trkpt lat="41.71919343401191" lon="15.740567053232299"><ele>811.0</ele><time>2026-04-14T13:53:11Z</time></trkpt><trkpt lat="41.719313080046916" lon="15.740626850884464"><ele>811.0</ele><time>2026-04-14T13:53:11.999Z</time></trkpt><trkpt lat="41.71942868160816" lon="15.740662339203762"><ele>811.0</ele><time>2026-04-14T13:53:12.999Z</time></trkpt><trkpt lat="41.719540610596866" lon="15.740705758887588"><ele>811.0</ele><time>2026-04-14T13:53:13.999Z</time></trkpt><trkpt lat="41.71963339698892" lon="15.740778207215534"><ele>809.4999999999999</ele><time>2026-04-14T13:53:14.999Z</time></trkpt><trkpt lat="41.71972271668605" lon="15.740818102184477"><ele>808.0</ele><time>2026-04-14T13:53:15.999Z</time></trkpt><trkpt lat="41.719763676371315" lon="15.74088871836975"><ele>806.5</ele><time>2026-04-14T13:53:16.999Z</time></trkpt><trkpt lat="41.71983124759995" lon="15.740927160868422"><ele>805.0</ele><time>2026-04-14T13:53:17.999Z</time></trkpt><trkpt lat="41.71990090933442" lon="15.740979008707459"><ele>803.4999999999999</ele><time>2026-04-14T13:53:18.999Z</time></trkpt><trkpt lat="41.71997540834145" lon="15.740987875193007"><ele>802.0</ele><time>2026-04-14T13:53:19.999Z</time></trkpt><trkpt lat="41.72005560778325" lon="15.74098801759681"><ele>802.3333333333333</ele><time>2026-04-14T13:53:20.999Z</time></trkpt><trkpt lat="41.720128699922725" lon="15.741093912812788"><ele>802.6666666666666</ele><time>2026-04-14T13:53:22.999Z</time></trkpt><trkpt lat="41.720160639910176" lon="15.741171495775363"><ele>803.0</ele><time>2026-04-14T13:53:23.999Z</time></trkpt><trkpt lat="41.72023033266824" lon="15.741260582119626"><ele>803.3333333333333</ele><time>2026-04-14T13:53:25.999Z</time></trkpt><trkpt lat="41.7202959830488" lon="15.741272462952779"><ele>803.6666666666666</ele><time>2026-04-14T13:53:58.998Z</time></trkpt><trkpt lat="41.72039315973723" lon="15.741341895360083"><ele>804.0</ele><time>2026-04-14T13:54:00.998Z</time></trkpt><trkpt lat="41.72045576841238" lon="15.741386209433786"><ele>804.4000000000001</ele><time>2026-04-14T13:54:01.998Z</time></trkpt><trkpt lat="41.72055338547012" lon="15.741424009786073"><ele>804.8</ele><time>2026-04-14T13:54:03.998Z</time></trkpt><trkpt lat="41.72067594703943" lon="15.741399777039192"><ele>805.2</ele><time>2026-04-14T13:54:05.998Z</time></trkpt><trkpt lat="41.720765345335074" lon="15.741411024772546"><ele>805.5999999999999</ele><time>2026-04-14T13:54:07.998Z</time></trkpt><trkpt lat="41.720846178446436" lon="15.741443589750185"><ele>806.0</ele><time>2026-04-14T13:54:10.998Z</time></trkpt><trkpt lat="41.72093992775816" lon="15.741342918084024"><ele>808.5</ele><time>2026-04-14T13:54:12.998Z</time></trkpt><trkpt lat="41.72110190419857" lon="15.741265342786415"><ele>811.0</ele><time>2026-04-14T13:54:14.998Z</time></trkpt><trkpt lat="41.72121601021199" lon="15.74123156272744"><ele>813.5</ele><time>2026-04-14T13:54:15.998Z</time></trkpt><trkpt lat="41.72132935940888" lon="15.741198170756698"><ele>816.0</ele><time>2026-04-14T13:54:16.998Z</time></trkpt><trkpt lat="41.721402771339775" lon="15.741205222437273"><ele>816.0</ele><time>2026-04-14T13:54:17.998Z</time></trkpt><trkpt lat="41.72152074748295" lon="15.741216922239786"><ele>816.0</ele><time>2026-04-14T13:54:19.998Z</time></trkpt><trkpt lat="41.72159349196618" lon="15.741235965421431"><ele>816.0</ele><time>2026-04-14T13:54:20.998Z</time></trkpt><trkpt lat="41.721723607625464" lon="15.741158141742249"><ele>816.0</ele><time>2026-04-14T13:54:22.998Z</time></trkpt><trkpt lat="41.721808650007745" lon="15.74112739288333"><ele>816.0</ele><time>2026-04-14T13:54:23.999Z</time></trkpt><trkpt lat="41.72188540190745" lon="15.741105948925721"><ele>819.0</ele><time>2026-04-14T13:54:24.999Z</time></trkpt><trkpt lat="41.721997269380225" lon="15.741122173398482"><ele>822.0</ele><time>2026-04-14T13:54:26.999Z</time></trkpt><trkpt lat="41.72206568239213" lon="15.74110875509316"><ele>825.0</ele><time>2026-04-14T13:54:27.999Z</time></trkpt><trkpt lat="41.722154712907354" lon="15.741096099047134"><ele>828.0</ele><time>2026-04-14T13:54:28.999Z</time></trkpt><trkpt lat="41.722241254526956" lon="15.741086984397826"><ele>831.0</ele><time>2026-04-14T13:54:29.999Z</time></trkpt><trkpt lat="41.722324677729596" lon="15.741091811198304"><ele>834.0</ele><time>2026-04-14T13:54:30.999Z</time></trkpt><trkpt lat="41.72239034454769" lon="15.741112010332985"><ele>834.0</ele><time>2026-04-14T13:54:31.999Z</time></trkpt><trkpt lat="41.7225145467692" lon="15.741092846799424"><ele>834.0</ele><time>2026-04-14T13:54:33.999Z</time></trkpt><trkpt lat="41.72239399855334" lon="15.741308017787123"><ele>834.0</ele><time>2026-04-14T13:54:39.999Z</time></trkpt><trkpt lat="41.722341135444694" lon="15.74140789550284"><ele>834.0</ele><time>2026-04-14T13:54:40.999Z</time></trkpt><trkpt lat="41.72228655100026" lon="15.741528381250593"><ele>834.0</ele><time>2026-04-14T13:54:41.999Z</time></trkpt><trkpt lat="41.72226402473637" lon="15.741665004420794"><ele>834.0</ele><time>2026-04-14T13:54:42.999Z</time></trkpt><trkpt lat="41.722262100584565" lon="15.741757269813048"><ele>834.0</ele><time>2026-04-14T13:54:44.999Z</time></trkpt><trkpt lat="41.72233372216104" lon="15.741733767699"><ele>834.0</ele><time>2026-04-14T13:54:47.999Z</time></trkpt><trkpt lat="41.722407051324026" lon="15.741707499433604"><ele>834.0</ele><time>2026-04-14T13:54:50.999Z</time></trkpt><trkpt lat="41.72246526416286" lon="15.741665642637747"><ele>834.0</ele><time>2026-04-14T13:54:52.999Z</time></trkpt><trkpt lat="41.72313274730523" lon="15.741548031323479"><ele>836.5</ele><time>2026-04-14T13:54:57.999Z</time></trkpt><trkpt lat="41.72321482448226" lon="15.741540865188618"><ele>839.0</ele><time>2026-04-14T13:54:58.999Z</time></trkpt><trkpt lat="41.72328095762778" lon="15.741538350617377"><ele>841.5</ele><time>2026-04-14T13:54:59.999Z</time></trkpt><trkpt lat="41.72337424961104" lon="15.741506081114705"><ele>844.0</ele><time>2026-04-14T13:55:01.999Z</time></trkpt><trkpt lat="41.723487021557716" lon="15.741495119293075"><ele>846.5</ele><time>2026-04-14T13:55:03.999Z</time></trkpt><trkpt lat="41.72356951276172" lon="15.741484203994974"><ele>849.0</ele><time>2026-04-14T13:55:05.999Z</time></trkpt><trkpt lat="41.72366454494039" lon="15.741477086434596"><ele>851.6666666666666</ele><time>2026-04-14T13:55:07.999Z</time></trkpt><trkpt lat="41.72373375559574" lon="15.741474525516157"><ele>854.3333333333333</ele><time>2026-04-14T13:55:08.999Z</time></trkpt><trkpt lat="41.723801471668416" lon="15.741462399650063"><ele>857.0</ele><time>2026-04-14T13:55:09.999Z</time></trkpt><trkpt lat="41.723871018069715" lon="15.741447360076213"><ele>859.6666666666666</ele><time>2026-04-14T13:55:10.999Z</time></trkpt><trkpt lat="41.72393375465223" lon="15.74143469277777"><ele>862.3333333333333</ele><time>2026-04-14T13:55:11.999Z</time></trkpt><trkpt lat="41.724052438562005" lon="15.741441282829793"><ele>865.0</ele><time>2026-04-14T13:55:13.999Z</time></trkpt><trkpt lat="41.72412050450684" lon="15.74141883662198"><ele>864.9999999999999</ele><time>2026-04-14T13:55:15.999Z</time></trkpt><trkpt lat="41.72420905378583" lon="15.741390281349762"><ele>865.0</ele><time>2026-04-14T13:55:18.999Z</time></trkpt><trkpt lat="41.72427649832896" lon="15.741405414792064"><ele>865.0</ele><time>2026-04-14T13:55:20.999Z</time></trkpt><trkpt lat="41.72436761114756" lon="15.741395793762964"><ele>865.0</ele><time>2026-04-14T13:55:21.999Z</time></trkpt><trkpt lat="41.72444653867865" lon="15.741388273165418"><ele>864.9999999999999</ele><time>2026-04-14T13:55:22.999Z</time></trkpt><trkpt lat="41.72451063386984" lon="15.741369993794692"><ele>865.0</ele><time>2026-04-14T13:55:23.999Z</time></trkpt><trkpt lat="41.724591530275546" lon="15.74136916036892"><ele>868.2</ele><time>2026-04-14T13:55:24.999Z</time></trkpt><trkpt lat="41.72471147034068" lon="15.741355527309363"><ele>871.4</ele><time>2026-04-14T13:55:26.999Z</time></trkpt><trkpt lat="41.7247701129025" lon="15.741248897289607"><ele>874.5999999999999</ele><time>2026-04-14T13:55:28.999Z</time></trkpt><trkpt lat="41.724835453253256" lon="15.741252357000434"><ele>877.8</ele><time>2026-04-14T13:55:31.999Z</time></trkpt><trkpt lat="41.72481852199395" lon="15.741376039387728"><ele>881.0</ele><time>2026-04-14T13:55:34.999Z</time></trkpt><trkpt lat="41.72476472892722" lon="15.741485344446614"><ele>881.0000000000001</ele><time>2026-04-14T13:55:36.999Z</time></trkpt><trkpt lat="41.72469968259427" lon="15.741537749683904"><ele>881.0</ele><time>2026-04-14T13:55:37.999Z</time></trkpt><trkpt lat="41.724641672397325" lon="15.74161373676652"><ele>881.0</ele><time>2026-04-14T13:55:38.999Z</time></trkpt><trkpt lat="41.72459279223958" lon="15.741677805210017"><ele>881.0</ele><time>2026-04-14T13:55:39.999Z</time></trkpt><trkpt lat="41.724515382675015" lon="15.741769316605655"><ele>881.0000000000001</ele><time>2026-04-14T13:55:41.999Z</time></trkpt><trkpt lat="41.724463467684494" lon="15.741831052447848"><ele>881.0</ele><time>2026-04-14T13:55:43.999Z</time></trkpt><trkpt lat="41.72438118798397" lon="15.741909306523986"><ele>883.1999999999999</ele><time>2026-04-14T13:55:45.999Z</time></trkpt><trkpt lat="41.724462679878684" lon="15.741962013650646"><ele>885.3999999999999</ele><time>2026-04-14T13:55:50.999Z</time></trkpt><trkpt lat="41.72454116538834" lon="15.741971361334206"><ele>887.6</ele><time>2026-04-14T13:55:53.999Z</time></trkpt><trkpt lat="41.72464216188948" lon="15.74198198493231"><ele>889.8</ele><time>2026-04-14T13:55:55.999Z</time></trkpt><trkpt lat="41.72473923400166" lon="15.741955124623374"><ele>892.0</ele><time>2026-04-14T13:55:56.999Z</time></trkpt><trkpt lat="41.72482382076071" lon="15.741939800040546"><ele>892.0</ele><time>2026-04-14T13:55:57.999Z</time></trkpt><trkpt lat="41.724916986013405" lon="15.741909193533854"><ele>892.0</ele><time>2026-04-14T13:55:58.999Z</time></trkpt><trkpt lat="41.72502294748569" lon="15.741928024601972"><ele>892.0</ele><time>2026-04-14T13:56:00.999Z</time></trkpt><trkpt lat="41.725086934385885" lon="15.741919227819519"><ele>892.0</ele><time>2026-04-14T13:56:01.999Z</time></trkpt><trkpt lat="41.72517563863571" lon="15.741959674148083"><ele>892.0</ele><time>2026-04-14T13:56:03.999Z</time></trkpt><trkpt lat="41.72529224927518" lon="15.742020000872424"><ele>892.8333333333333</ele><time>2026-04-14T13:56:05.999Z</time></trkpt><trkpt lat="41.72536074667929" lon="15.742062180793"><ele>893.6666666666666</ele><time>2026-04-14T13:56:06.999Z</time></trkpt><trkpt lat="41.72543395186455" lon="15.742121520913647"><ele>894.5</ele><time>2026-04-14T13:56:07.999Z</time></trkpt><trkpt lat="41.72549465977004" lon="15.74217944640134"><ele>895.3333333333333</ele><time>2026-04-14T13:56:08.999Z</time></trkpt><trkpt lat="41.72555014009779" lon="15.742284968218415"><ele>896.1666666666666</ele><time>2026-04-14T13:56:10.999Z</time></trkpt><trkpt lat="41.72559033719678" lon="15.742379943344881"><ele>897.0</ele><time>2026-04-14T13:56:12.999Z</time></trkpt><trkpt lat="41.72567316128108" lon="15.742468149560741"><ele>897.0</ele><time>2026-04-14T13:56:14.999Z</time></trkpt><trkpt lat="41.72571866622255" lon="15.742526976056386"><ele>897.0</ele><time>2026-04-14T13:56:15.999Z</time></trkpt><trkpt lat="41.725746126876736" lon="15.742614906464356"><ele>897.0</ele><time>2026-04-14T13:56:16.999Z</time></trkpt><trkpt lat="41.72576723086709" lon="15.742706453877952"><ele>897.0</ele><time>2026-04-14T13:56:17.999Z</time></trkpt><trkpt lat="41.7258006240423" lon="15.742779556492353"><ele>897.0</ele><time>2026-04-14T13:56:18.999Z</time></trkpt><trkpt lat="41.72584862059086" lon="15.742853154973615"><ele>897.0</ele><time>2026-04-14T13:56:19.999Z</time></trkpt><trkpt lat="41.72593806060365" lon="15.742942544731799"><ele>896.1666666666666</ele><time>2026-04-14T13:56:21.999Z</time></trkpt><trkpt lat="41.72605006997604" lon="15.742967401903012"><ele>895.3333333333333</ele><time>2026-04-14T13:56:23.998Z</time></trkpt><trkpt lat="41.726107198696205" lon="15.743047723526482"><ele>894.5</ele><time>2026-04-14T13:56:25.998Z</time></trkpt><trkpt lat="41.72618038705139" lon="15.743074638518797"><ele>893.6666666666666</ele><time>2026-04-14T13:56:27.998Z</time></trkpt><trkpt lat="41.72624535885525" lon="15.743063336561475"><ele>892.8333333333333</ele><time>2026-04-14T13:56:30Z</time></trkpt><trkpt lat="41.72631736911095" lon="15.743041961257981"><ele>892.0</ele><time>2026-04-14T13:58:33.999Z</time></trkpt><trkpt lat="41.726407696057734" lon="15.74300781798017"><ele>892.0</ele><time>2026-04-14T13:58:36Z</time></trkpt><trkpt lat="41.72639555673786" lon="15.743252765713931"><ele>892.0</ele><time>2026-04-14T13:58:41Z</time></trkpt><trkpt lat="41.726374335717985" lon="15.743409665040764"><ele>892.0</ele><time>2026-04-14T13:58:43Z</time></trkpt><trkpt lat="41.72640591060969" lon="15.743492692792188"><ele>892.0</ele><time>2026-04-14T13:58:44Z</time></trkpt><trkpt lat="41.72644406481074" lon="15.743607932855252"><ele>892.4000000000001</ele><time>2026-04-14T13:58:45Z</time></trkpt><trkpt lat="41.72648605137496" lon="15.7437544333695"><ele>892.8000000000001</ele><time>2026-04-14T13:58:47Z</time></trkpt><trkpt lat="41.72652374083199" lon="15.743878139535651"><ele>893.2</ele><time>2026-04-14T13:58:48Z</time></trkpt><trkpt lat="41.726561763102445" lon="15.744047882872211"><ele>893.6</ele><time>2026-04-14T13:58:49Z</time></trkpt><trkpt lat="41.72661654185238" lon="15.744149791958813"><ele>894.0</ele><time>2026-04-14T13:58:50Z</time></trkpt><trkpt lat="41.72668980774238" lon="15.74422299869061"><ele>894.0</ele><time>2026-04-14T13:58:51Z</time></trkpt><trkpt lat="41.726767451952" lon="15.744255198566108"><ele>894.0000000000001</ele><time>2026-04-14T13:58:52Z</time></trkpt><trkpt lat="41.726856615652665" lon="15.744294003582846"><ele>894.0000000000001</ele><time>2026-04-14T13:58:53Z</time></trkpt><trkpt lat="41.72693137432565" lon="15.744342873862129"><ele>894.0</ele><time>2026-04-14T13:58:54Z</time></trkpt><trkpt lat="41.727010481082196" lon="15.744397488687293"><ele>894.0</ele><time>2026-04-14T13:58:55Z</time></trkpt><trkpt lat="41.72712831861057" lon="15.744464008943936"><ele>892.0</ele><time>2026-04-14T13:58:57Z</time></trkpt><trkpt lat="41.727200086138375" lon="15.744481536908859"><ele>890.0</ele><time>2026-04-14T13:58:58Z</time></trkpt><trkpt lat="41.7272816166373" lon="15.744457366185998"><ele>888.0</ele><time>2026-04-14T13:58:59Z</time></trkpt><trkpt lat="41.72736256986416" lon="15.744462484524565"><ele>886.0</ele><time>2026-04-14T13:59:00Z</time></trkpt><trkpt lat="41.7274294027105" lon="15.74440826415795"><ele>884.0</ele><time>2026-04-14T13:59:02Z</time></trkpt><trkpt lat="41.72746155575335" lon="15.744272857173494"><ele>882.0</ele><time>2026-04-14T13:59:04Z</time></trkpt><trkpt lat="41.72754474291352" lon="15.744231540837001"><ele>881.6666666666666</ele><time>2026-04-14T13:59:06Z</time></trkpt><trkpt lat="41.72759962074252" lon="15.744158202258237"><ele>881.3333333333333</ele><time>2026-04-14T13:59:07Z</time></trkpt><trkpt lat="41.72764666317331" lon="15.74407498611472"><ele>881.0</ele><time>2026-04-14T13:59:08Z</time></trkpt><trkpt lat="41.727677602092726" lon="15.743988563604045"><ele>880.6666666666666</ele><time>2026-04-14T13:59:09Z</time></trkpt><trkpt lat="41.727770462802305" lon="15.74399477128807"><ele>880.3333333333333</ele><time>2026-04-14T13:59:11Z</time></trkpt><trkpt lat="41.727838717840996" lon="15.744097905694069"><ele>880.0</ele><time>2026-04-14T13:59:13Z</time></trkpt><trkpt lat="41.727836448022884" lon="15.744194223972285"><ele>878.1666666666666</ele><time>2026-04-14T13:59:14Z</time></trkpt><trkpt lat="41.72785590107237" lon="15.744303284650295"><ele>876.3333333333333</ele><time>2026-04-14T13:59:15Z</time></trkpt><trkpt lat="41.72786437958653" lon="15.744396720131936"><ele>874.5</ele><time>2026-04-14T13:59:15.999Z</time></trkpt><trkpt lat="41.72787225532776" lon="15.744528740317769"><ele>872.6666666666667</ele><time>2026-04-14T13:59:17.999Z</time></trkpt><trkpt lat="41.727938407620165" lon="15.744657385368797"><ele>870.8333333333334</ele><time>2026-04-14T13:59:19.999Z</time></trkpt><trkpt lat="41.72800009763396" lon="15.744678688473886"><ele>869.0</ele><time>2026-04-14T13:59:20.999Z</time></trkpt><trkpt lat="41.728058519023534" lon="15.744734942309906"><ele>869.0</ele><time>2026-04-14T13:59:21.999Z</time></trkpt><trkpt lat="41.72818973321039" lon="15.74482495203135"><ele>869.0000000000001</ele><time>2026-04-14T13:59:23.999Z</time></trkpt><trkpt lat="41.728269611985006" lon="15.74489073582478"><ele>869.0000000000001</ele><time>2026-04-14T13:59:24.999Z</time></trkpt><trkpt lat="41.72833891391716" lon="15.74494865111328"><ele>869.0</ele><time>2026-04-14T13:59:25.999Z</time></trkpt><trkpt lat="41.72841042178927" lon="15.744980412649278"><ele>869.0</ele><time>2026-04-14T13:59:26.999Z</time></trkpt><trkpt lat="41.72848358906235" lon="15.745010125886534"><ele>869.0</ele><time>2026-04-14T13:59:27.999Z</time></trkpt><trkpt lat="41.72854569023051" lon="15.745059456463826"><ele>869.0000000000001</ele><time>2026-04-14T13:59:28.999Z</time></trkpt><trkpt lat="41.72860067650796" lon="15.745110616768745"><ele>869.0000000000001</ele><time>2026-04-14T13:59:29.999Z</time></trkpt><trkpt lat="41.728706470311735" lon="15.745175033886344"><ele>869.0</ele><time>2026-04-14T13:59:31.999Z</time></trkpt><trkpt lat="41.72884047957157" lon="15.745230091458001"><ele>869.0</ele><time>2026-04-14T13:59:33.999Z</time></trkpt><trkpt lat="41.728910389906666" lon="15.745238497333164"><ele>869.1666666666667</ele><time>2026-04-14T13:59:34.999Z</time></trkpt><trkpt lat="41.72898910640065" lon="15.745272868801608"><ele>869.3333333333334</ele><time>2026-04-14T13:59:35.999Z</time></trkpt><trkpt lat="41.72907027994746" lon="15.745318286066041"><ele>869.5</ele><time>2026-04-14T13:59:36.999Z</time></trkpt><trkpt lat="41.72914044578976" lon="15.745367449323895"><ele>869.6666666666667</ele><time>2026-04-14T13:59:37.999Z</time></trkpt><trkpt lat="41.72919802297629" lon="15.745432740643922"><ele>869.8333333333334</ele><time>2026-04-14T13:59:38.999Z</time></trkpt><trkpt lat="41.729257201849066" lon="15.74549581673995"><ele>870.0</ele><time>2026-04-14T13:59:39.999Z</time></trkpt><trkpt lat="41.729320891324626" lon="15.7455643223695"><ele>870.0</ele><time>2026-04-14T13:59:40.999Z</time></trkpt><trkpt lat="41.72938728005603" lon="15.745614929375932"><ele>870.0</ele><time>2026-04-14T13:59:41.999Z</time></trkpt><trkpt lat="41.729442005382374" lon="15.745682460532826"><ele>870.0</ele><time>2026-04-14T13:59:42.999Z</time></trkpt><trkpt lat="41.729516330602124" lon="15.745759423437825"><ele>870.0</ele><time>2026-04-14T13:59:43.999Z</time></trkpt><trkpt lat="41.72957483198784" lon="15.745820577691466"><ele>870.0</ele><time>2026-04-14T13:59:44.999Z</time></trkpt><trkpt lat="41.729653112456774" lon="15.745885933597433"><ele>870.0</ele><time>2026-04-14T13:59:45.999Z</time></trkpt><trkpt lat="41.72971801848568" lon="15.745949520163773"><ele>869.4</ele><time>2026-04-14T13:59:46.999Z</time></trkpt><trkpt lat="41.72979626660463" lon="15.746016425287214"><ele>868.8</ele><time>2026-04-14T13:59:47.999Z</time></trkpt><trkpt lat="41.72987695753241" lon="15.746078834975972"><ele>868.2</ele><time>2026-04-14T13:59:48.999Z</time></trkpt><trkpt lat="41.72995446816644" lon="15.746161699732333"><ele>867.6</ele><time>2026-04-14T13:59:49.999Z</time></trkpt><trkpt lat="41.730027952035556" lon="15.746251932806404"><ele>867.0</ele><time>2026-04-14T13:59:50.999Z</time></trkpt><trkpt lat="41.73008641788474" lon="15.746324311318668"><ele>867.0</ele><time>2026-04-14T13:59:51.999Z</time></trkpt><trkpt lat="41.730139359099695" lon="15.74647944939471"><ele>867.0</ele><time>2026-04-14T13:59:53.999Z</time></trkpt><trkpt lat="41.73012508141904" lon="15.746586191975132"><ele>867.0</ele><time>2026-04-14T13:59:54.999Z</time></trkpt><trkpt lat="41.73011845702782" lon="15.746703644501489"><ele>867.0</ele><time>2026-04-14T13:59:55.999Z</time></trkpt><trkpt lat="41.73013498407661" lon="15.746799244023016"><ele>867.0</ele><time>2026-04-14T13:59:56.999Z</time></trkpt><trkpt lat="41.730133862954474" lon="15.746885970246664"><ele>867.0</ele><time>2026-04-14T13:59:57.999Z</time></trkpt><trkpt lat="41.7301083858673" lon="15.746964787799326"><ele>866.6666666666666</ele><time>2026-04-14T13:59:58.999Z</time></trkpt><trkpt lat="41.730087265239206" lon="15.747086400795421"><ele>866.3333333333333</ele><time>2026-04-14T13:59:59.999Z</time></trkpt><trkpt lat="41.73007423119563" lon="15.747196277233094"><ele>866.0</ele><time>2026-04-14T14:00:00.999Z</time></trkpt><trkpt lat="41.73007528433292" lon="15.747291991406591"><ele>865.6666666666666</ele><time>2026-04-14T14:00:01.999Z</time></trkpt><trkpt lat="41.73012933480909" lon="15.747368966842409"><ele>865.3333333333333</ele><time>2026-04-14T14:00:03.999Z</time></trkpt><trkpt lat="41.73020507483568" lon="15.747496984830152"><ele>865.0</ele><time>2026-04-14T14:00:05.999Z</time></trkpt><trkpt lat="41.730230590074754" lon="15.747577632215531"><ele>862.5714285714286</ele><time>2026-04-14T14:00:06.999Z</time></trkpt><trkpt lat="41.73027374686524" lon="15.747650113997013"><ele>860.1428571428571</ele><time>2026-04-14T14:00:07.999Z</time></trkpt><trkpt lat="41.73031466535648" lon="15.747730246405125"><ele>857.7142857142858</ele><time>2026-04-14T14:00:08.999Z</time></trkpt><trkpt lat="41.73033385171934" lon="15.747824355490742"><ele>855.2857142857142</ele><time>2026-04-14T14:00:09.999Z</time></trkpt><trkpt lat="41.73035550253738" lon="15.747934057090026"><ele>852.8571428571428</ele><time>2026-04-14T14:00:10.999Z</time></trkpt><trkpt lat="41.73038467349835" lon="15.748026210119898"><ele>850.4285714285714</ele><time>2026-04-14T14:00:11.999Z</time></trkpt><trkpt lat="41.73043576232294" lon="15.748092065012614"><ele>848.0</ele><time>2026-04-14T14:00:12.999Z</time></trkpt><trkpt lat="41.730472548188935" lon="15.74816297874824"><ele>847.1666666666667</ele><time>2026-04-14T14:00:13.999Z</time></trkpt><trkpt lat="41.73050620441308" lon="15.74824105278882"><ele>846.3333333333334</ele><time>2026-04-14T14:00:14.999Z</time></trkpt><trkpt lat="41.73054928366714" lon="15.748314403533945"><ele>845.5</ele><time>2026-04-14T14:00:15.999Z</time></trkpt><trkpt lat="41.730615437040285" lon="15.748453892867932"><ele>844.6666666666667</ele><time>2026-04-14T14:00:17.999Z</time></trkpt><trkpt lat="41.73065510513267" lon="15.748534802051681"><ele>843.8333333333334</ele><time>2026-04-14T14:00:18.999Z</time></trkpt><trkpt lat="41.730690847133104" lon="15.748634314351994"><ele>843.0</ele><time>2026-04-14T14:00:19.999Z</time></trkpt><trkpt lat="41.730719436861214" lon="15.748725902556638"><ele>842.2</ele><time>2026-04-14T14:00:20.999Z</time></trkpt><trkpt lat="41.730770716666875" lon="15.748893913419574"><ele>841.4</ele><time>2026-04-14T14:00:22.999Z</time></trkpt><trkpt lat="41.730749409840215" lon="15.749061928003202"><ele>840.6</ele><time>2026-04-14T14:00:24.999Z</time></trkpt><trkpt lat="41.730738943301" lon="15.749146187875516"><ele>839.8000000000001</ele><time>2026-04-14T14:00:25.999Z</time></trkpt><trkpt lat="41.730723265983535" lon="15.749273198913677"><ele>839.0</ele><time>2026-04-14T14:00:27.999Z</time></trkpt><trkpt lat="41.73071393661676" lon="15.749359544904488"><ele>839.0</ele><time>2026-04-14T14:00:29.999Z</time></trkpt><trkpt lat="41.73087896614272" lon="15.749210412823079"><ele>839.0</ele><time>2026-04-14T14:00:34.999Z</time></trkpt><trkpt lat="41.73092322631708" lon="15.749149246204668"><ele>839.0</ele><time>2026-04-14T14:00:35.999Z</time></trkpt><trkpt lat="41.73098480057416" lon="15.749082492505405"><ele>839.0</ele><time>2026-04-14T14:00:37.999Z</time></trkpt><trkpt lat="41.731089809638334" lon="15.74902535290098"><ele>834.2</ele><time>2026-04-14T14:00:39.999Z</time></trkpt><trkpt lat="41.73117959253395" lon="15.748933456909835"><ele>829.4000000000001</ele><time>2026-04-14T14:00:42Z</time></trkpt><trkpt lat="41.73124421956541" lon="15.748818267541859"><ele>824.6</ele><time>2026-04-14T14:00:44Z</time></trkpt><trkpt lat="41.73130296275954" lon="15.748737473172714"><ele>819.8</ele><time>2026-04-14T14:00:46Z</time></trkpt><trkpt lat="41.73136059611065" lon="15.748815533911314"><ele>815.0</ele><time>2026-04-14T14:00:48Z</time></trkpt><trkpt lat="41.73141454443271" lon="15.748764695510989"><ele>815.0</ele><time>2026-04-14T14:00:52Z</time></trkpt><trkpt lat="41.73148066628473" lon="15.748740428341751"><ele>815.0</ele><time>2026-04-14T14:00:54Z</time></trkpt><trkpt lat="41.73154082475628" lon="15.748677087304904"><ele>815.0</ele><time>2026-04-14T14:00:56Z</time></trkpt><trkpt lat="41.7315912555648" lon="15.748625836904365"><ele>815.0</ele><time>2026-04-14T14:00:58Z</time></trkpt><trkpt lat="41.73162933588373" lon="15.74890169664364"><ele>815.0</ele><time>2026-04-14T14:01:03Z</time></trkpt><trkpt lat="41.73162217277455" lon="15.749059030754548"><ele>815.0</ele><time>2026-04-14T14:01:05Z</time></trkpt><trkpt lat="41.731607281703155" lon="15.749147717806816"><ele>815.0</ele><time>2026-04-14T14:01:06Z</time></trkpt><trkpt lat="41.73156733622759" lon="15.749298619781644"><ele>815.0</ele><time>2026-04-14T14:01:08Z</time></trkpt><trkpt lat="41.73153112123087" lon="15.749383251804717"><ele>815.0</ele><time>2026-04-14T14:01:10Z</time></trkpt><trkpt lat="41.73149806670865" lon="15.749497148987505"><ele>815.0</ele><time>2026-04-14T14:01:13Z</time></trkpt><trkpt lat="41.73152738851151" lon="15.749627633970695"><ele>813.0</ele><time>2026-04-14T14:01:16Z</time></trkpt><trkpt lat="41.73157199647049" lon="15.749705200281044"><ele>811.0</ele><time>2026-04-14T14:01:17Z</time></trkpt><trkpt lat="41.731635975282856" lon="15.749815870662548"><ele>809.0</ele><time>2026-04-14T14:01:18Z</time></trkpt><trkpt lat="41.73172375006493" lon="15.749946936258052"><ele>807.0</ele><time>2026-04-14T14:01:19Z</time></trkpt><trkpt lat="41.73182213814751" lon="15.750104696481099"><ele>805.6</ele><time>2026-04-14T14:01:20Z</time></trkpt><trkpt lat="41.73191044950217" lon="15.750256692812146"><ele>804.2</ele><time>2026-04-14T14:01:21Z</time></trkpt><trkpt lat="41.73196854594247" lon="15.75036369784927"><ele>802.8</ele><time>2026-04-14T14:01:22Z</time></trkpt><trkpt lat="41.732001908035144" lon="15.750480048824391"><ele>801.4</ele><time>2026-04-14T14:01:24Z</time></trkpt><trkpt lat="41.73195386254839" lon="15.750578211715586"><ele>800.0</ele><time>2026-04-14T14:01:27Z</time></trkpt><trkpt lat="41.731881990726805" lon="15.750959505670902"><ele>801.25</ele><time>2026-04-14T14:02:10.999Z</time></trkpt><trkpt lat="41.731900419230264" lon="15.75116862072628"><ele>802.5</ele><time>2026-04-14T14:02:11.999Z</time></trkpt><trkpt lat="41.731916560053165" lon="15.751392211873132"><ele>803.75</ele><time>2026-04-14T14:02:12.999Z</time></trkpt><trkpt lat="41.731941810750264" lon="15.751541960741854"><ele>805.0</ele><time>2026-04-14T14:02:13.999Z</time></trkpt><trkpt lat="41.73199434680036" lon="15.751634616781192"><ele>805.0</ele><time>2026-04-14T14:02:14.999Z</time></trkpt><trkpt lat="41.73208189005956" lon="15.751693890006404"><ele>805.0</ele><time>2026-04-14T14:02:15.999Z</time></trkpt><trkpt lat="41.73218236932511" lon="15.751741285737726"><ele>805.0</ele><time>2026-04-14T14:02:16.999Z</time></trkpt><trkpt lat="41.73232709295918" lon="15.75181997912682"><ele>805.0</ele><time>2026-04-14T14:02:17.999Z</time></trkpt><trkpt lat="41.732513871129576" lon="15.751915617688079"><ele>809.0</ele><time>2026-04-14T14:02:18.999Z</time></trkpt><trkpt lat="41.73267435844225" lon="15.752013372264729"><ele>813.0</ele><time>2026-04-14T14:02:19.999Z</time></trkpt><trkpt lat="41.732820748123956" lon="15.752087193271795"><ele>817.0</ele><time>2026-04-14T14:02:20.999Z</time></trkpt><trkpt lat="41.732980130311056" lon="15.752153632495084"><ele>817.0</ele><time>2026-04-14T14:02:21.999Z</time></trkpt><trkpt lat="41.733108488925666" lon="15.752226840823036"><ele>817.0</ele><time>2026-04-14T14:02:22.999Z</time></trkpt><trkpt lat="41.733205966459735" lon="15.752325313335556"><ele>817.0</ele><time>2026-04-14T14:02:23.999Z</time></trkpt><trkpt lat="41.73332638190691" lon="15.752455566416405"><ele>817.0</ele><time>2026-04-14T14:02:24.999Z</time></trkpt><trkpt lat="41.73347684971983" lon="15.75262333175308"><ele>817.6666666666666</ele><time>2026-04-14T14:02:25.999Z</time></trkpt><trkpt lat="41.733614204949006" lon="15.752764469623724"><ele>818.3333333333333</ele><time>2026-04-14T14:02:26.999Z</time></trkpt><trkpt lat="41.7337165837204" lon="15.752891834509958"><ele>819.0</ele><time>2026-04-14T14:02:27.999Z</time></trkpt><trkpt lat="41.73381448540412" lon="15.753022252341976"><ele>819.0</ele><time>2026-04-14T14:02:28.999Z</time></trkpt><trkpt lat="41.73390060481728" lon="15.753132974663215"><ele>819.0</ele><time>2026-04-14T14:02:29.999Z</time></trkpt><trkpt lat="41.73399625271447" lon="15.753266518591513"><ele>819.0</ele><time>2026-04-14T14:02:30.999Z</time></trkpt><trkpt lat="41.73408373408574" lon="15.75342544087049"><ele>819.0</ele><time>2026-04-14T14:02:31.999Z</time></trkpt><trkpt lat="41.73416615846682" lon="15.753592675559284"><ele>815.5</ele><time>2026-04-14T14:02:32.999Z</time></trkpt><trkpt lat="41.73423732871779" lon="15.753755556107496"><ele>812.0</ele><time>2026-04-14T14:02:33.999Z</time></trkpt><trkpt lat="41.73429373884583" lon="15.753933260136531"><ele>808.5</ele><time>2026-04-14T14:02:34.999Z</time></trkpt><trkpt lat="41.73435312308516" lon="15.754138446105818"><ele>805.0</ele><time>2026-04-14T14:02:35.999Z</time></trkpt><trkpt lat="41.73441096561679" lon="15.754338204624586"><ele>807.25</ele><time>2026-04-14T14:02:36.999Z</time></trkpt><trkpt lat="41.73446519996911" lon="15.75454454606235"><ele>809.5</ele><time>2026-04-14T14:02:37.999Z</time></trkpt><trkpt lat="41.734477514093754" lon="15.754709156071364"><ele>811.75</ele><time>2026-04-14T14:02:38.999Z</time></trkpt><trkpt lat="41.7344876383291" lon="15.754880598839373"><ele>814.0</ele><time>2026-04-14T14:02:39.999Z</time></trkpt><trkpt lat="41.73452220206073" lon="15.755068498636861"><ele>816.75</ele><time>2026-04-14T14:02:40.999Z</time></trkpt><trkpt lat="41.73456319883384" lon="15.755259660535716"><ele>819.5</ele><time>2026-04-14T14:02:41.999Z</time></trkpt><trkpt lat="41.73459539881222" lon="15.755447578855732"><ele>822.25</ele><time>2026-04-14T14:02:42.999Z</time></trkpt><trkpt lat="41.734615303261364" lon="15.755650263129407"><ele>825.0</ele><time>2026-04-14T14:02:43.999Z</time></trkpt><trkpt lat="41.73462519832951" lon="15.755867281181782"><ele>826.5</ele><time>2026-04-14T14:02:44.999Z</time></trkpt><trkpt lat="41.734658392903846" lon="15.756066937268754"><ele>828.0</ele><time>2026-04-14T14:02:45.999Z</time></trkpt><trkpt lat="41.73466527797105" lon="15.75625463661971"><ele>829.5</ele><time>2026-04-14T14:02:46.999Z</time></trkpt><trkpt lat="41.73466900304705" lon="15.756455351979474"><ele>831.0</ele><time>2026-04-14T14:02:48Z</time></trkpt><trkpt lat="41.73467620831722" lon="15.756653323720542"><ele>831.0</ele><time>2026-04-14T14:02:49Z</time></trkpt><trkpt lat="41.73467183750856" lon="15.756779058904371"><ele>831.0</ele><time>2026-04-14T14:02:50Z</time></trkpt><trkpt lat="41.73467436560648" lon="15.75691021120137"><ele>831.0</ele><time>2026-04-14T14:02:51Z</time></trkpt><trkpt lat="41.73466972470076" lon="15.757059236103116"><ele>831.0</ele><time>2026-04-14T14:02:52Z</time></trkpt><trkpt lat="41.7346852837995" lon="15.757253303229149"><ele>831.0</ele><time>2026-04-14T14:02:53Z</time></trkpt><trkpt lat="41.73467042753687" lon="15.757440271799911"><ele>833.0</ele><time>2026-04-14T14:02:54Z</time></trkpt><trkpt lat="41.73471846722409" lon="15.757572794819064"><ele>835.0</ele><time>2026-04-14T14:02:55Z</time></trkpt><trkpt lat="41.73475882100427" lon="15.757645978080086"><ele>837.0</ele><time>2026-04-14T14:02:56Z</time></trkpt><trkpt lat="41.73483386400698" lon="15.758039966971861"><ele>837.75</ele><time>2026-04-14T14:02:58Z</time></trkpt><trkpt lat="41.734836974643244" lon="15.758192208601551"><ele>838.5</ele><time>2026-04-14T14:02:59Z</time></trkpt><trkpt lat="41.73485597907456" lon="15.758358265100812"><ele>839.25</ele><time>2026-04-14T14:03:00Z</time></trkpt><trkpt lat="41.73484117804096" lon="15.75855328231803"><ele>840.0</ele><time>2026-04-14T14:03:01Z</time></trkpt><trkpt lat="41.73485540703837" lon="15.75883865183739"><ele>840.0</ele><time>2026-04-14T14:03:02Z</time></trkpt><trkpt lat="41.734847833747075" lon="15.759046603163236"><ele>840.0</ele><time>2026-04-14T14:03:03Z</time></trkpt><trkpt lat="41.73481500158255" lon="15.759214529440191"><ele>840.0</ele><time>2026-04-14T14:03:04Z</time></trkpt><trkpt lat="41.73479937541042" lon="15.759428119021035"><ele>840.0</ele><time>2026-04-14T14:03:05Z</time></trkpt><trkpt lat="41.73472861019868" lon="15.759641052831569"><ele>840.0</ele><time>2026-04-14T14:03:06Z</time></trkpt><trkpt lat="41.73468851033243" lon="15.759836738974311"><ele>840.0</ele><time>2026-04-14T14:03:07Z</time></trkpt><trkpt lat="41.73467210686902" lon="15.75998094652177"><ele>840.0</ele><time>2026-04-14T14:03:08Z</time></trkpt><trkpt lat="41.73464235537105" lon="15.760116399818674"><ele>840.0</ele><time>2026-04-14T14:03:09Z</time></trkpt><trkpt lat="41.73464534636813" lon="15.76029879949258"><ele>840.75</ele><time>2026-04-14T14:03:10Z</time></trkpt><trkpt lat="41.73460677878088" lon="15.760442348151344"><ele>841.5</ele><time>2026-04-14T14:03:11Z</time></trkpt><trkpt lat="41.73463459949938" lon="15.760641761121803"><ele>842.25</ele><time>2026-04-14T14:03:12Z</time></trkpt><trkpt lat="41.734661409691924" lon="15.760867726694869"><ele>843.0</ele><time>2026-04-14T14:03:13Z</time></trkpt><trkpt lat="41.73470931320153" lon="15.761070091912684"><ele>843.5999999999999</ele><time>2026-04-14T14:03:14Z</time></trkpt><trkpt lat="41.73474806546349" lon="15.761206677228765"><ele>844.1999999999999</ele><time>2026-04-14T14:03:15Z</time></trkpt><trkpt lat="41.73480309118706" lon="15.76129898033066"><ele>844.8</ele><time>2026-04-14T14:03:16Z</time></trkpt><trkpt lat="41.734853515928236" lon="15.761383292613843"><ele>845.4</ele><time>2026-04-14T14:03:17Z</time></trkpt><trkpt lat="41.7349252603166" lon="15.7614535176351"><ele>846.0</ele><time>2026-04-14T14:03:18Z</time></trkpt><trkpt lat="41.73500758790823" lon="15.761514995907556"><ele>846.0</ele><time>2026-04-14T14:03:19Z</time></trkpt><trkpt lat="41.735075312895816" lon="15.761548344354324"><ele>846.0</ele><time>2026-04-14T14:03:20Z</time></trkpt><trkpt lat="41.735120567220896" lon="15.761613638502961"><ele>846.0</ele><time>2026-04-14T14:03:22Z</time></trkpt><trkpt lat="41.73518151131131" lon="15.76190219700554"><ele>846.0</ele><time>2026-04-14T14:03:51.999Z</time></trkpt><trkpt lat="41.73522478214722" lon="15.762098827071153"><ele>848.0</ele><time>2026-04-14T14:03:52.999Z</time></trkpt><trkpt lat="41.735271992545" lon="15.76227542069249"><ele>850.0</ele><time>2026-04-14T14:03:53.999Z</time></trkpt><trkpt lat="41.7353336691328" lon="15.762453355306775"><ele>852.0</ele><time>2026-04-14T14:03:54.999Z</time></trkpt><trkpt lat="41.735384390992" lon="15.762611884585779"><ele>854.0</ele><time>2026-04-14T14:03:55.999Z</time></trkpt><trkpt lat="41.73543977943072" lon="15.76274516874855"><ele>855.0</ele><time>2026-04-14T14:03:56.999Z</time></trkpt><trkpt lat="41.73550286813494" lon="15.76286108479357"><ele>856.0000000000001</ele><time>2026-04-14T14:03:57.999Z</time></trkpt><trkpt lat="41.73557043578986" lon="15.762971264043134"><ele>857.0000000000001</ele><time>2026-04-14T14:03:58.999Z</time></trkpt><trkpt lat="41.73564056507407" lon="15.763047537961207"><ele>858.0</ele><time>2026-04-14T14:03:59.999Z</time></trkpt><trkpt lat="41.73569859557337" lon="15.763125786017264"><ele>859.0</ele><time>2026-04-14T14:04:01.999Z</time></trkpt><trkpt lat="41.735707694557235" lon="15.763264775354315"><ele>858.9999999999999</ele><time>2026-04-14T14:04:06.999Z</time></trkpt><trkpt lat="41.73578101062297" lon="15.763352019802957"><ele>859.0</ele><time>2026-04-14T14:04:10.999Z</time></trkpt><trkpt lat="41.73585866408649" lon="15.76337413926579"><ele>859.0</ele><time>2026-04-14T14:04:13.999Z</time></trkpt><trkpt lat="41.73594666477202" lon="15.763330246620542"><ele>859.0</ele><time>2026-04-14T14:04:15.999Z</time></trkpt><trkpt lat="41.73601345948528" lon="15.763293816284154"><ele>858.9999999999999</ele><time>2026-04-14T14:04:17.999Z</time></trkpt><trkpt lat="41.736059142484805" lon="15.763357446664276"><ele>859.0</ele><time>2026-04-14T14:04:19.999Z</time></trkpt><trkpt lat="41.73616312157234" lon="15.763451462166184"><ele>860.25</ele><time>2026-04-14T14:04:21.999Z</time></trkpt><trkpt lat="41.73623284658138" lon="15.763522363161348"><ele>861.5</ele><time>2026-04-14T14:04:24.999Z</time></trkpt><trkpt lat="41.73631967389137" lon="15.76358727158773"><ele>862.75</ele><time>2026-04-14T14:04:26.999Z</time></trkpt><trkpt lat="41.73641610497494" lon="15.76376557637291"><ele>864.0</ele><time>2026-04-14T14:04:27.999Z</time></trkpt><trkpt lat="41.736500880097736" lon="15.763832309704128"><ele>864.0</ele><time>2026-04-14T14:04:28.999Z</time></trkpt><trkpt lat="41.7365801352305" lon="15.76389732461523"><ele>864.0000000000001</ele><time>2026-04-14T14:04:29.999Z</time></trkpt><trkpt lat="41.7366574413254" lon="15.763970083756098"><ele>864.0000000000001</ele><time>2026-04-14T14:04:30.999Z</time></trkpt><trkpt lat="41.736718978599086" lon="15.764056645654305"><ele>864.0</ele><time>2026-04-14T14:04:31.999Z</time></trkpt><trkpt lat="41.73679845680071" lon="15.764133168260031"><ele>864.0</ele><time>2026-04-14T14:04:32.999Z</time></trkpt><trkpt lat="41.736898963440744" lon="15.764190797730809"><ele>864.0</ele><time>2026-04-14T14:04:33.999Z</time></trkpt><trkpt lat="41.73700766761379" lon="15.764296847879526"><ele>864.0</ele><time>2026-04-14T14:04:34.999Z</time></trkpt><trkpt lat="41.737103681825815" lon="15.764401395305168"><ele>864.0</ele><time>2026-04-14T14:04:35.999Z</time></trkpt><trkpt lat="41.73721392102468" lon="15.764520599280084"><ele>864.0</ele><time>2026-04-14T14:04:36.999Z</time></trkpt><trkpt lat="41.73732877287516" lon="15.764629754531004"><ele>863.0</ele><time>2026-04-14T14:04:37.999Z</time></trkpt><trkpt lat="41.73742447806804" lon="15.764724971790693"><ele>862.0</ele><time>2026-04-14T14:04:38.999Z</time></trkpt><trkpt lat="41.73747998556593" lon="15.764836679339576"><ele>861.0</ele><time>2026-04-14T14:04:39.999Z</time></trkpt><trkpt lat="41.73755700348705" lon="15.764965219623239"><ele>860.0</ele><time>2026-04-14T14:04:40.999Z</time></trkpt><trkpt lat="41.73763701973656" lon="15.765061708627327"><ele>860.2</ele><time>2026-04-14T14:04:41.999Z</time></trkpt><trkpt lat="41.73772044923101" lon="15.765103296072242"><ele>860.4</ele><time>2026-04-14T14:04:42.999Z</time></trkpt><trkpt lat="41.73778242447584" lon="15.76514467942066"><ele>860.5999999999999</ele><time>2026-04-14T14:04:43.999Z</time></trkpt><trkpt lat="41.73782495010396" lon="15.765307711318016"><ele>860.8</ele><time>2026-04-14T14:04:45.999Z</time></trkpt><trkpt lat="41.737816793685624" lon="15.765416816205374"><ele>861.0</ele><time>2026-04-14T14:04:46.999Z</time></trkpt><trkpt lat="41.737810009953826" lon="15.765536508503965"><ele>860.6666666666666</ele><time>2026-04-14T14:04:47.999Z</time></trkpt><trkpt lat="41.73779209286652" lon="15.765670064557867"><ele>860.3333333333333</ele><time>2026-04-14T14:04:48.999Z</time></trkpt><trkpt lat="41.73777387417698" lon="15.765793737285657"><ele>860.0</ele><time>2026-04-14T14:04:49.999Z</time></trkpt><trkpt lat="41.7377549910996" lon="15.765909003785"><ele>859.6666666666666</ele><time>2026-04-14T14:04:50.999Z</time></trkpt><trkpt lat="41.737734071229895" lon="15.766013594720778"><ele>859.3333333333333</ele><time>2026-04-14T14:04:51.999Z</time></trkpt><trkpt lat="41.73773091376012" lon="15.766113618591755"><ele>859.0</ele><time>2026-04-14T14:04:52.999Z</time></trkpt><trkpt lat="41.73776509076125" lon="15.766223609362491"><ele>858.9999999999999</ele><time>2026-04-14T14:04:54Z</time></trkpt><trkpt lat="41.737826711086086" lon="15.766281690757891"><ele>859.0</ele><time>2026-04-14T14:04:55Z</time></trkpt><trkpt lat="41.73790859598029" lon="15.766296940813335"><ele>859.0</ele><time>2026-04-14T14:04:56Z</time></trkpt><trkpt lat="41.737989123510445" lon="15.766326532810057"><ele>859.0</ele><time>2026-04-14T14:04:57Z</time></trkpt><trkpt lat="41.73804038451493" lon="15.766400800301888"><ele>858.9999999999999</ele><time>2026-04-14T14:04:58Z</time></trkpt><trkpt lat="41.738061691892" lon="15.766524416667508"><ele>859.0</ele><time>2026-04-14T14:04:59Z</time></trkpt><trkpt lat="41.738097199657204" lon="15.766680489634957"><ele>859.0</ele><time>2026-04-14T14:05:00Z</time></trkpt><trkpt lat="41.73813044613508" lon="15.76681903346253"><ele>859.0000000000001</ele><time>2026-04-14T14:05:01Z</time></trkpt><trkpt lat="41.73815479287813" lon="15.766922152022374"><ele>859.0000000000001</ele><time>2026-04-14T14:05:02Z</time></trkpt><trkpt lat="41.738140112381835" lon="15.767059954272897"><ele>859.0</ele><time>2026-04-14T14:05:04Z</time></trkpt><trkpt lat="41.7380750395663" lon="15.767144360469434"><ele>859.0</ele><time>2026-04-14T14:05:06Z</time></trkpt><trkpt lat="41.73805662622806" lon="15.767238522677351"><ele>858.6666666666666</ele><time>2026-04-14T14:05:07Z</time></trkpt><trkpt lat="41.738048461284976" lon="15.767409697523549"><ele>858.3333333333333</ele><time>2026-04-14T14:05:09Z</time></trkpt><trkpt lat="41.73805563319819" lon="15.76750539850126"><ele>858.0</ele><time>2026-04-14T14:05:10Z</time></trkpt><trkpt lat="41.73804263197365" lon="15.76759889017586"><ele>857.6666666666667</ele><time>2026-04-14T14:05:11Z</time></trkpt><trkpt lat="41.73799676213292" lon="15.76766175018489"><ele>857.3333333333334</ele><time>2026-04-14T14:05:12Z</time></trkpt><trkpt lat="41.73794728412709" lon="15.767718564373746"><ele>857.0</ele><time>2026-04-14T14:05:13Z</time></trkpt><trkpt lat="41.73790700778316" lon="15.76779686415552"><ele>857.6666666666667</ele><time>2026-04-14T14:05:14Z</time></trkpt><trkpt lat="41.73786959663758" lon="15.767962948210718"><ele>858.3333333333334</ele><time>2026-04-14T14:05:16Z</time></trkpt><trkpt lat="41.737860669065135" lon="15.768061219344117"><ele>859.0</ele><time>2026-04-14T14:05:17Z</time></trkpt><trkpt lat="41.737861557699176" lon="15.768161328392113"><ele>859.6666666666667</ele><time>2026-04-14T14:05:18Z</time></trkpt><trkpt lat="41.73787634828679" lon="15.768281564482344"><ele>860.3333333333334</ele><time>2026-04-14T14:05:19Z</time></trkpt><trkpt lat="41.737913182663505" lon="15.768375637364452"><ele>861.0</ele><time>2026-04-14T14:05:20Z</time></trkpt><trkpt lat="41.737972631881114" lon="15.768415475994066"><ele>861.0</ele><time>2026-04-14T14:05:21Z</time></trkpt><trkpt lat="41.73804167943946" lon="15.76844094247141"><ele>860.9999999999999</ele><time>2026-04-14T14:05:22Z</time></trkpt><trkpt lat="41.73813914697861" lon="15.768467513715832"><ele>860.9999999999999</ele><time>2026-04-14T14:05:23Z</time></trkpt><trkpt lat="41.73825294596824" lon="15.768501947689678"><ele>861.0</ele><time>2026-04-14T14:05:24Z</time></trkpt><trkpt lat="41.738370838670086" lon="15.768554229398028"><ele>861.0</ele><time>2026-04-14T14:05:25Z</time></trkpt><trkpt lat="41.738491528347105" lon="15.76860706070581"><ele>861.0</ele><time>2026-04-14T14:05:26Z</time></trkpt><trkpt lat="41.738588441099466" lon="15.768633383684262"><ele>860.9999999999999</ele><time>2026-04-14T14:05:27Z</time></trkpt><trkpt lat="41.738680607725634" lon="15.768630362923574"><ele>860.9999999999999</ele><time>2026-04-14T14:05:28Z</time></trkpt><trkpt lat="41.73878020121752" lon="15.76860139751952"><ele>861.0</ele><time>2026-04-14T14:05:29Z</time></trkpt><trkpt lat="41.738878201468474" lon="15.768559513295491"><ele>861.0</ele><time>2026-04-14T14:05:30Z</time></trkpt><trkpt lat="41.73896623620802" lon="15.768516274257445"><ele>861.5</ele><time>2026-04-14T14:05:31Z</time></trkpt><trkpt lat="41.73903480662528" lon="15.768471508287776"><ele>862.0</ele><time>2026-04-14T14:05:32Z</time></trkpt><trkpt lat="41.73913904964908" lon="15.768385612403845"><ele>862.5</ele><time>2026-04-14T14:05:34Z</time></trkpt><trkpt lat="41.73918312224126" lon="15.76830913180268"><ele>863.0</ele><time>2026-04-14T14:05:35Z</time></trkpt><trkpt lat="41.739220272096055" lon="15.768214845207748"><ele>863.5</ele><time>2026-04-14T14:05:36Z</time></trkpt><trkpt lat="41.73925290772668" lon="15.76813505726901"><ele>864.0</ele><time>2026-04-14T14:05:37Z</time></trkpt><trkpt lat="41.739277539546826" lon="15.76803238089488"><ele>864.0</ele><time>2026-04-14T14:05:38Z</time></trkpt><trkpt lat="41.7393274538435" lon="15.767942252732706"><ele>864.0</ele><time>2026-04-14T14:05:39Z</time></trkpt><trkpt lat="41.73939083215536" lon="15.767878370099494"><ele>864.0</ele><time>2026-04-14T14:05:40Z</time></trkpt><trkpt lat="41.73944031625277" lon="15.767825820909263"><ele>864.0</ele><time>2026-04-14T14:05:41Z</time></trkpt><trkpt lat="41.73948382062357" lon="15.767757400438356"><ele>864.0</ele><time>2026-04-14T14:05:42Z</time></trkpt><trkpt lat="41.73951947153295" lon="15.76767851738166"><ele>864.0</ele><time>2026-04-14T14:05:43Z</time></trkpt><trkpt lat="41.73957853803257" lon="15.767520392477074"><ele>864.5</ele><time>2026-04-14T14:05:45Z</time></trkpt><trkpt lat="41.73962286687445" lon="15.767438326447449"><ele>865.0</ele><time>2026-04-14T14:05:46Z</time></trkpt><trkpt lat="41.73967099804045" lon="15.767344220140078"><ele>865.5</ele><time>2026-04-14T14:05:47Z</time></trkpt><trkpt lat="41.739708764167396" lon="15.767255460690041"><ele>866.0</ele><time>2026-04-14T14:05:48Z</time></trkpt><trkpt lat="41.739745967879266" lon="15.767179089614096"><ele>866.5</ele><time>2026-04-14T14:05:49Z</time></trkpt><trkpt lat="41.739797396835606" lon="15.767122721756705"><ele>867.0</ele><time>2026-04-14T14:05:49.999Z</time></trkpt><trkpt lat="41.739905250592265" lon="15.76712158751356"><ele>867.0</ele><time>2026-04-14T14:05:51.999Z</time></trkpt><trkpt lat="41.73999975177709" lon="15.767105240213569"><ele>867.0</ele><time>2026-04-14T14:05:53.999Z</time></trkpt><trkpt lat="41.74008172286576" lon="15.767081016010565"><ele>867.0</ele><time>2026-04-14T14:05:55.999Z</time></trkpt><trkpt lat="41.740100809356775" lon="15.767330987930691"><ele>867.0</ele><time>2026-04-14T14:06:36.999Z</time></trkpt><trkpt lat="41.740133522950586" lon="15.767418209156045"><ele>867.0</ele><time>2026-04-14T14:06:37.999Z</time></trkpt><trkpt lat="41.74018703317395" lon="15.767496219736532"><ele>866.0</ele><time>2026-04-14T14:06:38.999Z</time></trkpt><trkpt lat="41.74024934896877" lon="15.76757675513643"><ele>865.0</ele><time>2026-04-14T14:06:39.999Z</time></trkpt><trkpt lat="41.74030932825864" lon="15.76766752239751"><ele>864.0</ele><time>2026-04-14T14:06:40.999Z</time></trkpt><trkpt lat="41.74036471726359" lon="15.767764727837976"><ele>863.0</ele><time>2026-04-14T14:06:41.999Z</time></trkpt><trkpt lat="41.74042107151354" lon="15.76785145592191"><ele>862.0</ele><time>2026-04-14T14:06:42.999Z</time></trkpt><trkpt lat="41.74047505558843" lon="15.767923872602806"><ele>861.0</ele><time>2026-04-14T14:06:43.999Z</time></trkpt><trkpt lat="41.7405356705996" lon="15.767986218173949"><ele>860.1666666666666</ele><time>2026-04-14T14:06:44.999Z</time></trkpt><trkpt lat="41.74059716991242" lon="15.76803553162514"><ele>859.3333333333333</ele><time>2026-04-14T14:06:45.999Z</time></trkpt><trkpt lat="41.74065942488299" lon="15.768102711140635"><ele>858.5</ele><time>2026-04-14T14:06:46.999Z</time></trkpt><trkpt lat="41.74069597763418" lon="15.768184973045882"><ele>857.6666666666666</ele><time>2026-04-14T14:06:47.999Z</time></trkpt><trkpt lat="41.740733040814035" lon="15.768315568809832"><ele>856.8333333333333</ele><time>2026-04-14T14:06:48.999Z</time></trkpt><trkpt lat="41.740765568007376" lon="15.768444089317212"><ele>856.0</ele><time>2026-04-14T14:06:49.999Z</time></trkpt><trkpt lat="41.7408166274853" lon="15.768591655928132"><ele>855.8333333333333</ele><time>2026-04-14T14:06:50.999Z</time></trkpt><trkpt lat="41.74087593636159" lon="15.768715909853638"><ele>855.6666666666666</ele><time>2026-04-14T14:06:51.999Z</time></trkpt><trkpt lat="41.74092791610193" lon="15.768816097673746"><ele>855.5</ele><time>2026-04-14T14:06:52.999Z</time></trkpt><trkpt lat="41.74095388045757" lon="15.768913393639615"><ele>855.3333333333333</ele><time>2026-04-14T14:06:53.999Z</time></trkpt><trkpt lat="41.74095089116616" lon="15.769022272574604"><ele>855.1666666666666</ele><time>2026-04-14T14:06:54.999Z</time></trkpt><trkpt lat="41.74094903086523" lon="15.769114496952707"><ele>855.0</ele><time>2026-04-14T14:06:55.999Z</time></trkpt><trkpt lat="41.740948616823864" lon="15.76920592325453"><ele>855.0</ele><time>2026-04-14T14:06:56.999Z</time></trkpt><trkpt lat="41.74094176321882" lon="15.769306376958854"><ele>855.0</ele><time>2026-04-14T14:06:57.999Z</time></trkpt><trkpt lat="41.74092431034644" lon="15.769406233592623"><ele>855.0</ele><time>2026-04-14T14:06:58.999Z</time></trkpt><trkpt lat="41.74091028609783" lon="15.769509431075138"><ele>855.0</ele><time>2026-04-14T14:07:00Z</time></trkpt><trkpt lat="41.74090668551085" lon="15.769620253970434"><ele>855.0</ele><time>2026-04-14T14:07:01Z</time></trkpt><trkpt lat="41.740889750094524" lon="15.769754535519096"><ele>855.0</ele><time>2026-04-14T14:07:02Z</time></trkpt><trkpt lat="41.74085848496725" lon="15.769897899144537"><ele>854.8</ele><time>2026-04-14T14:07:03Z</time></trkpt><trkpt lat="41.74081638215587" lon="15.770039158053661"><ele>854.6</ele><time>2026-04-14T14:07:04Z</time></trkpt><trkpt lat="41.740785390440976" lon="15.770191723357426"><ele>854.4000000000001</ele><time>2026-04-14T14:07:05Z</time></trkpt><trkpt lat="41.74076101873737" lon="15.770329051792851"><ele>854.2</ele><time>2026-04-14T14:07:06Z</time></trkpt><trkpt lat="41.74074365377663" lon="15.77045304160566"><ele>854.0</ele><time>2026-04-14T14:07:07Z</time></trkpt><trkpt lat="41.74074721267766" lon="15.770564229023075"><ele>854.0</ele><time>2026-04-14T14:07:08Z</time></trkpt><trkpt lat="41.740787184214796" lon="15.770695783127044"><ele>854.0000000000001</ele><time>2026-04-14T14:07:09Z</time></trkpt><trkpt lat="41.74083344130163" lon="15.770823467316395"><ele>854.0000000000001</ele><time>2026-04-14T14:07:10Z</time></trkpt><trkpt lat="41.740854871456044" lon="15.770955071663158"><ele>854.0</ele><time>2026-04-14T14:07:11Z</time></trkpt><trkpt lat="41.74087060274105" lon="15.771073279231965"><ele>854.0</ele><time>2026-04-14T14:07:12Z</time></trkpt><trkpt lat="41.740904995930286" lon="15.771193602650419"><ele>854.6</ele><time>2026-04-14T14:07:13Z</time></trkpt><trkpt lat="41.74093613577927" lon="15.77130196167566"><ele>855.2</ele><time>2026-04-14T14:07:14Z</time></trkpt><trkpt lat="41.74095423649979" lon="15.77143195495472"><ele>855.8000000000001</ele><time>2026-04-14T14:07:15Z</time></trkpt><trkpt lat="41.74095954548113" lon="15.771568902532296"><ele>856.4000000000001</ele><time>2026-04-14T14:07:16Z</time></trkpt><trkpt lat="41.74095830015038" lon="15.77172310200706"><ele>857.0</ele><time>2026-04-14T14:07:17Z</time></trkpt><trkpt lat="41.740957718505" lon="15.771871558152975"><ele>857.5000000000001</ele><time>2026-04-14T14:07:18Z</time></trkpt><trkpt lat="41.74095182763929" lon="15.772018511847286"><ele>858.0</ele><time>2026-04-14T14:07:19Z</time></trkpt><trkpt lat="41.74092888279973" lon="15.772148788663774"><ele>858.5</ele><time>2026-04-14T14:07:20Z</time></trkpt><trkpt lat="41.740906762284325" lon="15.772256007967599"><ele>859.0</ele><time>2026-04-14T14:07:21Z</time></trkpt><trkpt lat="41.740927480132385" lon="15.772346834667072"><ele>859.5000000000001</ele><time>2026-04-14T14:07:22Z</time></trkpt><trkpt lat="41.740979959163596" lon="15.772423589947564"><ele>860.0</ele><time>2026-04-14T14:07:23Z</time></trkpt><trkpt lat="41.741041849870186" lon="15.772462746569229"><ele>860.8</ele><time>2026-04-14T14:07:24Z</time></trkpt><trkpt lat="41.741104968868704" lon="15.77244072231611"><ele>861.6</ele><time>2026-04-14T14:07:25Z</time></trkpt><trkpt lat="41.74116596783178" lon="15.772356979081367"><ele>862.4000000000001</ele><time>2026-04-14T14:07:26Z</time></trkpt><trkpt lat="41.741249930771964" lon="15.77228653670318"><ele>863.2</ele><time>2026-04-14T14:07:27Z</time></trkpt><trkpt lat="41.741324675879945" lon="15.772275103714344"><ele>864.0</ele><time>2026-04-14T14:07:28Z</time></trkpt><trkpt lat="41.74146159628145" lon="15.772286899094173"><ele>864.0</ele><time>2026-04-14T14:07:30Z</time></trkpt><trkpt lat="41.741562853967835" lon="15.772335252304488"><ele>864.0000000000001</ele><time>2026-04-14T14:07:32Z</time></trkpt><trkpt lat="41.74160992412265" lon="15.772466723573872"><ele>864.0000000000001</ele><time>2026-04-14T14:07:34Z</time></trkpt><trkpt lat="41.741600808163916" lon="15.772584950466367"><ele>864.0</ele><time>2026-04-14T14:07:35Z</time></trkpt><trkpt lat="41.741597797793055" lon="15.772711203368871"><ele>864.0</ele><time>2026-04-14T14:07:36Z</time></trkpt><trkpt lat="41.741597236510025" lon="15.77288793515761"><ele>864.4000000000001</ele><time>2026-04-14T14:07:37Z</time></trkpt><trkpt lat="41.7415751416379" lon="15.773045342364641"><ele>864.8000000000001</ele><time>2026-04-14T14:07:38Z</time></trkpt><trkpt lat="41.741536167556305" lon="15.773177559282518"><ele>865.1999999999999</ele><time>2026-04-14T14:07:39Z</time></trkpt><trkpt lat="41.74148444705316" lon="15.773290560177387"><ele>865.5999999999999</ele><time>2026-04-14T14:07:40Z</time></trkpt><trkpt lat="41.74142744758305" lon="15.773381749250206"><ele>866.0</ele><time>2026-04-14T14:07:41Z</time></trkpt><trkpt lat="41.74136912295157" lon="15.77344238314228"><ele>866.75</ele><time>2026-04-14T14:07:42Z</time></trkpt><trkpt lat="41.74132029457844" lon="15.773537128287943"><ele>867.5</ele><time>2026-04-14T14:07:43Z</time></trkpt><trkpt lat="41.74130222537948" lon="15.773656450813077"><ele>868.25</ele><time>2026-04-14T14:07:45Z</time></trkpt><trkpt lat="41.741358271556074" lon="15.773733232908544"><ele>869.0</ele><time>2026-04-14T14:07:47Z</time></trkpt><trkpt lat="41.74125438536178" lon="15.773969659172199"><ele>869.0</ele><time>2026-04-14T14:07:53Z</time></trkpt><trkpt lat="41.74118843748672" lon="15.774137669017376"><ele>869.0</ele><time>2026-04-14T14:07:54Z</time></trkpt><trkpt lat="41.74113425557657" lon="15.774321824978925"><ele>869.0</ele><time>2026-04-14T14:07:55Z</time></trkpt><trkpt lat="41.74108176049778" lon="15.77450729660024"><ele>869.0</ele><time>2026-04-14T14:07:56Z</time></trkpt><trkpt lat="41.74102964460216" lon="15.7746358951402"><ele>868.6666666666667</ele><time>2026-04-14T14:07:57Z</time></trkpt><trkpt lat="41.740982802324375" lon="15.774760645868831"><ele>868.3333333333334</ele><time>2026-04-14T14:07:58Z</time></trkpt><trkpt lat="41.740943910730685" lon="15.774875881940012"><ele>868.0</ele><time>2026-04-14T14:07:59Z</time></trkpt><trkpt lat="41.740918237561" lon="15.774973578063937"><ele>867.6666666666667</ele><time>2026-04-14T14:08:00Z</time></trkpt><trkpt lat="41.74088424001505" lon="15.775059275728074"><ele>867.3333333333334</ele><time>2026-04-14T14:08:00.999Z</time></trkpt><trkpt lat="41.74085117519334" lon="15.775156566563405"><ele>867.0</ele><time>2026-04-14T14:08:01.999Z</time></trkpt><trkpt lat="41.74078393041713" lon="15.775231577241943"><ele>867.0</ele><time>2026-04-14T14:08:03.999Z</time></trkpt><trkpt lat="41.74070803201112" lon="15.775242604955881"><ele>867.0</ele><time>2026-04-14T14:08:05.999Z</time></trkpt><trkpt lat="41.74061801361028" lon="15.7751953126179"><ele>867.0</ele><time>2026-04-14T14:08:06.999Z</time></trkpt><trkpt lat="41.74054853180499" lon="15.775217385472116"><ele>867.0</ele><time>2026-04-14T14:08:08.999Z</time></trkpt><trkpt lat="41.740435678351155" lon="15.775271870514926"><ele>867.0</ele><time>2026-04-14T14:08:11.999Z</time></trkpt><trkpt lat="41.740378915065975" lon="15.775186467857589"><ele>866.6666666666667</ele><time>2026-04-14T14:08:13.999Z</time></trkpt><trkpt lat="41.740173177076976" lon="15.775138554766068"><ele>866.3333333333334</ele><time>2026-04-14T14:08:16.999Z</time></trkpt><trkpt lat="41.74005928032283" lon="15.775256768632023"><ele>866.0</ele><time>2026-04-14T14:08:19.999Z</time></trkpt><trkpt lat="41.740077536228696" lon="15.77542370829524"><ele>866.0</ele><time>2026-04-14T14:08:21.999Z</time></trkpt><trkpt lat="41.74003802933545" lon="15.775523630827404"><ele>865.9999999999999</ele><time>2026-04-14T14:08:22.999Z</time></trkpt><trkpt lat="41.73997559167354" lon="15.775622654809991"><ele>865.9999999999999</ele><time>2026-04-14T14:08:23.999Z</time></trkpt><trkpt lat="41.73990230993454" lon="15.775703911325765"><ele>866.0</ele><time>2026-04-14T14:08:24.999Z</time></trkpt><trkpt lat="41.73980895171706" lon="15.77583741313945"><ele>866.0</ele><time>2026-04-14T14:08:26.999Z</time></trkpt><trkpt lat="41.73972837435122" lon="15.775925377150154"><ele>866.0</ele><time>2026-04-14T14:08:27.999Z</time></trkpt><trkpt lat="41.73963403086366" lon="15.77599666089133"><ele>865.9999999999999</ele><time>2026-04-14T14:08:28.999Z</time></trkpt><trkpt lat="41.73953201470848" lon="15.776077355669246"><ele>865.9999999999999</ele><time>2026-04-14T14:08:29.999Z</time></trkpt><trkpt lat="41.73946227914022" lon="15.776151002049312"><ele>866.0</ele><time>2026-04-14T14:08:30.999Z</time></trkpt><trkpt lat="41.73943600362043" lon="15.77624127462605"><ele>866.0</ele><time>2026-04-14T14:08:31.999Z</time></trkpt><trkpt lat="41.73941219619952" lon="15.776331330320842"><ele>866.5000000000001</ele><time>2026-04-14T14:08:32.999Z</time></trkpt><trkpt lat="41.73937873378768" lon="15.776433210506779"><ele>867.0</ele><time>2026-04-14T14:08:33.999Z</time></trkpt><trkpt lat="41.73934637295566" lon="15.776527214308576"><ele>867.5</ele><time>2026-04-14T14:08:34.999Z</time></trkpt><trkpt lat="41.739347889925" lon="15.776627852185735"><ele>868.0</ele><time>2026-04-14T14:08:35.999Z</time></trkpt><trkpt lat="41.73936024915624" lon="15.776715211153862"><ele>868.5000000000001</ele><time>2026-04-14T14:08:36.999Z</time></trkpt><trkpt lat="41.73939125169497" lon="15.776805088858477"><ele>869.0</ele><time>2026-04-14T14:08:37.999Z</time></trkpt><trkpt lat="41.739432747826484" lon="15.776913449136844"><ele>869.0</ele><time>2026-04-14T14:08:38.999Z</time></trkpt><trkpt lat="41.73947182725031" lon="15.777040811572322"><ele>869.0000000000001</ele><time>2026-04-14T14:08:39.999Z</time></trkpt><trkpt lat="41.73950049593163" lon="15.777159670721613"><ele>869.0000000000001</ele><time>2026-04-14T14:08:40.999Z</time></trkpt><trkpt lat="41.73952458072998" lon="15.7772849262889"><ele>869.0</ele><time>2026-04-14T14:08:41.999Z</time></trkpt><trkpt lat="41.73954679244547" lon="15.777393766130299"><ele>869.0</ele><time>2026-04-14T14:08:42.999Z</time></trkpt><trkpt lat="41.73955358747007" lon="15.777494558785802"><ele>869.0</ele><time>2026-04-14T14:08:43.999Z</time></trkpt><trkpt lat="41.739551158272604" lon="15.777600525899446"><ele>869.0000000000001</ele><time>2026-04-14T14:08:44.999Z</time></trkpt><trkpt lat="41.73956845115782" lon="15.77770670169964"><ele>869.0000000000001</ele><time>2026-04-14T14:08:45.999Z</time></trkpt><trkpt lat="41.73959160064899" lon="15.777875120496763"><ele>869.0</ele><time>2026-04-14T14:08:47.999Z</time></trkpt><trkpt lat="41.739536482772365" lon="15.778016996757714"><ele>869.0</ele><time>2026-04-14T14:08:49.999Z</time></trkpt><trkpt lat="41.73948173572202" lon="15.77808510353311"><ele>868.6666666666667</ele><time>2026-04-14T14:08:50.999Z</time></trkpt><trkpt lat="41.739421619770496" lon="15.778179916249917"><ele>868.3333333333334</ele><time>2026-04-14T14:08:51.999Z</time></trkpt><trkpt lat="41.739380009949095" lon="15.77825670039961"><ele>868.0</ele><time>2026-04-14T14:08:52.999Z</time></trkpt><trkpt lat="41.73932196836724" lon="15.778315009523512"><ele>867.6666666666667</ele><time>2026-04-14T14:08:53.999Z</time></trkpt><trkpt lat="41.73929871100731" lon="15.778445926887024"><ele>867.3333333333334</ele><time>2026-04-14T14:08:54.999Z</time></trkpt><trkpt lat="41.73925895188944" lon="15.778538535464538"><ele>867.0</ele><time>2026-04-14T14:08:55.999Z</time></trkpt><trkpt lat="41.73918840686255" lon="15.778641752128534"><ele>866.3333333333334</ele><time>2026-04-14T14:08:56.999Z</time></trkpt><trkpt lat="41.739120305252" lon="15.778718010098915"><ele>865.6666666666667</ele><time>2026-04-14T14:08:57.999Z</time></trkpt><trkpt lat="41.73904746844724" lon="15.778767276451655"><ele>865.0</ele><time>2026-04-14T14:08:58.999Z</time></trkpt><trkpt lat="41.73899182189615" lon="15.778810079320346"><ele>864.3333333333334</ele><time>2026-04-14T14:08:59.999Z</time></trkpt><trkpt lat="41.73889716890719" lon="15.778892958444537"><ele>863.6666666666667</ele><time>2026-04-14T14:09:01.999Z</time></trkpt><trkpt lat="41.73883414757477" lon="15.778923964797938"><ele>863.0</ele><time>2026-04-14T14:09:02.999Z</time></trkpt><trkpt lat="41.73874262846714" lon="15.779054365290026"><ele>863.0000000000001</ele><time>2026-04-14T14:09:04.999Z</time></trkpt><trkpt lat="41.7386721278865" lon="15.7791135596343"><ele>863.0</ele><time>2026-04-14T14:09:06Z</time></trkpt><trkpt lat="41.738617058843275" lon="15.779165023902092"><ele>863.0</ele><time>2026-04-14T14:09:07Z</time></trkpt><trkpt lat="41.7385536492405" lon="15.779197804319788"><ele>863.0</ele><time>2026-04-14T14:09:08Z</time></trkpt><trkpt lat="41.73847185942956" lon="15.779258778026863"><ele>863.0000000000001</ele><time>2026-04-14T14:09:10Z</time></trkpt><trkpt lat="41.73840558157108" lon="15.779290578098816"><ele>863.0</ele><time>2026-04-14T14:09:11Z</time></trkpt><trkpt lat="41.73831645298534" lon="15.77932860322034"><ele>861.8333333333334</ele><time>2026-04-14T14:09:12Z</time></trkpt><trkpt lat="41.7382271326398" lon="15.779375844371483"><ele>860.6666666666667</ele><time>2026-04-14T14:09:13Z</time></trkpt><trkpt lat="41.73816772712657" lon="15.779433797593548"><ele>859.5</ele><time>2026-04-14T14:09:14Z</time></trkpt><trkpt lat="41.73812647010425" lon="15.779507671132658"><ele>858.3333333333333</ele><time>2026-04-14T14:09:15Z</time></trkpt><trkpt lat="41.738075617978126" lon="15.779673096459398"><ele>857.1666666666666</ele><time>2026-04-14T14:09:17Z</time></trkpt><trkpt lat="41.738048320932954" lon="15.779760161014643"><ele>856.0</ele><time>2026-04-14T14:09:18Z</time></trkpt><trkpt lat="41.73802434583942" lon="15.779866779407884"><ele>856.0</ele><time>2026-04-14T14:09:19Z</time></trkpt><trkpt lat="41.73799401908088" lon="15.779995719362258"><ele>856.0</ele><time>2026-04-14T14:09:20Z</time></trkpt><trkpt lat="41.73794373107886" lon="15.780159243037497"><ele>856.0</ele><time>2026-04-14T14:09:21Z</time></trkpt><trkpt lat="41.73788831919082" lon="15.780342533120166"><ele>856.0</ele><time>2026-04-14T14:09:22Z</time></trkpt><trkpt lat="41.73784379126049" lon="15.78050403106812"><ele>855.8</ele><time>2026-04-14T14:09:23Z</time></trkpt><trkpt lat="41.73778614298275" lon="15.780680047106257"><ele>855.5999999999999</ele><time>2026-04-14T14:09:24Z</time></trkpt><trkpt lat="41.73774411157775" lon="15.78081835958052"><ele>855.4</ele><time>2026-04-14T14:09:25Z</time></trkpt><trkpt lat="41.73769474032558" lon="15.780933609578419"><ele>855.2</ele><time>2026-04-14T14:09:26Z</time></trkpt><trkpt lat="41.73765963584353" lon="15.781016509912138"><ele>855.0</ele><time>2026-04-14T14:09:27Z</time></trkpt><trkpt lat="41.73762152165832" lon="15.781119211525052"><ele>853.8</ele><time>2026-04-14T14:09:28Z</time></trkpt><trkpt lat="41.737572439184774" lon="15.781230083603512"><ele>852.6</ele><time>2026-04-14T14:09:29Z</time></trkpt><trkpt lat="41.73752486524933" lon="15.781337598562637"><ele>851.4000000000001</ele><time>2026-04-14T14:09:30Z</time></trkpt><trkpt lat="41.737468172501515" lon="15.781431416583313"><ele>850.2</ele><time>2026-04-14T14:09:31Z</time></trkpt><trkpt lat="41.737441737221616" lon="15.781539512446885"><ele>849.0</ele><time>2026-04-14T14:09:32Z</time></trkpt><trkpt lat="41.73744522925156" lon="15.781664408339536"><ele>849.0</ele><time>2026-04-14T14:09:33Z</time></trkpt><trkpt lat="41.73751153222703" lon="15.781824321646083"><ele>849.0</ele><time>2026-04-14T14:09:34Z</time></trkpt><trkpt lat="41.73755416641078" lon="15.781924626813097"><ele>849.0</ele><time>2026-04-14T14:09:35Z</time></trkpt><trkpt lat="41.73759760151653" lon="15.782050020410741"><ele>849.0</ele><time>2026-04-14T14:09:36Z</time></trkpt><trkpt lat="41.73763664194552" lon="15.782154654807956"><ele>849.0</ele><time>2026-04-14T14:09:37Z</time></trkpt><trkpt lat="41.7376934101418" lon="15.782262822809377"><ele>849.6666666666666</ele><time>2026-04-14T14:09:39Z</time></trkpt><trkpt lat="41.737697065855095" lon="15.782369284630324"><ele>850.3333333333333</ele><time>2026-04-14T14:09:40Z</time></trkpt><trkpt lat="41.7377145847566" lon="15.78246216946284"><ele>851.0</ele><time>2026-04-14T14:09:41Z</time></trkpt><trkpt lat="41.73772158357199" lon="15.782580442713142"><ele>851.6666666666666</ele><time>2026-04-14T14:09:42Z</time></trkpt><trkpt lat="41.737729955571595" lon="15.782671302924424"><ele>852.3333333333333</ele><time>2026-04-14T14:09:44Z</time></trkpt><trkpt lat="41.73771881799081" lon="15.78281349795434"><ele>853.0</ele><time>2026-04-14T14:09:45Z</time></trkpt><trkpt lat="41.73772032589126" lon="15.782913830708704"><ele>857.5</ele><time>2026-04-14T14:09:46Z</time></trkpt><trkpt lat="41.73772848694055" lon="15.783027074682797"><ele>862.0</ele><time>2026-04-14T14:09:47Z</time></trkpt><trkpt lat="41.7377844850629" lon="15.783230657929224"><ele>866.5</ele><time>2026-04-14T14:09:48Z</time></trkpt><trkpt lat="41.73787637766851" lon="15.783471722428205"><ele>871.0</ele><time>2026-04-14T14:09:49Z</time></trkpt><trkpt lat="41.73793890349347" lon="15.783707901772882"><ele>871.0</ele><time>2026-04-14T14:09:50Z</time></trkpt><trkpt lat="41.73797677560012" lon="15.78390178558755"><ele>871.0</ele><time>2026-04-14T14:09:51Z</time></trkpt><trkpt lat="41.737998737639266" lon="15.784095110146785"><ele>871.0</ele><time>2026-04-14T14:09:52Z</time></trkpt><trkpt lat="41.73802118506291" lon="15.784234931475506"><ele>871.0</ele><time>2026-04-14T14:09:53Z</time></trkpt><trkpt lat="41.73804316834365" lon="15.784343290817734"><ele>870.9999999999999</ele><time>2026-04-14T14:09:54Z</time></trkpt><trkpt lat="41.738074782443334" lon="15.784431748079644"><ele>871.0</ele><time>2026-04-14T14:09:55Z</time></trkpt><trkpt lat="41.73814423153289" lon="15.78451491017206"><ele>871.0</ele><time>2026-04-14T14:09:57Z</time></trkpt><trkpt lat="41.73821778609859" lon="15.78456869066618"><ele>871.0</ele><time>2026-04-14T14:09:58Z</time></trkpt><trkpt lat="41.738251193454" lon="15.784670355019099"><ele>870.9999999999999</ele><time>2026-04-14T14:09:59Z</time></trkpt><trkpt lat="41.73829660230704" lon="15.784809206595021"><ele>871.0</ele><time>2026-04-14T14:10:00Z</time></trkpt><trkpt lat="41.73831377799519" lon="15.784935272549248"><ele>871.0</ele><time>2026-04-14T14:10:01Z</time></trkpt><trkpt lat="41.738338122293285" lon="15.785029942200795"><ele>870.9999999999999</ele><time>2026-04-14T14:10:02Z</time></trkpt><trkpt lat="41.73832876298979" lon="15.785132204077879"><ele>870.9999999999999</ele><time>2026-04-14T14:10:04Z</time></trkpt><trkpt lat="41.73838993574192" lon="15.785274774253185"><ele>871.0</ele><time>2026-04-14T14:10:06Z</time></trkpt><trkpt lat="41.73840001144723" lon="15.78540536608571"><ele>871.0</ele><time>2026-04-14T14:10:08Z</time></trkpt><trkpt lat="41.738472980781054" lon="15.785446791330104"><ele>872.4</ele><time>2026-04-14T14:10:10Z</time></trkpt><trkpt lat="41.73849194372289" lon="15.785551714093513"><ele>873.8</ele><time>2026-04-14T14:10:11.999Z</time></trkpt><trkpt lat="41.73848734278069" lon="15.785708372308404"><ele>875.1999999999999</ele><time>2026-04-14T14:10:14.999Z</time></trkpt><trkpt lat="41.73853557441939" lon="15.785840451856409"><ele>876.5999999999999</ele><time>2026-04-14T14:10:17.999Z</time></trkpt><trkpt lat="41.73858454428603" lon="15.785938139589629"><ele>878.0</ele><time>2026-04-14T14:10:20.999Z</time></trkpt><trkpt lat="41.7386568848989" lon="15.785941665128444"><ele>879.3333333333334</ele><time>2026-04-14T14:10:33.999Z</time></trkpt><trkpt lat="41.73859867314251" lon="15.786029545383458"><ele>880.6666666666667</ele><time>2026-04-14T14:10:39.999Z</time></trkpt><trkpt lat="41.73869073080704" lon="15.786388397278177"><ele>882.0</ele><time>2026-04-14T14:10:59.999Z</time></trkpt><trkpt lat="41.73871995197344" lon="15.786542195396748"><ele>882.0</ele><time>2026-04-14T14:11:01.999Z</time></trkpt><trkpt lat="41.7387430858844" lon="15.786647414222395"><ele>882.0</ele><time>2026-04-14T14:11:02.999Z</time></trkpt><trkpt lat="41.7387438382062" lon="15.786751892949159"><ele>882.0</ele><time>2026-04-14T14:11:04.999Z</time></trkpt><trkpt lat="41.73881121354929" lon="15.786819253962962"><ele>882.0</ele><time>2026-04-14T14:11:06.999Z</time></trkpt><trkpt lat="41.73879911702732" lon="15.786995374551395"><ele>882.0</ele><time>2026-04-14T14:11:08.999Z</time></trkpt><trkpt lat="41.73877822979818" lon="15.787134416651545"><ele>882.6</ele><time>2026-04-14T14:11:10.999Z</time></trkpt><trkpt lat="41.73885089686339" lon="15.78727650921854"><ele>883.2</ele><time>2026-04-14T14:11:13Z</time></trkpt><trkpt lat="41.73891154754712" lon="15.787335322778402"><ele>883.8</ele><time>2026-04-14T14:11:15Z</time></trkpt><trkpt lat="41.738953862904594" lon="15.787444613958732"><ele>884.4</ele><time>2026-04-14T14:11:16Z</time></trkpt><trkpt lat="41.738955027555775" lon="15.787561337244414"><ele>885.0</ele><time>2026-04-14T14:11:17Z</time></trkpt><trkpt lat="41.738945917721104" lon="15.787665574983867"><ele>886.2</ele><time>2026-04-14T14:11:18Z</time></trkpt><trkpt lat="41.73895684750867" lon="15.787855633972574"><ele>887.4</ele><time>2026-04-14T14:11:19Z</time></trkpt><trkpt lat="41.73894121126505" lon="15.787954416617406"><ele>888.5999999999999</ele><time>2026-04-14T14:11:20Z</time></trkpt><trkpt lat="41.73887111386224" lon="15.787994387987094"><ele>889.8</ele><time>2026-04-14T14:11:21Z</time></trkpt><trkpt lat="41.73878323232331" lon="15.78809122085769"><ele>891.0</ele><time>2026-04-14T14:11:23Z</time></trkpt><trkpt lat="41.73874821846832" lon="15.78816483950493"><ele>891.0</ele><time>2026-04-14T14:11:25Z</time></trkpt><trkpt lat="41.738704622362576" lon="15.788265097765391"><ele>890.9999999999999</ele><time>2026-04-14T14:11:26Z</time></trkpt><trkpt lat="41.73872049257126" lon="15.788395239123613"><ele>890.9999999999999</ele><time>2026-04-14T14:11:27Z</time></trkpt><trkpt lat="41.738705407836314" lon="15.788554701515887"><ele>891.0</ele><time>2026-04-14T14:11:28Z</time></trkpt><trkpt lat="41.73869736104591" lon="15.78873456439709"><ele>891.0</ele><time>2026-04-14T14:11:29Z</time></trkpt><trkpt lat="41.738789548064" lon="15.788878955596392"><ele>891.0</ele><time>2026-04-14T14:11:30Z</time></trkpt><trkpt lat="41.738907734752814" lon="15.789137115125865"><ele>891.0</ele><time>2026-04-14T14:11:31Z</time></trkpt><trkpt lat="41.7389423477847" lon="15.78920816849194"><ele>891.0</ele><time>2026-04-14T14:11:32Z</time></trkpt><trkpt lat="41.73898225380979" lon="15.789340696149859"><ele>891.0</ele><time>2026-04-14T14:11:34Z</time></trkpt><trkpt lat="41.73902476053413" lon="15.789407628155091"><ele>891.0</ele><time>2026-04-14T14:11:35Z</time></trkpt><trkpt lat="41.73908615460592" lon="15.789511242437133"><ele>890.9999999999999</ele><time>2026-04-14T14:11:36Z</time></trkpt><trkpt lat="41.739172488732976" lon="15.78961031852606"><ele>890.9999999999999</ele><time>2026-04-14T14:11:37Z</time></trkpt><trkpt lat="41.739235437379335" lon="15.789656083359938"><ele>891.0</ele><time>2026-04-14T14:11:38Z</time></trkpt><trkpt lat="41.73929756496345" lon="15.789752326749769"><ele>891.0</ele><time>2026-04-14T14:11:41Z</time></trkpt><trkpt lat="41.73939322578492" lon="15.789792910436939"><ele>891.0</ele><time>2026-04-14T14:11:42Z</time></trkpt><trkpt lat="41.739503895954606" lon="15.789873827980427"><ele>890.9999999999999</ele><time>2026-04-14T14:11:44Z</time></trkpt><trkpt lat="41.73957159611736" lon="15.789946986773732"><ele>890.9999999999999</ele><time>2026-04-14T14:11:45Z</time></trkpt><trkpt lat="41.73961562038642" lon="15.790009407572187"><ele>891.0</ele><time>2026-04-14T14:11:46Z</time></trkpt><trkpt lat="41.73966175021846" lon="15.790070248501715"><ele>891.0</ele><time>2026-04-14T14:11:47Z</time></trkpt><trkpt lat="41.73975357548498" lon="15.790165291456653"><ele>890.8</ele><time>2026-04-14T14:11:49Z</time></trkpt><trkpt lat="41.73983108110188" lon="15.790252050977376"><ele>890.5999999999999</ele><time>2026-04-14T14:11:51Z</time></trkpt><trkpt lat="41.73990883925787" lon="15.790317931583814"><ele>890.4</ele><time>2026-04-14T14:11:53Z</time></trkpt><trkpt lat="41.73999223541391" lon="15.790412754222684"><ele>890.2</ele><time>2026-04-14T14:11:55Z</time></trkpt><trkpt lat="41.74006608535159" lon="15.790476490489526"><ele>890.0</ele><time>2026-04-14T14:11:57Z</time></trkpt><trkpt lat="41.74014719481477" lon="15.79051673978729"><ele>889.7142857142858</ele><time>2026-04-14T14:11:59Z</time></trkpt><trkpt lat="41.74022168301318" lon="15.790547922462391"><ele>889.4285714285713</ele><time>2026-04-14T14:12:01Z</time></trkpt><trkpt lat="41.740282336031726" lon="15.790601205871113"><ele>889.1428571428571</ele><time>2026-04-14T14:12:03Z</time></trkpt><trkpt lat="41.74032890370076" lon="15.790684560138896"><ele>888.8571428571429</ele><time>2026-04-14T14:12:05Z</time></trkpt><trkpt lat="41.74038846082911" lon="15.790729524403"><ele>888.5714285714287</ele><time>2026-04-14T14:12:07Z</time></trkpt><trkpt lat="41.74046247700947" lon="15.790743793525372"><ele>888.2857142857142</ele><time>2026-04-14T14:12:09Z</time></trkpt><trkpt lat="41.740518753045166" lon="15.790792914728534"><ele>888.0</ele><time>2026-04-14T14:12:12Z</time></trkpt><trkpt lat="41.740603864216496" lon="15.790833406650597"><ele>888.0</ele><time>2026-04-14T14:12:15Z</time></trkpt><trkpt lat="41.74066675635649" lon="15.790904717135252"><ele>888.0</ele><time>2026-04-14T14:12:17Z</time></trkpt><trkpt lat="41.74073921004143" lon="15.79093016999133"><ele>888.0</ele><time>2026-04-14T14:12:18.999Z</time></trkpt><trkpt lat="41.74082268605216" lon="15.790953531285334"><ele>888.0</ele><time>2026-04-14T14:12:20.999Z</time></trkpt><trkpt lat="41.74091386751698" lon="15.790954977044418"><ele>888.0</ele><time>2026-04-14T14:12:22.999Z</time></trkpt><trkpt lat="41.741028670535776" lon="15.790930977871382"><ele>887.6666666666666</ele><time>2026-04-14T14:12:24.999Z</time></trkpt><trkpt lat="41.741098317008955" lon="15.790899549697249"><ele>887.3333333333333</ele><time>2026-04-14T14:12:25.999Z</time></trkpt><trkpt lat="41.74115874008465" lon="15.790852025064003"><ele>887.0</ele><time>2026-04-14T14:12:26.999Z</time></trkpt><trkpt lat="41.74121090122218" lon="15.790790007594492"><ele>886.6666666666666</ele><time>2026-04-14T14:12:27.999Z</time></trkpt><trkpt lat="41.741305077397776" lon="15.790680412688403"><ele>886.3333333333333</ele><time>2026-04-14T14:12:29.999Z</time></trkpt><trkpt lat="41.741352637091076" lon="15.790621855564824"><ele>886.0</ele><time>2026-04-14T14:12:30.999Z</time></trkpt><trkpt lat="41.74140623246819" lon="15.79056836231096"><ele>885.9999999999999</ele><time>2026-04-14T14:12:31.999Z</time></trkpt><trkpt lat="41.741471851406125" lon="15.79052154096735"><ele>886.0</ele><time>2026-04-14T14:12:33.999Z</time></trkpt><trkpt lat="41.74152289209554" lon="15.79047201633807"><ele>886.0</ele><time>2026-04-14T14:12:35.999Z</time></trkpt><trkpt lat="41.74157605248207" lon="15.790406084068726"><ele>886.0</ele><time>2026-04-14T14:12:38.999Z</time></trkpt><trkpt lat="41.74167821808225" lon="15.790292985696345"><ele>885.9999999999999</ele><time>2026-04-14T14:12:40.999Z</time></trkpt><trkpt lat="41.741727002042694" lon="15.790225489171497"><ele>886.0</ele><time>2026-04-14T14:12:41.999Z</time></trkpt><trkpt lat="41.741784801392036" lon="15.790179668433646"><ele>886.3333333333333</ele><time>2026-04-14T14:12:42.999Z</time></trkpt><trkpt lat="41.741853170429756" lon="15.790142716072081"><ele>886.6666666666666</ele><time>2026-04-14T14:12:43.999Z</time></trkpt><trkpt lat="41.74193280171376" lon="15.79011320786529"><ele>887.0</ele><time>2026-04-14T14:12:44.999Z</time></trkpt><trkpt lat="41.74200715186785" lon="15.79012523736698"><ele>887.3333333333333</ele><time>2026-04-14T14:12:45.999Z</time></trkpt><trkpt lat="41.74213335108547" lon="15.790125810444792"><ele>887.6666666666666</ele><time>2026-04-14T14:12:47.999Z</time></trkpt><trkpt lat="41.742198720613175" lon="15.790085077961269"><ele>888.0</ele><time>2026-04-14T14:12:49.999Z</time></trkpt><trkpt lat="41.74226691182827" lon="15.790037610701422"><ele>890.5</ele><time>2026-04-14T14:12:50.999Z</time></trkpt><trkpt lat="41.74251272542826" lon="15.790034499301987"><ele>893.0</ele><time>2026-04-14T14:13:13.999Z</time></trkpt><trkpt lat="41.742692425757596" lon="15.790236460330396"><ele>894.3333333333334</ele><time>2026-04-14T14:15:17.999Z</time></trkpt><trkpt lat="41.74279764497595" lon="15.790298830353354"><ele>895.6666666666667</ele><time>2026-04-14T14:15:18.999Z</time></trkpt><trkpt lat="41.742866997039734" lon="15.79035846361473"><ele>897.0</ele><time>2026-04-14T14:15:19.999Z</time></trkpt><trkpt lat="41.7429252006567" lon="15.790405030216716"><ele>898.3333333333333</ele><time>2026-04-14T14:15:20.999Z</time></trkpt><trkpt lat="41.74296907807727" lon="15.790487173225738"><ele>899.6666666666666</ele><time>2026-04-14T14:15:21.999Z</time></trkpt><trkpt lat="41.74301589295181" lon="15.790592865351883"><ele>901.0</ele><time>2026-04-14T14:15:22.999Z</time></trkpt><trkpt lat="41.74306805273586" lon="15.790714903728588"><ele>901.0</ele><time>2026-04-14T14:15:24Z</time></trkpt><trkpt lat="41.743109435157756" lon="15.790812023845126"><ele>900.9999999999999</ele><time>2026-04-14T14:15:25Z</time></trkpt><trkpt lat="41.74320351069914" lon="15.790926077048315"><ele>900.9999999999999</ele><time>2026-04-14T14:15:27Z</time></trkpt><trkpt lat="41.74328613262696" lon="15.791024757836588"><ele>901.0</ele><time>2026-04-14T14:15:29Z</time></trkpt><trkpt lat="41.74336049232556" lon="15.79111539340247"><ele>901.0</ele><time>2026-04-14T14:15:31Z</time></trkpt><trkpt lat="41.743416848571776" lon="15.791213697250479"><ele>900.5999999999999</ele><time>2026-04-14T14:15:33Z</time></trkpt><trkpt lat="41.74353579037477" lon="15.791401963351925"><ele>900.1999999999999</ele><time>2026-04-14T14:15:35Z</time></trkpt><trkpt lat="41.74360906973011" lon="15.791508474624045"><ele>899.8000000000001</ele><time>2026-04-14T14:15:36Z</time></trkpt><trkpt lat="41.74366347630436" lon="15.791575238462858"><ele>899.4000000000001</ele><time>2026-04-14T14:15:37Z</time></trkpt><trkpt lat="41.74372031528557" lon="15.791650844910043"><ele>899.0</ele><time>2026-04-14T14:15:38Z</time></trkpt><trkpt lat="41.7437957741634" lon="15.791720517910855"><ele>899.0</ele><time>2026-04-14T14:15:39Z</time></trkpt><trkpt lat="41.743859073009205" lon="15.791736641784986"><ele>899.0000000000001</ele><time>2026-04-14T14:15:40Z</time></trkpt><trkpt lat="41.743942932152116" lon="15.791823423131913"><ele>899.0000000000001</ele><time>2026-04-14T14:15:41Z</time></trkpt><trkpt lat="41.74405303111697" lon="15.791906112705243"><ele>899.0</ele><time>2026-04-14T14:15:42Z</time></trkpt><trkpt lat="41.74415300451342" lon="15.791965158796"><ele>899.0</ele><time>2026-04-14T14:15:43Z</time></trkpt><trkpt lat="41.74424656928914" lon="15.792020526560412"><ele>899.0</ele><time>2026-04-14T14:15:44Z</time></trkpt><trkpt lat="41.74431823033496" lon="15.792119269142296"><ele>899.0000000000001</ele><time>2026-04-14T14:15:45Z</time></trkpt><trkpt lat="41.74436272078458" lon="15.792231926388778"><ele>899.0000000000001</ele><time>2026-04-14T14:15:46Z</time></trkpt><trkpt lat="41.74439359663013" lon="15.7923466783401"><ele>899.0</ele><time>2026-04-14T14:15:47Z</time></trkpt><trkpt lat="41.74443598021858" lon="15.792453520647383"><ele>899.0</ele><time>2026-04-14T14:15:48Z</time></trkpt><trkpt lat="41.744563008028265" lon="15.792604038121707"><ele>899.0</ele><time>2026-04-14T14:15:50Z</time></trkpt><trkpt lat="41.74464603962702" lon="15.792657790726157"><ele>899.0000000000001</ele><time>2026-04-14T14:15:51Z</time></trkpt><trkpt lat="41.744765699955494" lon="15.792709156218"><ele>899.0000000000001</ele><time>2026-04-14T14:15:52Z</time></trkpt><trkpt lat="41.744828605809616" lon="15.79276051669131"><ele>899.0</ele><time>2026-04-14T14:15:53Z</time></trkpt><trkpt lat="41.74488687350062" lon="15.79279630956258"><ele>899.0</ele><time>2026-04-14T14:15:54Z</time></trkpt><trkpt lat="41.74509471379233" lon="15.79255268774941"><ele>899.0</ele><time>2026-04-14T14:15:59Z</time></trkpt><trkpt lat="41.745180113900766" lon="15.792482493722773"><ele>899.0000000000001</ele><time>2026-04-14T14:16:01Z</time></trkpt><trkpt lat="41.74524329911591" lon="15.79241775313869"><ele>899.0000000000001</ele><time>2026-04-14T14:16:02Z</time></trkpt><trkpt lat="41.745331478679454" lon="15.79231999992612"><ele>899.0</ele><time>2026-04-14T14:16:04Z</time></trkpt><trkpt lat="41.74539374025058" lon="15.792257198408446"><ele>899.0</ele><time>2026-04-14T14:16:05Z</time></trkpt><trkpt lat="41.74554665586101" lon="15.792282330129735"><ele>898.0</ele><time>2026-04-14T14:16:07Z</time></trkpt><trkpt lat="41.74563759451408" lon="15.792313213882206"><ele>897.0000000000001</ele><time>2026-04-14T14:16:08Z</time></trkpt><trkpt lat="41.7457178519218" lon="15.792286655548118"><ele>896.0000000000001</ele><time>2026-04-14T14:16:08.999Z</time></trkpt><trkpt lat="41.745802922852874" lon="15.792224387430977"><ele>895.0</ele><time>2026-04-14T14:16:09.999Z</time></trkpt><trkpt lat="41.74588515712486" lon="15.792134728993197"><ele>894.0</ele><time>2026-04-14T14:16:10.999Z</time></trkpt><trkpt lat="41.74597796493544" lon="15.792073559223601"><ele>894.5</ele><time>2026-04-14T14:16:11.999Z</time></trkpt><trkpt lat="41.74605044750657" lon="15.79201004973281"><ele>895.0</ele><time>2026-04-14T14:16:12.999Z</time></trkpt><trkpt lat="41.746174300953776" lon="15.791921406437565"><ele>895.5</ele><time>2026-04-14T14:16:14.999Z</time></trkpt><trkpt lat="41.746265946842655" lon="15.79185953461984"><ele>896.0</ele><time>2026-04-14T14:16:15.999Z</time></trkpt><trkpt lat="41.74640195710566" lon="15.791918120461942"><ele>896.0</ele><time>2026-04-14T14:16:17.999Z</time></trkpt><trkpt lat="41.746455628247695" lon="15.792018486812127"><ele>895.9999999999999</ele><time>2026-04-14T14:16:18.999Z</time></trkpt><trkpt lat="41.74650905455457" lon="15.792154538773069"><ele>895.9999999999999</ele><time>2026-04-14T14:16:20.999Z</time></trkpt><trkpt lat="41.74656265963469" lon="15.79226691295223"><ele>896.0</ele><time>2026-04-14T14:16:22.999Z</time></trkpt><trkpt lat="41.746590764886356" lon="15.792343373097324"><ele>896.0</ele><time>2026-04-14T14:16:24.999Z</time></trkpt><trkpt lat="41.74659440969307" lon="15.79223494723105"><ele>896.0</ele><time>2026-04-14T14:16:30.999Z</time></trkpt><trkpt lat="41.7467037250259" lon="15.792081209847824"><ele>895.9999999999999</ele><time>2026-04-14T14:16:32.999Z</time></trkpt><trkpt lat="41.74676815744888" lon="15.792018474673998"><ele>895.9999999999999</ele><time>2026-04-14T14:16:33.999Z</time></trkpt><trkpt lat="41.74684168368906" lon="15.792016687597403"><ele>896.0</ele><time>2026-04-14T14:16:34.999Z</time></trkpt><trkpt lat="41.74690790846748" lon="15.792000216359941"><ele>896.0</ele><time>2026-04-14T14:16:35.999Z</time></trkpt><trkpt lat="41.74702977252345" lon="15.791935044639908"><ele>895.5999999999999</ele><time>2026-04-14T14:16:37.999Z</time></trkpt><trkpt lat="41.74712971509118" lon="15.791877802037833"><ele>895.1999999999999</ele><time>2026-04-14T14:16:38.999Z</time></trkpt><trkpt lat="41.74722761902085" lon="15.791850455382784"><ele>894.8000000000001</ele><time>2026-04-14T14:16:39.999Z</time></trkpt><trkpt lat="41.747343196022946" lon="15.791835592667324"><ele>894.4000000000001</ele><time>2026-04-14T14:16:40.999Z</time></trkpt><trkpt lat="41.747462326721525" lon="15.791857953246708"><ele>894.0</ele><time>2026-04-14T14:16:41.999Z</time></trkpt><trkpt lat="41.74758114011125" lon="15.79190561007451"><ele>892.6</ele><time>2026-04-14T14:16:42.999Z</time></trkpt><trkpt lat="41.74772489956561" lon="15.791951085503035"><ele>891.2</ele><time>2026-04-14T14:16:43.999Z</time></trkpt><trkpt lat="41.74783987144756" lon="15.791965656338965"><ele>889.8000000000001</ele><time>2026-04-14T14:16:44.999Z</time></trkpt><trkpt lat="41.74790497147344" lon="15.791966702920288"><ele>888.4000000000001</ele><time>2026-04-14T14:16:45.999Z</time></trkpt><trkpt lat="41.747976356197285" lon="15.79194914154436"><ele>887.0</ele><time>2026-04-14T14:16:46.999Z</time></trkpt><trkpt lat="41.74806007168017" lon="15.79184569376866"><ele>886.8</ele><time>2026-04-14T14:16:47.999Z</time></trkpt><trkpt lat="41.748157202660636" lon="15.791747728854778"><ele>886.6</ele><time>2026-04-14T14:16:48.999Z</time></trkpt><trkpt lat="41.74824386515651" lon="15.791677852273258"><ele>886.3999999999999</ele><time>2026-04-14T14:16:49.999Z</time></trkpt><trkpt lat="41.748312618107676" lon="15.791615443513058"><ele>886.1999999999999</ele><time>2026-04-14T14:16:50.999Z</time></trkpt><trkpt lat="41.748404920958805" lon="15.7915248022489"><ele>886.0</ele><time>2026-04-14T14:16:52.999Z</time></trkpt><trkpt lat="41.74850025692137" lon="15.791540333799324"><ele>885.9999999999999</ele><time>2026-04-14T14:16:55.999Z</time></trkpt><trkpt lat="41.748549622887204" lon="15.791639081258467"><ele>886.0</ele><time>2026-04-14T14:16:58.999Z</time></trkpt><trkpt lat="41.748539019585714" lon="15.791744763966907"><ele>886.0</ele><time>2026-04-14T14:17:00.999Z</time></trkpt><trkpt lat="41.74855648261006" lon="15.79190963672081"><ele>886.0</ele><time>2026-04-14T14:17:02.999Z</time></trkpt><trkpt lat="41.74860624966041" lon="15.792009146936262"><ele>885.9999999999999</ele><time>2026-04-14T14:17:04.999Z</time></trkpt><trkpt lat="41.74865365471627" lon="15.792069426451746"><ele>886.0</ele><time>2026-04-14T14:17:05.999Z</time></trkpt><trkpt lat="41.74868694986492" lon="15.792159163826286"><ele>883.1666666666666</ele><time>2026-04-14T14:17:08.999Z</time></trkpt><trkpt lat="41.74869186867492" lon="15.792260547911237"><ele>880.3333333333333</ele><time>2026-04-14T14:17:10.999Z</time></trkpt><trkpt lat="41.74873272125063" lon="15.792340406793851"><ele>877.5</ele><time>2026-04-14T14:17:12.999Z</time></trkpt><trkpt lat="41.748717440616566" lon="15.792431144986505"><ele>874.6666666666667</ele><time>2026-04-14T14:17:14.999Z</time></trkpt><trkpt lat="41.74869018431313" lon="15.792558647680885"><ele>871.8333333333334</ele><time>2026-04-14T14:17:16.999Z</time></trkpt><trkpt lat="41.74875279380347" lon="15.7926768903395"><ele>869.0</ele><time>2026-04-14T14:17:18.999Z</time></trkpt><trkpt lat="41.74879882927565" lon="15.792828185846766"><ele>869.0</ele><time>2026-04-14T14:17:20.999Z</time></trkpt><trkpt lat="41.748848614711385" lon="15.792971867543061"><ele>869.0000000000001</ele><time>2026-04-14T14:17:22.999Z</time></trkpt><trkpt lat="41.74893429235607" lon="15.793063186093093"><ele>869.0000000000001</ele><time>2026-04-14T14:17:24.999Z</time></trkpt><trkpt lat="41.74900248275883" lon="15.793116897025323"><ele>869.0</ele><time>2026-04-14T14:17:26.999Z</time></trkpt><trkpt lat="41.74907152158858" lon="15.79313763044047"><ele>869.0</ele><time>2026-04-14T14:17:27.999Z</time></trkpt><trkpt lat="41.74917328465925" lon="15.793193820045826"><ele>869.0000000000001</ele><time>2026-04-14T14:17:30Z</time></trkpt><trkpt lat="41.74926940852917" lon="15.793264196083511"><ele>869.0</ele><time>2026-04-14T14:17:32Z</time></trkpt><trkpt lat="41.74932908192815" lon="15.793297037292023"><ele>869.0</ele><time>2026-04-14T14:17:33Z</time></trkpt><trkpt lat="41.74941542944068" lon="15.793260486943542"><ele>869.0</ele><time>2026-04-14T14:17:34Z</time></trkpt><trkpt lat="41.749505192303396" lon="15.79330917414164"><ele>869.0000000000001</ele><time>2026-04-14T14:17:36Z</time></trkpt><trkpt lat="41.74957295396106" lon="15.79334262806771"><ele>869.0</ele><time>2026-04-14T14:17:37Z</time></trkpt><trkpt lat="41.74963056976675" lon="15.793404028887238"><ele>864.6</ele><time>2026-04-14T14:17:39Z</time></trkpt><trkpt lat="41.749791754147786" lon="15.793357281515766"><ele>860.2</ele><time>2026-04-14T14:17:47Z</time></trkpt><trkpt lat="41.7498757964441" lon="15.793327915045134"><ele>855.8000000000001</ele><time>2026-04-14T14:17:49Z</time></trkpt><trkpt lat="41.74995898395093" lon="15.793425320208911"><ele>851.4000000000001</ele><time>2026-04-14T14:17:51Z</time></trkpt><trkpt lat="41.74999962742104" lon="15.793507433702036"><ele>847.0</ele><time>2026-04-14T14:17:52Z</time></trkpt><trkpt lat="41.750020796937456" lon="15.79360171191788"><ele>846.6</ele><time>2026-04-14T14:17:53Z</time></trkpt><trkpt lat="41.750047338596694" lon="15.793688739387141"><ele>846.2</ele><time>2026-04-14T14:17:54Z</time></trkpt><trkpt lat="41.75000921761931" lon="15.793809725956118"><ele>845.8</ele><time>2026-04-14T14:17:55Z</time></trkpt><trkpt lat="41.75004591108717" lon="15.793998408671031"><ele>845.4</ele><time>2026-04-14T14:17:57Z</time></trkpt><trkpt lat="41.75007382660112" lon="15.794090218024039"><ele>845.0</ele><time>2026-04-14T14:17:59Z</time></trkpt><trkpt lat="41.75009515449463" lon="15.79419776765945"><ele>845.0000000000001</ele><time>2026-04-14T14:18:05Z</time></trkpt><trkpt lat="41.75012177222446" lon="15.79430407282285"><ele>845.0</ele><time>2026-04-14T14:18:07Z</time></trkpt><trkpt lat="41.75011435104582" lon="15.79441629408744"><ele>845.0</ele><time>2026-04-14T14:18:09Z</time></trkpt><trkpt lat="41.75015414566178" lon="15.794535636570272"><ele>845.0</ele><time>2026-04-14T14:18:11Z</time></trkpt><trkpt lat="41.750177108010455" lon="15.794643751569986"><ele>845.0000000000001</ele><time>2026-04-14T14:18:12Z</time></trkpt><trkpt lat="41.7501804204421" lon="15.79473559808642"><ele>845.0</ele><time>2026-04-14T14:18:13Z</time></trkpt><trkpt lat="41.75018988475856" lon="15.794843263814695"><ele>844.2</ele><time>2026-04-14T14:18:14Z</time></trkpt><trkpt lat="41.75012985474236" lon="15.794882727853627"><ele>843.4</ele><time>2026-04-14T14:18:15Z</time></trkpt><trkpt lat="41.75012694263327" lon="15.794980752226468"><ele>842.5999999999999</ele><time>2026-04-14T14:18:18Z</time></trkpt><trkpt lat="41.75001758859016" lon="15.7950738983181"><ele>841.8</ele><time>2026-04-14T14:18:21Z</time></trkpt><trkpt lat="41.74998867367043" lon="15.795202244293561"><ele>841.0</ele><time>2026-04-14T14:18:23.999Z</time></trkpt><trkpt lat="41.74987960954551" lon="15.795266566153265"><ele>839.75</ele><time>2026-04-14T14:18:26.999Z</time></trkpt><trkpt lat="41.74982307417833" lon="15.795323195981164"><ele>838.5</ele><time>2026-04-14T14:18:27.999Z</time></trkpt><trkpt lat="41.74981202906206" lon="15.795451661596946"><ele>837.25</ele><time>2026-04-14T14:18:30.999Z</time></trkpt><trkpt lat="41.749777528744765" lon="15.795549904246156"><ele>836.0</ele><time>2026-04-14T14:18:32.999Z</time></trkpt><trkpt lat="41.74986088652348" lon="15.796203799560477"><ele>836.0</ele><time>2026-04-14T14:18:41.999Z</time></trkpt><trkpt lat="41.749668390800025" lon="15.796001486806391"><ele>836.0</ele><time>2026-04-14T14:18:45.999Z</time></trkpt><trkpt lat="41.74957153552925" lon="15.796142419686483"><ele>836.0</ele><time>2026-04-14T14:18:49.999Z</time></trkpt><trkpt lat="41.74969312651584" lon="15.796166406186272"><ele>835.3333333333334</ele><time>2026-04-14T14:18:59.999Z</time></trkpt><trkpt lat="41.7497702286658" lon="15.796175267762976"><ele>834.6666666666667</ele><time>2026-04-14T14:19:03.999Z</time></trkpt><trkpt lat="41.74983503875624" lon="15.796320836666677"><ele>834.0</ele><time>2026-04-14T14:19:22.999Z</time></trkpt><trkpt lat="41.749815317918" lon="15.796430427254444"><ele>833.3333333333333</ele><time>2026-04-14T14:19:30.999Z</time></trkpt><trkpt lat="41.74984493141376" lon="15.796516037833152"><ele>832.6666666666666</ele><time>2026-04-14T14:19:31.999Z</time></trkpt><trkpt lat="41.74981594344565" lon="15.796605709777342"><ele>832.0</ele><time>2026-04-14T14:19:33.999Z</time></trkpt><trkpt lat="41.74975849514023" lon="15.79666876177694"><ele>831.9999999999999</ele><time>2026-04-14T14:19:36Z</time></trkpt><trkpt lat="41.74968388776326" lon="15.796648267829719"><ele>832.0</ele><time>2026-04-14T14:19:38Z</time></trkpt><trkpt lat="41.74973839520992" lon="15.796776792484401"><ele>832.0</ele><time>2026-04-14T14:19:39Z</time></trkpt><trkpt lat="41.749766784978064" lon="15.796858802399518"><ele>832.0</ele><time>2026-04-14T14:19:40Z</time></trkpt><trkpt lat="41.749827560959446" lon="15.796975310294563"><ele>831.9999999999999</ele><time>2026-04-14T14:19:42Z</time></trkpt><trkpt lat="41.74976926772015" lon="15.797039246827193"><ele>832.0</ele><time>2026-04-14T14:19:45Z</time></trkpt><trkpt lat="41.74976472080907" lon="15.797128276412083"><ele>831.4000000000001</ele><time>2026-04-14T14:19:47Z</time></trkpt><trkpt lat="41.74971129504228" lon="15.797180213376748"><ele>830.8000000000001</ele><time>2026-04-14T14:19:49Z</time></trkpt><trkpt lat="41.74963906534616" lon="15.797237869418725"><ele>830.2</ele><time>2026-04-14T14:19:51Z</time></trkpt><trkpt lat="41.74958938482532" lon="15.797298651759958"><ele>829.6</ele><time>2026-04-14T14:19:52Z</time></trkpt><trkpt lat="41.7494733210119" lon="15.797375296794003"><ele>829.0</ele><time>2026-04-14T14:19:57Z</time></trkpt><trkpt lat="41.74951772046623" lon="15.797564641790945"><ele>828.8333333333333</ele><time>2026-04-14T14:19:58Z</time></trkpt><trkpt lat="41.749541683226084" lon="15.797679455128634"><ele>828.6666666666666</ele><time>2026-04-14T14:20:00Z</time></trkpt><trkpt lat="41.749515065848406" lon="15.797778021610755"><ele>828.5</ele><time>2026-04-14T14:20:02Z</time></trkpt><trkpt lat="41.74945675698257" lon="15.797825739192517"><ele>828.3333333333333</ele><time>2026-04-14T14:20:04Z</time></trkpt><trkpt lat="41.7493869707666" lon="15.797892259167439"><ele>828.1666666666666</ele><time>2026-04-14T14:20:05Z</time></trkpt><trkpt lat="41.74931191823268" lon="15.797966309844668"><ele>828.0</ele><time>2026-04-14T14:20:08Z</time></trkpt><trkpt lat="41.749277870645095" lon="15.798120568518163"><ele>828.0</ele><time>2026-04-14T14:20:10Z</time></trkpt><trkpt lat="41.7492915973735" lon="15.798237027900745"><ele>828.0</ele><time>2026-04-14T14:20:12Z</time></trkpt><trkpt lat="41.74923500888957" lon="15.798331506912245"><ele>828.0</ele><time>2026-04-14T14:20:14Z</time></trkpt><trkpt lat="41.74918868674747" lon="15.7984261834618"><ele>828.0</ele><time>2026-04-14T14:20:15Z</time></trkpt><trkpt lat="41.74919140140971" lon="15.7985144914982"><ele>828.0</ele><time>2026-04-14T14:20:18Z</time></trkpt><trkpt lat="41.74914334147458" lon="15.798596154435797"><ele>828.0</ele><time>2026-04-14T14:20:20Z</time></trkpt><trkpt lat="41.74906834218429" lon="15.798682674573827"><ele>826.0</ele><time>2026-04-14T14:20:21Z</time></trkpt><trkpt lat="41.748978755350734" lon="15.798788039578032"><ele>824.0</ele><time>2026-04-14T14:20:23Z</time></trkpt><trkpt lat="41.74891188806902" lon="15.798852493085977"><ele>822.0</ele><time>2026-04-14T14:20:25Z</time></trkpt><trkpt lat="41.74885148072825" lon="15.798920518318539"><ele>820.0</ele><time>2026-04-14T14:20:27Z</time></trkpt><trkpt lat="41.74890358436873" lon="15.799079936054081"><ele>818.0</ele><time>2026-04-14T14:20:29Z</time></trkpt><trkpt lat="41.74893317885399" lon="15.799357623442114"><ele>816.5000000000001</ele><time>2026-04-14T14:20:33Z</time></trkpt><trkpt lat="41.748968376226394" lon="15.799435433665748"><ele>815.0</ele><time>2026-04-14T14:20:36Z</time></trkpt><trkpt lat="41.74900895730534" lon="15.799537002694544"><ele>813.5</ele><time>2026-04-14T14:20:37.999Z</time></trkpt><trkpt lat="41.74894320890272" lon="15.799667510245131"><ele>812.0</ele><time>2026-04-14T14:20:40.999Z</time></trkpt><trkpt lat="41.74899360826586" lon="15.799739111540365"><ele>810.5000000000001</ele><time>2026-04-14T14:20:42.999Z</time></trkpt><trkpt lat="41.74896390988416" lon="15.799831749205662"><ele>809.0</ele><time>2026-04-14T14:20:44.999Z</time></trkpt><trkpt lat="41.74897418642911" lon="15.799959423480841"><ele>809.0000000000001</ele><time>2026-04-14T14:20:47.999Z</time></trkpt><trkpt lat="41.74899586655555" lon="15.800068989737689"><ele>809.0</ele><time>2026-04-14T14:20:50.999Z</time></trkpt><trkpt lat="41.74900065243477" lon="15.800167665824246"><ele>809.0</ele><time>2026-04-14T14:20:53.999Z</time></trkpt><trkpt lat="41.74894561482315" lon="15.800250915669144"><ele>809.0</ele><time>2026-04-14T14:20:54.999Z</time></trkpt><trkpt lat="41.74891598970043" lon="15.800343249753643"><ele>809.0000000000001</ele><time>2026-04-14T14:20:58.999Z</time></trkpt><trkpt lat="41.74893401312424" lon="15.800428011763094"><ele>809.0</ele><time>2026-04-14T14:21:01.999Z</time></trkpt><trkpt lat="41.74895173260202" lon="15.800524989489974"><ele>807.8000000000001</ele><time>2026-04-14T14:21:04.999Z</time></trkpt><trkpt lat="41.74888530140584" lon="15.800610174824262"><ele>806.6</ele><time>2026-04-14T14:21:06.999Z</time></trkpt><trkpt lat="41.74887933889207" lon="15.800704094838082"><ele>805.4</ele><time>2026-04-14T14:21:08.999Z</time></trkpt><trkpt lat="41.748858327755414" lon="15.800816158541581"><ele>804.2</ele><time>2026-04-14T14:21:10.999Z</time></trkpt><trkpt lat="41.748819142641075" lon="15.800942467087696"><ele>803.0</ele><time>2026-04-14T14:21:12.999Z</time></trkpt><trkpt lat="41.748812536525364" lon="15.801077351013683"><ele>801.0</ele><time>2026-04-14T14:21:15.999Z</time></trkpt><trkpt lat="41.7488344056975" lon="15.801186010623791"><ele>799.0</ele><time>2026-04-14T14:21:18.999Z</time></trkpt><trkpt lat="41.748907605703195" lon="15.801303732327415"><ele>797.0</ele><time>2026-04-14T14:21:20.999Z</time></trkpt><trkpt lat="41.74904602599715" lon="15.801362972723357"><ele>795.0</ele><time>2026-04-14T14:21:43Z</time></trkpt><trkpt lat="41.74908432850411" lon="15.80143140603704"><ele>793.0</ele><time>2026-04-14T14:21:50Z</time></trkpt><trkpt lat="41.74902600111642" lon="15.801471592327923"><ele>793.0</ele><time>2026-04-14T14:21:52Z</time></trkpt><trkpt lat="41.748952335809975" lon="15.801574913500293"><ele>793.0</ele><time>2026-04-14T14:21:54Z</time></trkpt><trkpt lat="41.74889107842837" lon="15.801599792840538"><ele>793.0</ele><time>2026-04-14T14:21:55Z</time></trkpt><trkpt lat="41.7489197817006" lon="15.801731763693155"><ele>793.0</ele><time>2026-04-14T14:21:57Z</time></trkpt><trkpt lat="41.74877837805688" lon="15.8018266599386"><ele>793.0</ele><time>2026-04-14T14:21:59Z</time></trkpt><trkpt lat="41.74876951717213" lon="15.801945248060193"><ele>791.1666666666666</ele><time>2026-04-14T14:22:02Z</time></trkpt><trkpt lat="41.74880187435814" lon="15.802039598215028"><ele>789.3333333333333</ele><time>2026-04-14T14:22:04Z</time></trkpt><trkpt lat="41.74882846908437" lon="15.80217255083729"><ele>787.5</ele><time>2026-04-14T14:22:06Z</time></trkpt><trkpt lat="41.74885471009013" lon="15.802250160562515"><ele>785.6666666666667</ele><time>2026-04-14T14:22:07Z</time></trkpt><trkpt lat="41.748821404244836" lon="15.802372414220235"><ele>783.8333333333334</ele><time>2026-04-14T14:22:09Z</time></trkpt><trkpt lat="41.748884208469136" lon="15.802437711419492"><ele>782.0</ele><time>2026-04-14T14:22:10Z</time></trkpt><trkpt lat="41.748916633850826" lon="15.802535741435916"><ele>782.0000000000001</ele><time>2026-04-14T14:22:11Z</time></trkpt><trkpt lat="41.74891658888958" lon="15.802650205998116"><ele>782.0</ele><time>2026-04-14T14:22:12Z</time></trkpt><trkpt lat="41.748872361997684" lon="15.802772640805877"><ele>782.0</ele><time>2026-04-14T14:22:13Z</time></trkpt><trkpt lat="41.74888425810967" lon="15.80287068700933"><ele>782.0</ele><time>2026-04-14T14:22:14Z</time></trkpt><trkpt lat="41.74888931062976" lon="15.802999325236973"><ele>782.0000000000001</ele><time>2026-04-14T14:22:16Z</time></trkpt><trkpt lat="41.74890188176942" lon="15.803106173662345"><ele>782.0</ele><time>2026-04-14T14:22:17Z</time></trkpt><trkpt lat="41.74890690295544" lon="15.803248784094544"><ele>781.4000000000001</ele><time>2026-04-14T14:22:18Z</time></trkpt><trkpt lat="41.748880657010965" lon="15.80341509089208"><ele>780.8000000000001</ele><time>2026-04-14T14:22:20Z</time></trkpt><trkpt lat="41.74881180366063" lon="15.803522819855448"><ele>780.2</ele><time>2026-04-14T14:22:21Z</time></trkpt><trkpt lat="41.748752843777595" lon="15.803450756203652"><ele>779.6</ele><time>2026-04-14T14:22:22Z</time></trkpt><trkpt lat="41.748719003773274" lon="15.803526911218228"><ele>779.0</ele><time>2026-04-14T14:22:24Z</time></trkpt><trkpt lat="41.74871512837381" lon="15.803622461115312"><ele>778.0</ele><time>2026-04-14T14:22:26Z</time></trkpt><trkpt lat="41.74868503768535" lon="15.803718140968115"><ele>777.0</ele><time>2026-04-14T14:22:28Z</time></trkpt><trkpt lat="41.748592945671454" lon="15.803766711279142"><ele>776.0</ele><time>2026-04-14T14:22:30Z</time></trkpt><trkpt lat="41.748512464403625" lon="15.80384117870687"><ele>775.0</ele><time>2026-04-14T14:22:32Z</time></trkpt><trkpt lat="41.74841643578842" lon="15.80384771887717"><ele>774.0</ele><time>2026-04-14T14:22:33Z</time></trkpt><trkpt lat="41.74832278363498" lon="15.803902594932266"><ele>773.2</ele><time>2026-04-14T14:22:34Z</time></trkpt><trkpt lat="41.74830954054291" lon="15.804074536814715"><ele>772.4000000000001</ele><time>2026-04-14T14:22:36Z</time></trkpt><trkpt lat="41.74827306778684" lon="15.804166608075638"><ele>771.6</ele><time>2026-04-14T14:22:38Z</time></trkpt><trkpt lat="41.748196789059826" lon="15.804218881894904"><ele>770.8</ele><time>2026-04-14T14:22:40Z</time></trkpt><trkpt lat="41.74814822298805" lon="15.804387867342388"><ele>770.0</ele><time>2026-04-14T14:22:42Z</time></trkpt><trkpt lat="41.74802450362855" lon="15.804412988139019"><ele>767.6666666666667</ele><time>2026-04-14T14:22:45.999Z</time></trkpt><trkpt lat="41.74794748690895" lon="15.804540713639364"><ele>765.3333333333334</ele><time>2026-04-14T14:22:47.999Z</time></trkpt><trkpt lat="41.74788685163492" lon="15.804600119263439"><ele>763.0</ele><time>2026-04-14T14:22:50.999Z</time></trkpt><trkpt lat="41.74781594206711" lon="15.804625943706707"><ele>760.6666666666667</ele><time>2026-04-14T14:22:52.999Z</time></trkpt><trkpt lat="41.74775553399012" lon="15.804682129401805"><ele>758.3333333333334</ele><time>2026-04-14T14:22:55.999Z</time></trkpt><trkpt lat="41.74774523319479" lon="15.804787534600548"><ele>756.0</ele><time>2026-04-14T14:22:57.999Z</time></trkpt><trkpt lat="41.74782501875415" lon="15.804967788861301"><ele>756.0</ele><time>2026-04-14T14:23:00.999Z</time></trkpt><trkpt lat="41.74783020255069" lon="15.80505997207288"><ele>756.0</ele><time>2026-04-14T14:23:02.999Z</time></trkpt><trkpt lat="41.74787695150911" lon="15.80514589111185"><ele>756.0</ele><time>2026-04-14T14:23:04.999Z</time></trkpt><trkpt lat="41.747952097195416" lon="15.805263034370437"><ele>756.0</ele><time>2026-04-14T14:23:05.999Z</time></trkpt><trkpt lat="41.74795799343561" lon="15.805389342336444"><ele>756.0</ele><time>2026-04-14T14:23:07.999Z</time></trkpt><trkpt lat="41.74797551787345" lon="15.805483598858224"><ele>756.0</ele><time>2026-04-14T14:23:08.999Z</time></trkpt><trkpt lat="41.74801349764173" lon="15.805701612790601"><ele>754.0</ele><time>2026-04-14T14:23:10.999Z</time></trkpt><trkpt lat="41.74804913175078" lon="15.80580059691625"><ele>752.0</ele><time>2026-04-14T14:23:12.999Z</time></trkpt><trkpt lat="41.74812286586477" lon="15.805934549425913"><ele>750.0</ele><time>2026-04-14T14:23:14.999Z</time></trkpt><trkpt lat="41.748160366007575" lon="15.806019791659597"><ele>748.0</ele><time>2026-04-14T14:23:16.999Z</time></trkpt><trkpt lat="41.748223052421764" lon="15.806135453824922"><ele>746.0</ele><time>2026-04-14T14:23:18.999Z</time></trkpt><trkpt lat="41.74824957955131" lon="15.806280432723481"><ele>743.75</ele><time>2026-04-14T14:23:22.999Z</time></trkpt><trkpt lat="41.74827126404283" lon="15.806361610672633"><ele>741.5</ele><time>2026-04-14T14:23:23.999Z</time></trkpt><trkpt lat="41.74831339284087" lon="15.80644942280796"><ele>739.25</ele><time>2026-04-14T14:23:24.999Z</time></trkpt><trkpt lat="41.74838811962119" lon="15.80659351142456"><ele>737.0</ele><time>2026-04-14T14:23:26.999Z</time></trkpt><trkpt lat="41.74871022195334" lon="15.807181294897669"><ele>736.5</ele><time>2026-04-14T14:23:28.999Z</time></trkpt><trkpt lat="41.74875083812076" lon="15.807254660477819"><ele>736.0</ele><time>2026-04-14T14:23:29.999Z</time></trkpt><trkpt lat="41.748810012597055" lon="15.807359744854253"><ele>735.5</ele><time>2026-04-14T14:23:30.999Z</time></trkpt><trkpt lat="41.74883219457269" lon="15.807463166060211"><ele>735.0</ele><time>2026-04-14T14:23:31.999Z</time></trkpt><trkpt lat="41.74889693543628" lon="15.80751128249408"><ele>734.5</ele><time>2026-04-14T14:23:32.999Z</time></trkpt><trkpt lat="41.74894956063127" lon="15.807559357003797"><ele>734.0</ele><time>2026-04-14T14:23:33.999Z</time></trkpt><trkpt lat="41.74908682570729" lon="15.807642675759253"><ele>731.3333333333333</ele><time>2026-04-14T14:23:35.999Z</time></trkpt><trkpt lat="41.74929006978775" lon="15.807850758492526"><ele>728.6666666666666</ele><time>2026-04-14T14:23:46.999Z</time></trkpt><trkpt lat="41.74931987479583" lon="15.807979783957995"><ele>726.0</ele><time>2026-04-14T14:23:48Z</time></trkpt><trkpt lat="41.74940026238447" lon="15.80808743534877"><ele>726.0</ele><time>2026-04-14T14:23:49Z</time></trkpt><trkpt lat="41.74941881107376" lon="15.808211168995687"><ele>726.0</ele><time>2026-04-14T14:23:50Z</time></trkpt><trkpt lat="41.7494245147658" lon="15.808316850993851"><ele>726.0</ele><time>2026-04-14T14:23:51Z</time></trkpt><trkpt lat="41.749419506753156" lon="15.808435031309173"><ele>726.0</ele><time>2026-04-14T14:23:52Z</time></trkpt><trkpt lat="41.74939793385597" lon="15.808538839183429"><ele>726.0</ele><time>2026-04-14T14:23:53Z</time></trkpt><trkpt lat="41.74933805834586" lon="15.808683473828093"><ele>725.0</ele><time>2026-04-14T14:23:55Z</time></trkpt><trkpt lat="41.74926394130291" lon="15.808723452187179"><ele>724.0</ele><time>2026-04-14T14:23:58Z</time></trkpt><trkpt lat="41.74928725813023" lon="15.808831178495351"><ele>723.0</ele><time>2026-04-14T14:23:59Z</time></trkpt><trkpt lat="41.749104950510386" lon="15.808884321495253"><ele>722.0</ele><time>2026-04-14T14:24:01Z</time></trkpt><trkpt lat="41.749006547212595" lon="15.808943095953092"><ele>722.0</ele><time>2026-04-14T14:24:02Z</time></trkpt><trkpt lat="41.748936000482146" lon="15.80899160473525"><ele>722.0</ele><time>2026-04-14T14:24:03Z</time></trkpt><trkpt lat="41.748871562334855" lon="15.809043456095413"><ele>722.0</ele><time>2026-04-14T14:24:04Z</time></trkpt><trkpt lat="41.74882789684037" lon="15.809106721056102"><ele>722.0</ele><time>2026-04-14T14:24:05Z</time></trkpt><trkpt lat="41.74876866849199" lon="15.80915292499525"><ele>722.0</ele><time>2026-04-14T14:24:06Z</time></trkpt><trkpt lat="41.74866289712611" lon="15.809224069872872"><ele>722.0</ele><time>2026-04-14T14:24:08Z</time></trkpt><trkpt lat="41.74854989115061" lon="15.809328317287623"><ele>721.75</ele><time>2026-04-14T14:24:09Z</time></trkpt><trkpt lat="41.74842384888921" lon="15.809435412031986"><ele>721.5</ele><time>2026-04-14T14:24:10Z</time></trkpt><trkpt lat="41.748293026559374" lon="15.809542622611811"><ele>721.25</ele><time>2026-04-14T14:24:11Z</time></trkpt><trkpt lat="41.74816150426179" lon="15.809622611946965"><ele>721.0</ele><time>2026-04-14T14:24:12Z</time></trkpt><trkpt lat="41.74805853517771" lon="15.80971653343767"><ele>721.0</ele><time>2026-04-14T14:24:13Z</time></trkpt><trkpt lat="41.7480040189368" lon="15.80979290916704"><ele>721.0</ele><time>2026-04-14T14:24:14Z</time></trkpt><trkpt lat="41.747903328694285" lon="15.80989082365684"><ele>721.0</ele><time>2026-04-14T14:24:17Z</time></trkpt><trkpt lat="41.74784716793797" lon="15.809936885083866"><ele>721.0</ele><time>2026-04-14T14:24:18Z</time></trkpt><trkpt lat="41.747789415635204" lon="15.810046021590248"><ele>721.0</ele><time>2026-04-14T14:24:19Z</time></trkpt><trkpt lat="41.74770447278391" lon="15.810104471050586"><ele>719.5</ele><time>2026-04-14T14:24:20Z</time></trkpt><trkpt lat="41.74755777986659" lon="15.81008492413357"><ele>718.0</ele><time>2026-04-14T14:24:22Z</time></trkpt><trkpt lat="41.747438334303766" lon="15.810179813734814"><ele>716.5</ele><time>2026-04-14T14:24:24Z</time></trkpt><trkpt lat="41.74739605518968" lon="15.810298166143712"><ele>715.0</ele><time>2026-04-14T14:24:26Z</time></trkpt><trkpt lat="41.74734183886079" lon="15.810379538125444"><ele>715.0</ele><time>2026-04-14T14:24:28Z</time></trkpt><trkpt lat="41.747157760640114" lon="15.81040219656939"><ele>715.0</ele><time>2026-04-14T14:24:30Z</time></trkpt><trkpt lat="41.74708431791955" lon="15.810385170702363"><ele>715.0</ele><time>2026-04-14T14:24:31Z</time></trkpt><trkpt lat="41.7469984370639" lon="15.8103995333012"><ele>715.0</ele><time>2026-04-14T14:24:32Z</time></trkpt><trkpt lat="41.74689422567931" lon="15.810476005798536"><ele>713.0</ele><time>2026-04-14T14:24:36Z</time></trkpt><trkpt lat="41.74678879784151" lon="15.810584099840112"><ele>711.0</ele><time>2026-04-14T14:24:37Z</time></trkpt><trkpt lat="41.74670135247887" lon="15.810645500338477"><ele>709.0</ele><time>2026-04-14T14:24:38Z</time></trkpt><trkpt lat="41.74652132648776" lon="15.810652456379382"><ele>707.0</ele><time>2026-04-14T14:24:39Z</time></trkpt><trkpt lat="41.746403859082314" lon="15.810622176128625"><ele>707.0</ele><time>2026-04-14T14:24:40Z</time></trkpt><trkpt lat="41.74628998080618" lon="15.81058659721662"><ele>707.0</ele><time>2026-04-14T14:24:41Z</time></trkpt><trkpt lat="41.746130564867016" lon="15.810449261463372"><ele>707.0</ele><time>2026-04-14T14:24:43Z</time></trkpt><trkpt lat="41.74605069810464" lon="15.81050494205049"><ele>707.0</ele><time>2026-04-14T14:24:45Z</time></trkpt><trkpt lat="41.74593229710991" lon="15.810578324330375"><ele>707.0</ele><time>2026-04-14T14:24:48Z</time></trkpt><trkpt lat="41.74590021142064" lon="15.810655221713647"><ele>707.0</ele><time>2026-04-14T14:24:49.999Z</time></trkpt><trkpt lat="41.745886523345895" lon="15.810738637501288"><ele>707.0</ele><time>2026-04-14T14:24:56.999Z</time></trkpt><trkpt lat="41.74575894178953" lon="15.81080468032863"><ele>707.0</ele><time>2026-04-14T14:25:58Z</time></trkpt><trkpt lat="41.74575942373451" lon="15.810904503076497"><ele>707.0</ele><time>2026-04-14T14:26:16Z</time></trkpt><trkpt lat="41.74567647619915" lon="15.810792008195413"><ele>707.0</ele><time>2026-04-14T14:26:18Z</time></trkpt><trkpt lat="41.745650354710826" lon="15.810680470902847"><ele>707.0</ele><time>2026-04-14T14:26:19Z</time></trkpt><trkpt lat="41.74562031261246" lon="15.810589816190399"><ele>707.0</ele><time>2026-04-14T14:26:20Z</time></trkpt><trkpt lat="41.745521180862696" lon="15.810517576723983"><ele>707.0</ele><time>2026-04-14T14:26:22Z</time></trkpt><trkpt lat="41.745460340772624" lon="15.810492138712355"><ele>707.0</ele><time>2026-04-14T14:26:23Z</time></trkpt><trkpt lat="41.745301577057354" lon="15.810471827836185"><ele>708.4000000000001</ele><time>2026-04-14T14:26:24Z</time></trkpt><trkpt lat="41.74520063510417" lon="15.81045820340264"><ele>709.8000000000001</ele><time>2026-04-14T14:26:25Z</time></trkpt><trkpt lat="41.74510174192341" lon="15.810500330906185"><ele>711.2</ele><time>2026-04-14T14:26:26Z</time></trkpt><trkpt lat="41.74500408919297" lon="15.810543529104688"><ele>712.6</ele><time>2026-04-14T14:26:27Z</time></trkpt><trkpt lat="41.7449150506702" lon="15.810626453137722"><ele>714.0</ele><time>2026-04-14T14:26:28Z</time></trkpt><trkpt lat="41.744766649923406" lon="15.810728596506355"><ele>714.0</ele><time>2026-04-14T14:26:29Z</time></trkpt><trkpt lat="41.74468143977153" lon="15.810820789755573"><ele>714.0</ele><time>2026-04-14T14:26:30Z</time></trkpt><trkpt lat="41.7446220978536" lon="15.81088845160633"><ele>714.0</ele><time>2026-04-14T14:26:31Z</time></trkpt><trkpt lat="41.74453811957772" lon="15.810976710602002"><ele>714.0</ele><time>2026-04-14T14:26:32Z</time></trkpt><trkpt lat="41.744462506308075" lon="15.811079504869808"><ele>714.0</ele><time>2026-04-14T14:26:33Z</time></trkpt><trkpt lat="41.74440754691067" lon="15.811191602776445"><ele>716.25</ele><time>2026-04-14T14:26:34Z</time></trkpt><trkpt lat="41.74439555796453" lon="15.811288193557461"><ele>718.5</ele><time>2026-04-14T14:26:35Z</time></trkpt><trkpt lat="41.744431452365525" lon="15.811369299333055"><ele>720.75</ele><time>2026-04-14T14:26:36Z</time></trkpt><trkpt lat="41.74427140634425" lon="15.811537783256515"><ele>723.0</ele><time>2026-04-14T14:26:37Z</time></trkpt><trkpt lat="41.744204104109585" lon="15.811718820151922"><ele>718.6666666666666</ele><time>2026-04-14T14:26:38Z</time></trkpt><trkpt lat="41.7440373692126" lon="15.811842191215703"><ele>714.3333333333333</ele><time>2026-04-14T14:26:39Z</time></trkpt><trkpt lat="41.74394354668584" lon="15.811986285553344"><ele>710.0</ele><time>2026-04-14T14:26:40Z</time></trkpt><trkpt lat="41.74384828278647" lon="15.812115042451452"><ele>710.0</ele><time>2026-04-14T14:26:41Z</time></trkpt><trkpt lat="41.74378713704736" lon="15.81221708385337"><ele>710.0</ele><time>2026-04-14T14:26:42Z</time></trkpt><trkpt lat="41.74370211932383" lon="15.812354641401532"><ele>710.0</ele><time>2026-04-14T14:26:43Z</time></trkpt><trkpt lat="41.74362313472345" lon="15.812424934043149"><ele>710.0</ele><time>2026-04-14T14:26:44Z</time></trkpt><trkpt lat="41.74353688095958" lon="15.81250253354959"><ele>710.0</ele><time>2026-04-14T14:26:45Z</time></trkpt><trkpt lat="41.74346356758412" lon="15.812602932338116"><ele>712.6666666666666</ele><time>2026-04-14T14:26:46Z</time></trkpt><trkpt lat="41.74341737706544" lon="15.812704606201804"><ele>715.3333333333333</ele><time>2026-04-14T14:26:47Z</time></trkpt><trkpt lat="41.74334435499359" lon="15.812813744714369"><ele>718.0</ele><time>2026-04-14T14:26:49Z</time></trkpt><trkpt lat="41.743402938521434" lon="15.812893311609058"><ele>720.6666666666666</ele><time>2026-04-14T14:26:50Z</time></trkpt><trkpt lat="41.74343592498232" lon="15.812972099989532"><ele>723.3333333333334</ele><time>2026-04-14T14:26:51Z</time></trkpt><trkpt lat="41.743438435031656" lon="15.813090838128604"><ele>726.0</ele><time>2026-04-14T14:26:51.999Z</time></trkpt><trkpt lat="41.743429903861525" lon="15.813206110726064"><ele>726.0</ele><time>2026-04-14T14:26:52.999Z</time></trkpt><trkpt lat="41.74339032284693" lon="15.813366412553597"><ele>726.0</ele><time>2026-04-14T14:26:53.999Z</time></trkpt><trkpt lat="41.74330492200113" lon="15.81354204518856"><ele>726.0</ele><time>2026-04-14T14:26:54.999Z</time></trkpt><trkpt lat="41.74331809830341" lon="15.813682457741999"><ele>726.0</ele><time>2026-04-14T14:26:55.999Z</time></trkpt><trkpt lat="41.74323256327137" lon="15.813768273469291"><ele>725.0</ele><time>2026-04-14T14:26:57.999Z</time></trkpt><trkpt lat="41.74317769395919" lon="15.813875273112075"><ele>724.0</ele><time>2026-04-14T14:26:58.999Z</time></trkpt><trkpt lat="41.74313895657055" lon="15.81399222411335"><ele>723.0</ele><time>2026-04-14T14:26:59.999Z</time></trkpt><trkpt lat="41.74304362297445" lon="15.814115353651598"><ele>722.0</ele><time>2026-04-14T14:27:00.999Z</time></trkpt><trkpt lat="41.74295132290767" lon="15.814249755792783"><ele>721.6</ele><time>2026-04-14T14:27:01.999Z</time></trkpt><trkpt lat="41.74290454343057" lon="15.814338080530616"><ele>721.2</ele><time>2026-04-14T14:27:02.999Z</time></trkpt><trkpt lat="41.742866885280336" lon="15.814464427213629"><ele>720.8</ele><time>2026-04-14T14:27:04.999Z</time></trkpt><trkpt lat="41.742814808699805" lon="15.81457831989019"><ele>720.4</ele><time>2026-04-14T14:27:05.999Z</time></trkpt><trkpt lat="41.74274375877136" lon="15.814751865444778"><ele>720.0</ele><time>2026-04-14T14:27:07.999Z</time></trkpt><trkpt lat="41.742695823165796" lon="15.814823850905562"><ele>722.6</ele><time>2026-04-14T14:27:08.999Z</time></trkpt><trkpt lat="41.74266895971158" lon="15.81490942127447"><ele>725.2</ele><time>2026-04-14T14:27:09.999Z</time></trkpt><trkpt lat="41.74261146184579" lon="15.81498004060229"><ele>727.8</ele><time>2026-04-14T14:27:10.999Z</time></trkpt><trkpt lat="41.74254901878452" lon="15.815068608041832"><ele>730.4</ele><time>2026-04-14T14:27:11.999Z</time></trkpt><trkpt lat="41.74249088634827" lon="15.815275513326037"><ele>733.0</ele><time>2026-04-14T14:27:13.999Z</time></trkpt><trkpt lat="41.74238383322113" lon="15.815416666270227"><ele>733.0</ele><time>2026-04-14T14:27:15.999Z</time></trkpt><trkpt lat="41.742321828304" lon="15.815500017017868"><ele>733.0</ele><time>2026-04-14T14:27:16.999Z</time></trkpt><trkpt lat="41.74226731074519" lon="15.815550150005574"><ele>733.0</ele><time>2026-04-14T14:27:17.999Z</time></trkpt><trkpt lat="41.742161589247026" lon="15.815602761132357"><ele>733.0</ele><time>2026-04-14T14:27:18.999Z</time></trkpt><trkpt lat="41.742067234007656" lon="15.815644307062406"><ele>733.0</ele><time>2026-04-14T14:27:19.999Z</time></trkpt><trkpt lat="41.74196191730389" lon="15.815686347945324"><ele>735.0</ele><time>2026-04-14T14:27:20.999Z</time></trkpt><trkpt lat="41.741881029280705" lon="15.815721037610421"><ele>737.0</ele><time>2026-04-14T14:27:21.999Z</time></trkpt><trkpt lat="41.74176991529825" lon="15.815796846428315"><ele>739.0</ele><time>2026-04-14T14:27:23.999Z</time></trkpt><trkpt lat="41.74171835378619" lon="15.815846768844816"><ele>741.0</ele><time>2026-04-14T14:27:24.999Z</time></trkpt><trkpt lat="41.741623044827016" lon="15.815928820408125"><ele>743.0</ele><time>2026-04-14T14:27:25.999Z</time></trkpt><trkpt lat="41.74151432510546" lon="15.81605089031086"><ele>743.0</ele><time>2026-04-14T14:27:27.999Z</time></trkpt><trkpt lat="41.74145568928519" lon="15.816084232978392"><ele>743.0</ele><time>2026-04-14T14:27:28.999Z</time></trkpt><trkpt lat="41.74136182815934" lon="15.816146046384176"><ele>743.0</ele><time>2026-04-14T14:27:30.999Z</time></trkpt><trkpt lat="41.741359123258" lon="15.816283710471707"><ele>743.0</ele><time>2026-04-14T14:27:31.999Z</time></trkpt><trkpt lat="41.74134182443766" lon="15.81637425572122"><ele>743.0</ele><time>2026-04-14T14:27:32.999Z</time></trkpt><trkpt lat="41.74131532534183" lon="15.816455919462392"><ele>743.0</ele><time>2026-04-14T14:27:33.999Z</time></trkpt><trkpt lat="41.741259290688355" lon="15.816508393891791"><ele>743.0</ele><time>2026-04-14T14:27:36.999Z</time></trkpt><trkpt lat="41.741220425229415" lon="15.8165793255402"><ele>743.0</ele><time>2026-04-14T14:27:53.999Z</time></trkpt><trkpt lat="41.74118547101805" lon="15.816654413066466"><ele>743.0</ele><time>2026-04-14T14:28:02Z</time></trkpt><trkpt lat="41.74114756615817" lon="15.816759820281312"><ele>743.0</ele><time>2026-04-14T14:28:05Z</time></trkpt><trkpt lat="41.7411281601957" lon="15.816864156610977"><ele>743.0</ele><time>2026-04-14T14:28:06Z</time></trkpt><trkpt lat="41.741097583216124" lon="15.81698242675981"><ele>743.0</ele><time>2026-04-14T14:28:07Z</time></trkpt><trkpt lat="41.74106928524629" lon="15.817100312931531"><ele>744.0</ele><time>2026-04-14T14:28:08Z</time></trkpt><trkpt lat="41.74104008596738" lon="15.817251932817987"><ele>745.0</ele><time>2026-04-14T14:28:09Z</time></trkpt><trkpt lat="41.741003897354204" lon="15.817396254109338"><ele>746.0</ele><time>2026-04-14T14:28:10Z</time></trkpt><trkpt lat="41.74098473203906" lon="15.81751971171678"><ele>747.0</ele><time>2026-04-14T14:28:11Z</time></trkpt><trkpt lat="41.74097628974987" lon="15.817668171623229"><ele>748.0</ele><time>2026-04-14T14:28:13Z</time></trkpt><trkpt lat="41.740990033904005" lon="15.817780357273687"><ele>749.1666666666667</ele><time>2026-04-14T14:28:15Z</time></trkpt><trkpt lat="41.74100121972798" lon="15.817883187246514"><ele>750.3333333333334</ele><time>2026-04-14T14:28:17Z</time></trkpt><trkpt lat="41.741011286416516" lon="15.817975729839542"><ele>751.5</ele><time>2026-04-14T14:28:19Z</time></trkpt><trkpt lat="41.74104744173226" lon="15.818048512454864"><ele>752.6666666666666</ele><time>2026-04-14T14:28:40Z</time></trkpt><trkpt lat="41.74106755346025" lon="15.818145480873827"><ele>753.8333333333333</ele><time>2026-04-14T14:29:05.999Z</time></trkpt><trkpt lat="41.74112179855649" lon="15.818216516463819"><ele>755.0</ele><time>2026-04-14T14:29:07.999Z</time></trkpt><trkpt lat="41.74119785178385" lon="15.818278573640507"><ele>755.0</ele><time>2026-04-14T14:29:09.999Z</time></trkpt><trkpt lat="41.74128601195576" lon="15.818383748976633"><ele>755.0</ele><time>2026-04-14T14:29:11.999Z</time></trkpt><trkpt lat="41.74133520175034" lon="15.818497299720182"><ele>755.0</ele><time>2026-04-14T14:29:13.999Z</time></trkpt><trkpt lat="41.74147048317774" lon="15.818528797128895"><ele>755.0</ele><time>2026-04-14T14:29:15.999Z</time></trkpt><trkpt lat="41.741502363328834" lon="15.818628294269416"><ele>755.0</ele><time>2026-04-14T14:29:16.999Z</time></trkpt><trkpt lat="41.74158445744724" lon="15.818661105929662"><ele>755.8333333333333</ele><time>2026-04-14T14:29:18.999Z</time></trkpt><trkpt lat="41.74165598901147" lon="15.818710594788017"><ele>756.6666666666666</ele><time>2026-04-14T14:29:19.999Z</time></trkpt><trkpt lat="41.74175068960286" lon="15.818808031428109"><ele>757.5</ele><time>2026-04-14T14:29:21.999Z</time></trkpt><trkpt lat="41.74180813478074" lon="15.818850560210077"><ele>758.3333333333334</ele><time>2026-04-14T14:29:22.999Z</time></trkpt><trkpt lat="41.7418632692169" lon="15.818894741487584"><ele>759.1666666666667</ele><time>2026-04-14T14:29:23.999Z</time></trkpt><trkpt lat="41.74192802099362" lon="15.819010431105218"><ele>760.0</ele><time>2026-04-14T14:29:25.999Z</time></trkpt><trkpt lat="41.741941595943935" lon="15.819095445927864"><ele>761.0</ele><time>2026-04-14T14:29:26.999Z</time></trkpt><trkpt lat="41.74192030099219" lon="15.81933744264029"><ele>762.0</ele><time>2026-04-14T14:29:28.999Z</time></trkpt><trkpt lat="41.74191520119883" lon="15.81944314569692"><ele>763.0</ele><time>2026-04-14T14:29:29.999Z</time></trkpt><trkpt lat="41.74187831344033" lon="15.81952050594866"><ele>764.0</ele><time>2026-04-14T14:29:30.999Z</time></trkpt><trkpt lat="41.74191121311155" lon="15.81959745148212"><ele>765.0</ele><time>2026-04-14T14:29:31.999Z</time></trkpt><trkpt lat="41.74189098889539" lon="15.819859469930384"><ele>765.0</ele><time>2026-04-14T14:29:33.999Z</time></trkpt><trkpt lat="41.74190515870284" lon="15.819970318779196"><ele>765.0</ele><time>2026-04-14T14:29:34.999Z</time></trkpt><trkpt lat="41.74192416041094" lon="15.820054183882386"><ele>765.0</ele><time>2026-04-14T14:29:35.999Z</time></trkpt><trkpt lat="41.741988106165486" lon="15.820185204854312"><ele>765.0</ele><time>2026-04-14T14:29:39.999Z</time></trkpt><trkpt lat="41.742036054207155" lon="15.820269897897584"><ele>765.0</ele><time>2026-04-14T14:29:40.999Z</time></trkpt><trkpt lat="41.742093233463784" lon="15.820320643678555"><ele>765.0</ele><time>2026-04-14T14:29:41.999Z</time></trkpt><trkpt lat="41.742127376364834" lon="15.820398206218888"><ele>765.8333333333334</ele><time>2026-04-14T14:29:43.999Z</time></trkpt><trkpt lat="41.74219070700173" lon="15.820483952657064"><ele>766.6666666666667</ele><time>2026-04-14T14:29:45.999Z</time></trkpt><trkpt lat="41.74224622631693" lon="15.820552672375907"><ele>767.5</ele><time>2026-04-14T14:29:48.999Z</time></trkpt><trkpt lat="41.7423247492309" lon="15.820604609676092"><ele>768.3333333333334</ele><time>2026-04-14T14:29:49.999Z</time></trkpt><trkpt lat="41.74237440262458" lon="15.820685071137149"><ele>769.1666666666667</ele><time>2026-04-14T14:29:52.999Z</time></trkpt><trkpt lat="41.742419307056245" lon="15.820748704172654"><ele>770.0</ele><time>2026-04-14T14:29:54.999Z</time></trkpt><trkpt lat="41.74250245761365" lon="15.8208340302037"><ele>770.0</ele><time>2026-04-14T14:29:56.999Z</time></trkpt><trkpt lat="41.742577070130935" lon="15.820895103636843"><ele>770.0</ele><time>2026-04-14T14:29:59.999Z</time></trkpt><trkpt lat="41.74617468210978" lon="15.83089686542379"><ele>737.6666666666667</ele><time>2026-04-14T14:33:53.999Z</time></trkpt><trkpt lat="41.746168830076485" lon="15.831091704586926"><ele>705.3333333333334</ele><time>2026-04-14T14:33:54.999Z</time></trkpt><trkpt lat="41.74611811998684" lon="15.831283771752883"><ele>673.0</ele><time>2026-04-14T14:33:55.999Z</time></trkpt><trkpt lat="41.746109017504864" lon="15.831517845911586"><ele>673.0</ele><time>2026-04-14T14:33:56.999Z</time></trkpt><trkpt lat="41.746094480115204" lon="15.831739499548396"><ele>673.0</ele><time>2026-04-14T14:33:57.999Z</time></trkpt><trkpt lat="41.74601671804528" lon="15.832204472854318"><ele>673.3333333333334</ele><time>2026-04-14T14:33:59.999Z</time></trkpt><trkpt lat="41.745905266100706" lon="15.83246374068062"><ele>673.6666666666666</ele><time>2026-04-14T14:34:00.999Z</time></trkpt><trkpt lat="41.745833493776516" lon="15.832632269386774"><ele>674.0</ele><time>2026-04-14T14:34:01.999Z</time></trkpt><trkpt lat="41.745726473894365" lon="15.83279860072713"><ele>674.0</ele><time>2026-04-14T14:34:02.999Z</time></trkpt><trkpt lat="41.74568501515137" lon="15.832933658796703"><ele>674.0</ele><time>2026-04-14T14:34:03.999Z</time></trkpt><trkpt lat="41.74561452777318" lon="15.833052910747531"><ele>674.0</ele><time>2026-04-14T14:34:04.999Z</time></trkpt><trkpt lat="41.74558177732251" lon="15.833135647158754"><ele>674.0</ele><time>2026-04-14T14:34:05.999Z</time></trkpt><trkpt lat="41.74560379188591" lon="15.833288888591015"><ele>674.0</ele><time>2026-04-14T14:34:06.999Z</time></trkpt><trkpt lat="41.74556525246899" lon="15.833421521903132"><ele>673.0</ele><time>2026-04-14T14:34:07.999Z</time></trkpt><trkpt lat="41.745516324850975" lon="15.833595427147355"><ele>672.0</ele><time>2026-04-14T14:34:08.999Z</time></trkpt><trkpt lat="41.74547053392083" lon="15.833715183059272"><ele>671.0</ele><time>2026-04-14T14:34:09.999Z</time></trkpt><trkpt lat="41.745485853869624" lon="15.833917508746257"><ele>670.0</ele><time>2026-04-14T14:34:10.999Z</time></trkpt><trkpt lat="41.74554568401717" lon="15.834179107469883"><ele>668.5</ele><time>2026-04-14T14:34:11.999Z</time></trkpt><trkpt lat="41.74558948511668" lon="15.834368769004397"><ele>667.0</ele><time>2026-04-14T14:34:12.999Z</time></trkpt><trkpt lat="41.7455668592507" lon="15.834594963436674"><ele>665.5</ele><time>2026-04-14T14:34:13.999Z</time></trkpt><trkpt lat="41.74554202304191" lon="15.834751131182445"><ele>664.0</ele><time>2026-04-14T14:34:14.999Z</time></trkpt><trkpt lat="41.745497836704594" lon="15.834939721094841"><ele>661.3333333333334</ele><time>2026-04-14T14:34:15.999Z</time></trkpt><trkpt lat="41.74551171361374" lon="15.835146403298916"><ele>658.6666666666666</ele><time>2026-04-14T14:34:16.999Z</time></trkpt><trkpt lat="41.74546722341371" lon="15.835325498369075"><ele>656.0</ele><time>2026-04-14T14:34:18Z</time></trkpt><trkpt lat="41.74535454827643" lon="15.835500104778575"><ele>656.0</ele><time>2026-04-14T14:34:20Z</time></trkpt><trkpt lat="41.74535754260607" lon="15.835800003475741"><ele>656.0</ele><time>2026-04-14T14:34:23Z</time></trkpt><trkpt lat="41.745321274100135" lon="15.835953434547402"><ele>656.0</ele><time>2026-04-14T14:34:24Z</time></trkpt><trkpt lat="41.745261068199284" lon="15.836110669700238"><ele>654.0</ele><time>2026-04-14T14:34:25Z</time></trkpt><trkpt lat="41.74525629051319" lon="15.836397594267089"><ele>652.0</ele><time>2026-04-14T14:34:26Z</time></trkpt><trkpt lat="41.7452104529201" lon="15.836570708463162"><ele>650.0</ele><time>2026-04-14T14:34:27Z</time></trkpt><trkpt lat="41.745098866132665" lon="15.836715798373477"><ele>652.6666666666666</ele><time>2026-04-14T14:34:28Z</time></trkpt><trkpt lat="41.744979697840186" lon="15.836933792170816"><ele>655.3333333333334</ele><time>2026-04-14T14:34:29Z</time></trkpt><trkpt lat="41.74484176451747" lon="15.83704508957571"><ele>658.0</ele><time>2026-04-14T14:34:30Z</time></trkpt><trkpt lat="41.74474654353428" lon="15.837176156864615"><ele>658.0</ele><time>2026-04-14T14:34:31Z</time></trkpt><trkpt lat="41.74467861399931" lon="15.83722094225289"><ele>658.0</ele><time>2026-04-14T14:34:32Z</time></trkpt><trkpt lat="41.74451900784785" lon="15.837400718702298"><ele>658.0</ele><time>2026-04-14T14:34:34Z</time></trkpt><trkpt lat="41.74443007256173" lon="15.837431529841535"><ele>658.0</ele><time>2026-04-14T14:34:35Z</time></trkpt><trkpt lat="41.744289706238554" lon="15.837426523897037"><ele>658.5</ele><time>2026-04-14T14:34:37Z</time></trkpt><trkpt lat="41.74420856928762" lon="15.837397924336702"><ele>659.0</ele><time>2026-04-14T14:34:40Z</time></trkpt><trkpt lat="41.744160889038895" lon="15.837531550362163"><ele>659.5</ele><time>2026-04-14T14:34:42Z</time></trkpt><trkpt lat="41.74418083976605" lon="15.837571006599793"><ele>660.0</ele><time>2026-04-14T14:34:44Z</time></trkpt><trkpt lat="41.74409886257532" lon="15.837629841344786"><ele>660.5</ele><time>2026-04-14T14:34:48Z</time></trkpt><trkpt lat="41.74410157860818" lon="15.837793276423529"><ele>661.0</ele><time>2026-04-14T14:34:49Z</time></trkpt><trkpt lat="41.74403484474831" lon="15.837902320548883"><ele>658.8</ele><time>2026-04-14T14:34:50Z</time></trkpt><trkpt lat="41.743979045048036" lon="15.838048334913886"><ele>656.5999999999999</ele><time>2026-04-14T14:34:51Z</time></trkpt><trkpt lat="41.743896752457864" lon="15.838158865004074"><ele>654.4</ele><time>2026-04-14T14:34:52Z</time></trkpt><trkpt lat="41.74388153838268" lon="15.838269186063178"><ele>652.2</ele><time>2026-04-14T14:34:54Z</time></trkpt><trkpt lat="41.743840386120574" lon="15.838340813213179"><ele>650.0</ele><time>2026-04-14T14:34:55Z</time></trkpt><trkpt lat="41.743802502921504" lon="15.83842934356714"><ele>649.5</ele><time>2026-04-14T14:34:56Z</time></trkpt><trkpt lat="41.74373166834036" lon="15.83849822498615"><ele>649.0</ele><time>2026-04-14T14:34:57Z</time></trkpt><trkpt lat="41.743673876290174" lon="15.838580798062814"><ele>648.5</ele><time>2026-04-14T14:34:59Z</time></trkpt><trkpt lat="41.743566335567444" lon="15.838639122744297"><ele>648.0</ele><time>2026-04-14T14:35:01Z</time></trkpt><trkpt lat="41.74366155734166" lon="15.838827677802582"><ele>648.0</ele><time>2026-04-14T14:35:02Z</time></trkpt><trkpt lat="41.74356795711605" lon="15.838989970402116"><ele>648.0</ele><time>2026-04-14T14:35:03Z</time></trkpt><trkpt lat="41.74344905151971" lon="15.839220310564386"><ele>648.0</ele><time>2026-04-14T14:35:05Z</time></trkpt><trkpt lat="41.74337531944989" lon="15.839351881061658"><ele>649.2</ele><time>2026-04-14T14:35:06Z</time></trkpt><trkpt lat="41.74335776929013" lon="15.839440929544885"><ele>650.4</ele><time>2026-04-14T14:35:07Z</time></trkpt><trkpt lat="41.74330261913133" lon="15.839533148022193"><ele>651.6</ele><time>2026-04-14T14:35:11Z</time></trkpt><trkpt lat="41.74322518852664" lon="15.83958315448289"><ele>652.8000000000001</ele><time>2026-04-14T14:35:17Z</time></trkpt><trkpt lat="41.74332338891598" lon="15.839595851357954"><ele>654.0</ele><time>2026-04-14T14:35:57.999Z</time></trkpt><trkpt lat="41.743330337298005" lon="15.839856042180484"><ele>654.0</ele><time>2026-04-14T14:36:26Z</time></trkpt><trkpt lat="41.74321785562659" lon="15.840025412330913"><ele>654.0</ele><time>2026-04-14T14:36:28Z</time></trkpt><trkpt lat="41.74323788951094" lon="15.840196922810692"><ele>654.0</ele><time>2026-04-14T14:36:29Z</time></trkpt><trkpt lat="41.74325022558648" lon="15.84038959154436"><ele>654.0</ele><time>2026-04-14T14:36:30Z</time></trkpt><trkpt lat="41.743147562540415" lon="15.84036340201708"><ele>653.3333333333334</ele><time>2026-04-14T14:36:31Z</time></trkpt><trkpt lat="41.743174041348574" lon="15.840506057956889"><ele>652.6666666666666</ele><time>2026-04-14T14:36:33Z</time></trkpt><trkpt lat="41.74319635096693" lon="15.840611483216323"><ele>652.0</ele><time>2026-04-14T14:36:34Z</time></trkpt><trkpt lat="41.74323838158386" lon="15.84070317171061"><ele>651.3333333333333</ele><time>2026-04-14T14:36:35Z</time></trkpt><trkpt lat="41.743270549195614" lon="15.840783407151896"><ele>650.6666666666666</ele><time>2026-04-14T14:36:36Z</time></trkpt><trkpt lat="41.74322365940726" lon="15.840846580766383"><ele>650.0</ele><time>2026-04-14T14:36:39Z</time></trkpt><trkpt lat="41.74313321191377" lon="15.840924634104194"><ele>650.0</ele><time>2026-04-14T14:36:40Z</time></trkpt><trkpt lat="41.74306937604665" lon="15.840929804698414"><ele>650.0</ele><time>2026-04-14T14:36:42Z</time></trkpt><trkpt lat="41.743088193659496" lon="15.841047509190023"><ele>650.0</ele><time>2026-04-14T14:36:44Z</time></trkpt><trkpt lat="41.74303852535145" lon="15.841143125655123"><ele>650.0</ele><time>2026-04-14T14:36:45Z</time></trkpt><trkpt lat="41.74308946630883" lon="15.841217453226413"><ele>650.0</ele><time>2026-04-14T14:36:49Z</time></trkpt><trkpt lat="41.742971614826196" lon="15.841329909017587"><ele>651.0</ele><time>2026-04-14T14:36:53Z</time></trkpt><trkpt lat="41.74294925897807" lon="15.841434885259023"><ele>652.0</ele><time>2026-04-14T14:36:55Z</time></trkpt><trkpt lat="41.7428655018114" lon="15.84142010142015"><ele>653.0</ele><time>2026-04-14T14:36:57Z</time></trkpt><trkpt lat="41.74236200557994" lon="15.843394880005944"><ele>651.75</ele><time>2026-04-14T14:37:00Z</time></trkpt><trkpt lat="41.74233041469116" lon="15.843549121187003"><ele>650.5</ele><time>2026-04-14T14:37:01Z</time></trkpt><trkpt lat="41.74228748581414" lon="15.843739882412775"><ele>649.25</ele><time>2026-04-14T14:37:02Z</time></trkpt><trkpt lat="41.74221952449714" lon="15.843787109494059"><ele>648.0</ele><time>2026-04-14T14:37:13Z</time></trkpt><trkpt lat="41.74212510718604" lon="15.843592182847438"><ele>648.0</ele><time>2026-04-14T14:37:17Z</time></trkpt><trkpt lat="41.741997769438875" lon="15.843908082423482"><ele>648.0</ele><time>2026-04-14T14:38:05.999Z</time></trkpt><trkpt lat="41.74199737599563" lon="15.844163075635548"><ele>648.0</ele><time>2026-04-14T14:38:20.999Z</time></trkpt><trkpt lat="41.74192370438183" lon="15.844284549752"><ele>648.0</ele><time>2026-04-14T14:38:22.999Z</time></trkpt><trkpt lat="41.74182010366968" lon="15.844476071731759"><ele>648.0</ele><time>2026-04-14T14:38:24.999Z</time></trkpt><trkpt lat="41.74182081477248" lon="15.844665630625249"><ele>648.0</ele><time>2026-04-14T14:38:25.999Z</time></trkpt><trkpt lat="41.74179428792746" lon="15.844775067803463"><ele>648.6666666666666</ele><time>2026-04-14T14:38:26.999Z</time></trkpt><trkpt lat="41.741799441788686" lon="15.845011784296458"><ele>649.3333333333333</ele><time>2026-04-14T14:38:28.999Z</time></trkpt><trkpt lat="41.74183981791648" lon="15.845163473708363"><ele>650.0</ele><time>2026-04-14T14:38:30Z</time></trkpt><trkpt lat="41.74175654066834" lon="15.84542526043689"><ele>647.3333333333333</ele><time>2026-04-14T14:38:31Z</time></trkpt><trkpt lat="41.74174603712267" lon="15.845560492644871"><ele>644.6666666666666</ele><time>2026-04-14T14:38:32Z</time></trkpt><trkpt lat="41.74148309798409" lon="15.845703874476564"><ele>642.0</ele><time>2026-04-14T14:38:33Z</time></trkpt><trkpt lat="41.74145066196142" lon="15.845780618966366"><ele>642.0</ele><time>2026-04-14T14:38:34Z</time></trkpt><trkpt lat="41.741441532957396" lon="15.845929177797831"><ele>642.0</ele><time>2026-04-14T14:38:35Z</time></trkpt><trkpt lat="41.741387196807466" lon="15.845986995868994"><ele>642.0</ele><time>2026-04-14T14:38:36Z</time></trkpt><trkpt lat="41.741236860830284" lon="15.846068525686883"><ele>642.0</ele><time>2026-04-14T14:38:37Z</time></trkpt><trkpt lat="41.74107680466263" lon="15.84613060333985"><ele>643.3333333333334</ele><time>2026-04-14T14:38:38Z</time></trkpt><trkpt lat="41.740883714595" lon="15.846179353395021"><ele>644.6666666666667</ele><time>2026-04-14T14:38:39Z</time></trkpt><trkpt lat="41.740660933907606" lon="15.84617679341455"><ele>646.0</ele><time>2026-04-14T14:38:40Z</time></trkpt><trkpt lat="41.74052384499828" lon="15.846176931452282"><ele>646.0</ele><time>2026-04-14T14:38:41Z</time></trkpt><trkpt lat="41.740402125598976" lon="15.846173875655625"><ele>646.0</ele><time>2026-04-14T14:38:42Z</time></trkpt><trkpt lat="41.74023576730209" lon="15.846178118284312"><ele>646.0</ele><time>2026-04-14T14:38:43Z</time></trkpt><trkpt lat="41.7401290848912" lon="15.846205460101897"><ele>646.0</ele><time>2026-04-14T14:38:44Z</time></trkpt><trkpt lat="41.74001920142202" lon="15.846198361438823"><ele>649.25</ele><time>2026-04-14T14:38:45Z</time></trkpt><trkpt lat="41.739938843490926" lon="15.846276877783547"><ele>652.5</ele><time>2026-04-14T14:38:47Z</time></trkpt><trkpt lat="41.73993036100094" lon="15.8463850018977"><ele>655.75</ele><time>2026-04-14T14:38:50Z</time></trkpt><trkpt lat="41.73997861736263" lon="15.846613585197248"><ele>659.0</ele><time>2026-04-14T14:38:51Z</time></trkpt><trkpt lat="41.740028975728414" lon="15.84680863244474"><ele>659.0</ele><time>2026-04-14T14:38:53Z</time></trkpt><trkpt lat="41.73998025457831" lon="15.847108227921716"><ele>659.0</ele><time>2026-04-14T14:39:01Z</time></trkpt><trkpt lat="41.739951580158085" lon="15.847185362713272"><ele>659.0</ele><time>2026-04-14T14:39:02Z</time></trkpt><trkpt lat="41.73988483939572" lon="15.84727911824529"><ele>659.0</ele><time>2026-04-14T14:39:05Z</time></trkpt><trkpt lat="41.73979104992894" lon="15.847304109736141"><ele>659.0</ele><time>2026-04-14T14:39:07Z</time></trkpt><trkpt lat="41.73974491030879" lon="15.847382126170809"><ele>659.0</ele><time>2026-04-14T14:39:09Z</time></trkpt><trkpt lat="41.739728213497855" lon="15.847463674137664"><ele>659.0</ele><time>2026-04-14T14:39:10Z</time></trkpt><trkpt lat="41.739724834282086" lon="15.847560758759707"><ele>659.0</ele><time>2026-04-14T14:39:12Z</time></trkpt><trkpt lat="41.7396928731199" lon="15.847637073356896"><ele>659.0</ele><time>2026-04-14T14:39:14Z</time></trkpt><trkpt lat="41.73963550559296" lon="15.847828785013482"><ele>659.0</ele><time>2026-04-14T14:39:20Z</time></trkpt><trkpt lat="41.73957602684706" lon="15.847797087345853"><ele>657.0</ele><time>2026-04-14T14:39:27Z</time></trkpt><trkpt lat="41.73953173135085" lon="15.847894869784513"><ele>655.0</ele><time>2026-04-14T14:39:37Z</time></trkpt><trkpt lat="41.739373602532964" lon="15.848236754071088"><ele>653.0</ele><time>2026-04-14T14:39:39Z</time></trkpt><trkpt lat="41.73934929106453" lon="15.84840454381255"><ele>654.3333333333333</ele><time>2026-04-14T14:39:41Z</time></trkpt><trkpt lat="41.739358523795126" lon="15.848498585168999"><ele>655.6666666666666</ele><time>2026-04-14T14:39:44Z</time></trkpt><trkpt lat="41.73926850981187" lon="15.848573290648861"><ele>657.0</ele><time>2026-04-14T14:39:45Z</time></trkpt><trkpt lat="41.7392263562624" lon="15.848637229588071"><ele>658.3333333333334</ele><time>2026-04-14T14:39:46Z</time></trkpt><trkpt lat="41.7392150894468" lon="15.8487446268513"><ele>659.6666666666667</ele><time>2026-04-14T14:39:48Z</time></trkpt><trkpt lat="41.73910638024472" lon="15.848721104261006"><ele>661.0</ele><time>2026-04-14T14:39:51Z</time></trkpt><trkpt lat="41.739014471886605" lon="15.848774651847974"><ele>661.0</ele><time>2026-04-14T14:39:52Z</time></trkpt><trkpt lat="41.738975519102894" lon="15.848891297691907"><ele>661.0</ele><time>2026-04-14T14:39:54Z</time></trkpt><trkpt lat="41.73892780329447" lon="15.848980156547777"><ele>661.0</ele><time>2026-04-14T14:39:56.999Z</time></trkpt><trkpt lat="41.738907807705246" lon="15.84911864510609"><ele>661.0</ele><time>2026-04-14T14:39:57.999Z</time></trkpt><trkpt lat="41.73882050040292" lon="15.849379560953027"><ele>658.75</ele><time>2026-04-14T14:39:59.999Z</time></trkpt><trkpt lat="41.73874075226475" lon="15.849479626558209"><ele>656.5</ele><time>2026-04-14T14:40:00.999Z</time></trkpt><trkpt lat="41.738638836724284" lon="15.84959037350774"><ele>654.25</ele><time>2026-04-14T14:40:01.999Z</time></trkpt><trkpt lat="41.73854288305371" lon="15.849652936929921"><ele>652.0</ele><time>2026-04-14T14:40:02.999Z</time></trkpt><trkpt lat="41.73846091020114" lon="15.849760967329946"><ele>654.0</ele><time>2026-04-14T14:40:03.999Z</time></trkpt><trkpt lat="41.738396956239114" lon="15.84993413396468"><ele>656.0</ele><time>2026-04-14T14:40:04.999Z</time></trkpt><trkpt lat="41.7383220877848" lon="15.85007435233339"><ele>658.0</ele><time>2026-04-14T14:40:05.999Z</time></trkpt><trkpt lat="41.73824005692495" lon="15.850207228198594"><ele>660.0</ele><time>2026-04-14T14:40:06.999Z</time></trkpt><trkpt lat="41.73817674937714" lon="15.850229794347733"><ele>660.0</ele><time>2026-04-14T14:40:07.999Z</time></trkpt><trkpt lat="41.73813445958443" lon="15.850304834994926"><ele>660.0</ele><time>2026-04-14T14:40:08.999Z</time></trkpt><trkpt lat="41.73808272260553" lon="15.850454917613165"><ele>660.0</ele><time>2026-04-14T14:40:09.999Z</time></trkpt><trkpt lat="41.73809775111985" lon="15.850556376168846"><ele>660.0</ele><time>2026-04-14T14:40:10.999Z</time></trkpt><trkpt lat="41.73810842279858" lon="15.850696084865142"><ele>660.0</ele><time>2026-04-14T14:40:11.999Z</time></trkpt><trkpt lat="41.73813140806352" lon="15.850775650147654"><ele>660.0</ele><time>2026-04-14T14:40:13.999Z</time></trkpt><trkpt lat="41.738058417656504" lon="15.850814254738324"><ele>660.0</ele><time>2026-04-14T14:40:14.999Z</time></trkpt><trkpt lat="41.738004032527215" lon="15.850881313487369"><ele>660.0</ele><time>2026-04-14T14:40:15.999Z</time></trkpt><trkpt lat="41.73791890289993" lon="15.851001625982605"><ele>660.0</ele><time>2026-04-14T14:40:17.999Z</time></trkpt><trkpt lat="41.7378794892785" lon="15.851090369871438"><ele>660.0</ele><time>2026-04-14T14:40:20.999Z</time></trkpt><trkpt lat="41.73786648199427" lon="15.851294475086942"><ele>660.0</ele><time>2026-04-14T14:40:25.999Z</time></trkpt><trkpt lat="41.737767903074925" lon="15.851287354233826"><ele>659.0</ele><time>2026-04-14T14:40:28.999Z</time></trkpt><trkpt lat="41.737747586943534" lon="15.851378221628602"><ele>658.0</ele><time>2026-04-14T14:40:29.999Z</time></trkpt><trkpt lat="41.73778838963813" lon="15.851456786635222"><ele>657.0</ele><time>2026-04-14T14:40:32.999Z</time></trkpt><trkpt lat="41.7378041606509" lon="15.851578882357131"><ele>656.0</ele><time>2026-04-14T14:40:36Z</time></trkpt><trkpt lat="41.73778890768633" lon="15.851666502469064"><ele>655.0</ele><time>2026-04-14T14:40:40Z</time></trkpt><trkpt lat="41.73774519503786" lon="15.851754440749927"><ele>654.0</ele><time>2026-04-14T14:40:43Z</time></trkpt><trkpt lat="41.73752194597832" lon="15.851760276662104"><ele>660.6666666666666</ele><time>2026-04-14T14:40:47Z</time></trkpt><trkpt lat="41.7374948664228" lon="15.85185170516315"><ele>667.3333333333333</ele><time>2026-04-14T14:40:49Z</time></trkpt><trkpt lat="41.737403063354385" lon="15.85185887776394"><ele>674.0</ele><time>2026-04-14T14:40:51Z</time></trkpt><trkpt lat="41.73721327104958" lon="15.852744010566678"><ele>674.0</ele><time>2026-04-14T14:40:53Z</time></trkpt><trkpt lat="41.737133313358" lon="15.85285358490177"><ele>674.0</ele><time>2026-04-14T14:40:56Z</time></trkpt><trkpt lat="41.73713170849011" lon="15.852945721884858"><ele>674.0</ele><time>2026-04-14T14:40:57Z</time></trkpt><trkpt lat="41.73716031603395" lon="15.853079539552445"><ele>674.0</ele><time>2026-04-14T14:41:00Z</time></trkpt><trkpt lat="41.73719329356971" lon="15.853216962164842"><ele>674.0</ele><time>2026-04-14T14:41:01Z</time></trkpt><trkpt lat="41.73725034013728" lon="15.85334401199497"><ele>672.0</ele><time>2026-04-14T14:41:02Z</time></trkpt><trkpt lat="41.737264956357116" lon="15.853503915902477"><ele>670.0</ele><time>2026-04-14T14:41:03Z</time></trkpt><trkpt lat="41.73729858666895" lon="15.853668180600575"><ele>668.0</ele><time>2026-04-14T14:41:04Z</time></trkpt><trkpt lat="41.73730644483639" lon="15.853933978379924"><ele>666.0</ele><time>2026-04-14T14:41:06Z</time></trkpt><trkpt lat="41.73729794831076" lon="15.854064457029946"><ele>666.0</ele><time>2026-04-14T14:41:07Z</time></trkpt><trkpt lat="41.737316194414625" lon="15.85421801460719"><ele>666.0</ele><time>2026-04-14T14:41:08Z</time></trkpt><trkpt lat="41.73731868276419" lon="15.854342832397453"><ele>666.0</ele><time>2026-04-14T14:41:09Z</time></trkpt><trkpt lat="41.737288163315206" lon="15.854510333600706"><ele>666.0</ele><time>2026-04-14T14:41:10Z</time></trkpt><trkpt lat="41.73729740597774" lon="15.854640155133728"><ele>666.0</ele><time>2026-04-14T14:41:11Z</time></trkpt><trkpt lat="41.737308906704584" lon="15.854785421824765"><ele>663.5</ele><time>2026-04-14T14:41:12Z</time></trkpt><trkpt lat="41.73729734710459" lon="15.854920155079665"><ele>661.0</ele><time>2026-04-14T14:41:13Z</time></trkpt><trkpt lat="41.73724107312178" lon="15.855079414509898"><ele>658.5</ele><time>2026-04-14T14:41:14Z</time></trkpt><trkpt lat="41.73721314854819" lon="15.85519140841811"><ele>656.0</ele><time>2026-04-14T14:41:15Z</time></trkpt><trkpt lat="41.73718387252654" lon="15.854804306229328"><ele>656.0</ele><time>2026-04-14T14:41:16Z</time></trkpt><trkpt lat="41.737176430546796" lon="15.854906944423831"><ele>656.0</ele><time>2026-04-14T14:41:18Z</time></trkpt><trkpt lat="41.73718661844326" lon="15.855068137079734"><ele>656.0</ele><time>2026-04-14T14:41:20Z</time></trkpt><trkpt lat="41.73720675468352" lon="15.855163769513076"><ele>656.0</ele><time>2026-04-14T14:41:23Z</time></trkpt><trkpt lat="41.73724096889663" lon="15.855248368756863"><ele>656.0</ele><time>2026-04-14T14:41:26Z</time></trkpt><trkpt lat="41.737255801292186" lon="15.855335137639495"><ele>656.0</ele><time>2026-04-14T14:41:28Z</time></trkpt><trkpt lat="41.73778955001545" lon="15.85784284370817"><ele>655.6666666666666</ele><time>2026-04-14T14:46:07.999Z</time></trkpt><trkpt lat="41.737735141115394" lon="15.857885613265706"><ele>655.3333333333333</ele><time>2026-04-14T14:46:32.999Z</time></trkpt><trkpt lat="41.737794603123426" lon="15.857919829100261"><ele>655.0</ele><time>2026-04-14T14:47:24Z</time></trkpt><trkpt lat="41.73783387208369" lon="15.858036025287385"><ele>654.6666666666666</ele><time>2026-04-14T14:47:26Z</time></trkpt><trkpt lat="41.737863419722764" lon="15.858144639503562"><ele>654.3333333333334</ele><time>2026-04-14T14:47:28Z</time></trkpt><trkpt lat="41.737850993298075" lon="15.858277825464848"><ele>654.0</ele><time>2026-04-14T14:47:30Z</time></trkpt><trkpt lat="41.73781921953571" lon="15.858389852697856"><ele>654.6666666666666</ele><time>2026-04-14T14:47:31Z</time></trkpt><trkpt lat="41.73779376356022" lon="15.858485607589438"><ele>655.3333333333334</ele><time>2026-04-14T14:47:32Z</time></trkpt><trkpt lat="41.73783357132236" lon="15.858604396899803"><ele>656.0</ele><time>2026-04-14T14:47:34Z</time></trkpt><trkpt lat="41.737871123878406" lon="15.858694999552599"><ele>656.6666666666667</ele><time>2026-04-14T14:47:35Z</time></trkpt><trkpt lat="41.73788056372617" lon="15.858821725743793"><ele>657.3333333333334</ele><time>2026-04-14T14:47:36Z</time></trkpt><trkpt lat="41.73789646608467" lon="15.858904065552577"><ele>658.0</ele><time>2026-04-14T14:47:37Z</time></trkpt><trkpt lat="41.737868633005085" lon="15.85899096246001"><ele>658.0</ele><time>2026-04-14T14:47:39Z</time></trkpt><trkpt lat="41.737867802309836" lon="15.859107811476415"><ele>658.0</ele><time>2026-04-14T14:47:40.999Z</time></trkpt><trkpt lat="41.7378894320992" lon="15.859211016896547"><ele>658.0</ele><time>2026-04-14T14:47:42.999Z</time></trkpt><trkpt lat="41.737808396353834" lon="15.85930298089009"><ele>658.0</ele><time>2026-04-14T14:47:45.999Z</time></trkpt><trkpt lat="41.737746170012144" lon="15.859327471295598"><ele>658.0</ele><time>2026-04-14T14:47:47.999Z</time></trkpt><trkpt lat="41.737676075135035" lon="15.859361701546684"><ele>658.0</ele><time>2026-04-14T14:47:53.999Z</time></trkpt><trkpt lat="41.73751941983233" lon="15.85936395306495"><ele>657.2</ele><time>2026-04-14T14:47:57.999Z</time></trkpt><trkpt lat="41.737450946666215" lon="15.85933808013395"><ele>656.4</ele><time>2026-04-14T14:47:58.999Z</time></trkpt><trkpt lat="41.73740025489354" lon="15.85928683188915"><ele>655.6</ele><time>2026-04-14T14:48:00.999Z</time></trkpt><trkpt lat="41.73724933245471" lon="15.8592741388456"><ele>654.8000000000001</ele><time>2026-04-14T14:48:02.999Z</time></trkpt><trkpt lat="41.737141086166055" lon="15.859286391383199"><ele>654.0</ele><time>2026-04-14T14:48:03.999Z</time></trkpt><trkpt lat="41.73704587658746" lon="15.859316897903284"><ele>655.5</ele><time>2026-04-14T14:48:04.999Z</time></trkpt><trkpt lat="41.736970622263875" lon="15.859347347225713"><ele>657.0</ele><time>2026-04-14T14:48:05.999Z</time></trkpt><trkpt lat="41.736898559182585" lon="15.859355815567984"><ele>658.5</ele><time>2026-04-14T14:48:06.999Z</time></trkpt><trkpt lat="41.736828148298784" lon="15.859349610704292"><ele>660.0</ele><time>2026-04-14T14:48:07.999Z</time></trkpt><trkpt lat="41.73675077967651" lon="15.859368079024234"><ele>661.5</ele><time>2026-04-14T14:48:08.999Z</time></trkpt><trkpt lat="41.73667206604455" lon="15.859393444169363"><ele>663.0</ele><time>2026-04-14T14:48:09.999Z</time></trkpt><trkpt lat="41.736599942032406" lon="15.859397871533742"><ele>665.2</ele><time>2026-04-14T14:48:10.999Z</time></trkpt><trkpt lat="41.73652594693809" lon="15.859437871457187"><ele>667.4</ele><time>2026-04-14T14:48:11.999Z</time></trkpt><trkpt lat="41.73643360129372" lon="15.859426316210111"><ele>669.6</ele><time>2026-04-14T14:48:12.999Z</time></trkpt><trkpt lat="41.73636724029085" lon="15.859438694419069"><ele>671.8000000000001</ele><time>2026-04-14T14:48:13.999Z</time></trkpt><trkpt lat="41.736248759750914" lon="15.859492716188392"><ele>674.0</ele><time>2026-04-14T14:48:15.999Z</time></trkpt><trkpt lat="41.73614761586203" lon="15.859548129249909"><ele>674.0</ele><time>2026-04-14T14:48:17.999Z</time></trkpt><trkpt lat="41.73607564234967" lon="15.85956984778116"><ele>674.0</ele><time>2026-04-14T14:48:18.999Z</time></trkpt><trkpt lat="41.73600146369253" lon="15.859578929872931"><ele>674.0</ele><time>2026-04-14T14:48:19.999Z</time></trkpt><trkpt lat="41.73594143872968" lon="15.859643122661911"><ele>674.0</ele><time>2026-04-14T14:48:20.999Z</time></trkpt><trkpt lat="41.73590567805647" lon="15.859713491741962"><ele>674.0</ele><time>2026-04-14T14:48:21.999Z</time></trkpt><trkpt lat="41.73583467224658" lon="15.85976341739871"><ele>674.0</ele><time>2026-04-14T14:48:25.999Z</time></trkpt><trkpt lat="41.73578036843581" lon="15.859844571185784"><ele>674.1666666666666</ele><time>2026-04-14T14:48:28.999Z</time></trkpt><trkpt lat="41.735725100635754" lon="15.859914218294906"><ele>674.3333333333333</ele><time>2026-04-14T14:48:29.999Z</time></trkpt><trkpt lat="41.73563401913167" lon="15.85999496185976"><ele>674.5</ele><time>2026-04-14T14:48:30.999Z</time></trkpt><trkpt lat="41.73564620219107" lon="15.860151676769721"><ele>674.6666666666666</ele><time>2026-04-14T14:48:34.999Z</time></trkpt><trkpt lat="41.735645379296365" lon="15.860236044154647"><ele>674.8333333333334</ele><time>2026-04-14T14:48:35.999Z</time></trkpt><trkpt lat="41.73561077872367" lon="15.86032312823313"><ele>675.0</ele><time>2026-04-14T14:48:37.999Z</time></trkpt><trkpt lat="41.73556668466539" lon="15.860412065993412"><ele>677.3333333333334</ele><time>2026-04-14T14:48:50Z</time></trkpt><trkpt lat="41.73548974120696" lon="15.860443279462924"><ele>679.6666666666666</ele><time>2026-04-14T14:48:52Z</time></trkpt><trkpt lat="41.73537841043495" lon="15.860560999752185"><ele>682.0</ele><time>2026-04-14T14:48:54Z</time></trkpt><trkpt lat="41.73532044166915" lon="15.860619758121343"><ele>684.3333333333333</ele><time>2026-04-14T14:48:55Z</time></trkpt><trkpt lat="41.735262647525424" lon="15.860680370185873"><ele>686.6666666666666</ele><time>2026-04-14T14:48:56Z</time></trkpt><trkpt lat="41.735209134824274" lon="15.860750068045538"><ele>689.0</ele><time>2026-04-14T14:48:57Z</time></trkpt><trkpt lat="41.735147155424336" lon="15.860799865964356"><ele>689.0</ele><time>2026-04-14T14:49:00Z</time></trkpt><trkpt lat="41.735073391751236" lon="15.860792863655444"><ele>689.0</ele><time>2026-04-14T14:49:02Z</time></trkpt><trkpt lat="41.734975832889006" lon="15.860740544684523"><ele>689.0</ele><time>2026-04-14T14:49:04Z</time></trkpt><trkpt lat="41.73483097941463" lon="15.860657609271119"><ele>689.0</ele><time>2026-04-14T14:49:05Z</time></trkpt><trkpt lat="41.73475208369339" lon="15.86058395009092"><ele>689.0</ele><time>2026-04-14T14:49:06Z</time></trkpt><trkpt lat="41.73466108664198" lon="15.860548246103495"><ele>689.0</ele><time>2026-04-14T14:49:07Z</time></trkpt><trkpt lat="41.734525182520095" lon="15.860520466523877"><ele>689.0</ele><time>2026-04-14T14:49:08Z</time></trkpt><trkpt lat="41.734364312113385" lon="15.860470089726947"><ele>689.0</ele><time>2026-04-14T14:49:09Z</time></trkpt><trkpt lat="41.73421127193901" lon="15.860390419885347"><ele>691.8000000000001</ele><time>2026-04-14T14:49:11Z</time></trkpt><trkpt lat="41.7341375362128" lon="15.860303612586847"><ele>694.6</ele><time>2026-04-14T14:49:12Z</time></trkpt><trkpt lat="41.734004914342236" lon="15.860219938234955"><ele>697.4</ele><time>2026-04-14T14:49:13Z</time></trkpt><trkpt lat="41.733933621067436" lon="15.860114525834803"><ele>700.2</ele><time>2026-04-14T14:49:16Z</time></trkpt><trkpt lat="41.73387112620855" lon="15.860076325234223"><ele>703.0</ele><time>2026-04-14T14:49:17Z</time></trkpt><trkpt lat="41.733963819858225" lon="15.86005935844793"><ele>705.3333333333334</ele><time>2026-04-14T14:49:18Z</time></trkpt><trkpt lat="41.733903881556685" lon="15.860089156206367"><ele>707.6666666666667</ele><time>2026-04-14T14:49:20Z</time></trkpt><trkpt lat="41.73388244126401" lon="15.859982193141821"><ele>710.0</ele><time>2026-04-14T14:49:21Z</time></trkpt><trkpt lat="41.733814329076296" lon="15.859990098199262"><ele>712.3333333333334</ele><time>2026-04-14T14:49:22Z</time></trkpt><trkpt lat="41.73368192831391" lon="15.859983776168827"><ele>714.6666666666666</ele><time>2026-04-14T14:49:24Z</time></trkpt><trkpt lat="41.73361520388041" lon="15.859934357027116"><ele>717.0</ele><time>2026-04-14T14:49:25Z</time></trkpt><trkpt lat="41.73352957598389" lon="15.859923547434544"><ele>721.4000000000001</ele><time>2026-04-14T14:49:27Z</time></trkpt><trkpt lat="41.73346593111515" lon="15.859870257050554"><ele>725.8000000000001</ele><time>2026-04-14T14:49:28Z</time></trkpt><trkpt lat="41.73345683473089" lon="15.859762246890526"><ele>730.2</ele><time>2026-04-14T14:49:30Z</time></trkpt><trkpt lat="41.733383777632696" lon="15.85981215312443"><ele>734.6</ele><time>2026-04-14T14:49:31Z</time></trkpt><trkpt lat="41.73331584744538" lon="15.859730783858684"><ele>739.0</ele><time>2026-04-14T14:49:33Z</time></trkpt><trkpt lat="41.73316990474911" lon="15.859605249711343"><ele>739.0</ele><time>2026-04-14T14:49:35Z</time></trkpt><trkpt lat="41.73316108301597" lon="15.859464613348331"><ele>739.0</ele><time>2026-04-14T14:49:37Z</time></trkpt><trkpt lat="41.73319149271388" lon="15.859389281784456"><ele>739.0</ele><time>2026-04-14T14:49:38Z</time></trkpt><trkpt lat="41.73314267213096" lon="15.859276815870336"><ele>739.0</ele><time>2026-04-14T14:49:39Z</time></trkpt><trkpt lat="41.73312533460129" lon="15.859187107386932"><ele>739.0</ele><time>2026-04-14T14:49:40Z</time></trkpt><trkpt lat="41.73314680550849" lon="15.859070254312488"><ele>739.0</ele><time>2026-04-14T14:49:41Z</time></trkpt><trkpt lat="41.73311307950896" lon="15.85897007013816"><ele>741.8000000000001</ele><time>2026-04-14T14:49:43Z</time></trkpt><trkpt lat="41.73312391491439" lon="15.858870841395854"><ele>744.6</ele><time>2026-04-14T14:49:45Z</time></trkpt><trkpt lat="41.733132583029885" lon="15.858677103136735"><ele>747.4</ele><time>2026-04-14T14:49:47Z</time></trkpt><trkpt lat="41.733117151799426" lon="15.85858605170246"><ele>750.2</ele><time>2026-04-14T14:49:49Z</time></trkpt><trkpt lat="41.7331359121188" lon="15.85848754872164"><ele>753.0</ele><time>2026-04-14T14:49:50Z</time></trkpt><trkpt lat="41.73309810003559" lon="15.858353232784836"><ele>755.8333333333334</ele><time>2026-04-14T14:49:52Z</time></trkpt><trkpt lat="41.73309360394216" lon="15.85826535143958"><ele>758.6666666666667</ele><time>2026-04-14T14:49:56Z</time></trkpt><trkpt lat="41.73307086924248" lon="15.858122103551489"><ele>761.5</ele><time>2026-04-14T14:50:10Z</time></trkpt><trkpt lat="41.732994240046885" lon="15.858153323297527"><ele>764.3333333333334</ele><time>2026-04-14T14:50:19.999Z</time></trkpt><trkpt lat="41.73293041680663" lon="15.858078903068677"><ele>767.1666666666667</ele><time>2026-04-14T14:50:21.999Z</time></trkpt><trkpt lat="41.73286801996934" lon="15.858052755973972"><ele>770.0</ele><time>2026-04-14T14:50:22.999Z</time></trkpt><trkpt lat="41.732805598225006" lon="15.857949837434148"><ele>770.0</ele><time>2026-04-14T14:50:24.999Z</time></trkpt><trkpt lat="41.732745057715015" lon="15.857888974527665"><ele>770.0</ele><time>2026-04-14T14:50:27.999Z</time></trkpt><trkpt lat="41.73267145265138" lon="15.85786176091716"><ele>770.0</ele><time>2026-04-14T14:50:30.999Z</time></trkpt><trkpt lat="41.73259267655733" lon="15.857832987486445"><ele>770.0</ele><time>2026-04-14T14:50:32.999Z</time></trkpt><trkpt lat="41.73248315795816" lon="15.85781622258268"><ele>770.0</ele><time>2026-04-14T14:50:34.999Z</time></trkpt><trkpt lat="41.732370651650605" lon="15.857796201456505"><ele>770.0000000000001</ele><time>2026-04-14T14:50:35.999Z</time></trkpt><trkpt lat="41.73241105027572" lon="15.857873402959445"><ele>770.0</ele><time>2026-04-14T14:50:43.999Z</time></trkpt><trkpt lat="41.7324781678012" lon="15.857878302584213"><ele>770.0</ele><time>2026-04-14T14:50:45.999Z</time></trkpt><trkpt lat="41.73256138965924" lon="15.857930577269471"><ele>770.0</ele><time>2026-04-14T14:50:47.999Z</time></trkpt><trkpt lat="41.732682969182115" lon="15.857999055166095"><ele>770.0000000000001</ele><time>2026-04-14T14:50:49.999Z</time></trkpt><trkpt lat="41.73274496260686" lon="15.858064177161069"><ele>770.0</ele><time>2026-04-14T14:50:54Z</time></trkpt><trkpt lat="41.732824397011804" lon="15.858056211393652"><ele>770.0</ele><time>2026-04-14T14:50:59Z</time></trkpt><trkpt lat="41.73296419776947" lon="15.858083493128301"><ele>770.0</ele><time>2026-04-14T14:51:14Z</time></trkpt><trkpt lat="41.73290180664223" lon="15.858097192677423"><ele>770.0</ele><time>2026-04-14T14:51:25Z</time></trkpt><trkpt lat="41.73283671016688" lon="15.858119319012692"><ele>770.0</ele><time>2026-04-14T14:52:07Z</time></trkpt><trkpt lat="41.73290074104816" lon="15.858093835039032"><ele>770.0</ele><time>2026-04-14T14:52:16Z</time></trkpt><trkpt lat="41.733013772842924" lon="15.85804311552652"><ele>770.0000000000001</ele><time>2026-04-14T14:53:25.999Z</time></trkpt><trkpt lat="41.73298957857558" lon="15.858142964094958"><ele>770.0</ele><time>2026-04-14T14:53:54.999Z</time></trkpt><trkpt lat="41.732982056194864" lon="15.858031915383952"><ele>770.0</ele><time>2026-04-14T14:54:03.999Z</time></trkpt><trkpt lat="41.73298016438535" lon="15.857946269026607"><ele>770.0</ele><time>2026-04-14T14:54:13.999Z</time></trkpt><trkpt lat="41.732916356854446" lon="15.857949597799466"><ele>770.0000000000001</ele><time>2026-04-14T14:54:31.999Z</time></trkpt><trkpt lat="41.73287978087549" lon="15.858026815373275"><ele>770.0</ele><time>2026-04-14T14:55:11Z</time></trkpt><trkpt lat="41.73294979186823" lon="15.85789316378026"><ele>770.0000000000001</ele><time>2026-04-14T14:55:46Z</time></trkpt><trkpt lat="41.732881901759484" lon="15.85790936879731"><ele>770.0</ele><time>2026-04-14T14:55:51Z</time></trkpt><trkpt lat="41.732810509789324" lon="15.857945086766884"><ele>770.0</ele><time>2026-04-14T14:55:54Z</time></trkpt><trkpt lat="41.73288612157125" lon="15.857928911793751"><ele>770.0</ele><time>2026-04-14T14:55:55Z</time></trkpt><trkpt lat="41.73284774107398" lon="15.857838806960084"><ele>770.0000000000001</ele><time>2026-04-14T14:56:14Z</time></trkpt><trkpt lat="41.73284908213383" lon="15.857752805852767"><ele>770.0</ele><time>2026-04-14T14:56:16Z</time></trkpt><trkpt lat="41.732883220275866" lon="15.857594758062657"><ele>773.25</ele><time>2026-04-14T14:56:18Z</time></trkpt><trkpt lat="41.732872407213094" lon="15.857356197950553"><ele>776.5</ele><time>2026-04-14T14:56:19Z</time></trkpt><trkpt lat="41.732896177566545" lon="15.857226326810197"><ele>779.75</ele><time>2026-04-14T14:56:20Z</time></trkpt><trkpt lat="41.732923173666684" lon="15.857089486877037"><ele>783.0</ele><time>2026-04-14T14:56:22Z</time></trkpt><trkpt lat="41.732957752992455" lon="15.856974763034065"><ele>783.0</ele><time>2026-04-14T14:56:23Z</time></trkpt><trkpt lat="41.73296686484129" lon="15.856864506869352"><ele>783.0</ele><time>2026-04-14T14:56:24Z</time></trkpt><trkpt lat="41.732979392480075" lon="15.856752079103757"><ele>783.0</ele><time>2026-04-14T14:56:25Z</time></trkpt><trkpt lat="41.732979032832745" lon="15.856611347948213"><ele>783.0</ele><time>2026-04-14T14:56:26Z</time></trkpt><trkpt lat="41.73297059639981" lon="15.856441552920367"><ele>783.0</ele><time>2026-04-14T14:56:28Z</time></trkpt><trkpt lat="41.732959324643275" lon="15.8563430219552"><ele>784.6666666666666</ele><time>2026-04-14T14:56:29Z</time></trkpt><trkpt lat="41.73295910501637" lon="15.856242165029599"><ele>786.3333333333333</ele><time>2026-04-14T14:56:30Z</time></trkpt><trkpt lat="41.7329653523478" lon="15.85611133910999"><ele>788.0</ele><time>2026-04-14T14:56:31Z</time></trkpt><trkpt lat="41.732979880977695" lon="15.855978438020356"><ele>789.6666666666666</ele><time>2026-04-14T14:56:33Z</time></trkpt><trkpt lat="41.73294981167987" lon="15.855861140568651"><ele>791.3333333333333</ele><time>2026-04-14T14:56:35Z</time></trkpt><trkpt lat="41.732944043267054" lon="15.855750969560226"><ele>793.0</ele><time>2026-04-14T14:56:39Z</time></trkpt><trkpt lat="41.732916359313954" lon="15.855672429728601"><ele>794.2</ele><time>2026-04-14T14:56:41Z</time></trkpt><trkpt lat="41.73285155287476" lon="15.855566699260002"><ele>795.4</ele><time>2026-04-14T14:56:45Z</time></trkpt><trkpt lat="41.7327861302172" lon="15.855504766891494"><ele>796.6</ele><time>2026-04-14T14:56:48Z</time></trkpt><trkpt lat="41.73268763916707" lon="15.855490400577535"><ele>797.8000000000001</ele><time>2026-04-14T14:56:50Z</time></trkpt><trkpt lat="41.732610021077136" lon="15.855431537204135"><ele>799.0</ele><time>2026-04-14T14:56:51Z</time></trkpt><trkpt lat="41.73254119713495" lon="15.855370330189848"><ele>801.4999999999999</ele><time>2026-04-14T14:56:52.999Z</time></trkpt><trkpt lat="41.73247507031911" lon="15.855320174772885"><ele>804.0</ele><time>2026-04-14T14:56:55.999Z</time></trkpt><trkpt lat="41.73238728123944" lon="15.85528379598656"><ele>806.5</ele><time>2026-04-14T14:56:58.999Z</time></trkpt><trkpt lat="41.73231195658825" lon="15.855226948155357"><ele>809.0</ele><time>2026-04-14T14:57:07.999Z</time></trkpt><trkpt lat="41.73239492796727" lon="15.855224032503932"><ele>811.4999999999999</ele><time>2026-04-14T14:58:21Z</time></trkpt><trkpt lat="41.73248658742455" lon="15.855254399093816"><ele>814.0</ele><time>2026-04-14T14:58:23Z</time></trkpt><trkpt lat="41.73257610220545" lon="15.855310568124896"><ele>813.9999999999999</ele><time>2026-04-14T14:58:25Z</time></trkpt><trkpt lat="41.73265382514432" lon="15.855318163393584"><ele>814.0</ele><time>2026-04-14T14:58:26Z</time></trkpt><trkpt lat="41.73275298338698" lon="15.855380234916291"><ele>814.0</ele><time>2026-04-14T14:58:28Z</time></trkpt><trkpt lat="41.73283154950163" lon="15.855440300098962"><ele>814.0</ele><time>2026-04-14T14:58:29Z</time></trkpt><trkpt lat="41.732881163415605" lon="15.855515020463187"><ele>813.9999999999999</ele><time>2026-04-14T14:58:30Z</time></trkpt><trkpt lat="41.73295193529665" lon="15.85557540840609"><ele>814.0</ele><time>2026-04-14T14:58:32Z</time></trkpt><trkpt lat="41.73294184978469" lon="15.855730268485894"><ele>811.0</ele><time>2026-04-14T14:58:34Z</time></trkpt><trkpt lat="41.732963888843095" lon="15.85581925372784"><ele>808.0</ele><time>2026-04-14T14:58:35Z</time></trkpt><trkpt lat="41.73300120190334" lon="15.855898182693496"><ele>805.0</ele><time>2026-04-14T14:58:36Z</time></trkpt><trkpt lat="41.73302884019955" lon="15.856046983652288"><ele>802.0</ele><time>2026-04-14T14:58:37Z</time></trkpt><trkpt lat="41.73301113128032" lon="15.856185475715574"><ele>799.0</ele><time>2026-04-14T14:58:38Z</time></trkpt><trkpt lat="41.73300057104024" lon="15.85631177406898"><ele>797.9999999999999</ele><time>2026-04-14T14:58:39Z</time></trkpt><trkpt lat="41.733000430585136" lon="15.856415701373852"><ele>797.0</ele><time>2026-04-14T14:58:40Z</time></trkpt><trkpt lat="41.732985963805866" lon="15.856526546699794"><ele>796.0</ele><time>2026-04-14T14:58:41Z</time></trkpt><trkpt lat="41.73297145358968" lon="15.856619762700978"><ele>795.0</ele><time>2026-04-14T14:58:42Z</time></trkpt><trkpt lat="41.732969783090105" lon="15.856751634859423"><ele>793.9999999999999</ele><time>2026-04-14T14:58:43Z</time></trkpt><trkpt lat="41.73295776023553" lon="15.85686015633202"><ele>793.0</ele><time>2026-04-14T14:58:44Z</time></trkpt><trkpt lat="41.73295533975245" lon="15.85696333740861"><ele>791.0</ele><time>2026-04-14T14:58:45Z</time></trkpt><trkpt lat="41.73294427699002" lon="15.857054691081224"><ele>789.0</ele><time>2026-04-14T14:58:46Z</time></trkpt><trkpt lat="41.732921436484496" lon="15.857231463477493"><ele>787.0</ele><time>2026-04-14T14:58:48Z</time></trkpt><trkpt lat="41.73292030316852" lon="15.857368228876563"><ele>785.0</ele><time>2026-04-14T14:58:50Z</time></trkpt><trkpt lat="41.73291961797646" lon="15.85748727984144"><ele>783.0</ele><time>2026-04-14T14:58:52Z</time></trkpt><trkpt lat="41.7329151073592" lon="15.857579098336123"><ele>780.8333333333334</ele><time>2026-04-14T14:58:54Z</time></trkpt><trkpt lat="41.732889462380065" lon="15.857659737920665"><ele>778.6666666666667</ele><time>2026-04-14T14:58:57Z</time></trkpt><trkpt lat="41.73294508472166" lon="15.85777116903254"><ele>776.5</ele><time>2026-04-14T14:58:59Z</time></trkpt><trkpt lat="41.73291508755256" lon="15.857915222629636"><ele>774.3333333333334</ele><time>2026-04-14T14:59:02Z</time></trkpt><trkpt lat="41.732903959634335" lon="15.858021192185994"><ele>772.1666666666667</ele><time>2026-04-14T14:59:04.999Z</time></trkpt><trkpt lat="41.73283663714095" lon="15.858072764194096"><ele>770.0</ele><time>2026-04-14T14:59:06.999Z</time></trkpt><trkpt lat="41.73286639832878" lon="15.858226177150826"><ele>770.0</ele><time>2026-04-14T14:59:08.999Z</time></trkpt><trkpt lat="41.73286056475983" lon="15.858349294378314"><ele>770.0</ele><time>2026-04-14T14:59:12.999Z</time></trkpt><trkpt lat="41.732860422476826" lon="15.858442945325493"><ele>770.0</ele><time>2026-04-14T14:59:15.999Z</time></trkpt><trkpt lat="41.732913087897835" lon="15.858587788801564"><ele>770.0</ele><time>2026-04-14T14:59:18Z</time></trkpt><trkpt lat="41.73298530527766" lon="15.858713788666186"><ele>770.0</ele><time>2026-04-14T14:59:19Z</time></trkpt><trkpt lat="41.73303783095719" lon="15.858805711027983"><ele>767.1666666666667</ele><time>2026-04-14T14:59:20Z</time></trkpt><trkpt lat="41.733080725230394" lon="15.85888172424004"><ele>764.3333333333334</ele><time>2026-04-14T14:59:21Z</time></trkpt><trkpt lat="41.733112373195034" lon="15.858970239104188"><ele>761.5</ele><time>2026-04-14T14:59:22Z</time></trkpt><trkpt lat="41.73313817123308" lon="15.859080770652284"><ele>758.6666666666667</ele><time>2026-04-14T14:59:23Z</time></trkpt><trkpt lat="41.73316805919953" lon="15.859157312945484"><ele>755.8333333333334</ele><time>2026-04-14T14:59:24Z</time></trkpt><trkpt lat="41.73322549034722" lon="15.859284220231723"><ele>753.0</ele><time>2026-04-14T14:59:25Z</time></trkpt><trkpt lat="41.73329078267612" lon="15.859340991917135"><ele>750.6666666666666</ele><time>2026-04-14T14:59:26Z</time></trkpt><trkpt lat="41.73333643762802" lon="15.859453932693604"><ele>748.3333333333334</ele><time>2026-04-14T14:59:27Z</time></trkpt><trkpt lat="41.733387543418054" lon="15.859535327781991"><ele>746.0</ele><time>2026-04-14T14:59:28Z</time></trkpt><trkpt lat="41.73347229984113" lon="15.859631686942466"><ele>743.6666666666667</ele><time>2026-04-14T14:59:30Z</time></trkpt><trkpt lat="41.7335172322815" lon="15.859693529590427"><ele>741.3333333333334</ele><time>2026-04-14T14:59:31Z</time></trkpt><trkpt lat="41.73360629743577" lon="15.859747936105114"><ele>739.0</ele><time>2026-04-14T14:59:33Z</time></trkpt><trkpt lat="41.73366844583548" lon="15.859797522992958"><ele>734.6</ele><time>2026-04-14T14:59:34Z</time></trkpt><trkpt lat="41.73369002541755" lon="15.859902434472353"><ele>730.2</ele><time>2026-04-14T14:59:35Z</time></trkpt><trkpt lat="41.73377600194718" lon="15.859922383587111"><ele>725.8000000000001</ele><time>2026-04-14T14:59:41Z</time></trkpt><trkpt lat="41.733862590575605" lon="15.859970341230474"><ele>721.4000000000001</ele><time>2026-04-14T14:59:43Z</time></trkpt><trkpt lat="41.73394640451269" lon="15.860112630988729"><ele>717.0</ele><time>2026-04-14T14:59:45Z</time></trkpt><trkpt lat="41.73398914886094" lon="15.860208810988388"><ele>714.2</ele><time>2026-04-14T14:59:46Z</time></trkpt><trkpt lat="41.73408756584009" lon="15.860308778795332"><ele>711.4000000000001</ele><time>2026-04-14T14:59:48Z</time></trkpt><trkpt lat="41.734151550413124" lon="15.8603318893703"><ele>708.5999999999999</ele><time>2026-04-14T14:59:49Z</time></trkpt><trkpt lat="41.734237122371496" lon="15.860356041253604"><ele>705.8</ele><time>2026-04-14T14:59:51Z</time></trkpt><trkpt lat="41.73431690139456" lon="15.860430567054076"><ele>703.0</ele><time>2026-04-14T14:59:53Z</time></trkpt><trkpt lat="41.73439092800266" lon="15.860495746675548"><ele>700.2</ele><time>2026-04-14T14:59:54Z</time></trkpt><trkpt lat="41.734500934187984" lon="15.860598587203707"><ele>697.4</ele><time>2026-04-14T14:59:56Z</time></trkpt><trkpt lat="41.73457660070415" lon="15.860636432884041"><ele>694.6</ele><time>2026-04-14T14:59:57Z</time></trkpt><trkpt lat="41.73466700929919" lon="15.860646916688115"><ele>691.8000000000001</ele><time>2026-04-14T14:59:59Z</time></trkpt><trkpt lat="41.734736315627174" lon="15.860647901287903"><ele>689.0</ele><time>2026-04-14T15:00:00Z</time></trkpt><trkpt lat="41.734800329828985" lon="15.860575839225543"><ele>689.0</ele><time>2026-04-14T15:00:01Z</time></trkpt><trkpt lat="41.73490384148224" lon="15.860506345447734"><ele>689.0</ele><time>2026-04-14T15:00:02Z</time></trkpt><trkpt lat="41.73498091064145" lon="15.860497408406527"><ele>689.0</ele><time>2026-04-14T15:00:03Z</time></trkpt><trkpt lat="41.735035787780134" lon="15.860430486702667"><ele>689.0</ele><time>2026-04-14T15:00:04Z</time></trkpt><trkpt lat="41.735126745758116" lon="15.860382431372372"><ele>689.0</ele><time>2026-04-14T15:00:06Z</time></trkpt><trkpt lat="41.73521202100987" lon="15.86033476285417"><ele>689.0</ele><time>2026-04-14T15:00:08Z</time></trkpt><trkpt lat="41.735232190282474" lon="15.86042610782983"><ele>689.0</ele><time>2026-04-14T15:00:10Z</time></trkpt><trkpt lat="41.73531656278859" lon="15.860371646297594"><ele>689.0</ele><time>2026-04-14T15:00:23Z</time></trkpt><trkpt lat="41.7353670469789" lon="15.860477108806501"><ele>689.0</ele><time>2026-04-14T15:00:34Z</time></trkpt><trkpt lat="41.73542565938725" lon="15.860365732765848"><ele>689.0</ele><time>2026-04-14T15:00:38Z</time></trkpt><trkpt lat="41.73547369886063" lon="15.860277036870084"><ele>689.0</ele><time>2026-04-14T15:00:39Z</time></trkpt><trkpt lat="41.73551413506353" lon="15.860201816392593"><ele>686.6666666666666</ele><time>2026-04-14T15:00:40Z</time></trkpt><trkpt lat="41.73553681589748" lon="15.860086828274945"><ele>684.3333333333333</ele><time>2026-04-14T15:00:42Z</time></trkpt><trkpt lat="41.73559752113899" lon="15.860025870135711"><ele>682.0</ele><time>2026-04-14T15:00:43Z</time></trkpt><trkpt lat="41.735659283400736" lon="15.859975180469885"><ele>679.6666666666666</ele><time>2026-04-14T15:00:44Z</time></trkpt><trkpt lat="41.73574126510988" lon="15.859896068866917"><ele>677.3333333333334</ele><time>2026-04-14T15:00:47Z</time></trkpt><trkpt lat="41.735799010938415" lon="15.859839646619555"><ele>675.0</ele><time>2026-04-14T15:00:48Z</time></trkpt><trkpt lat="41.735882724066464" lon="15.859763459345265"><ele>675.0</ele><time>2026-04-14T15:00:49Z</time></trkpt><trkpt lat="41.73596608966313" lon="15.859695512173403"><ele>675.0</ele><time>2026-04-14T15:00:50Z</time></trkpt><trkpt lat="41.73605546902364" lon="15.8595955963747"><ele>675.0</ele><time>2026-04-14T15:00:52Z</time></trkpt><trkpt lat="41.736139556143804" lon="15.859554230022255"><ele>675.0</ele><time>2026-04-14T15:00:54Z</time></trkpt><trkpt lat="41.736201722543306" lon="15.859487139130193"><ele>675.0</ele><time>2026-04-14T15:00:55Z</time></trkpt><trkpt lat="41.73634319078908" lon="15.859446123549395"><ele>674.8</ele><time>2026-04-14T15:00:56Z</time></trkpt><trkpt lat="41.736467631716934" lon="15.859398973089498"><ele>674.6</ele><time>2026-04-14T15:00:57Z</time></trkpt><trkpt lat="41.73658247685037" lon="15.8593826849255"><ele>674.4000000000001</ele><time>2026-04-14T15:00:58Z</time></trkpt><trkpt lat="41.7366575331328" lon="15.859347799192218"><ele>674.2</ele><time>2026-04-14T15:00:59Z</time></trkpt><trkpt lat="41.73674790086635" lon="15.85932239960428"><ele>674.0</ele><time>2026-04-14T15:01:00Z</time></trkpt><trkpt lat="41.7368268645443" lon="15.859289503585511"><ele>671.8000000000001</ele><time>2026-04-14T15:01:01Z</time></trkpt><trkpt lat="41.73697412007986" lon="15.859272558165406"><ele>669.6</ele><time>2026-04-14T15:01:02Z</time></trkpt><trkpt lat="41.73706039120431" lon="15.859265986389515"><ele>667.4</ele><time>2026-04-14T15:01:03Z</time></trkpt><trkpt lat="41.7371459648603" lon="15.859277790232884"><ele>665.2</ele><time>2026-04-14T15:01:04Z</time></trkpt><trkpt lat="41.737227689989" lon="15.859276393956621"><ele>663.0</ele><time>2026-04-14T15:01:05Z</time></trkpt><trkpt lat="41.737334518678786" lon="15.85931623167655"><ele>663.0</ele><time>2026-04-14T15:01:07Z</time></trkpt><trkpt lat="41.73740713908115" lon="15.859347194042508"><ele>663.0</ele><time>2026-04-14T15:01:08Z</time></trkpt><trkpt lat="41.73748508422097" lon="15.859345876693826"><ele>663.0</ele><time>2026-04-14T15:01:09Z</time></trkpt><trkpt lat="41.73757924936632" lon="15.859384271440353"><ele>663.0</ele><time>2026-04-14T15:01:11Z</time></trkpt><trkpt lat="41.73764833902759" lon="15.859379254275805"><ele>663.0</ele><time>2026-04-14T15:01:13Z</time></trkpt><trkpt lat="41.7377399445892" lon="15.859379574730358"><ele>663.0</ele><time>2026-04-14T15:01:17Z</time></trkpt><trkpt lat="41.73779813666477" lon="15.859418693595586"><ele>662.2</ele><time>2026-04-14T15:01:19Z</time></trkpt><trkpt lat="41.737870807275364" lon="15.859424139488947"><ele>661.4</ele><time>2026-04-14T15:01:23Z</time></trkpt><trkpt lat="41.73795924040225" lon="15.859428083208517"><ele>660.6</ele><time>2026-04-14T15:01:46Z</time></trkpt><trkpt lat="41.738037318557666" lon="15.859439794282252"><ele>659.8000000000001</ele><time>2026-04-14T15:01:49Z</time></trkpt><trkpt lat="41.73812037739621" lon="15.859569175871744"><ele>659.0</ele><time>2026-04-14T15:01:51Z</time></trkpt><trkpt lat="41.73816198758671" lon="15.859797042724052"><ele>659.0</ele><time>2026-04-14T15:01:53Z</time></trkpt><trkpt lat="41.73812146797205" lon="15.859905007811836"><ele>659.0</ele><time>2026-04-14T15:01:54Z</time></trkpt><trkpt lat="41.738100153000936" lon="15.860034750286282"><ele>659.0</ele><time>2026-04-14T15:01:55Z</time></trkpt><trkpt lat="41.73807937329136" lon="15.860211283290313"><ele>659.0</ele><time>2026-04-14T15:01:56Z</time></trkpt><trkpt lat="41.73807233367827" lon="15.860375320337926"><ele>659.0</ele><time>2026-04-14T15:01:58Z</time></trkpt><trkpt lat="41.738089957591114" lon="15.860575440101899"><ele>659.2</ele><time>2026-04-14T15:01:59Z</time></trkpt><trkpt lat="41.738125585407566" lon="15.860790759488895"><ele>659.4000000000001</ele><time>2026-04-14T15:02:00Z</time></trkpt><trkpt lat="41.738152031612834" lon="15.860903145516662"><ele>659.6</ele><time>2026-04-14T15:02:01Z</time></trkpt><trkpt lat="41.73813765071538" lon="15.861040293678354"><ele>659.8</ele><time>2026-04-14T15:02:02Z</time></trkpt><trkpt lat="41.73813030611407" lon="15.861138594661453"><ele>660.0</ele><time>2026-04-14T15:02:03Z</time></trkpt><trkpt lat="41.73812295007315" lon="15.861229108559462"><ele>660.0</ele><time>2026-04-14T15:02:04Z</time></trkpt><trkpt lat="41.73809987360744" lon="15.861467120315014"><ele>660.0</ele><time>2026-04-14T15:02:05Z</time></trkpt><trkpt lat="41.738101455360244" lon="15.861642102801447"><ele>660.0</ele><time>2026-04-14T15:02:06Z</time></trkpt><trkpt lat="41.738102314960585" lon="15.861793272097636"><ele>660.0</ele><time>2026-04-14T15:02:07Z</time></trkpt><trkpt lat="41.738071281048775" lon="15.86193286720805"><ele>660.1666666666666</ele><time>2026-04-14T15:02:08Z</time></trkpt><trkpt lat="41.73803490957993" lon="15.862055208528048"><ele>660.3333333333334</ele><time>2026-04-14T15:02:09Z</time></trkpt><trkpt lat="41.73801005429119" lon="15.862153137105807"><ele>660.5</ele><time>2026-04-14T15:02:10Z</time></trkpt><trkpt lat="41.737996430787696" lon="15.86224834813005"><ele>660.6666666666667</ele><time>2026-04-14T15:02:11Z</time></trkpt><trkpt lat="41.73801620659509" lon="15.862330962772882"><ele>660.8333333333334</ele><time>2026-04-14T15:02:13Z</time></trkpt><trkpt lat="41.73802807304919" lon="15.862416214546702"><ele>661.0</ele><time>2026-04-14T15:02:14Z</time></trkpt><trkpt lat="41.73802447988383" lon="15.862517110904387"><ele>661.3333333333334</ele><time>2026-04-14T15:02:17Z</time></trkpt><trkpt lat="41.73809798113129" lon="15.862624862965214"><ele>661.6666666666667</ele><time>2026-04-14T15:02:19Z</time></trkpt><trkpt lat="41.738127463603696" lon="15.86273374269082"><ele>662.0</ele><time>2026-04-14T15:02:21Z</time></trkpt><trkpt lat="41.73819771078022" lon="15.862782401848875"><ele>662.3333333333334</ele><time>2026-04-14T15:02:23Z</time></trkpt><trkpt lat="41.738245173083364" lon="15.862842797833103"><ele>662.6666666666666</ele><time>2026-04-14T15:02:25Z</time></trkpt><trkpt lat="41.73831317038608" lon="15.86288476709942"><ele>663.0</ele><time>2026-04-14T15:02:27Z</time></trkpt><trkpt lat="41.7384021221521" lon="15.862918704680602"><ele>662.9999999999999</ele><time>2026-04-14T15:02:29Z</time></trkpt><trkpt lat="41.73843642334271" lon="15.86300897341386"><ele>663.0</ele><time>2026-04-14T15:02:31Z</time></trkpt><trkpt lat="41.73847882908511" lon="15.863078189946483"><ele>663.0</ele><time>2026-04-14T15:02:34Z</time></trkpt><trkpt lat="41.73854411762318" lon="15.86308607844228"><ele>663.0</ele><time>2026-04-14T15:02:35Z</time></trkpt><trkpt lat="41.738607602721935" lon="15.863081337596277"><ele>663.0</ele><time>2026-04-14T15:02:36Z</time></trkpt><trkpt lat="41.738608613461814" lon="15.863180668354232"><ele>662.9999999999999</ele><time>2026-04-14T15:02:37Z</time></trkpt><trkpt lat="41.73865459014934" lon="15.86326299781906"><ele>663.0</ele><time>2026-04-14T15:02:38Z</time></trkpt><trkpt lat="41.73870478257303" lon="15.863331045559452"><ele>664.0</ele><time>2026-04-14T15:02:39Z</time></trkpt><trkpt lat="41.7387853236316" lon="15.863428267741511"><ele>665.0</ele><time>2026-04-14T15:02:40Z</time></trkpt><trkpt lat="41.73889569889241" lon="15.863428651563924"><ele>666.0</ele><time>2026-04-14T15:02:41Z</time></trkpt><trkpt lat="41.73902263340813" lon="15.86352587904317"><ele>667.0</ele><time>2026-04-14T15:02:42Z</time></trkpt><trkpt lat="41.739103917734894" lon="15.86356417220437"><ele>667.25</ele><time>2026-04-14T15:02:43Z</time></trkpt><trkpt lat="41.7392866914215" lon="15.863610612244816"><ele>667.5</ele><time>2026-04-14T15:02:44Z</time></trkpt><trkpt lat="41.73943692777329" lon="15.863655396337053"><ele>667.75</ele><time>2026-04-14T15:02:45Z</time></trkpt><trkpt lat="41.73953348121496" lon="15.86364388720582"><ele>668.0</ele><time>2026-04-14T15:02:46Z</time></trkpt><trkpt lat="41.7396528328027" lon="15.863665869689088"><ele>668.5999999999999</ele><time>2026-04-14T15:02:47Z</time></trkpt><trkpt lat="41.73977425280355" lon="15.863665071477216"><ele>669.1999999999999</ele><time>2026-04-14T15:02:48Z</time></trkpt><trkpt lat="41.73987220720498" lon="15.863702230497896"><ele>669.8</ele><time>2026-04-14T15:02:49Z</time></trkpt><trkpt lat="41.73995743328874" lon="15.863717305904022"><ele>670.4</ele><time>2026-04-14T15:02:50Z</time></trkpt><trkpt lat="41.74008950955393" lon="15.863684903555887"><ele>671.0</ele><time>2026-04-14T15:02:51Z</time></trkpt><trkpt lat="41.740181591206024" lon="15.863677667935777"><ele>671.5</ele><time>2026-04-14T15:02:52Z</time></trkpt><trkpt lat="41.74028001020217" lon="15.863678856706423"><ele>672.0</ele><time>2026-04-14T15:02:53Z</time></trkpt><trkpt lat="41.74048011944527" lon="15.863673324009607"><ele>672.5</ele><time>2026-04-14T15:02:54Z</time></trkpt><trkpt lat="41.740583760889" lon="15.863683161305223"><ele>673.0</ele><time>2026-04-14T15:02:55Z</time></trkpt><trkpt lat="41.740674432829955" lon="15.863728730720624"><ele>673.0</ele><time>2026-04-14T15:02:56Z</time></trkpt><trkpt lat="41.74076712108553" lon="15.863762365064408"><ele>673.0</ele><time>2026-04-14T15:02:57Z</time></trkpt><trkpt lat="41.74086079232995" lon="15.863759085480819"><ele>673.0</ele><time>2026-04-14T15:02:59Z</time></trkpt><trkpt lat="41.74093615275542" lon="15.86379243578716"><ele>673.0</ele><time>2026-04-14T15:03:01Z</time></trkpt><trkpt lat="41.74087673569809" lon="15.863736196243494"><ele>673.0</ele><time>2026-04-14T15:03:07Z</time></trkpt><trkpt lat="41.74076799094454" lon="15.863700030137139"><ele>673.0</ele><time>2026-04-14T15:03:09Z</time></trkpt><trkpt lat="41.74070158313624" lon="15.863702275771082"><ele>673.0</ele><time>2026-04-14T15:03:10Z</time></trkpt><trkpt lat="41.74062212146002" lon="15.8637225227836"><ele>673.0</ele><time>2026-04-14T15:03:11Z</time></trkpt><trkpt lat="41.74055731937279" lon="15.863798297416192"><ele>673.0</ele><time>2026-04-14T15:03:12Z</time></trkpt><trkpt lat="41.74045791169966" lon="15.863791414215779"><ele>673.0</ele><time>2026-04-14T15:03:13Z</time></trkpt><trkpt lat="41.740315106490016" lon="15.863765572195945"><ele>673.0</ele><time>2026-04-14T15:03:14Z</time></trkpt><trkpt lat="41.74024890538995" lon="15.863742695983017"><ele>673.0</ele><time>2026-04-14T15:03:15Z</time></trkpt><trkpt lat="41.740107436850444" lon="15.863783043261016"><ele>673.0</ele><time>2026-04-14T15:03:16Z</time></trkpt><trkpt lat="41.740029937775994" lon="15.863775918352022"><ele>673.0</ele><time>2026-04-14T15:03:17Z</time></trkpt><trkpt lat="41.73991807253701" lon="15.863779369766071"><ele>673.0</ele><time>2026-04-14T15:03:18Z</time></trkpt><trkpt lat="41.73982236623969" lon="15.863774119654073"><ele>672.5999999999999</ele><time>2026-04-14T15:03:19Z</time></trkpt><trkpt lat="41.73971359827692" lon="15.86375737094431"><ele>672.1999999999999</ele><time>2026-04-14T15:03:21Z</time></trkpt><trkpt lat="41.73964321017659" lon="15.863752690806306"><ele>671.8</ele><time>2026-04-14T15:03:22Z</time></trkpt><trkpt lat="41.73955592230766" lon="15.863771147069237"><ele>671.4</ele><time>2026-04-14T15:03:24Z</time></trkpt><trkpt lat="41.73943331465605" lon="15.863689541250324"><ele>671.0</ele><time>2026-04-14T15:03:26Z</time></trkpt><trkpt lat="41.739349900935245" lon="15.863660253160575"><ele>670.25</ele><time>2026-04-14T15:03:27Z</time></trkpt><trkpt lat="41.739211780894465" lon="15.86359614725836"><ele>669.5</ele><time>2026-04-14T15:03:29Z</time></trkpt><trkpt lat="41.739075588090174" lon="15.863538763939967"><ele>668.75</ele><time>2026-04-14T15:03:31Z</time></trkpt><trkpt lat="41.738973319662335" lon="15.863499953368937"><ele>668.0</ele><time>2026-04-14T15:03:33Z</time></trkpt><trkpt lat="41.73888676282317" lon="15.863480982073291"><ele>668.0</ele><time>2026-04-14T15:03:35Z</time></trkpt><trkpt lat="41.73881549816332" lon="15.863471651556628"><ele>668.0</ele><time>2026-04-14T15:03:40Z</time></trkpt><trkpt lat="41.7388254791685" lon="15.863369340387425"><ele>668.0</ele><time>2026-04-14T15:03:49Z</time></trkpt><trkpt lat="41.73878201983107" lon="15.863259451284586"><ele>668.0</ele><time>2026-04-14T15:03:53Z</time></trkpt><trkpt lat="41.73869957711892" lon="15.863167420848557"><ele>668.0</ele><time>2026-04-14T15:04:05Z</time></trkpt><trkpt lat="41.73866380584995" lon="15.863254105732576"><ele>668.0</ele><time>2026-04-14T15:04:23Z</time></trkpt><trkpt lat="41.73873588883328" lon="15.863312153978368"><ele>668.0</ele><time>2026-04-14T15:04:26Z</time></trkpt><trkpt lat="41.738795563801474" lon="15.863348607358473"><ele>668.0</ele><time>2026-04-14T15:04:27Z</time></trkpt><trkpt lat="41.73891078968213" lon="15.86340414366086"><ele>668.0</ele><time>2026-04-14T15:04:29Z</time></trkpt><trkpt lat="41.73899340172423" lon="15.86344206253214"><ele>668.0</ele><time>2026-04-14T15:04:30Z</time></trkpt><trkpt lat="41.739055313727775" lon="15.863573525640726"><ele>668.0</ele><time>2026-04-14T15:04:31Z</time></trkpt><trkpt lat="41.739147118306846" lon="15.863613022947614"><ele>668.0</ele><time>2026-04-14T15:04:33Z</time></trkpt><trkpt lat="41.73921842786751" lon="15.863670506418037"><ele>668.0</ele><time>2026-04-14T15:04:34Z</time></trkpt><trkpt lat="41.73935334683864" lon="15.86369635499282"><ele>668.0</ele><time>2026-04-14T15:04:35Z</time></trkpt><trkpt lat="41.73944016584958" lon="15.863716346226397"><ele>668.0</ele><time>2026-04-14T15:04:36Z</time></trkpt><trkpt lat="41.73957360082236" lon="15.863715852623084"><ele>668.0</ele><time>2026-04-14T15:04:37Z</time></trkpt><trkpt lat="41.73973208851716" lon="15.863721363629207"><ele>668.5999999999999</ele><time>2026-04-14T15:04:38Z</time></trkpt><trkpt lat="41.73983285847516" lon="15.863732592519744"><ele>669.1999999999999</ele><time>2026-04-14T15:04:39Z</time></trkpt><trkpt lat="41.73993912444434" lon="15.863735445928524"><ele>669.8</ele><time>2026-04-14T15:04:40Z</time></trkpt><trkpt lat="41.74001839514359" lon="15.8637328720179"><ele>670.4</ele><time>2026-04-14T15:04:41Z</time></trkpt><trkpt lat="41.7401197923391" lon="15.863721191019588"><ele>671.0</ele><time>2026-04-14T15:04:42Z</time></trkpt><trkpt lat="41.74021150076235" lon="15.863725857557442"><ele>671.4</ele><time>2026-04-14T15:04:43Z</time></trkpt><trkpt lat="41.740285414462775" lon="15.863686097191371"><ele>671.8</ele><time>2026-04-14T15:04:44Z</time></trkpt><trkpt lat="41.74039214422041" lon="15.863637727575824"><ele>672.1999999999999</ele><time>2026-04-14T15:04:45Z</time></trkpt><trkpt lat="41.74047172029361" lon="15.863661761030475"><ele>672.5999999999999</ele><time>2026-04-14T15:04:46Z</time></trkpt><trkpt lat="41.740584842888595" lon="15.863657560565143"><ele>673.0</ele><time>2026-04-14T15:04:47Z</time></trkpt><trkpt lat="41.74067913083914" lon="15.863690923787855"><ele>673.0</ele><time>2026-04-14T15:04:48Z</time></trkpt><trkpt lat="41.74076915028481" lon="15.863701599854295"><ele>673.0</ele><time>2026-04-14T15:04:49Z</time></trkpt><trkpt lat="41.74083046154235" lon="15.863823289207946"><ele>673.0</ele><time>2026-04-14T15:04:51Z</time></trkpt><trkpt lat="41.74088774221899" lon="15.863762714656591"><ele>673.0</ele><time>2026-04-14T15:04:53Z</time></trkpt><trkpt lat="41.74097725674903" lon="15.86370448215528"><ele>673.0</ele><time>2026-04-14T15:04:58Z</time></trkpt><trkpt lat="41.74096601480485" lon="15.863862943393544"><ele>673.0</ele><time>2026-04-14T15:05:00Z</time></trkpt><trkpt lat="41.7409893322332" lon="15.864028826746454"><ele>673.0</ele><time>2026-04-14T15:05:01Z</time></trkpt><trkpt lat="41.74095368670111" lon="15.86421489957273"><ele>673.0</ele><time>2026-04-14T15:05:02Z</time></trkpt><trkpt lat="41.74091977600446" lon="15.86444759903516"><ele>673.0</ele><time>2026-04-14T15:05:03Z</time></trkpt><trkpt lat="41.74089398463516" lon="15.86475147087939"><ele>673.0</ele><time>2026-04-14T15:05:04Z</time></trkpt><trkpt lat="41.74088477372019" lon="15.865107438126664"><ele>673.0</ele><time>2026-04-14T15:05:05Z</time></trkpt><trkpt lat="41.7408362130743" lon="15.865422579922084"><ele>673.0</ele><time>2026-04-14T15:05:06Z</time></trkpt><trkpt lat="41.740842383020514" lon="15.86566636158542"><ele>673.0</ele><time>2026-04-14T15:05:07Z</time></trkpt><trkpt lat="41.740856817268444" lon="15.865878457115825"><ele>673.0</ele><time>2026-04-14T15:05:08Z</time></trkpt><trkpt lat="41.74083713362435" lon="15.866098500303366"><ele>672.4</ele><time>2026-04-14T15:05:09Z</time></trkpt><trkpt lat="41.740800689529046" lon="15.866264296155247"><ele>671.8</ele><time>2026-04-14T15:05:10Z</time></trkpt><trkpt lat="41.740782624819424" lon="15.866386048246769"><ele>671.2</ele><time>2026-04-14T15:05:11Z</time></trkpt><trkpt lat="41.74078781158476" lon="15.866541427109006"><ele>670.6</ele><time>2026-04-14T15:05:12Z</time></trkpt><trkpt lat="41.74082026886005" lon="15.866661809261837"><ele>670.0</ele><time>2026-04-14T15:05:13Z</time></trkpt><trkpt lat="41.74088176562969" lon="15.866781766666461"><ele>669.4</ele><time>2026-04-14T15:05:14Z</time></trkpt><trkpt lat="41.74092973555196" lon="15.866895865867138"><ele>668.8</ele><time>2026-04-14T15:05:15Z</time></trkpt><trkpt lat="41.740981893577555" lon="15.86699042602961"><ele>668.2</ele><time>2026-04-14T15:05:16Z</time></trkpt><trkpt lat="41.74105499364611" lon="15.867041189933575"><ele>667.6</ele><time>2026-04-14T15:05:17Z</time></trkpt><trkpt lat="41.74119498709818" lon="15.867089361671173"><ele>667.0</ele><time>2026-04-14T15:05:19Z</time></trkpt><trkpt lat="41.74128748664356" lon="15.867051260033122"><ele>669.2</ele><time>2026-04-14T15:05:20.999Z</time></trkpt><trkpt lat="41.74135261572135" lon="15.866984779545579"><ele>671.4000000000001</ele><time>2026-04-14T15:05:21.999Z</time></trkpt><trkpt lat="41.74145254107645" lon="15.866909971693538"><ele>673.5999999999999</ele><time>2026-04-14T15:05:22.999Z</time></trkpt><trkpt lat="41.74154500877589" lon="15.86690943973518"><ele>675.8</ele><time>2026-04-14T15:05:23.999Z</time></trkpt><trkpt lat="41.74164582683314" lon="15.866889130537528"><ele>678.0</ele><time>2026-04-14T15:05:24.999Z</time></trkpt><trkpt lat="41.74171702272598" lon="15.866826568735615"><ele>678.0</ele><time>2026-04-14T15:05:25.999Z</time></trkpt><trkpt lat="41.741764607212254" lon="15.86673719762749"><ele>678.0</ele><time>2026-04-14T15:05:26.999Z</time></trkpt><trkpt lat="41.74188199098377" lon="15.866632264045307"><ele>678.0</ele><time>2026-04-14T15:05:27.999Z</time></trkpt><trkpt lat="41.74198100373651" lon="15.866611207382125"><ele>678.0</ele><time>2026-04-14T15:05:28.999Z</time></trkpt><trkpt lat="41.74204297654616" lon="15.866595308797512"><ele>678.0</ele><time>2026-04-14T15:05:29.999Z</time></trkpt><trkpt lat="41.74214466279937" lon="15.866611559735318"><ele>679.2</ele><time>2026-04-14T15:05:31.999Z</time></trkpt><trkpt lat="41.74221584053439" lon="15.866618575514698"><ele>680.4</ele><time>2026-04-14T15:05:32.999Z</time></trkpt><trkpt lat="41.74229953835378" lon="15.866630476704936"><ele>681.6</ele><time>2026-04-14T15:05:33.999Z</time></trkpt><trkpt lat="41.74238478235615" lon="15.86666910324768"><ele>682.8000000000001</ele><time>2026-04-14T15:05:35Z</time></trkpt><trkpt lat="41.74248796645289" lon="15.8667224713568"><ele>684.0</ele><time>2026-04-14T15:05:37Z</time></trkpt><trkpt lat="41.74258621632784" lon="15.866757137953968"><ele>684.6</ele><time>2026-04-14T15:05:38Z</time></trkpt><trkpt lat="41.7426873901291" lon="15.86680677623186"><ele>685.2</ele><time>2026-04-14T15:05:40Z</time></trkpt><trkpt lat="41.74276975842396" lon="15.866846634801963"><ele>685.8000000000001</ele><time>2026-04-14T15:05:41Z</time></trkpt><trkpt lat="41.742848306230265" lon="15.866866226890538"><ele>686.4000000000001</ele><time>2026-04-14T15:05:42Z</time></trkpt><trkpt lat="41.742966463628875" lon="15.86690342828575"><ele>687.0</ele><time>2026-04-14T15:05:43Z</time></trkpt><trkpt lat="41.743055499845326" lon="15.866954838578906"><ele>688.0</ele><time>2026-04-14T15:05:44Z</time></trkpt><trkpt lat="41.74314689641775" lon="15.86700167496744"><ele>689.0</ele><time>2026-04-14T15:05:45Z</time></trkpt><trkpt lat="41.743258784694305" lon="15.86706917692877"><ele>690.0</ele><time>2026-04-14T15:05:46Z</time></trkpt><trkpt lat="41.743391035831706" lon="15.867116890019764"><ele>691.0</ele><time>2026-04-14T15:05:47Z</time></trkpt><trkpt lat="41.74355991126462" lon="15.8672423301655"><ele>692.0</ele><time>2026-04-14T15:05:48Z</time></trkpt><trkpt lat="41.74365708103301" lon="15.867348605935092"><ele>693.0</ele><time>2026-04-14T15:05:49Z</time></trkpt><trkpt lat="41.74374106006516" lon="15.867489155268817"><ele>694.0</ele><time>2026-04-14T15:05:50Z</time></trkpt><trkpt lat="41.74385351356209" lon="15.86767251665515"><ele>695.0</ele><time>2026-04-14T15:05:51Z</time></trkpt><trkpt lat="41.743938579873976" lon="15.867757617443209"><ele>695.0</ele><time>2026-04-14T15:05:52Z</time></trkpt><trkpt lat="41.74402103737924" lon="15.867864447739233"><ele>695.0</ele><time>2026-04-14T15:05:53Z</time></trkpt><trkpt lat="41.74406925870872" lon="15.867978880451298"><ele>695.0</ele><time>2026-04-14T15:05:54Z</time></trkpt><trkpt lat="41.74415328661877" lon="15.868152237503129"><ele>695.0</ele><time>2026-04-14T15:05:55Z</time></trkpt><trkpt lat="41.74424420254308" lon="15.868284980242397"><ele>696.25</ele><time>2026-04-14T15:05:56Z</time></trkpt><trkpt lat="41.74434611259016" lon="15.868470226506206"><ele>697.5</ele><time>2026-04-14T15:05:57Z</time></trkpt><trkpt lat="41.744416751444625" lon="15.868571549509381"><ele>698.75</ele><time>2026-04-14T15:05:58Z</time></trkpt><trkpt lat="41.74450716115505" lon="15.868704700543525"><ele>700.0</ele><time>2026-04-14T15:05:59Z</time></trkpt><trkpt lat="41.74457541934854" lon="15.868824708378236"><ele>700.0</ele><time>2026-04-14T15:06:00Z</time></trkpt><trkpt lat="41.744651817145275" lon="15.868988615641527"><ele>700.0</ele><time>2026-04-14T15:06:01Z</time></trkpt><trkpt lat="41.74467457709447" lon="15.869076547991092"><ele>700.0</ele><time>2026-04-14T15:06:02Z</time></trkpt><trkpt lat="41.7447297821445" lon="15.869162389928151"><ele>700.0</ele><time>2026-04-14T15:06:03Z</time></trkpt><trkpt lat="41.74477280239007" lon="15.869239079707867"><ele>700.0</ele><time>2026-04-14T15:06:04Z</time></trkpt><trkpt lat="41.74484456550215" lon="15.869354514438239"><ele>700.4</ele><time>2026-04-14T15:06:05Z</time></trkpt><trkpt lat="41.744933957245166" lon="15.869522726979831"><ele>700.8</ele><time>2026-04-14T15:06:06Z</time></trkpt><trkpt lat="41.74500192237048" lon="15.869646095203631"><ele>701.2</ele><time>2026-04-14T15:06:07Z</time></trkpt><trkpt lat="41.745052430798665" lon="15.86972432076869"><ele>701.6</ele><time>2026-04-14T15:06:08Z</time></trkpt><trkpt lat="41.74510655712968" lon="15.86983000855305"><ele>702.0</ele><time>2026-04-14T15:06:09Z</time></trkpt><trkpt lat="41.74512016342657" lon="15.869923572519333"><ele>702.0</ele><time>2026-04-14T15:06:10Z</time></trkpt><trkpt lat="41.74516165882441" lon="15.870033931288297"><ele>702.0</ele><time>2026-04-14T15:06:11Z</time></trkpt><trkpt lat="41.74524204054836" lon="15.870313871451467"><ele>702.0</ele><time>2026-04-14T15:06:12Z</time></trkpt><trkpt lat="41.74525701502598" lon="15.870482828541167"><ele>702.0</ele><time>2026-04-14T15:06:13Z</time></trkpt><trkpt lat="41.74527662902845" lon="15.870584358914352"><ele>702.3333333333334</ele><time>2026-04-14T15:06:14Z</time></trkpt><trkpt lat="41.74530724941037" lon="15.87070996762205"><ele>702.6666666666666</ele><time>2026-04-14T15:06:15Z</time></trkpt><trkpt lat="41.745351244746566" lon="15.870843498966416"><ele>703.0</ele><time>2026-04-14T15:06:16Z</time></trkpt><trkpt lat="41.74535363867821" lon="15.87093635751447"><ele>703.3333333333333</ele><time>2026-04-14T15:06:17Z</time></trkpt><trkpt lat="41.74537600768532" lon="15.87106705253438"><ele>703.6666666666666</ele><time>2026-04-14T15:06:18Z</time></trkpt><trkpt lat="41.74540437239546" lon="15.871148250757242"><ele>704.0</ele><time>2026-04-14T15:06:19Z</time></trkpt><trkpt lat="41.745398190335834" lon="15.871286235172263"><ele>704.5</ele><time>2026-04-14T15:06:20Z</time></trkpt><trkpt lat="41.745415747448526" lon="15.871392656387899"><ele>705.0</ele><time>2026-04-14T15:06:21Z</time></trkpt><trkpt lat="41.74545523724024" lon="15.871586121583366"><ele>705.5</ele><time>2026-04-14T15:06:22Z</time></trkpt><trkpt lat="41.74544961194034" lon="15.871812816029372"><ele>706.0</ele><time>2026-04-14T15:06:23Z</time></trkpt><trkpt lat="41.74547222274133" lon="15.87194057845782"><ele>706.8</ele><time>2026-04-14T15:06:24Z</time></trkpt><trkpt lat="41.74546984392904" lon="15.872060977740977"><ele>707.5999999999999</ele><time>2026-04-14T15:06:26Z</time></trkpt><trkpt lat="41.74545732960387" lon="15.872158285725408"><ele>708.4</ele><time>2026-04-14T15:06:27Z</time></trkpt><trkpt lat="41.745453142185234" lon="15.872275898417218"><ele>709.2</ele><time>2026-04-14T15:06:28Z</time></trkpt><trkpt lat="41.745397089809174" lon="15.872526117405167"><ele>710.0</ele><time>2026-04-14T15:06:29Z</time></trkpt><trkpt lat="41.74538526564514" lon="15.87264456196754"><ele>710.4</ele><time>2026-04-14T15:06:30Z</time></trkpt><trkpt lat="41.74539900845187" lon="15.87277569195736"><ele>710.8</ele><time>2026-04-14T15:06:32Z</time></trkpt><trkpt lat="41.74542619082753" lon="15.872928660776026"><ele>711.2</ele><time>2026-04-14T15:06:33Z</time></trkpt><trkpt lat="41.74546120783087" lon="15.873036539104294"><ele>711.6</ele><time>2026-04-14T15:06:34Z</time></trkpt><trkpt lat="41.74549371763547" lon="15.873129399229084"><ele>712.0</ele><time>2026-04-14T15:06:35Z</time></trkpt><trkpt lat="41.74548865617917" lon="15.873228569992753"><ele>712.0</ele><time>2026-04-14T15:06:40Z</time></trkpt><trkpt lat="41.74553154106746" lon="15.87333023205994"><ele>712.0</ele><time>2026-04-14T15:06:43Z</time></trkpt><trkpt lat="41.74551323430513" lon="15.873464979196566"><ele>712.0</ele><time>2026-04-14T15:06:44Z</time></trkpt><trkpt lat="41.74552052319458" lon="15.873566200885257"><ele>712.0</ele><time>2026-04-14T15:06:48Z</time></trkpt><trkpt lat="41.745312433221336" lon="15.873619961838328"><ele>712.5</ele><time>2026-04-14T15:06:49Z</time></trkpt><trkpt lat="41.74533418705792" lon="15.873725768456678"><ele>713.0</ele><time>2026-04-14T15:06:55Z</time></trkpt><trkpt lat="41.74537761734101" lon="15.873787635421136"><ele>713.5</ele><time>2026-04-14T15:07:03Z</time></trkpt><trkpt lat="41.74536110253618" lon="15.873924731125681"><ele>714.0</ele><time>2026-04-14T15:07:05Z</time></trkpt><trkpt lat="41.745372725326895" lon="15.874021274171085"><ele>714.5</ele><time>2026-04-14T15:07:06Z</time></trkpt><trkpt lat="41.745414851683975" lon="15.874109009411292"><ele>715.0</ele><time>2026-04-14T15:07:08Z</time></trkpt><trkpt lat="41.745420587359966" lon="15.874263238130146"><ele>715.1666666666667</ele><time>2026-04-14T15:07:11Z</time></trkpt><trkpt lat="41.745378653612384" lon="15.874338842548287"><ele>715.3333333333334</ele><time>2026-04-14T15:07:12.999Z</time></trkpt><trkpt lat="41.74532314555944" lon="15.874380276335915"><ele>715.5</ele><time>2026-04-14T15:07:17.999Z</time></trkpt><trkpt lat="41.74526589038177" lon="15.874455574936338"><ele>715.6666666666666</ele><time>2026-04-14T15:07:21.999Z</time></trkpt><trkpt lat="41.74532427021299" lon="15.874506332006245"><ele>715.8333333333333</ele><time>2026-04-14T15:07:23.999Z</time></trkpt><trkpt lat="41.74533600330968" lon="15.87462158633879"><ele>716.0</ele><time>2026-04-14T15:07:25.999Z</time></trkpt><trkpt lat="41.74528642645976" lon="15.874747861510494"><ele>716.0</ele><time>2026-04-14T15:07:28.999Z</time></trkpt><trkpt lat="41.74525577090226" lon="15.874828785993529"><ele>716.0</ele><time>2026-04-14T15:07:29.999Z</time></trkpt><trkpt lat="41.74521097053354" lon="15.874921252037522"><ele>716.0</ele><time>2026-04-14T15:07:31.999Z</time></trkpt><trkpt lat="41.745194906229834" lon="15.875055412339156"><ele>716.0</ele><time>2026-04-14T15:07:33.999Z</time></trkpt><trkpt lat="41.745230579871375" lon="15.875170126761308"><ele>716.0</ele><time>2026-04-14T15:07:37.999Z</time></trkpt><trkpt lat="41.745250350022594" lon="15.875254952345095"><ele>716.0</ele><time>2026-04-14T15:07:38.999Z</time></trkpt><trkpt lat="41.7452673289446" lon="15.875362019529886"><ele>715.4</ele><time>2026-04-14T15:07:41Z</time></trkpt><trkpt lat="41.74529786650346" lon="15.875535092763414"><ele>714.8</ele><time>2026-04-14T15:07:46Z</time></trkpt><trkpt lat="41.745375310865015" lon="15.87564149831469"><ele>714.1999999999999</ele><time>2026-04-14T15:07:47Z</time></trkpt><trkpt lat="41.74538482431713" lon="15.875762721599038"><ele>713.5999999999999</ele><time>2026-04-14T15:07:48Z</time></trkpt><trkpt lat="41.745420775848686" lon="15.875892003460702"><ele>713.0</ele><time>2026-04-14T15:07:49Z</time></trkpt><trkpt lat="41.74541317308293" lon="15.876007346749194"><ele>712.8</ele><time>2026-04-14T15:07:50Z</time></trkpt><trkpt lat="41.74540492831721" lon="15.876113748829976"><ele>712.5999999999999</ele><time>2026-04-14T15:07:51Z</time></trkpt><trkpt lat="41.7453920464549" lon="15.876202340002338"><ele>712.4000000000001</ele><time>2026-04-14T15:07:52Z</time></trkpt><trkpt lat="41.745399937356076" lon="15.876297832992217"><ele>712.2</ele><time>2026-04-14T15:07:54Z</time></trkpt><trkpt lat="41.74539956232974" lon="15.876515563966954"><ele>712.0</ele><time>2026-04-14T15:07:55Z</time></trkpt><trkpt lat="41.74539035417974" lon="15.876620553601892"><ele>712.0</ele><time>2026-04-14T15:07:56Z</time></trkpt><trkpt lat="41.74533905697391" lon="15.876761707709862"><ele>712.0</ele><time>2026-04-14T15:07:58Z</time></trkpt><trkpt lat="41.745260003838375" lon="15.876824873053335"><ele>712.0</ele><time>2026-04-14T15:08:00Z</time></trkpt><trkpt lat="41.74521082135956" lon="15.876883840184616"><ele>712.0</ele><time>2026-04-14T15:08:01Z</time></trkpt><trkpt lat="41.745158664106874" lon="15.876992400067047"><ele>712.0</ele><time>2026-04-14T15:08:02Z</time></trkpt><trkpt lat="41.74509606076947" lon="15.877084490652123"><ele>713.2</ele><time>2026-04-14T15:08:03Z</time></trkpt><trkpt lat="41.74504824386097" lon="15.877168889018947"><ele>714.4000000000001</ele><time>2026-04-14T15:08:04Z</time></trkpt><trkpt lat="41.74500101519409" lon="15.877252376110867"><ele>715.5999999999999</ele><time>2026-04-14T15:08:05Z</time></trkpt><trkpt lat="41.74495399977875" lon="15.877342655827029"><ele>716.8</ele><time>2026-04-14T15:08:06Z</time></trkpt><trkpt lat="41.74495613740307" lon="15.877525566645378"><ele>718.0</ele><time>2026-04-14T15:08:07Z</time></trkpt><trkpt lat="41.74492739378975" lon="15.877655499957056"><ele>720.25</ele><time>2026-04-14T15:08:08Z</time></trkpt><trkpt lat="41.74488899326804" lon="15.87777076859885"><ele>722.5</ele><time>2026-04-14T15:08:09Z</time></trkpt><trkpt lat="41.744756364310284" lon="15.877889214882593"><ele>724.75</ele><time>2026-04-14T15:08:11Z</time></trkpt><trkpt lat="41.744674562432046" lon="15.87799610279894"><ele>727.0</ele><time>2026-04-14T15:08:12Z</time></trkpt><trkpt lat="41.74460780642393" lon="15.878197199621058"><ele>727.0</ele><time>2026-04-14T15:08:13Z</time></trkpt><trkpt lat="41.74457299282737" lon="15.878342478373812"><ele>727.0</ele><time>2026-04-14T15:08:14Z</time></trkpt><trkpt lat="41.744519157546314" lon="15.878509530666344"><ele>727.0</ele><time>2026-04-14T15:08:15Z</time></trkpt><trkpt lat="41.744451683527586" lon="15.878556620459914"><ele>727.0</ele><time>2026-04-14T15:08:16Z</time></trkpt><trkpt lat="41.7443932912539" lon="15.87860340054934"><ele>727.0</ele><time>2026-04-14T15:08:17Z</time></trkpt><trkpt lat="41.74437623646475" lon="15.878685859401264"><ele>728.6</ele><time>2026-04-14T15:08:20Z</time></trkpt><trkpt lat="41.74428047966778" lon="15.878834466896016"><ele>730.2</ele><time>2026-04-14T15:08:22Z</time></trkpt><trkpt lat="41.74425923336529" lon="15.878935872563302"><ele>731.8</ele><time>2026-04-14T15:08:23Z</time></trkpt><trkpt lat="41.744250701353074" lon="15.879031781497563"><ele>733.4</ele><time>2026-04-14T15:08:24Z</time></trkpt><trkpt lat="41.74417643191219" lon="15.87909424593197"><ele>735.0</ele><time>2026-04-14T15:08:26Z</time></trkpt><trkpt lat="41.74408640888088" lon="15.879220707441013"><ele>736.8</ele><time>2026-04-14T15:08:28Z</time></trkpt><trkpt lat="41.744044337825436" lon="15.879307089199257"><ele>738.6</ele><time>2026-04-14T15:08:30Z</time></trkpt><trkpt lat="41.744048900059546" lon="15.879399241056221"><ele>740.4000000000001</ele><time>2026-04-14T15:08:31Z</time></trkpt><trkpt lat="41.74405489599991" lon="15.879491799008841"><ele>742.2</ele><time>2026-04-14T15:08:32Z</time></trkpt><trkpt lat="41.744098390053765" lon="15.879659461004291"><ele>744.0</ele><time>2026-04-14T15:08:34Z</time></trkpt><trkpt lat="41.74417338819057" lon="15.879752709016152"><ele>744.0</ele><time>2026-04-14T15:08:35Z</time></trkpt><trkpt lat="41.74421553162907" lon="15.879835430261188"><ele>744.0</ele><time>2026-04-14T15:08:36Z</time></trkpt><trkpt lat="41.744319077876035" lon="15.879890147213624"><ele>744.0</ele><time>2026-04-14T15:08:37Z</time></trkpt><trkpt lat="41.74440143186629" lon="15.87998117508997"><ele>744.0</ele><time>2026-04-14T15:08:38Z</time></trkpt><trkpt lat="41.7444640024415" lon="15.880060524711938"><ele>744.0</ele><time>2026-04-14T15:08:40Z</time></trkpt><trkpt lat="41.744533109847275" lon="15.880157041911698"><ele>749.0</ele><time>2026-04-14T15:08:41Z</time></trkpt><trkpt lat="41.74458934626462" lon="15.880292247207036"><ele>754.0</ele><time>2026-04-14T15:08:43Z</time></trkpt><trkpt lat="41.74463746471544" lon="15.880348738189538"><ele>759.0</ele><time>2026-04-14T15:08:44Z</time></trkpt><trkpt lat="41.74469002379239" lon="15.880426024183958"><ele>764.0</ele><time>2026-04-14T15:08:46Z</time></trkpt><trkpt lat="41.744795948672945" lon="15.88053360467206"><ele>769.0</ele><time>2026-04-14T15:08:47Z</time></trkpt><trkpt lat="41.74488011330979" lon="15.880668610028806"><ele>769.0</ele><time>2026-04-14T15:08:48Z</time></trkpt><trkpt lat="41.744941800962614" lon="15.88075154012914"><ele>769.0</ele><time>2026-04-14T15:08:49Z</time></trkpt><trkpt lat="41.745031351042805" lon="15.88093285949157"><ele>769.0</ele><time>2026-04-14T15:08:50Z</time></trkpt><trkpt lat="41.74510548736948" lon="15.881118848051448"><ele>769.0</ele><time>2026-04-14T15:08:51Z</time></trkpt><trkpt lat="41.7451671619262" lon="15.88124514165552"><ele>772.2</ele><time>2026-04-14T15:08:52Z</time></trkpt><trkpt lat="41.74525720160372" lon="15.881380416141102"><ele>775.4000000000001</ele><time>2026-04-14T15:08:53Z</time></trkpt><trkpt lat="41.74529586588319" lon="15.881463637188407"><ele>778.6</ele><time>2026-04-14T15:08:54Z</time></trkpt><trkpt lat="41.74536669871651" lon="15.88152845503823"><ele>781.8</ele><time>2026-04-14T15:08:55Z</time></trkpt><trkpt lat="41.7454773898566" lon="15.881618691457769"><ele>785.0</ele><time>2026-04-14T15:08:56Z</time></trkpt><trkpt lat="41.745569191341616" lon="15.881692155504572"><ele>785.0000000000001</ele><time>2026-04-14T15:08:57Z</time></trkpt><trkpt lat="41.74562087318009" lon="15.881744598675136"><ele>785.0</ele><time>2026-04-14T15:08:58Z</time></trkpt><trkpt lat="41.745684793386914" lon="15.881823086976182"><ele>785.0</ele><time>2026-04-14T15:08:59Z</time></trkpt><trkpt lat="41.745741670796356" lon="15.881950244876654"><ele>785.0</ele><time>2026-04-14T15:09:00Z</time></trkpt><trkpt lat="41.745776097829356" lon="15.882026450947116"><ele>785.0000000000001</ele><time>2026-04-14T15:09:01Z</time></trkpt><trkpt lat="41.74581461344939" lon="15.882093508769785"><ele>785.0</ele><time>2026-04-14T15:09:02Z</time></trkpt><trkpt lat="41.745864677620006" lon="15.88217398595213"><ele>785.0000000000001</ele><time>2026-04-14T15:09:03Z</time></trkpt><trkpt lat="41.745910002118" lon="15.882248472933275"><ele>785.0</ele><time>2026-04-14T15:09:04Z</time></trkpt><trkpt lat="41.74597214603117" lon="15.882349056982871"><ele>785.0</ele><time>2026-04-14T15:09:06Z</time></trkpt><trkpt lat="41.746005690961894" lon="15.88246249146793"><ele>785.0</ele><time>2026-04-14T15:09:08.999Z</time></trkpt><trkpt lat="41.74602385760261" lon="15.88255477299976"><ele>785.0000000000001</ele><time>2026-04-14T15:09:11.999Z</time></trkpt><trkpt lat="41.74603743502365" lon="15.88264117901306"><ele>785.0</ele><time>2026-04-14T15:09:15.999Z</time></trkpt><trkpt lat="41.74609899271061" lon="15.882759774570555"><ele>785.0</ele><time>2026-04-14T15:09:22.999Z</time></trkpt><trkpt lat="41.746159226286906" lon="15.882878471667611"><ele>785.0</ele><time>2026-04-14T15:09:49Z</time></trkpt><trkpt lat="41.74621430574894" lon="15.882992055600333"><ele>785.0</ele><time>2026-04-14T15:09:50Z</time></trkpt><trkpt lat="41.74630726500685" lon="15.883095549735522"><ele>785.0</ele><time>2026-04-14T15:09:52Z</time></trkpt><trkpt lat="41.74636036805975" lon="15.883153390462454"><ele>785.0</ele><time>2026-04-14T15:09:53Z</time></trkpt><trkpt lat="41.74643530867983" lon="15.883248404937744"><ele>785.0000000000001</ele><time>2026-04-14T15:09:54Z</time></trkpt><trkpt lat="41.74648579889822" lon="15.883303510476033"><ele>785.0</ele><time>2026-04-14T15:09:55Z</time></trkpt><trkpt lat="41.74655505499089" lon="15.883369631761148"><ele>785.0</ele><time>2026-04-14T15:09:56Z</time></trkpt><trkpt lat="41.74658676181604" lon="15.8834601379401"><ele>785.0</ele><time>2026-04-14T15:09:58Z</time></trkpt><trkpt lat="41.7466031607397" lon="15.883561438578171"><ele>785.0000000000001</ele><time>2026-04-14T15:09:59Z</time></trkpt><trkpt lat="41.74662963490606" lon="15.883640384481081"><ele>785.0</ele><time>2026-04-14T15:10:00Z</time></trkpt><trkpt lat="41.74669273841867" lon="15.883799271833123"><ele>783.3333333333334</ele><time>2026-04-14T15:10:02Z</time></trkpt><trkpt lat="41.7467307823531" lon="15.883903782765525"><ele>781.6666666666667</ele><time>2026-04-14T15:10:04Z</time></trkpt><trkpt lat="41.746793290811105" lon="15.883969498652139"><ele>780.0</ele><time>2026-04-14T15:10:07Z</time></trkpt><trkpt lat="41.74684163514923" lon="15.884033755533535"><ele>778.3333333333333</ele><time>2026-04-14T15:10:09Z</time></trkpt><trkpt lat="41.74693838399312" lon="15.884097351198253"><ele>776.6666666666666</ele><time>2026-04-14T15:10:12Z</time></trkpt><trkpt lat="41.746978830276305" lon="15.884179063943362"><ele>775.0</ele><time>2026-04-14T15:10:14Z</time></trkpt><trkpt lat="41.74700626124532" lon="15.884285688830008"><ele>770.6666666666666</ele><time>2026-04-14T15:10:16Z</time></trkpt><trkpt lat="41.74705352830244" lon="15.88440681034125"><ele>766.3333333333333</ele><time>2026-04-14T15:10:19Z</time></trkpt><trkpt lat="41.747068834804836" lon="15.884507880915557"><ele>762.0</ele><time>2026-04-14T15:10:21Z</time></trkpt><trkpt lat="41.74708073993596" lon="15.88461684813311"><ele>757.6666666666666</ele><time>2026-04-14T15:10:27Z</time></trkpt><trkpt lat="41.74713185732529" lon="15.884689298064501"><ele>753.3333333333333</ele><time>2026-04-14T15:10:31Z</time></trkpt><trkpt lat="41.74714175361535" lon="15.88481689634649"><ele>749.0</ele><time>2026-04-14T15:10:39Z</time></trkpt><trkpt lat="41.747186332109194" lon="15.884883672104717"><ele>749.0</ele><time>2026-04-14T15:10:48Z</time></trkpt><trkpt lat="41.747241837301104" lon="15.884938669567036"><ele>749.0</ele><time>2026-04-14T15:10:52Z</time></trkpt><trkpt lat="41.74731617309348" lon="15.884964176509419"><ele>749.0</ele><time>2026-04-14T15:10:54Z</time></trkpt><trkpt lat="41.747397483255746" lon="15.88502751782312"><ele>749.0</ele><time>2026-04-14T15:10:57Z</time></trkpt><trkpt lat="41.7474675195577" lon="15.88507128517121"><ele>749.0</ele><time>2026-04-14T15:10:59Z</time></trkpt><trkpt lat="41.74750366646681" lon="15.885157317381736"><ele>749.0</ele><time>2026-04-14T15:11:01Z</time></trkpt><trkpt lat="41.74756587235513" lon="15.885190388331418"><ele>747.25</ele><time>2026-04-14T15:11:03Z</time></trkpt><trkpt lat="41.747678083303455" lon="15.88522512814276"><ele>745.5</ele><time>2026-04-14T15:11:05.999Z</time></trkpt><trkpt lat="41.74778515114015" lon="15.885298087073615"><ele>743.75</ele><time>2026-04-14T15:11:07.999Z</time></trkpt><trkpt lat="41.74789149859036" lon="15.88537579831712"><ele>742.0</ele><time>2026-04-14T15:11:09.999Z</time></trkpt><trkpt lat="41.74795730935587" lon="15.885466670591752"><ele>738.8</ele><time>2026-04-14T15:11:11.999Z</time></trkpt><trkpt lat="41.7480448625512" lon="15.885493357267732"><ele>735.6</ele><time>2026-04-14T15:11:13.999Z</time></trkpt><trkpt lat="41.748087091343976" lon="15.885573863128833"><ele>732.4</ele><time>2026-04-14T15:11:15.999Z</time></trkpt><trkpt lat="41.74821124750799" lon="15.885542795851045"><ele>729.1999999999999</ele><time>2026-04-14T15:11:17.999Z</time></trkpt><trkpt lat="41.74826090925422" lon="15.885622865001258"><ele>726.0</ele><time>2026-04-14T15:11:19.999Z</time></trkpt><trkpt lat="41.74833897429415" lon="15.885570077110003"><ele>726.0</ele><time>2026-04-14T15:11:21.999Z</time></trkpt><trkpt lat="41.74836038237165" lon="15.88567434082181"><ele>726.0</ele><time>2026-04-14T15:11:23.999Z</time></trkpt><trkpt lat="41.74843350734771" lon="15.885768902612073"><ele>726.0</ele><time>2026-04-14T15:11:27.999Z</time></trkpt><trkpt lat="41.748518081471815" lon="15.885786779623025"><ele>726.0</ele><time>2026-04-14T15:11:29.999Z</time></trkpt><trkpt lat="41.74855046623466" lon="15.88586724481136"><ele>726.0</ele><time>2026-04-14T15:11:32.999Z</time></trkpt><trkpt lat="41.748583076309046" lon="15.88594072332018"><ele>726.0</ele><time>2026-04-14T15:11:35.999Z</time></trkpt><trkpt lat="41.748643902233056" lon="15.88600313740051"><ele>721.5</ele><time>2026-04-14T15:11:41.999Z</time></trkpt><trkpt lat="41.74879305579715" lon="15.886117040280558"><ele>717.0</ele><time>2026-04-14T15:11:50.999Z</time></trkpt><trkpt lat="41.748833915024065" lon="15.886193681166551"><ele>712.5</ele><time>2026-04-14T15:11:53Z</time></trkpt><trkpt lat="41.748937899490215" lon="15.886232348466615"><ele>708.0</ele><time>2026-04-14T15:11:55Z</time></trkpt><trkpt lat="41.749054417891045" lon="15.886280187100075"><ele>708.0</ele><time>2026-04-14T15:11:57Z</time></trkpt><trkpt lat="41.7491783468437" lon="15.88633886096042"><ele>708.0</ele><time>2026-04-14T15:11:58Z</time></trkpt><trkpt lat="41.74928130161566" lon="15.886439014013575"><ele>708.0</ele><time>2026-04-14T15:12:00Z</time></trkpt><trkpt lat="41.749310389163284" lon="15.886604881242041"><ele>708.0</ele><time>2026-04-14T15:12:01Z</time></trkpt><trkpt lat="41.749329688975685" lon="15.886702192083577"><ele>705.2</ele><time>2026-04-14T15:12:02Z</time></trkpt><trkpt lat="41.74938997856309" lon="15.886806002229335"><ele>702.4</ele><time>2026-04-14T15:12:03Z</time></trkpt><trkpt lat="41.749455736940895" lon="15.88689428561687"><ele>699.6</ele><time>2026-04-14T15:12:04Z</time></trkpt><trkpt lat="41.74952317775586" lon="15.886987723102598"><ele>696.8000000000001</ele><time>2026-04-14T15:12:06Z</time></trkpt><trkpt lat="41.74959059225913" lon="15.8870779354921"><ele>694.0</ele><time>2026-04-14T15:12:08Z</time></trkpt><trkpt lat="41.7496609241014" lon="15.887123052084734"><ele>694.0</ele><time>2026-04-14T15:12:11Z</time></trkpt><trkpt lat="41.749898415804346" lon="15.88753096752781"><ele>694.0</ele><time>2026-04-14T15:12:19Z</time></trkpt><trkpt lat="41.75000597958574" lon="15.887597525620574"><ele>693.0</ele><time>2026-04-14T15:12:27Z</time></trkpt><trkpt lat="41.750063029400465" lon="15.887643608424275"><ele>692.0</ele><time>2026-04-14T15:12:32Z</time></trkpt><trkpt lat="41.75014351534599" lon="15.887624378597312"><ele>691.0</ele><time>2026-04-14T15:12:34Z</time></trkpt><trkpt lat="41.75024702405731" lon="15.887585899196242"><ele>690.0</ele><time>2026-04-14T15:12:36Z</time></trkpt><trkpt lat="41.75033768496723" lon="15.887546474175599"><ele>689.0</ele><time>2026-04-14T15:12:38Z</time></trkpt><trkpt lat="41.75039520579544" lon="15.88749999719797"><ele>688.0</ele><time>2026-04-14T15:12:39Z</time></trkpt><trkpt lat="41.75048475793625" lon="15.88741008004906"><ele>688.0</ele><time>2026-04-14T15:12:41Z</time></trkpt><trkpt lat="41.75059372120886" lon="15.88734041874904"><ele>688.0</ele><time>2026-04-14T15:12:43Z</time></trkpt><trkpt lat="41.75067304779869" lon="15.887328968400405"><ele>688.0</ele><time>2026-04-14T15:12:44Z</time></trkpt><trkpt lat="41.75077926013314" lon="15.887233852127531"><ele>688.0</ele><time>2026-04-14T15:12:46Z</time></trkpt><trkpt lat="41.750840802845566" lon="15.887133401292184"><ele>688.0</ele><time>2026-04-14T15:12:48Z</time></trkpt><trkpt lat="41.750889810501846" lon="15.887068888101204"><ele>688.0</ele><time>2026-04-14T15:12:50Z</time></trkpt><trkpt lat="41.75093521112254" lon="15.886998126842519"><ele>688.0</ele><time>2026-04-14T15:12:51Z</time></trkpt><trkpt lat="41.75101387680652" lon="15.88682686290578"><ele>688.0</ele><time>2026-04-14T15:12:52Z</time></trkpt><trkpt lat="41.751070149249486" lon="15.886743843434099"><ele>688.0</ele><time>2026-04-14T15:12:53Z</time></trkpt><trkpt lat="41.751106453879096" lon="15.886668682106226"><ele>688.0</ele><time>2026-04-14T15:12:54Z</time></trkpt><trkpt lat="41.751216640431586" lon="15.886508692146448"><ele>688.5</ele><time>2026-04-14T15:12:56Z</time></trkpt><trkpt lat="41.751258703899715" lon="15.886442930299111"><ele>689.0</ele><time>2026-04-14T15:12:57Z</time></trkpt><trkpt lat="41.75132959322433" lon="15.886323436649901"><ele>689.5</ele><time>2026-04-14T15:12:58Z</time></trkpt><trkpt lat="41.75140325533671" lon="15.886230417964395"><ele>690.0</ele><time>2026-04-14T15:13:00Z</time></trkpt><trkpt lat="41.75146117105897" lon="15.886137888221393"><ele>690.5</ele><time>2026-04-14T15:13:03Z</time></trkpt><trkpt lat="41.75146873825299" lon="15.886053459329434"><ele>691.0</ele><time>2026-04-14T15:13:07.999Z</time></trkpt><trkpt lat="41.75140845056188" lon="15.885851601501578"><ele>691.0</ele><time>2026-04-14T15:13:32.999Z</time></trkpt><trkpt lat="41.75147065302375" lon="15.885799593440218"><ele>691.0</ele><time>2026-04-14T15:13:38.999Z</time></trkpt><trkpt lat="41.75153169718017" lon="15.885776918668272"><ele>691.0</ele><time>2026-04-14T15:13:41.999Z</time></trkpt><trkpt lat="41.75159298442867" lon="15.885719078776923"><ele>691.0</ele><time>2026-04-14T15:13:46.999Z</time></trkpt><trkpt lat="41.751538257875865" lon="15.885655806184323"><ele>691.0</ele><time>2026-04-14T15:14:15Z</time></trkpt><trkpt lat="41.751456409895994" lon="15.885566922140992"><ele>691.0</ele><time>2026-04-14T15:14:17Z</time></trkpt><trkpt lat="41.751393102378024" lon="15.88545143128369"><ele>691.0</ele><time>2026-04-14T15:14:19Z</time></trkpt><trkpt lat="41.75139984027376" lon="15.885281770515244"><ele>691.0</ele><time>2026-04-14T15:14:21Z</time></trkpt><trkpt lat="41.751412892586025" lon="15.885194778374933"><ele>691.0</ele><time>2026-04-14T15:14:22Z</time></trkpt><trkpt lat="41.75150211997396" lon="15.885112326348922"><ele>691.0</ele><time>2026-04-14T15:14:23Z</time></trkpt><trkpt lat="41.75154503617334" lon="15.88495577326371"><ele>691.0</ele><time>2026-04-14T15:14:24Z</time></trkpt><trkpt lat="41.75158764561582" lon="15.88484777378506"><ele>690.8</ele><time>2026-04-14T15:14:25Z</time></trkpt><trkpt lat="41.751628583328184" lon="15.884745072586757"><ele>690.5999999999999</ele><time>2026-04-14T15:14:26Z</time></trkpt><trkpt lat="41.751662002012736" lon="15.884625564886752"><ele>690.4</ele><time>2026-04-14T15:14:27Z</time></trkpt><trkpt lat="41.75172593282348" lon="15.884556756922045"><ele>690.2</ele><time>2026-04-14T15:14:28Z</time></trkpt><trkpt lat="41.75180422755934" lon="15.884423547897384"><ele>690.0</ele><time>2026-04-14T15:14:30Z</time></trkpt><trkpt lat="41.751881199949494" lon="15.884304370496613"><ele>689.5</ele><time>2026-04-14T15:14:31Z</time></trkpt><trkpt lat="41.751947619004" lon="15.884130125427012"><ele>689.0</ele><time>2026-04-14T15:14:32Z</time></trkpt><trkpt lat="41.751998220289614" lon="15.883995408955508"><ele>688.5</ele><time>2026-04-14T15:14:33Z</time></trkpt><trkpt lat="41.7520881297702" lon="15.883813129108725"><ele>688.0</ele><time>2026-04-14T15:14:35Z</time></trkpt><trkpt lat="41.752137206080064" lon="15.883722987914808"><ele>688.0</ele><time>2026-04-14T15:14:36Z</time></trkpt><trkpt lat="41.75221416110833" lon="15.883588208119793"><ele>688.0</ele><time>2026-04-14T15:14:37Z</time></trkpt><trkpt lat="41.75229141603041" lon="15.883430273824336"><ele>688.0</ele><time>2026-04-14T15:14:38Z</time></trkpt><trkpt lat="41.752341590928346" lon="15.883311719581148"><ele>688.0</ele><time>2026-04-14T15:14:39Z</time></trkpt><trkpt lat="41.75238961956105" lon="15.883181569619978"><ele>688.4</ele><time>2026-04-14T15:14:40Z</time></trkpt><trkpt lat="41.75243454155592" lon="15.883074678768994"><ele>688.8</ele><time>2026-04-14T15:14:41Z</time></trkpt><trkpt lat="41.75247493452652" lon="15.882934648888023"><ele>689.2</ele><time>2026-04-14T15:14:42Z</time></trkpt><trkpt lat="41.752522576110174" lon="15.882827518952945"><ele>689.6</ele><time>2026-04-14T15:14:43Z</time></trkpt><trkpt lat="41.75256745230399" lon="15.882654174705552"><ele>690.0</ele><time>2026-04-14T15:14:45Z</time></trkpt><trkpt lat="41.75258074969868" lon="15.882520154461483"><ele>690.3333333333334</ele><time>2026-04-14T15:14:46Z</time></trkpt><trkpt lat="41.75259700567741" lon="15.882409958784418"><ele>690.6666666666666</ele><time>2026-04-14T15:14:47Z</time></trkpt><trkpt lat="41.75258986936775" lon="15.882317329200042"><ele>691.0</ele><time>2026-04-14T15:14:48Z</time></trkpt><trkpt lat="41.75261421350232" lon="15.882166652866598"><ele>691.3333333333333</ele><time>2026-04-14T15:14:49Z</time></trkpt><trkpt lat="41.75261176178184" lon="15.88205899555853"><ele>691.6666666666666</ele><time>2026-04-14T15:14:50Z</time></trkpt><trkpt lat="41.75261225243406" lon="15.881933776818922"><ele>692.0</ele><time>2026-04-14T15:14:51Z</time></trkpt><trkpt lat="41.752627409869" lon="15.881798403669418"><ele>693.1666666666666</ele><time>2026-04-14T15:14:52Z</time></trkpt><trkpt lat="41.75265359649599" lon="15.881678405103973"><ele>694.3333333333333</ele><time>2026-04-14T15:14:53Z</time></trkpt><trkpt lat="41.752679025272485" lon="15.881555348588439"><ele>695.5</ele><time>2026-04-14T15:14:54Z</time></trkpt><trkpt lat="41.75272002738672" lon="15.881480230914256"><ele>696.6666666666666</ele><time>2026-04-14T15:14:55Z</time></trkpt><trkpt lat="41.752774689544076" lon="15.881371017164254"><ele>697.8333333333334</ele><time>2026-04-14T15:14:56Z</time></trkpt><trkpt lat="41.752794293778955" lon="15.881285288998162"><ele>699.0</ele><time>2026-04-14T15:14:57Z</time></trkpt><trkpt lat="41.75283040085836" lon="15.881204258919428"><ele>696.4000000000001</ele><time>2026-04-14T15:14:58Z</time></trkpt><trkpt lat="41.7528848359619" lon="15.881042212225234"><ele>693.8</ele><time>2026-04-14T15:14:59Z</time></trkpt><trkpt lat="41.75290576707815" lon="15.880916649431772"><ele>691.2</ele><time>2026-04-14T15:15:00Z</time></trkpt><trkpt lat="41.75292670478586" lon="15.880810427571156"><ele>688.5999999999999</ele><time>2026-04-14T15:15:01Z</time></trkpt><trkpt lat="41.75293655934392" lon="15.880687797191532"><ele>686.0</ele><time>2026-04-14T15:15:02Z</time></trkpt><trkpt lat="41.75295693703808" lon="15.880565203343709"><ele>686.0</ele><time>2026-04-14T15:15:03Z</time></trkpt><trkpt lat="41.7529717066882" lon="15.880459568998672"><ele>686.0</ele><time>2026-04-14T15:15:04Z</time></trkpt><trkpt lat="41.75296649470204" lon="15.880338345836547"><ele>686.0</ele><time>2026-04-14T15:15:05Z</time></trkpt><trkpt lat="41.752939358877185" lon="15.880233441738424"><ele>686.0</ele><time>2026-04-14T15:15:06Z</time></trkpt><trkpt lat="41.75289091168049" lon="15.880131466652362"><ele>686.0</ele><time>2026-04-14T15:15:07Z</time></trkpt><trkpt lat="41.75288661629629" lon="15.879972917275127"><ele>686.75</ele><time>2026-04-14T15:15:08Z</time></trkpt><trkpt lat="41.752876364325154" lon="15.87983623085883"><ele>687.5</ele><time>2026-04-14T15:15:09Z</time></trkpt><trkpt lat="41.752935184426974" lon="15.879585538181926"><ele>688.25</ele><time>2026-04-14T15:15:11Z</time></trkpt><trkpt lat="41.75297948026827" lon="15.879471008308299"><ele>689.0</ele><time>2026-04-14T15:15:12Z</time></trkpt><trkpt lat="41.75305230456917" lon="15.879303112832833"><ele>689.8000000000001</ele><time>2026-04-14T15:15:14Z</time></trkpt><trkpt lat="41.753129394932515" lon="15.87917931747005"><ele>690.6</ele><time>2026-04-14T15:15:15.999Z</time></trkpt><trkpt lat="41.75319209752394" lon="15.879093068570459"><ele>691.4</ele><time>2026-04-14T15:15:16.999Z</time></trkpt><trkpt lat="41.75322298847511" lon="15.87899494075563"><ele>692.2</ele><time>2026-04-14T15:15:17.999Z</time></trkpt><trkpt lat="41.75325679360011" lon="15.87887001233359"><ele>693.0</ele><time>2026-04-14T15:15:18.999Z</time></trkpt><trkpt lat="41.753269596750435" lon="15.878722122798541"><ele>693.0</ele><time>2026-04-14T15:15:19.999Z</time></trkpt><trkpt lat="41.7532859003787" lon="15.878554852838594"><ele>693.0</ele><time>2026-04-14T15:15:20.999Z</time></trkpt><trkpt lat="41.75333669863829" lon="15.878423205027925"><ele>693.0</ele><time>2026-04-14T15:15:21.999Z</time></trkpt><trkpt lat="41.75337051025258" lon="15.878269565781727"><ele>693.0</ele><time>2026-04-14T15:15:22.999Z</time></trkpt><trkpt lat="41.75347177937723" lon="15.878153739229463"><ele>694.5</ele><time>2026-04-14T15:15:24.999Z</time></trkpt><trkpt lat="41.753517651906805" lon="15.878029503277125"><ele>696.0</ele><time>2026-04-14T15:15:26.999Z</time></trkpt><trkpt lat="41.75355497695611" lon="15.87792162576843"><ele>697.5</ele><time>2026-04-14T15:15:27.999Z</time></trkpt><trkpt lat="41.75353934264732" lon="15.87769613388826"><ele>699.0</ele><time>2026-04-14T15:15:29.999Z</time></trkpt><trkpt lat="41.75348561115041" lon="15.877583324085967"><ele>699.2</ele><time>2026-04-14T15:15:30.999Z</time></trkpt><trkpt lat="41.753404758812565" lon="15.877475387455776"><ele>699.4000000000001</ele><time>2026-04-14T15:15:31.999Z</time></trkpt><trkpt lat="41.7533527712871" lon="15.877365800320945"><ele>699.6</ele><time>2026-04-14T15:15:32.999Z</time></trkpt><trkpt lat="41.753247811245515" lon="15.877229450892793"><ele>699.8</ele><time>2026-04-14T15:15:33.999Z</time></trkpt><trkpt lat="41.753202009448486" lon="15.877127903408434"><ele>700.0</ele><time>2026-04-14T15:15:34.999Z</time></trkpt><trkpt lat="41.75315817141925" lon="15.877006669635536"><ele>700.0</ele><time>2026-04-14T15:15:35.999Z</time></trkpt><trkpt lat="41.7531302965252" lon="15.876864335228147"><ele>700.0</ele><time>2026-04-14T15:15:36.999Z</time></trkpt><trkpt lat="41.75312382646201" lon="15.876690898211182"><ele>700.0</ele><time>2026-04-14T15:15:37.999Z</time></trkpt><trkpt lat="41.75315345105649" lon="15.876604357490608"><ele>700.0</ele><time>2026-04-14T15:15:38.999Z</time></trkpt><trkpt lat="41.75315866059421" lon="15.876488945046303"><ele>700.0</ele><time>2026-04-14T15:15:39.999Z</time></trkpt><trkpt lat="41.75313097026242" lon="15.876281826928139"><ele>700.0</ele><time>2026-04-14T15:15:40.999Z</time></trkpt><trkpt lat="41.75309804527285" lon="15.876077483176154"><ele>700.0</ele><time>2026-04-14T15:15:41.999Z</time></trkpt><trkpt lat="41.75306003789215" lon="15.875842218979324"><ele>700.0</ele><time>2026-04-14T15:15:42.999Z</time></trkpt><trkpt lat="41.75305637330734" lon="15.875738334891677"><ele>700.0</ele><time>2026-04-14T15:15:43.999Z</time></trkpt><trkpt lat="41.75309726347481" lon="15.875646640740865"><ele>701.0</ele><time>2026-04-14T15:15:44.999Z</time></trkpt><trkpt lat="41.75319228599625" lon="15.87555445201021"><ele>702.0</ele><time>2026-04-14T15:15:45.999Z</time></trkpt><trkpt lat="41.75328654848408" lon="15.87548619291588"><ele>703.0</ele><time>2026-04-14T15:15:46.999Z</time></trkpt><trkpt lat="41.75338350698027" lon="15.87541109173549"><ele>704.0</ele><time>2026-04-14T15:15:47.999Z</time></trkpt><trkpt lat="41.75348628735657" lon="15.875335663673912"><ele>704.6</ele><time>2026-04-14T15:15:48.999Z</time></trkpt><trkpt lat="41.75354139753527" lon="15.875285682967306"><ele>705.2</ele><time>2026-04-14T15:15:49.999Z</time></trkpt><trkpt lat="41.75356357988095" lon="15.875144959544075"><ele>705.8000000000001</ele><time>2026-04-14T15:15:50.999Z</time></trkpt><trkpt lat="41.75356085392801" lon="15.874998036163785"><ele>706.4000000000001</ele><time>2026-04-14T15:15:51.999Z</time></trkpt><trkpt lat="41.753540302609885" lon="15.874838963671921"><ele>707.0</ele><time>2026-04-14T15:15:52.999Z</time></trkpt><trkpt lat="41.75352676977831" lon="15.874623863300139"><ele>707.0</ele><time>2026-04-14T15:15:53.999Z</time></trkpt><trkpt lat="41.75352505107304" lon="15.874369346384603"><ele>707.0</ele><time>2026-04-14T15:15:54.999Z</time></trkpt><trkpt lat="41.75346310676331" lon="15.874148513823393"><ele>707.0</ele><time>2026-04-14T15:15:55.999Z</time></trkpt><trkpt lat="41.75342347873055" lon="15.87396461120327"><ele>706.8</ele><time>2026-04-14T15:15:56.999Z</time></trkpt><trkpt lat="41.7533368337181" lon="15.873804425458587"><ele>706.6</ele><time>2026-04-14T15:15:57.999Z</time></trkpt><trkpt lat="41.75333484145967" lon="15.873683596261722"><ele>706.4</ele><time>2026-04-14T15:15:58.999Z</time></trkpt><trkpt lat="41.75332648899415" lon="15.873568797605564"><ele>706.1999999999999</ele><time>2026-04-14T15:15:59.999Z</time></trkpt><trkpt lat="41.753302632724846" lon="15.873442469069635"><ele>706.0</ele><time>2026-04-14T15:16:00.999Z</time></trkpt><trkpt lat="41.75327880196512" lon="15.873316465043118"><ele>705.5999999999999</ele><time>2026-04-14T15:16:01.999Z</time></trkpt><trkpt lat="41.75322702351363" lon="15.873245417046578"><ele>705.2</ele><time>2026-04-14T15:16:02.999Z</time></trkpt><trkpt lat="41.75315811083897" lon="15.87317361163322"><ele>704.8</ele><time>2026-04-14T15:16:03.999Z</time></trkpt><trkpt lat="41.75306138390979" lon="15.87318605700673"><ele>704.4000000000001</ele><time>2026-04-14T15:16:05Z</time></trkpt><trkpt lat="41.75293372868526" lon="15.873145670297623"><ele>704.0</ele><time>2026-04-14T15:16:06Z</time></trkpt><trkpt lat="41.75278679380555" lon="15.873107325426407"><ele>705.8000000000001</ele><time>2026-04-14T15:16:07Z</time></trkpt><trkpt lat="41.75267832948738" lon="15.873035996439995"><ele>707.6</ele><time>2026-04-14T15:16:08Z</time></trkpt><trkpt lat="41.75259310366713" lon="15.872952941831445"><ele>709.4</ele><time>2026-04-14T15:16:09Z</time></trkpt><trkpt lat="41.75249762545457" lon="15.872851989047184"><ele>711.2</ele><time>2026-04-14T15:16:10Z</time></trkpt><trkpt lat="41.75246937458658" lon="15.872721998156475"><ele>713.0</ele><time>2026-04-14T15:16:11Z</time></trkpt><trkpt lat="41.75253230259516" lon="15.87268978849929"><ele>712.1666666666666</ele><time>2026-04-14T15:16:12Z</time></trkpt><trkpt lat="41.75250039779977" lon="15.872568697477204"><ele>711.3333333333333</ele><time>2026-04-14T15:16:14Z</time></trkpt><trkpt lat="41.75250567232975" lon="15.872456047707315"><ele>710.5</ele><time>2026-04-14T15:16:16Z</time></trkpt><trkpt lat="41.752521190966014" lon="15.872361239688892"><ele>709.6666666666666</ele><time>2026-04-14T15:16:18Z</time></trkpt><trkpt lat="41.75253931803697" lon="15.872277600530959"><ele>708.8333333333334</ele><time>2026-04-14T15:16:19Z</time></trkpt><trkpt lat="41.7525398989357" lon="15.872101305002015"><ele>708.0</ele><time>2026-04-14T15:16:21Z</time></trkpt><trkpt lat="41.752511509186895" lon="15.871980318115629"><ele>708.0</ele><time>2026-04-14T15:16:23Z</time></trkpt><trkpt lat="41.7524994234809" lon="15.871865552006177"><ele>708.0</ele><time>2026-04-14T15:16:25Z</time></trkpt><trkpt lat="41.75243989307999" lon="15.871808915319482"><ele>708.0</ele><time>2026-04-14T15:16:26Z</time></trkpt><trkpt lat="41.75234266171089" lon="15.871727841645573"><ele>708.0</ele><time>2026-04-14T15:16:28Z</time></trkpt><trkpt lat="41.75226433546364" lon="15.87165706400303"><ele>708.0</ele><time>2026-04-14T15:16:30Z</time></trkpt><trkpt lat="41.7522076674278" lon="15.871617086285989"><ele>708.0</ele><time>2026-04-14T15:16:31Z</time></trkpt><trkpt lat="41.75211775126681" lon="15.871544295721081"><ele>707.0</ele><time>2026-04-14T15:16:32Z</time></trkpt><trkpt lat="41.7520828729364" lon="15.871451849581817"><ele>706.0</ele><time>2026-04-14T15:16:33Z</time></trkpt><trkpt lat="41.75204236182271" lon="15.87135493793977"><ele>705.0</ele><time>2026-04-14T15:16:35Z</time></trkpt><trkpt lat="41.75198870040454" lon="15.871235388117105"><ele>704.0</ele><time>2026-04-14T15:16:37Z</time></trkpt><trkpt lat="41.75196558617817" lon="15.871122758415284"><ele>703.0</ele><time>2026-04-14T15:16:38Z</time></trkpt><trkpt lat="41.75191459052045" lon="15.871002849535587"><ele>704.2</ele><time>2026-04-14T15:16:39Z</time></trkpt><trkpt lat="41.75183725282491" lon="15.870870673750337"><ele>705.4</ele><time>2026-04-14T15:16:40Z</time></trkpt><trkpt lat="41.751722533019176" lon="15.870841738738276"><ele>706.6</ele><time>2026-04-14T15:16:41Z</time></trkpt><trkpt lat="41.75165725949085" lon="15.870794217346406"><ele>707.8000000000001</ele><time>2026-04-14T15:16:42Z</time></trkpt><trkpt lat="41.75160955829928" lon="15.870736346948698"><ele>709.0</ele><time>2026-04-14T15:16:43Z</time></trkpt><trkpt lat="41.751516115190704" lon="15.87071410607516"><ele>709.0</ele><time>2026-04-14T15:16:44Z</time></trkpt><trkpt lat="41.751411742254064" lon="15.870639704012554"><ele>709.0</ele><time>2026-04-14T15:16:45Z</time></trkpt><trkpt lat="41.75135211174995" lon="15.870559814762904"><ele>709.0</ele><time>2026-04-14T15:16:46Z</time></trkpt><trkpt lat="41.75129415049018" lon="15.870493086382687"><ele>709.0</ele><time>2026-04-14T15:16:47Z</time></trkpt><trkpt lat="41.75132738270835" lon="15.870388158322491"><ele>709.0</ele><time>2026-04-14T15:16:48Z</time></trkpt><trkpt lat="41.75135184419071" lon="15.870246162486357"><ele>709.0</ele><time>2026-04-14T15:16:49Z</time></trkpt><trkpt lat="41.75133512477646" lon="15.870161552843236"><ele>709.0</ele><time>2026-04-14T15:16:50Z</time></trkpt><trkpt lat="41.75138972758006" lon="15.870096475684377"><ele>709.0</ele><time>2026-04-14T15:16:52Z</time></trkpt><trkpt lat="41.751465594304165" lon="15.870018594881673"><ele>709.0</ele><time>2026-04-14T15:16:54Z</time></trkpt><trkpt lat="41.751545904359396" lon="15.869971540288"><ele>709.0</ele><time>2026-04-14T15:16:55Z</time></trkpt><trkpt lat="41.751673651342884" lon="15.869880175049977"><ele>709.5</ele><time>2026-04-14T15:16:57Z</time></trkpt><trkpt lat="41.75177324984109" lon="15.869846072594386"><ele>710.0</ele><time>2026-04-14T15:16:58Z</time></trkpt><trkpt lat="41.751858717336425" lon="15.869795699308192"><ele>710.5</ele><time>2026-04-14T15:16:59Z</time></trkpt><trkpt lat="41.751923094374575" lon="15.86975072263328"><ele>711.0</ele><time>2026-04-14T15:17:00Z</time></trkpt><trkpt lat="41.75199778505568" lon="15.869687063652165"><ele>711.5</ele><time>2026-04-14T15:17:01Z</time></trkpt><trkpt lat="41.75201454831342" lon="15.869598166857088"><ele>712.0</ele><time>2026-04-14T15:17:03Z</time></trkpt><trkpt lat="41.75200142003161" lon="15.86946294615486"><ele>712.2</ele><time>2026-04-14T15:17:05Z</time></trkpt><trkpt lat="41.751992344796726" lon="15.869309263033353"><ele>712.4000000000001</ele><time>2026-04-14T15:17:06Z</time></trkpt><trkpt lat="41.75197422047943" lon="15.869208737463094"><ele>712.5999999999999</ele><time>2026-04-14T15:17:07Z</time></trkpt><trkpt lat="41.75196380934353" lon="15.869002197104269"><ele>712.8</ele><time>2026-04-14T15:17:08Z</time></trkpt><trkpt lat="41.75195861913426" lon="15.868870857543968"><ele>713.0</ele><time>2026-04-14T15:17:09Z</time></trkpt><trkpt lat="41.75197446881939" lon="15.868746678567065"><ele>713.0</ele><time>2026-04-14T15:17:10Z</time></trkpt><trkpt lat="41.751998649379736" lon="15.868617919468987"><ele>713.0</ele><time>2026-04-14T15:17:11Z</time></trkpt><trkpt lat="41.75200610422973" lon="15.86849543931484"><ele>713.0</ele><time>2026-04-14T15:17:12Z</time></trkpt><trkpt lat="41.75203863411721" lon="15.868341922762482"><ele>713.0</ele><time>2026-04-14T15:17:13Z</time></trkpt><trkpt lat="41.752079572828194" lon="15.868143067957385"><ele>713.8</ele><time>2026-04-14T15:17:14Z</time></trkpt><trkpt lat="41.75213535665928" lon="15.867978343930778"><ele>714.5999999999999</ele><time>2026-04-14T15:17:15Z</time></trkpt><trkpt lat="41.75218748297729" lon="15.867851019576962"><ele>715.4000000000001</ele><time>2026-04-14T15:17:16Z</time></trkpt><trkpt lat="41.752224056341994" lon="15.867710166879037"><ele>716.2</ele><time>2026-04-14T15:17:17Z</time></trkpt><trkpt lat="41.75225237740403" lon="15.867628956368241"><ele>717.0</ele><time>2026-04-14T15:17:18Z</time></trkpt><trkpt lat="41.752301289314794" lon="15.867498941323516"><ele>718.5</ele><time>2026-04-14T15:17:19Z</time></trkpt><trkpt lat="41.75241770703746" lon="15.867444224139446"><ele>720.0</ele><time>2026-04-14T15:17:20Z</time></trkpt><trkpt lat="41.75250793855512" lon="15.86739065422589"><ele>721.5</ele><time>2026-04-14T15:17:21Z</time></trkpt><trkpt lat="41.75258154445064" lon="15.867324820984207"><ele>723.0</ele><time>2026-04-14T15:17:22Z</time></trkpt><trkpt lat="41.752679242225966" lon="15.867182586585315"><ele>721.5</ele><time>2026-04-14T15:17:24Z</time></trkpt><trkpt lat="41.752722689576494" lon="15.867045169447254"><ele>720.0</ele><time>2026-04-14T15:17:25Z</time></trkpt><trkpt lat="41.75273728044153" lon="15.866962629382906"><ele>718.5</ele><time>2026-04-14T15:17:26Z</time></trkpt><trkpt lat="41.75274165160692" lon="15.86686490809009"><ele>717.0</ele><time>2026-04-14T15:17:27Z</time></trkpt><trkpt lat="41.75274167718374" lon="15.866737796210797"><ele>715.5</ele><time>2026-04-14T15:17:28Z</time></trkpt><trkpt lat="41.7527209084253" lon="15.866653072566482"><ele>714.0</ele><time>2026-04-14T15:17:29Z</time></trkpt><trkpt lat="41.75271601347726" lon="15.866524640692305"><ele>716.5</ele><time>2026-04-14T15:17:30Z</time></trkpt><trkpt lat="41.75266852417347" lon="15.866321546251157"><ele>719.0</ele><time>2026-04-14T15:17:32Z</time></trkpt><trkpt lat="41.75264827195509" lon="15.866173964009384"><ele>721.5</ele><time>2026-04-14T15:17:33Z</time></trkpt><trkpt lat="41.75261741677052" lon="15.866059470361584"><ele>724.0</ele><time>2026-04-14T15:17:34Z</time></trkpt><trkpt lat="41.75259683772849" lon="15.865916103639798"><ele>724.0</ele><time>2026-04-14T15:17:35Z</time></trkpt><trkpt lat="41.752594814146484" lon="15.865753218124249"><ele>724.0</ele><time>2026-04-14T15:17:36Z</time></trkpt><trkpt lat="41.75262450981492" lon="15.865554723113032"><ele>724.0</ele><time>2026-04-14T15:17:37Z</time></trkpt><trkpt lat="41.75267293261396" lon="15.865346924264333"><ele>724.0</ele><time>2026-04-14T15:17:37.999Z</time></trkpt><trkpt lat="41.75268905161982" lon="15.865193811015391"><ele>724.5</ele><time>2026-04-14T15:17:38.999Z</time></trkpt><trkpt lat="41.75267337888743" lon="15.86501584487332"><ele>725.0</ele><time>2026-04-14T15:17:40.999Z</time></trkpt><trkpt lat="41.752648563465925" lon="15.864902125005896"><ele>725.5</ele><time>2026-04-14T15:17:41.999Z</time></trkpt><trkpt lat="41.75265829172102" lon="15.864722425540831"><ele>726.0</ele><time>2026-04-14T15:17:42.999Z</time></trkpt><trkpt lat="41.752634616094305" lon="15.864595696951548"><ele>726.0</ele><time>2026-04-14T15:17:43.999Z</time></trkpt><trkpt lat="41.75252459713046" lon="15.864514794785208"><ele>726.0</ele><time>2026-04-14T15:17:44.999Z</time></trkpt><trkpt lat="41.752445107937625" lon="15.864422713591017"><ele>726.0</ele><time>2026-04-14T15:17:45.999Z</time></trkpt><trkpt lat="41.752360182429406" lon="15.864311303120385"><ele>726.0</ele><time>2026-04-14T15:17:46.999Z</time></trkpt><trkpt lat="41.75235360154367" lon="15.864198946675629"><ele>726.0</ele><time>2026-04-14T15:17:47.999Z</time></trkpt><trkpt lat="41.752372668910446" lon="15.864095229281933"><ele>726.5999999999999</ele><time>2026-04-14T15:17:48.999Z</time></trkpt><trkpt lat="41.75239647205783" lon="15.863987974661255"><ele>727.2</ele><time>2026-04-14T15:17:49.999Z</time></trkpt><trkpt lat="41.75242979862953" lon="15.863914714945384"><ele>727.8</ele><time>2026-04-14T15:17:50.999Z</time></trkpt><trkpt lat="41.75256547792774" lon="15.863775976125332"><ele>728.4000000000001</ele><time>2026-04-14T15:17:51.999Z</time></trkpt><trkpt lat="41.7526438762044" lon="15.863672277108416"><ele>729.0</ele><time>2026-04-14T15:17:52.999Z</time></trkpt><trkpt lat="41.7527099462232" lon="15.863602529471615"><ele>727.0</ele><time>2026-04-14T15:17:53.999Z</time></trkpt><trkpt lat="41.752765868442374" lon="15.86349149757901"><ele>725.0</ele><time>2026-04-14T15:17:54.999Z</time></trkpt><trkpt lat="41.75280598897565" lon="15.863310565466763"><ele>723.0</ele><time>2026-04-14T15:17:55.999Z</time></trkpt><trkpt lat="41.75285308182713" lon="15.86311603238501"><ele>721.0</ele><time>2026-04-14T15:17:56.999Z</time></trkpt><trkpt lat="41.75289707097952" lon="15.862871200821145"><ele>721.0</ele><time>2026-04-14T15:17:57.999Z</time></trkpt><trkpt lat="41.75287339342347" lon="15.862732609278522"><ele>721.0</ele><time>2026-04-14T15:17:58.999Z</time></trkpt><trkpt lat="41.752909436630105" lon="15.862492978061997"><ele>721.0</ele><time>2026-04-14T15:17:59.999Z</time></trkpt><trkpt lat="41.7528632379583" lon="15.862368026414941"><ele>721.0</ele><time>2026-04-14T15:18:00.999Z</time></trkpt><trkpt lat="41.75279303254286" lon="15.862256359452633"><ele>721.5</ele><time>2026-04-14T15:18:01.999Z</time></trkpt><trkpt lat="41.752732369214314" lon="15.862082798504519"><ele>722.0</ele><time>2026-04-14T15:18:03.999Z</time></trkpt><trkpt lat="41.75272592423575" lon="15.861933533981048"><ele>722.5</ele><time>2026-04-14T15:18:04.999Z</time></trkpt><trkpt lat="41.75276853444425" lon="15.861788226272585"><ele>723.0</ele><time>2026-04-14T15:18:05.999Z</time></trkpt><trkpt lat="41.75280781807046" lon="15.861668296007073"><ele>723.4</ele><time>2026-04-14T15:18:06.999Z</time></trkpt><trkpt lat="41.75287042255349" lon="15.861511042478917"><ele>723.8</ele><time>2026-04-14T15:18:07.999Z</time></trkpt><trkpt lat="41.75294152126238" lon="15.861443210724858"><ele>724.2</ele><time>2026-04-14T15:18:08.999Z</time></trkpt><trkpt lat="41.753003937326746" lon="15.861357877479252"><ele>724.6</ele><time>2026-04-14T15:18:09.999Z</time></trkpt><trkpt lat="41.75301909464902" lon="15.861259560773485"><ele>725.0</ele><time>2026-04-14T15:18:11Z</time></trkpt><trkpt lat="41.75302238458248" lon="15.861130476530192"><ele>726.0</ele><time>2026-04-14T15:18:12Z</time></trkpt><trkpt lat="41.75308544724406" lon="15.86091830836551"><ele>727.0</ele><time>2026-04-14T15:18:14Z</time></trkpt><trkpt lat="41.75316962211255" lon="15.86070859807988"><ele>728.0</ele><time>2026-04-14T15:18:16Z</time></trkpt><trkpt lat="41.753223607348396" lon="15.86063419933473"><ele>729.0</ele><time>2026-04-14T15:18:17Z</time></trkpt><trkpt lat="41.753272779075225" lon="15.86055234437512"><ele>729.0</ele><time>2026-04-14T15:18:18Z</time></trkpt><trkpt lat="41.75334533565779" lon="15.860422931980507"><ele>729.0</ele><time>2026-04-14T15:18:20Z</time></trkpt><trkpt lat="41.75344875336782" lon="15.86031260620802"><ele>729.0</ele><time>2026-04-14T15:18:22Z</time></trkpt><trkpt lat="41.75347450739699" lon="15.86022586854411"><ele>729.0</ele><time>2026-04-14T15:18:23Z</time></trkpt><trkpt lat="41.75353960651769" lon="15.860021194009073"><ele>728.25</ele><time>2026-04-14T15:18:25Z</time></trkpt><trkpt lat="41.75360042440055" lon="15.85989951451472"><ele>727.5</ele><time>2026-04-14T15:18:26Z</time></trkpt><trkpt lat="41.75368708152016" lon="15.85969573897373"><ele>726.75</ele><time>2026-04-14T15:18:27Z</time></trkpt><trkpt lat="41.753759498727334" lon="15.859580262677163"><ele>726.0</ele><time>2026-04-14T15:18:28Z</time></trkpt><trkpt lat="41.7538232123268" lon="15.859441778540681"><ele>726.0</ele><time>2026-04-14T15:18:29Z</time></trkpt><trkpt lat="41.75385360337399" lon="15.859314076850708"><ele>726.0</ele><time>2026-04-14T15:18:30Z</time></trkpt><trkpt lat="41.75387905628497" lon="15.859217123849852"><ele>726.0</ele><time>2026-04-14T15:18:31Z</time></trkpt><trkpt lat="41.75389063433978" lon="15.859093002628894"><ele>726.0</ele><time>2026-04-14T15:18:32Z</time></trkpt><trkpt lat="41.75395930427362" lon="15.858971776694814"><ele>726.0</ele><time>2026-04-14T15:18:33Z</time></trkpt><trkpt lat="41.753977968145925" lon="15.858889573860248"><ele>726.0</ele><time>2026-04-14T15:18:34Z</time></trkpt><trkpt lat="41.75399539805991" lon="15.85879207514822"><ele>727.1999999999999</ele><time>2026-04-14T15:18:35Z</time></trkpt><trkpt lat="41.7540493365619" lon="15.858637877004842"><ele>728.4</ele><time>2026-04-14T15:18:37Z</time></trkpt><trkpt lat="41.7540915089273" lon="15.858486956405708"><ele>729.6</ele><time>2026-04-14T15:18:39Z</time></trkpt><trkpt lat="41.75411443322656" lon="15.858395407497355"><ele>730.8</ele><time>2026-04-14T15:18:41Z</time></trkpt><trkpt lat="41.75414770040754" lon="15.858298236608396"><ele>732.0</ele><time>2026-04-14T15:19:46.999Z</time></trkpt><trkpt lat="41.75412225080992" lon="15.858147468746406"><ele>732.1666666666666</ele><time>2026-04-14T15:19:49.999Z</time></trkpt><trkpt lat="41.75413915086366" lon="15.858034776486285"><ele>732.3333333333334</ele><time>2026-04-14T15:19:50.999Z</time></trkpt><trkpt lat="41.754140851297294" lon="15.85794047174524"><ele>732.5</ele><time>2026-04-14T15:19:51.999Z</time></trkpt><trkpt lat="41.75413008633431" lon="15.857837414111488"><ele>732.6666666666667</ele><time>2026-04-14T15:19:52.999Z</time></trkpt><trkpt lat="41.75412723953468" lon="15.85772146968554"><ele>732.8333333333334</ele><time>2026-04-14T15:19:53.999Z</time></trkpt><trkpt lat="41.75409798881297" lon="15.857628649240766"><ele>733.0</ele><time>2026-04-14T15:19:55.999Z</time></trkpt><trkpt lat="41.754053926767384" lon="15.857540132205381"><ele>733.4</ele><time>2026-04-14T15:19:57.999Z</time></trkpt><trkpt lat="41.75400184295805" lon="15.85748158140034"><ele>733.8</ele><time>2026-04-14T15:19:58.999Z</time></trkpt><trkpt lat="41.75396172197116" lon="15.857397055967256"><ele>734.2</ele><time>2026-04-14T15:19:59.999Z</time></trkpt><trkpt lat="41.75393881957019" lon="15.857232628935355"><ele>734.6</ele><time>2026-04-14T15:20:00.999Z</time></trkpt><trkpt lat="41.75391431830295" lon="15.857141313019145"><ele>735.0</ele><time>2026-04-14T15:20:01.999Z</time></trkpt><trkpt lat="41.753856917466514" lon="15.856986628673141"><ele>735.0</ele><time>2026-04-14T15:20:03.999Z</time></trkpt><trkpt lat="41.7538660687045" lon="15.856864685120806"><ele>735.0</ele><time>2026-04-14T15:20:04.999Z</time></trkpt><trkpt lat="41.75379900874893" lon="15.856703228763193"><ele>735.0</ele><time>2026-04-14T15:20:06.999Z</time></trkpt><trkpt lat="41.75371404337651" lon="15.856611425938695"><ele>735.0</ele><time>2026-04-14T15:20:07.999Z</time></trkpt><trkpt lat="41.753615346805226" lon="15.856503893017326"><ele>735.0</ele><time>2026-04-14T15:20:08.999Z</time></trkpt><trkpt lat="41.753581752980075" lon="15.856383020254327"><ele>735.0</ele><time>2026-04-14T15:20:09.999Z</time></trkpt><trkpt lat="41.75351745562593" lon="15.85628709481438"><ele>735.0</ele><time>2026-04-14T15:20:10.999Z</time></trkpt><trkpt lat="41.753468767137214" lon="15.856190847863248"><ele>735.0</ele><time>2026-04-14T15:20:11.999Z</time></trkpt><trkpt lat="41.753401345604246" lon="15.856121055233123"><ele>735.0</ele><time>2026-04-14T15:20:12.999Z</time></trkpt><trkpt lat="41.75333842642141" lon="15.856014914037805"><ele>734.0</ele><time>2026-04-14T15:20:13.999Z</time></trkpt><trkpt lat="41.75325080829141" lon="15.855878100013511"><ele>733.0</ele><time>2026-04-14T15:20:15.999Z</time></trkpt><trkpt lat="41.75316193207181" lon="15.855785367584474"><ele>732.0</ele><time>2026-04-14T15:20:18Z</time></trkpt><trkpt lat="41.7531071620771" lon="15.855649876969125"><ele>731.0</ele><time>2026-04-14T15:20:20Z</time></trkpt><trkpt lat="41.75295445483223" lon="15.855592947202446"><ele>731.0</ele><time>2026-04-14T15:20:22Z</time></trkpt><trkpt lat="41.7528226353209" lon="15.855570799822733"><ele>731.0</ele><time>2026-04-14T15:20:24Z</time></trkpt><trkpt lat="41.75261937052452" lon="15.855511738697043"><ele>731.0</ele><time>2026-04-14T15:20:25Z</time></trkpt><trkpt lat="41.752512286833166" lon="15.855491248208955"><ele>731.0</ele><time>2026-04-14T15:20:26Z</time></trkpt><trkpt lat="41.75241447880433" lon="15.855426404767226"><ele>729.1999999999999</ele><time>2026-04-14T15:20:27Z</time></trkpt><trkpt lat="41.75230166390727" lon="15.855354839863942"><ele>727.4</ele><time>2026-04-14T15:20:28Z</time></trkpt><trkpt lat="41.752222723412615" lon="15.855290416710712"><ele>725.6</ele><time>2026-04-14T15:20:29Z</time></trkpt><trkpt lat="41.752166354626056" lon="15.85523504969643"><ele>723.8</ele><time>2026-04-14T15:20:30Z</time></trkpt><trkpt lat="41.75208054366859" lon="15.855127020305309"><ele>722.0</ele><time>2026-04-14T15:20:31Z</time></trkpt><trkpt lat="41.752046341827466" lon="15.855017671861821"><ele>722.0</ele><time>2026-04-14T15:20:32Z</time></trkpt><trkpt lat="41.751989113229634" lon="15.854913191530082"><ele>722.0</ele><time>2026-04-14T15:20:33Z</time></trkpt><trkpt lat="41.75194313263635" lon="15.854842770680849"><ele>722.0</ele><time>2026-04-14T15:20:34Z</time></trkpt><trkpt lat="41.75188913585917" lon="15.854726117238803"><ele>722.0</ele><time>2026-04-14T15:20:35Z</time></trkpt><trkpt lat="41.75185502586609" lon="15.854585377758335"><ele>722.0</ele><time>2026-04-14T15:20:36Z</time></trkpt><trkpt lat="41.751776762207065" lon="15.85445206862892"><ele>721.1666666666666</ele><time>2026-04-14T15:20:38Z</time></trkpt><trkpt lat="41.75170192519568" lon="15.8544093834553"><ele>720.3333333333333</ele><time>2026-04-14T15:20:40Z</time></trkpt><trkpt lat="41.7516480860243" lon="15.854248553806022"><ele>719.5</ele><time>2026-04-14T15:20:42Z</time></trkpt><trkpt lat="41.75163313486668" lon="15.854135557350697"><ele>718.6666666666666</ele><time>2026-04-14T15:20:48Z</time></trkpt><trkpt lat="41.751626398210405" lon="15.854042460629184"><ele>717.8333333333334</ele><time>2026-04-14T15:20:50Z</time></trkpt><trkpt lat="41.751668230621426" lon="15.85394965291382"><ele>717.0</ele><time>2026-04-14T15:20:52Z</time></trkpt><trkpt lat="41.75171558335676" lon="15.85387413249487"><ele>717.0</ele><time>2026-04-14T15:20:55Z</time></trkpt><trkpt lat="41.75170082772871" lon="15.853767167439099"><ele>717.0</ele><time>2026-04-14T15:21:04Z</time></trkpt><trkpt lat="41.751678806497914" lon="15.853666501991755"><ele>717.0</ele><time>2026-04-14T15:21:06Z</time></trkpt><trkpt lat="41.75158145317752" lon="15.853574758652716"><ele>717.0</ele><time>2026-04-14T15:21:08Z</time></trkpt><trkpt lat="41.75143284927825" lon="15.853461523280853"><ele>717.0</ele><time>2026-04-14T15:21:09Z</time></trkpt><trkpt lat="41.75135115321299" lon="15.853365010230519"><ele>716.75</ele><time>2026-04-14T15:21:10Z</time></trkpt><trkpt lat="41.75127749066055" lon="15.853197380029817"><ele>716.5</ele><time>2026-04-14T15:21:11Z</time></trkpt><trkpt lat="41.75118329253816" lon="15.853096684283216"><ele>716.25</ele><time>2026-04-14T15:21:12Z</time></trkpt><trkpt lat="41.75110584296885" lon="15.853007713284558"><ele>716.0</ele><time>2026-04-14T15:21:13Z</time></trkpt><trkpt lat="41.751044546421646" lon="15.852929585960348"><ele>716.4</ele><time>2026-04-14T15:21:14Z</time></trkpt><trkpt lat="41.750952733848415" lon="15.852786221429694"><ele>716.8</ele><time>2026-04-14T15:21:16Z</time></trkpt><trkpt lat="41.75090521950319" lon="15.8526889192471"><ele>717.1999999999999</ele><time>2026-04-14T15:21:17Z</time></trkpt><trkpt lat="41.750895947141196" lon="15.852527528060406"><ele>717.5999999999999</ele><time>2026-04-14T15:21:18Z</time></trkpt><trkpt lat="41.750860149344874" lon="15.852444791887464"><ele>718.0</ele><time>2026-04-14T15:21:19Z</time></trkpt><trkpt lat="41.750807424030675" lon="15.852354583275458"><ele>718.0</ele><time>2026-04-14T15:21:20Z</time></trkpt><trkpt lat="41.75076005052906" lon="15.852230980040316"><ele>718.0</ele><time>2026-04-14T15:21:21Z</time></trkpt><trkpt lat="41.75070296324968" lon="15.85216308660181"><ele>718.0</ele><time>2026-04-14T15:21:22Z</time></trkpt><trkpt lat="41.75065621189766" lon="15.852050505959339"><ele>718.0</ele><time>2026-04-14T15:21:23Z</time></trkpt><trkpt lat="41.75060610941251" lon="15.85195166733195"><ele>718.0</ele><time>2026-04-14T15:21:24Z</time></trkpt><trkpt lat="41.75056409806153" lon="15.851810578201016"><ele>718.0</ele><time>2026-04-14T15:21:25Z</time></trkpt><trkpt lat="41.75052978141424" lon="15.85167683484862"><ele>718.0</ele><time>2026-04-14T15:21:26Z</time></trkpt><trkpt lat="41.75050878769208" lon="15.851506268571713"><ele>718.0</ele><time>2026-04-14T15:21:27Z</time></trkpt><trkpt lat="41.75044809026025" lon="15.851381932310106"><ele>718.0</ele><time>2026-04-14T15:21:28Z</time></trkpt><trkpt lat="41.75036465535718" lon="15.851196109451687"><ele>718.0</ele><time>2026-04-14T15:21:30Z</time></trkpt><trkpt lat="41.750283820172314" lon="15.851079672225147"><ele>718.0</ele><time>2026-04-14T15:21:31Z</time></trkpt><trkpt lat="41.75016612109494" lon="15.850935245064758"><ele>718.0</ele><time>2026-04-14T15:21:32Z</time></trkpt><trkpt lat="41.75007862069681" lon="15.850829788961414"><ele>718.0</ele><time>2026-04-14T15:21:33Z</time></trkpt><trkpt lat="41.75000398064372" lon="15.850735445942158"><ele>717.1666666666667</ele><time>2026-04-14T15:21:34Z</time></trkpt><trkpt lat="41.74995031586333" lon="15.850663337661516"><ele>716.3333333333334</ele><time>2026-04-14T15:21:35Z</time></trkpt><trkpt lat="41.7498890158399" lon="15.850568732464149"><ele>715.5</ele><time>2026-04-14T15:21:36Z</time></trkpt><trkpt lat="41.749823708011846" lon="15.85051058501837"><ele>714.6666666666666</ele><time>2026-04-14T15:21:37Z</time></trkpt><trkpt lat="41.74975957008527" lon="15.850444613511753"><ele>713.8333333333333</ele><time>2026-04-14T15:21:38Z</time></trkpt><trkpt lat="41.749686979205165" lon="15.850403248234691"><ele>713.0</ele><time>2026-04-14T15:21:39Z</time></trkpt><trkpt lat="41.749570175466765" lon="15.850408920539635"><ele>713.0</ele><time>2026-04-14T15:21:40Z</time></trkpt><trkpt lat="41.74940559341913" lon="15.85040033666449"><ele>713.0</ele><time>2026-04-14T15:21:42Z</time></trkpt><trkpt lat="41.74932920826836" lon="15.850375704504497"><ele>713.0</ele><time>2026-04-14T15:21:44Z</time></trkpt><trkpt lat="41.74924949940698" lon="15.850359550919663"><ele>713.0</ele><time>2026-04-14T15:21:45Z</time></trkpt><trkpt lat="41.74913122013952" lon="15.85031917262718"><ele>713.0</ele><time>2026-04-14T15:21:47Z</time></trkpt><trkpt lat="41.74903974986558" lon="15.850306053707834"><ele>711.2</ele><time>2026-04-14T15:21:48Z</time></trkpt><trkpt lat="41.74896207781624" lon="15.850264141972565"><ele>709.4</ele><time>2026-04-14T15:21:49Z</time></trkpt><trkpt lat="41.7487929119457" lon="15.850234529553017"><ele>707.6</ele><time>2026-04-14T15:21:50.999Z</time></trkpt><trkpt lat="41.74869983243424" lon="15.850313575090096"><ele>705.8000000000001</ele><time>2026-04-14T15:21:51.999Z</time></trkpt><trkpt lat="41.748626845194366" lon="15.850328097144859"><ele>704.0</ele><time>2026-04-14T15:21:52.999Z</time></trkpt><trkpt lat="41.74850948615236" lon="15.85031353866205"><ele>701.6</ele><time>2026-04-14T15:21:53.999Z</time></trkpt><trkpt lat="41.74840007689658" lon="15.850296702355282"><ele>699.2</ele><time>2026-04-14T15:21:54.999Z</time></trkpt><trkpt lat="41.74824646681962" lon="15.850315070418205"><ele>696.8000000000001</ele><time>2026-04-14T15:21:56.999Z</time></trkpt><trkpt lat="41.74815428170728" lon="15.850336928422527"><ele>694.4000000000001</ele><time>2026-04-14T15:21:57.999Z</time></trkpt><trkpt lat="41.7480918887205" lon="15.850360774574199"><ele>692.0</ele><time>2026-04-14T15:21:58.999Z</time></trkpt><trkpt lat="41.747951964719334" lon="15.850365920410312"><ele>692.0</ele><time>2026-04-14T15:22:00.999Z</time></trkpt><trkpt lat="41.747841901410325" lon="15.850332417537528"><ele>692.0</ele><time>2026-04-14T15:22:02.999Z</time></trkpt><trkpt lat="41.7477536033232" lon="15.850314944490751"><ele>692.0</ele><time>2026-04-14T15:22:03.999Z</time></trkpt><trkpt lat="41.7476168913712" lon="15.850356367282789"><ele>692.0</ele><time>2026-04-14T15:22:08.999Z</time></trkpt><trkpt lat="41.7475630547428" lon="15.850295909412672"><ele>692.0</ele><time>2026-04-14T15:22:11.999Z</time></trkpt><trkpt lat="41.74747985366682" lon="15.85028021040804"><ele>689.2</ele><time>2026-04-14T15:22:14.999Z</time></trkpt><trkpt lat="41.74736821766684" lon="15.850270373506708"><ele>686.4000000000001</ele><time>2026-04-14T15:22:16.999Z</time></trkpt><trkpt lat="41.7472698434452" lon="15.850283856843685"><ele>683.5999999999999</ele><time>2026-04-14T15:22:18.999Z</time></trkpt><trkpt lat="41.747172562357385" lon="15.850261113232987"><ele>680.8</ele><time>2026-04-14T15:22:20.999Z</time></trkpt><trkpt lat="41.747062619162335" lon="15.850236059881027"><ele>678.0</ele><time>2026-04-14T15:22:23Z</time></trkpt><trkpt lat="41.746989646209755" lon="15.850250848967363"><ele>678.0</ele><time>2026-04-14T15:22:25Z</time></trkpt><trkpt lat="41.7469008455308" lon="15.85025697099972"><ele>678.0</ele><time>2026-04-14T15:22:27Z</time></trkpt><trkpt lat="41.746831667665646" lon="15.850260750442754"><ele>678.0</ele><time>2026-04-14T15:22:30Z</time></trkpt><trkpt lat="41.74676733649743" lon="15.850230809106508"><ele>678.0</ele><time>2026-04-14T15:22:31Z</time></trkpt><trkpt lat="41.74668077342278" lon="15.850155946213945"><ele>678.0</ele><time>2026-04-14T15:22:33Z</time></trkpt><trkpt lat="41.746588344207645" lon="15.850156313481913"><ele>678.0</ele><time>2026-04-14T15:22:35Z</time></trkpt><trkpt lat="41.74650787255534" lon="15.850095666258696"><ele>676.5999999999999</ele><time>2026-04-14T15:22:37Z</time></trkpt><trkpt lat="41.746443778573" lon="15.850080277361634"><ele>675.1999999999999</ele><time>2026-04-14T15:22:38Z</time></trkpt><trkpt lat="41.74633402911702" lon="15.850120758185206"><ele>673.8</ele><time>2026-04-14T15:22:40Z</time></trkpt><trkpt lat="41.746222024424085" lon="15.8500865108746"><ele>672.4</ele><time>2026-04-14T15:22:41Z</time></trkpt><trkpt lat="41.74613660606516" lon="15.850080630791883"><ele>671.0</ele><time>2026-04-14T15:22:42Z</time></trkpt><trkpt lat="41.746033975372924" lon="15.85007762974297"><ele>670.5999999999999</ele><time>2026-04-14T15:22:44Z</time></trkpt><trkpt lat="41.74596377255956" lon="15.850104823057112"><ele>670.2</ele><time>2026-04-14T15:22:45Z</time></trkpt><trkpt lat="41.745828657100816" lon="15.850156548996889"><ele>669.8</ele><time>2026-04-14T15:22:47Z</time></trkpt><trkpt lat="41.74573198446693" lon="15.850157101433286"><ele>669.4000000000001</ele><time>2026-04-14T15:22:48Z</time></trkpt><trkpt lat="41.745635225474736" lon="15.850161359070974"><ele>669.0</ele><time>2026-04-14T15:22:49Z</time></trkpt><trkpt lat="41.74552154623627" lon="15.85015434574159"><ele>669.0</ele><time>2026-04-14T15:22:50Z</time></trkpt><trkpt lat="41.7454007917674" lon="15.850148903670148"><ele>669.0</ele><time>2026-04-14T15:22:51Z</time></trkpt><trkpt lat="41.74532530758773" lon="15.850105342064444"><ele>669.0</ele><time>2026-04-14T15:22:53Z</time></trkpt><trkpt lat="41.74525637960176" lon="15.85012448921053"><ele>669.0</ele><time>2026-04-14T15:22:54Z</time></trkpt><trkpt lat="41.74516611697897" lon="15.850155998138323"><ele>669.0</ele><time>2026-04-14T15:22:55Z</time></trkpt><trkpt lat="41.74509938698424" lon="15.850230723495274"><ele>667.6666666666666</ele><time>2026-04-14T15:22:56Z</time></trkpt><trkpt lat="41.74504635115392" lon="15.850294627419201"><ele>666.3333333333334</ele><time>2026-04-14T15:22:57Z</time></trkpt><trkpt lat="41.74496235395149" lon="15.850276677488093"><ele>665.0</ele><time>2026-04-14T15:22:59Z</time></trkpt><trkpt lat="41.744907473069084" lon="15.850392836140076"><ele>663.6666666666667</ele><time>2026-04-14T15:23:01Z</time></trkpt><trkpt lat="41.74490785814138" lon="15.850492876622816"><ele>662.3333333333334</ele><time>2026-04-14T15:23:04Z</time></trkpt><trkpt lat="41.74484549446171" lon="15.850522968839535"><ele>661.0</ele><time>2026-04-14T15:23:06Z</time></trkpt><trkpt lat="41.74477544655872" lon="15.850511850238854"><ele>661.0</ele><time>2026-04-14T15:23:08Z</time></trkpt><trkpt lat="41.744682877067326" lon="15.850484598463241"><ele>661.0</ele><time>2026-04-14T15:23:09Z</time></trkpt><trkpt lat="41.744585559697484" lon="15.85045886205703"><ele>661.0</ele><time>2026-04-14T15:23:10Z</time></trkpt><trkpt lat="41.744503204740404" lon="15.850401863340009"><ele>661.0</ele><time>2026-04-14T15:23:11Z</time></trkpt><trkpt lat="41.74442089759793" lon="15.850185507945456"><ele>660.6666666666667</ele><time>2026-04-14T15:23:12Z</time></trkpt><trkpt lat="41.74432630267373" lon="15.849937510319497"><ele>660.3333333333334</ele><time>2026-04-14T15:23:13Z</time></trkpt><trkpt lat="41.74422784245942" lon="15.849697592761084"><ele>660.0</ele><time>2026-04-14T15:23:14Z</time></trkpt><trkpt lat="41.74409283437491" lon="15.849461219141899"><ele>660.3333333333334</ele><time>2026-04-14T15:23:15Z</time></trkpt><trkpt lat="41.74399091499548" lon="15.849250726074775"><ele>660.6666666666667</ele><time>2026-04-14T15:23:16Z</time></trkpt><trkpt lat="41.74391480630108" lon="15.849047392370675"><ele>661.0</ele><time>2026-04-14T15:23:17Z</time></trkpt><trkpt lat="41.74382040096777" lon="15.848908418690868"><ele>661.0</ele><time>2026-04-14T15:23:18Z</time></trkpt><trkpt lat="41.74377932566418" lon="15.848734899476035"><ele>661.0</ele><time>2026-04-14T15:23:19Z</time></trkpt><trkpt lat="41.74372850935973" lon="15.848570958073536"><ele>661.0</ele><time>2026-04-14T15:23:20Z</time></trkpt><trkpt lat="41.743681607094544" lon="15.84842416815056"><ele>661.0</ele><time>2026-04-14T15:23:21Z</time></trkpt><trkpt lat="41.74364328029141" lon="15.848256051646317"><ele>661.3333333333334</ele><time>2026-04-14T15:23:22Z</time></trkpt><trkpt lat="41.743617191379485" lon="15.848068342488677"><ele>661.6666666666666</ele><time>2026-04-14T15:23:23Z</time></trkpt><trkpt lat="41.74357836692388" lon="15.847857480407706"><ele>662.0</ele><time>2026-04-14T15:23:24Z</time></trkpt><trkpt lat="41.743554076339144" lon="15.847614597907302"><ele>659.0</ele><time>2026-04-14T15:23:25Z</time></trkpt><trkpt lat="41.743506662254084" lon="15.847370852166472"><ele>656.0</ele><time>2026-04-14T15:23:26Z</time></trkpt><trkpt lat="41.74348674101558" lon="15.847067341251135"><ele>653.0</ele><time>2026-04-14T15:23:27Z</time></trkpt><trkpt lat="41.74345525008059" lon="15.846886921155601"><ele>652.2</ele><time>2026-04-14T15:23:28Z</time></trkpt><trkpt lat="41.74342657215394" lon="15.846791425872524"><ele>651.4</ele><time>2026-04-14T15:23:29Z</time></trkpt><trkpt lat="41.74340975309652" lon="15.846653228320953"><ele>650.6</ele><time>2026-04-14T15:23:30Z</time></trkpt><trkpt lat="41.74338129697927" lon="15.846513376581001"><ele>649.8000000000001</ele><time>2026-04-14T15:23:31Z</time></trkpt><trkpt lat="41.74337357446617" lon="15.846336220718053"><ele>649.0</ele><time>2026-04-14T15:23:32Z</time></trkpt><trkpt lat="41.743390506612485" lon="15.846139924561095"><ele>649.0</ele><time>2026-04-14T15:23:33Z</time></trkpt><trkpt lat="41.74340758312852" lon="15.845965325142897"><ele>649.0</ele><time>2026-04-14T15:23:34Z</time></trkpt><trkpt lat="41.743412146930105" lon="15.845816646783865"><ele>649.0</ele><time>2026-04-14T15:23:35Z</time></trkpt><trkpt lat="41.74342010978809" lon="15.845639903571827"><ele>649.0</ele><time>2026-04-14T15:23:36Z</time></trkpt><trkpt lat="41.743429942150506" lon="15.845470655138193"><ele>648.6</ele><time>2026-04-14T15:23:37Z</time></trkpt><trkpt lat="41.74343867639316" lon="15.845340194597137"><ele>648.2</ele><time>2026-04-14T15:23:38Z</time></trkpt><trkpt lat="41.74344399361351" lon="15.84522358345519"><ele>647.8000000000001</ele><time>2026-04-14T15:23:39Z</time></trkpt><trkpt lat="41.74340900553394" lon="15.84513083117785"><ele>647.4000000000001</ele><time>2026-04-14T15:23:41Z</time></trkpt><trkpt lat="41.743388882908725" lon="15.845028446890412"><ele>647.0</ele><time>2026-04-14T15:23:42Z</time></trkpt><trkpt lat="41.74336364555741" lon="15.844779816961573"><ele>647.0</ele><time>2026-04-14T15:23:44Z</time></trkpt><trkpt lat="41.743257590331005" lon="15.844705918655647"><ele>647.0</ele><time>2026-04-14T15:23:46Z</time></trkpt><trkpt lat="41.74319755189846" lon="15.844622622264065"><ele>647.0</ele><time>2026-04-14T15:23:49.999Z</time></trkpt><trkpt lat="41.743083754218425" lon="15.844542874412815"><ele>647.0</ele><time>2026-04-14T15:23:52.999Z</time></trkpt><trkpt lat="41.74298034335069" lon="15.844488014006131"><ele>647.0</ele><time>2026-04-14T15:23:53.999Z</time></trkpt><trkpt lat="41.74289806940934" lon="15.844428934415644"><ele>647.0</ele><time>2026-04-14T15:23:54.999Z</time></trkpt><trkpt lat="41.74282471371045" lon="15.844327873214782"><ele>647.0</ele><time>2026-04-14T15:23:55.999Z</time></trkpt><trkpt lat="41.742735659877205" lon="15.844226465906761"><ele>647.0</ele><time>2026-04-14T15:23:56.999Z</time></trkpt><trkpt lat="41.742615852698115" lon="15.844121430597676"><ele>647.0</ele><time>2026-04-14T15:23:57.999Z</time></trkpt><trkpt lat="41.74251262227326" lon="15.844043078361336"><ele>647.2</ele><time>2026-04-14T15:23:58.999Z</time></trkpt><trkpt lat="41.74242229816929" lon="15.843946376969027"><ele>647.4000000000001</ele><time>2026-04-14T15:24:00.999Z</time></trkpt><trkpt lat="41.74240045286698" lon="15.84382737521796"><ele>647.5999999999999</ele><time>2026-04-14T15:24:02.999Z</time></trkpt><trkpt lat="41.742384633182645" lon="15.843742926602376"><ele>647.8</ele><time>2026-04-14T15:24:03.999Z</time></trkpt><trkpt lat="41.742388235047244" lon="15.84363599314494"><ele>648.0</ele><time>2026-04-14T15:24:04.999Z</time></trkpt><trkpt lat="41.742402401745444" lon="15.843493404856337"><ele>648.8333333333334</ele><time>2026-04-14T15:24:05.999Z</time></trkpt><trkpt lat="41.74242599916881" lon="15.843340255578221"><ele>649.6666666666666</ele><time>2026-04-14T15:24:06.999Z</time></trkpt><trkpt lat="41.742463742200165" lon="15.843251522019827"><ele>650.5</ele><time>2026-04-14T15:24:07.999Z</time></trkpt><trkpt lat="41.742514361133175" lon="15.843145995186184"><ele>651.3333333333333</ele><time>2026-04-14T15:24:08.999Z</time></trkpt><trkpt lat="41.74255678700542" lon="15.843062563322606"><ele>652.1666666666666</ele><time>2026-04-14T15:24:09.999Z</time></trkpt><trkpt lat="41.74259184666575" lon="15.842970143678475"><ele>653.0</ele><time>2026-04-14T15:24:10.999Z</time></trkpt><trkpt lat="41.74262668695943" lon="15.842857471051799"><ele>653.0</ele><time>2026-04-14T15:24:11.999Z</time></trkpt><trkpt lat="41.74263829189781" lon="15.842758590662715"><ele>653.0</ele><time>2026-04-14T15:24:13.999Z</time></trkpt><trkpt lat="41.74267010578942" lon="15.842619558007772"><ele>653.0</ele><time>2026-04-14T15:24:14.999Z</time></trkpt><trkpt lat="41.742740467723884" lon="15.84245553038372"><ele>653.0</ele><time>2026-04-14T15:24:15.999Z</time></trkpt><trkpt lat="41.742844638583286" lon="15.842270781616778"><ele>651.25</ele><time>2026-04-14T15:24:16.999Z</time></trkpt><trkpt lat="41.74293205092262" lon="15.842087475186728"><ele>649.5</ele><time>2026-04-14T15:24:17.999Z</time></trkpt><trkpt lat="41.74299338232915" lon="15.841935223892172"><ele>647.75</ele><time>2026-04-14T15:24:18.999Z</time></trkpt><trkpt lat="41.743033851754895" lon="15.841799369787587"><ele>646.0</ele><time>2026-04-14T15:24:19.999Z</time></trkpt><trkpt lat="41.74306946994871" lon="15.841606872814367"><ele>646.0</ele><time>2026-04-14T15:24:20.999Z</time></trkpt><trkpt lat="41.74310357627665" lon="15.841465085912617"><ele>646.0</ele><time>2026-04-14T15:24:21.999Z</time></trkpt><trkpt lat="41.74309991360702" lon="15.841349860571336"><ele>646.0</ele><time>2026-04-14T15:24:22.999Z</time></trkpt><trkpt lat="41.74308790554487" lon="15.841245652136463"><ele>646.0</ele><time>2026-04-14T15:24:23.999Z</time></trkpt><trkpt lat="41.743071426123116" lon="15.841159281662586"><ele>646.0</ele><time>2026-04-14T15:24:24.999Z</time></trkpt><trkpt lat="41.743067473700975" lon="15.841044092197416"><ele>646.0</ele><time>2026-04-14T15:24:25.999Z</time></trkpt><trkpt lat="41.74305093216435" lon="15.840872365167852"><ele>646.8</ele><time>2026-04-14T15:24:31Z</time></trkpt><trkpt lat="41.74309975626747" lon="15.840756609549446"><ele>647.5999999999999</ele><time>2026-04-14T15:24:32Z</time></trkpt><trkpt lat="41.74317710146242" lon="15.840675718788738"><ele>648.4</ele><time>2026-04-14T15:24:36Z</time></trkpt><trkpt lat="41.74317668062198" lon="15.840537325096975"><ele>649.2</ele><time>2026-04-14T15:24:39Z</time></trkpt><trkpt lat="41.74316811567262" lon="15.840356086989239"><ele>650.0</ele><time>2026-04-14T15:24:40Z</time></trkpt><trkpt lat="41.7432019853196" lon="15.840113738803073"><ele>650.6666666666666</ele><time>2026-04-14T15:24:46Z</time></trkpt><trkpt lat="41.74319219482446" lon="15.840002968823539"><ele>651.3333333333333</ele><time>2026-04-14T15:24:47Z</time></trkpt><trkpt lat="41.7431787601561" lon="15.839888088323043"><ele>652.0</ele><time>2026-04-14T15:24:50Z</time></trkpt><trkpt lat="41.74319508497929" lon="15.839714423833934"><ele>652.6666666666666</ele><time>2026-04-14T15:24:52Z</time></trkpt><trkpt lat="41.74321646230964" lon="15.839621485067648"><ele>653.3333333333334</ele><time>2026-04-14T15:24:53Z</time></trkpt><trkpt lat="41.74319904547895" lon="15.839524423398952"><ele>654.0</ele><time>2026-04-14T15:24:55Z</time></trkpt><trkpt lat="41.743221136947845" lon="15.83939431134809"><ele>655.0</ele><time>2026-04-14T15:24:56Z</time></trkpt><trkpt lat="41.743268290871136" lon="15.83929782344147"><ele>656.0</ele><time>2026-04-14T15:24:57Z</time></trkpt><trkpt lat="41.74331277512942" lon="15.83920921311147"><ele>657.0</ele><time>2026-04-14T15:24:58Z</time></trkpt><trkpt lat="41.74336017795314" lon="15.839129553954573"><ele>658.0</ele><time>2026-04-14T15:24:59Z</time></trkpt><trkpt lat="41.743472109342015" lon="15.839001847582125"><ele>659.0</ele><time>2026-04-14T15:25:00Z</time></trkpt><trkpt lat="41.743458072226225" lon="15.839103144925893"><ele>659.0</ele><time>2026-04-14T15:25:01Z</time></trkpt><trkpt lat="41.74349627817214" lon="15.83899250416303"><ele>659.0</ele><time>2026-04-14T15:25:02Z</time></trkpt><trkpt lat="41.7435447512403" lon="15.838856913000791"><ele>659.0</ele><time>2026-04-14T15:25:05Z</time></trkpt><trkpt lat="41.743574839993215" lon="15.838738261549967"><ele>659.0</ele><time>2026-04-14T15:25:06Z</time></trkpt><trkpt lat="41.74361011850877" lon="15.838549832183709"><ele>659.0</ele><time>2026-04-14T15:25:07Z</time></trkpt><trkpt lat="41.74361202306307" lon="15.83842706194901"><ele>657.2</ele><time>2026-04-14T15:25:08Z</time></trkpt><trkpt lat="41.74365597876424" lon="15.838314676585474"><ele>655.4000000000001</ele><time>2026-04-14T15:25:09Z</time></trkpt><trkpt lat="41.743724784747045" lon="15.838196067680691"><ele>653.6</ele><time>2026-04-14T15:25:10Z</time></trkpt><trkpt lat="41.743809790173366" lon="15.838083838920895"><ele>651.8</ele><time>2026-04-14T15:25:11Z</time></trkpt><trkpt lat="41.74389630457876" lon="15.838045988102515"><ele>650.0</ele><time>2026-04-14T15:25:12Z</time></trkpt><trkpt lat="41.74394622548792" lon="15.837987378596388"><ele>650.0</ele><time>2026-04-14T15:25:13Z</time></trkpt><trkpt lat="41.74399983292072" lon="15.837911763657397"><ele>650.0</ele><time>2026-04-14T15:25:14Z</time></trkpt><trkpt lat="41.74404404686707" lon="15.837800224873009"><ele>650.0</ele><time>2026-04-14T15:25:15Z</time></trkpt><trkpt lat="41.74403645175987" lon="15.837668705817693"><ele>650.0</ele><time>2026-04-14T15:25:16Z</time></trkpt><trkpt lat="41.7439700107421" lon="15.83762254991902"><ele>650.0</ele><time>2026-04-14T15:25:17Z</time></trkpt><trkpt lat="41.74402205897986" lon="15.837556636307339"><ele>650.0</ele><time>2026-04-14T15:25:18Z</time></trkpt><trkpt lat="41.74411145465364" lon="15.83754056210842"><ele>651.6</ele><time>2026-04-14T15:25:20Z</time></trkpt><trkpt lat="41.74419750114562" lon="15.837597580241484"><ele>653.2</ele><time>2026-04-14T15:25:22Z</time></trkpt><trkpt lat="41.74426149176899" lon="15.837579545547309"><ele>654.8</ele><time>2026-04-14T15:25:28Z</time></trkpt><trkpt lat="41.74433443372718" lon="15.837432432602059"><ele>656.4</ele><time>2026-04-14T15:25:41Z</time></trkpt><trkpt lat="41.744377369838716" lon="15.83754103343791"><ele>658.0</ele><time>2026-04-14T15:25:55.999Z</time></trkpt><trkpt lat="41.74449192091953" lon="15.83750013906587"><ele>658.0</ele><time>2026-04-14T15:25:57.999Z</time></trkpt><trkpt lat="41.74463167221094" lon="15.83737280197841"><ele>658.0</ele><time>2026-04-14T15:25:59.999Z</time></trkpt><trkpt lat="41.744728292421826" lon="15.837294273517733"><ele>658.0</ele><time>2026-04-14T15:26:00.999Z</time></trkpt><trkpt lat="41.74481359105891" lon="15.837177476924987"><ele>658.0</ele><time>2026-04-14T15:26:01.999Z</time></trkpt><trkpt lat="41.74491206658557" lon="15.837050872043951"><ele>658.0</ele><time>2026-04-14T15:26:02.999Z</time></trkpt><trkpt lat="41.74501117418995" lon="15.836920113484542"><ele>658.0</ele><time>2026-04-14T15:26:03.999Z</time></trkpt><trkpt lat="41.74506533285046" lon="15.836815456119702"><ele>658.0</ele><time>2026-04-14T15:26:04.999Z</time></trkpt><trkpt lat="41.74512777787965" lon="15.836722617376484"><ele>658.0</ele><time>2026-04-14T15:26:05.999Z</time></trkpt><trkpt lat="41.745203804855684" lon="15.836500045291656"><ele>657.6666666666667</ele><time>2026-04-14T15:26:06.999Z</time></trkpt><trkpt lat="41.74526505818564" lon="15.83642715264495"><ele>657.3333333333334</ele><time>2026-04-14T15:26:07.999Z</time></trkpt><trkpt lat="41.74529840370005" lon="15.836318368701173"><ele>657.0</ele><time>2026-04-14T15:26:08.999Z</time></trkpt><trkpt lat="41.74532179357636" lon="15.836229263022648"><ele>656.6666666666666</ele><time>2026-04-14T15:26:09.999Z</time></trkpt><trkpt lat="41.74528101693323" lon="15.836111973089485"><ele>656.3333333333333</ele><time>2026-04-14T15:26:12.999Z</time></trkpt><trkpt lat="41.745295474188794" lon="15.835997414747666"><ele>656.0</ele><time>2026-04-14T15:26:13.999Z</time></trkpt><trkpt lat="41.74533617039311" lon="15.835891437295535"><ele>656.0</ele><time>2026-04-14T15:26:14.999Z</time></trkpt><trkpt lat="41.74538655911865" lon="15.83576853540707"><ele>656.0</ele><time>2026-04-14T15:26:15.999Z</time></trkpt><trkpt lat="41.74542269102872" lon="15.83563133227714"><ele>656.0</ele><time>2026-04-14T15:26:16.999Z</time></trkpt><trkpt lat="41.74546056875059" lon="15.835469463370671"><ele>656.0</ele><time>2026-04-14T15:26:17.999Z</time></trkpt><trkpt lat="41.74546513079283" lon="15.835342795339534"><ele>656.0</ele><time>2026-04-14T15:26:18.999Z</time></trkpt><trkpt lat="41.74549157722607" lon="15.835160777678517"><ele>657.5999999999999</ele><time>2026-04-14T15:26:19.999Z</time></trkpt><trkpt lat="41.74551254502822" lon="15.835014601664755"><ele>659.2</ele><time>2026-04-14T15:26:20.999Z</time></trkpt><trkpt lat="41.74550874371022" lon="15.834926677634261"><ele>660.8</ele><time>2026-04-14T15:26:21.999Z</time></trkpt><trkpt lat="41.74554520555248" lon="15.834772302191865"><ele>662.4000000000001</ele><time>2026-04-14T15:26:22.999Z</time></trkpt><trkpt lat="41.7455678915822" lon="15.834619598084164"><ele>664.0</ele><time>2026-04-14T15:26:23.999Z</time></trkpt><trkpt lat="41.74555617329708" lon="15.834426446891054"><ele>665.5</ele><time>2026-04-14T15:26:24.999Z</time></trkpt><trkpt lat="41.74551078909404" lon="15.834291296885327"><ele>667.0</ele><time>2026-04-14T15:26:25.999Z</time></trkpt><trkpt lat="41.74554943139424" lon="15.83411817634222"><ele>668.5</ele><time>2026-04-14T15:26:26.999Z</time></trkpt><trkpt lat="41.7455912284028" lon="15.83394915228504"><ele>670.0</ele><time>2026-04-14T15:26:27.999Z</time></trkpt><trkpt lat="41.74561869550221" lon="15.833832002809299"><ele>670.0</ele><time>2026-04-14T15:26:28.999Z</time></trkpt><trkpt lat="41.74564146821671" lon="15.83366307577806"><ele>670.0</ele><time>2026-04-14T15:26:30.999Z</time></trkpt><trkpt lat="41.74563082438088" lon="15.833576412607465"><ele>670.0</ele><time>2026-04-14T15:26:31.999Z</time></trkpt><trkpt lat="41.745662524210324" lon="15.833441165277153"><ele>670.0</ele><time>2026-04-14T15:26:32.999Z</time></trkpt><trkpt lat="41.745710832738574" lon="15.833319241450106"><ele>670.0</ele><time>2026-04-14T15:26:33.999Z</time></trkpt><trkpt lat="41.7457405284015" lon="15.833209007576121"><ele>670.8</ele><time>2026-04-14T15:26:35Z</time></trkpt><trkpt lat="41.74577059902172" lon="15.833058356176982"><ele>671.6</ele><time>2026-04-14T15:26:36Z</time></trkpt><trkpt lat="41.74582554369432" lon="15.83291283639025"><ele>672.4000000000001</ele><time>2026-04-14T15:26:37Z</time></trkpt><trkpt lat="41.745860055457676" lon="15.832808171704373"><ele>673.2</ele><time>2026-04-14T15:26:38Z</time></trkpt><trkpt lat="41.745910311280106" lon="15.832722956877275"><ele>674.0</ele><time>2026-04-14T15:26:39Z</time></trkpt><trkpt lat="41.74592730868421" lon="15.832594700683115"><ele>675.0</ele><time>2026-04-14T15:26:40Z</time></trkpt><trkpt lat="41.74595709821826" lon="15.832507520063736"><ele>676.0</ele><time>2026-04-14T15:26:41Z</time></trkpt><trkpt lat="41.74598798983536" lon="15.832383776808738"><ele>677.0</ele><time>2026-04-14T15:26:42Z</time></trkpt><trkpt lat="41.74603172884038" lon="15.832237137450258"><ele>678.0</ele><time>2026-04-14T15:26:43Z</time></trkpt><trkpt lat="41.746083512686916" lon="15.8320882610041"><ele>679.0</ele><time>2026-04-14T15:26:44Z</time></trkpt><trkpt lat="41.74610465295781" lon="15.831988238538388"><ele>677.8000000000001</ele><time>2026-04-14T15:26:45Z</time></trkpt><trkpt lat="41.74614104648967" lon="15.831862432882687"><ele>676.6</ele><time>2026-04-14T15:26:46Z</time></trkpt><trkpt lat="41.746185980034575" lon="15.831764241256826"><ele>675.4</ele><time>2026-04-14T15:26:47Z</time></trkpt><trkpt lat="41.74624698037079" lon="15.8316703877419"><ele>674.2</ele><time>2026-04-14T15:26:48Z</time></trkpt><trkpt lat="41.74630115156809" lon="15.831564130834806"><ele>673.0</ele><time>2026-04-14T15:26:49Z</time></trkpt><trkpt lat="41.746363545445895" lon="15.831421152761736"><ele>673.0</ele><time>2026-04-14T15:26:50Z</time></trkpt><trkpt lat="41.74640790169564" lon="15.831197265383604"><ele>673.0</ele><time>2026-04-14T15:26:51Z</time></trkpt><trkpt lat="41.746472843996" lon="15.83106044714146"><ele>673.0</ele><time>2026-04-14T15:26:52Z</time></trkpt><trkpt lat="41.7465225505357" lon="15.83096594647896"><ele>673.0</ele><time>2026-04-14T15:26:53Z</time></trkpt><trkpt lat="41.74656853308027" lon="15.83086351819971"><ele>674.0</ele><time>2026-04-14T15:26:54Z</time></trkpt><trkpt lat="41.74659927182298" lon="15.830732457780169"><ele>675.0</ele><time>2026-04-14T15:26:55Z</time></trkpt><trkpt lat="41.74664813738744" lon="15.830592540113328"><ele>676.0</ele><time>2026-04-14T15:26:57Z</time></trkpt><trkpt lat="41.74669282421405" lon="15.830485532091872"><ele>677.0</ele><time>2026-04-14T15:26:58Z</time></trkpt><trkpt lat="41.74670966255451" lon="15.830369998183409"><ele>678.0</ele><time>2026-04-14T15:27:01Z</time></trkpt><trkpt lat="41.74675288665673" lon="15.83027331711495"><ele>678.5999999999999</ele><time>2026-04-14T15:27:02Z</time></trkpt><trkpt lat="41.74679717561817" lon="15.830126094383507"><ele>679.1999999999999</ele><time>2026-04-14T15:27:03Z</time></trkpt><trkpt lat="41.74686649093447" lon="15.829971724286711"><ele>679.8</ele><time>2026-04-14T15:27:04Z</time></trkpt><trkpt lat="41.7469110798063" lon="15.829894471447696"><ele>680.4</ele><time>2026-04-14T15:27:05Z</time></trkpt><trkpt lat="41.74698403712574" lon="15.829789170455236"><ele>681.0</ele><time>2026-04-14T15:27:06Z</time></trkpt><trkpt lat="41.74704330697629" lon="15.829635174926521"><ele>680.5</ele><time>2026-04-14T15:27:07Z</time></trkpt><trkpt lat="41.74710810181789" lon="15.829447751966603"><ele>680.0</ele><time>2026-04-14T15:27:09Z</time></trkpt><trkpt lat="41.7471808259032" lon="15.829433823957894"><ele>679.5</ele><time>2026-04-14T15:27:14Z</time></trkpt><trkpt lat="41.74722668904928" lon="15.829367427226183"><ele>679.0</ele><time>2026-04-14T15:27:15Z</time></trkpt><trkpt lat="41.747218424033804" lon="15.829281744751711"><ele>678.5</ele><time>2026-04-14T15:27:16Z</time></trkpt><trkpt lat="41.74725831471147" lon="15.829187047199058"><ele>678.0</ele><time>2026-04-14T15:27:18Z</time></trkpt><trkpt lat="41.74731159971625" lon="15.829078107509588"><ele>678.0</ele><time>2026-04-14T15:27:20Z</time></trkpt><trkpt lat="41.747352490980575" lon="15.828953950069973"><ele>678.0</ele><time>2026-04-14T15:27:22Z</time></trkpt><trkpt lat="41.74737568615373" lon="15.828851594399529"><ele>678.0</ele><time>2026-04-14T15:27:25Z</time></trkpt><trkpt lat="41.74740698252256" lon="15.828726739312717"><ele>678.0</ele><time>2026-04-14T15:27:28Z</time></trkpt><trkpt lat="41.747292860722176" lon="15.828529557910551"><ele>679.2</ele><time>2026-04-14T15:27:30Z</time></trkpt><trkpt lat="41.747334799394864" lon="15.828456601940513"><ele>680.4</ele><time>2026-04-14T15:27:31Z</time></trkpt><trkpt lat="41.74734737374934" lon="15.828355271576198"><ele>681.6</ele><time>2026-04-14T15:27:32Z</time></trkpt><trkpt lat="41.74732374179372" lon="15.828150926538607"><ele>682.8000000000001</ele><time>2026-04-14T15:27:34Z</time></trkpt><trkpt lat="41.74729434552681" lon="15.828055559016564"><ele>684.0</ele><time>2026-04-14T15:27:35Z</time></trkpt><trkpt lat="41.74727457271452" lon="15.827900055798057"><ele>684.0</ele><time>2026-04-14T15:27:37Z</time></trkpt><trkpt lat="41.74731005343735" lon="15.827763159589548"><ele>684.0</ele><time>2026-04-14T15:27:39Z</time></trkpt><trkpt lat="41.74725449438898" lon="15.827722264648374"><ele>684.0</ele><time>2026-04-14T15:27:41Z</time></trkpt><trkpt lat="41.74713747913594" lon="15.82766325609437"><ele>684.0</ele><time>2026-04-14T15:27:43Z</time></trkpt><trkpt lat="41.74708260221194" lon="15.827557016215293"><ele>684.0</ele><time>2026-04-14T15:27:47Z</time></trkpt><trkpt lat="41.747086273919585" lon="15.827339216525202"><ele>685.1666666666666</ele><time>2026-04-14T15:27:48Z</time></trkpt><trkpt lat="41.74705669414229" lon="15.827242681524806"><ele>686.3333333333334</ele><time>2026-04-14T15:27:50Z</time></trkpt><trkpt lat="41.74702790779208" lon="15.82714148847495"><ele>687.5</ele><time>2026-04-14T15:27:52Z</time></trkpt><trkpt lat="41.74701113690445" lon="15.827035134614245"><ele>688.6666666666667</ele><time>2026-04-14T15:27:55Z</time></trkpt><trkpt lat="41.74701683761692" lon="15.826893338406071"><ele>689.8333333333334</ele><time>2026-04-14T15:27:57Z</time></trkpt><trkpt lat="41.74698213069815" lon="15.826785563985993"><ele>691.0</ele><time>2026-04-14T15:27:59Z</time></trkpt><trkpt lat="41.74695704057879" lon="15.826643363161189"><ele>691.8</ele><time>2026-04-14T15:28:01Z</time></trkpt><trkpt lat="41.74689434872902" lon="15.826576903726854"><ele>692.5999999999999</ele><time>2026-04-14T15:28:02.999Z</time></trkpt><trkpt lat="41.746917668145706" lon="15.826487098726783"><ele>693.4</ele><time>2026-04-14T15:28:04.999Z</time></trkpt><trkpt lat="41.74686821512967" lon="15.826326954244646"><ele>694.2</ele><time>2026-04-14T15:28:05.999Z</time></trkpt><trkpt lat="41.74679770635618" lon="15.826240708987925"><ele>695.0</ele><time>2026-04-14T15:28:09.999Z</time></trkpt><trkpt lat="41.74673409782741" lon="15.826141171220817"><ele>697.3333333333333</ele><time>2026-04-14T15:28:12.999Z</time></trkpt><trkpt lat="41.74670988840531" lon="15.826026099398224"><ele>699.6666666666666</ele><time>2026-04-14T15:28:14.999Z</time></trkpt><trkpt lat="41.74671139210583" lon="15.82592587948586"><ele>702.0</ele><time>2026-04-14T15:28:15.999Z</time></trkpt><trkpt lat="41.74671067817521" lon="15.825812252492561"><ele>704.3333333333334</ele><time>2026-04-14T15:28:17.999Z</time></trkpt><trkpt lat="41.74669641242173" lon="15.825718329930346"><ele>706.6666666666667</ele><time>2026-04-14T15:28:18.999Z</time></trkpt><trkpt lat="41.746676363646856" lon="15.825611759765273"><ele>709.0</ele><time>2026-04-14T15:28:20.999Z</time></trkpt><trkpt lat="41.74670686486681" lon="15.825463606428684"><ele>710.0</ele><time>2026-04-14T15:28:22.999Z</time></trkpt><trkpt lat="41.746722455726804" lon="15.825359215461269"><ele>711.0</ele><time>2026-04-14T15:28:23.999Z</time></trkpt><trkpt lat="41.74671468324159" lon="15.825258299294774"><ele>712.0</ele><time>2026-04-14T15:28:24.999Z</time></trkpt><trkpt lat="41.746695588378685" lon="15.8251646645575"><ele>713.0</ele><time>2026-04-14T15:28:25.999Z</time></trkpt><trkpt lat="41.746620981162685" lon="15.82510210876728"><ele>714.0</ele><time>2026-04-14T15:28:28.999Z</time></trkpt><trkpt lat="41.746542934230945" lon="15.825072115468272"><ele>715.0</ele><time>2026-04-14T15:28:32.999Z</time></trkpt><trkpt lat="41.746129134306926" lon="15.823513480873702"><ele>717.3333333333334</ele><time>2026-04-14T15:28:35.999Z</time></trkpt><trkpt lat="41.74609636378402" lon="15.823434564351778"><ele>719.6666666666667</ele><time>2026-04-14T15:28:37.999Z</time></trkpt><trkpt lat="41.746034690540526" lon="15.823467255427728"><ele>722.0</ele><time>2026-04-14T15:28:38.999Z</time></trkpt><trkpt lat="41.745951273925336" lon="15.823481565789324"><ele>724.3333333333334</ele><time>2026-04-14T15:28:39.999Z</time></trkpt><trkpt lat="41.745820027265225" lon="15.823502089853504"><ele>726.6666666666666</ele><time>2026-04-14T15:28:41Z</time></trkpt><trkpt lat="41.745740626226905" lon="15.82350611256172"><ele>729.0</ele><time>2026-04-14T15:28:42Z</time></trkpt><trkpt lat="41.74566134584359" lon="15.823482519158377"><ele>730.2</ele><time>2026-04-14T15:28:43Z</time></trkpt><trkpt lat="41.74559917700117" lon="15.823398668455962"><ele>731.4000000000001</ele><time>2026-04-14T15:28:45Z</time></trkpt><trkpt lat="41.745539793864836" lon="15.823277798733045"><ele>732.6</ele><time>2026-04-14T15:28:47Z</time></trkpt><trkpt lat="41.74546178954302" lon="15.823180947114068"><ele>733.8</ele><time>2026-04-14T15:28:50Z</time></trkpt><trkpt lat="41.74535789789989" lon="15.82322389647811"><ele>735.0</ele><time>2026-04-14T15:28:53Z</time></trkpt><trkpt lat="41.74520687658698" lon="15.82323316228166"><ele>740.6666666666666</ele><time>2026-04-14T15:28:54Z</time></trkpt><trkpt lat="41.74501137828995" lon="15.823211663381716"><ele>746.3333333333333</ele><time>2026-04-14T15:28:55Z</time></trkpt><trkpt lat="41.74488679747625" lon="15.823201652344096"><ele>752.0</ele><time>2026-04-14T15:28:56Z</time></trkpt><trkpt lat="41.74474155066699" lon="15.823138542408996"><ele>752.0</ele><time>2026-04-14T15:28:57Z</time></trkpt><trkpt lat="41.744650266073435" lon="15.823093575712422"><ele>752.0</ele><time>2026-04-14T15:28:58Z</time></trkpt><trkpt lat="41.74457202780157" lon="15.823100126017277"><ele>752.0</ele><time>2026-04-14T15:28:59Z</time></trkpt><trkpt lat="41.74443803676179" lon="15.823159864487188"><ele>752.0</ele><time>2026-04-14T15:29:00Z</time></trkpt><trkpt lat="41.74435798309764" lon="15.823100023380517"><ele>752.0</ele><time>2026-04-14T15:29:01Z</time></trkpt><trkpt lat="41.74427677344523" lon="15.82307827069174"><ele>759.0</ele><time>2026-04-14T15:29:02Z</time></trkpt><trkpt lat="41.74432446067139" lon="15.82301805685394"><ele>766.0</ele><time>2026-04-14T15:29:03Z</time></trkpt><trkpt lat="41.7437137244658" lon="15.822871578872038"><ele>766.0</ele><time>2026-04-14T15:29:08.528Z</time></trkpt><trkpt lat="41.743637481033886" lon="15.823005782702888"><ele>766.0</ele><time>2026-04-14T15:29:23Z</time></trkpt><trkpt lat="41.74357091516459" lon="15.823110004558231"><ele>766.0</ele><time>2026-04-14T15:29:25Z</time></trkpt><trkpt lat="41.743503790589216" lon="15.823190548619165"><ele>766.0</ele><time>2026-04-14T15:29:27Z</time></trkpt><trkpt lat="41.74345822508422" lon="15.823275116851413"><ele>766.0</ele><time>2026-04-14T15:29:28Z</time></trkpt><trkpt lat="41.743418789282785" lon="15.823343386397296"><ele>767.1999999999999</ele><time>2026-04-14T15:29:29Z</time></trkpt><trkpt lat="41.743388164615624" lon="15.823446319051893"><ele>768.4</ele><time>2026-04-14T15:29:31Z</time></trkpt><trkpt lat="41.743385081714976" lon="15.823561880151235"><ele>769.6</ele><time>2026-04-14T15:29:32Z</time></trkpt><trkpt lat="41.74336305554478" lon="15.823725859709157"><ele>770.8</ele><time>2026-04-14T15:29:33Z</time></trkpt><trkpt lat="41.74334310929701" lon="15.8238720822405"><ele>772.0</ele><time>2026-04-14T15:29:34Z</time></trkpt><trkpt lat="41.74329740065194" lon="15.824002664635989"><ele>773.25</ele><time>2026-04-14T15:29:35Z</time></trkpt><trkpt lat="41.74318477367047" lon="15.82429821875612"><ele>774.5</ele><time>2026-04-14T15:29:36Z</time></trkpt><trkpt lat="41.7431270812925" lon="15.82445203124028"><ele>775.75</ele><time>2026-04-14T15:29:37Z</time></trkpt><trkpt lat="41.74309221698911" lon="15.824524671196611"><ele>777.0</ele><time>2026-04-14T15:29:38Z</time></trkpt><trkpt lat="41.74303660044587" lon="15.82467107463382"><ele>778.4000000000001</ele><time>2026-04-14T15:29:39Z</time></trkpt><trkpt lat="41.74300449339719" lon="15.824819705292356"><ele>779.8000000000001</ele><time>2026-04-14T15:29:40Z</time></trkpt><trkpt lat="41.742922245133244" lon="15.824908692114446"><ele>781.2</ele><time>2026-04-14T15:29:41Z</time></trkpt><trkpt lat="41.74286895783922" lon="15.82481423854443"><ele>782.6</ele><time>2026-04-14T15:29:42Z</time></trkpt><trkpt lat="41.74287333680906" lon="15.824939378573758"><ele>784.0</ele><time>2026-04-14T15:29:43Z</time></trkpt><trkpt lat="41.742855214332614" lon="15.825035213878724"><ele>784.0</ele><time>2026-04-14T15:29:45Z</time></trkpt><trkpt lat="41.74276783923597" lon="15.825076948797841"><ele>784.0</ele><time>2026-04-14T15:29:48Z</time></trkpt><trkpt lat="41.74272603982068" lon="15.825195626804538"><ele>784.0</ele><time>2026-04-14T15:29:51Z</time></trkpt><trkpt lat="41.74266934395164" lon="15.825278073755117"><ele>784.0</ele><time>2026-04-14T15:29:54Z</time></trkpt><trkpt lat="41.74263036431708" lon="15.825367386925684"><ele>784.0</ele><time>2026-04-14T15:29:56Z</time></trkpt><trkpt lat="41.742662364077525" lon="15.825498265219075"><ele>785.6666666666666</ele><time>2026-04-14T15:29:59Z</time></trkpt><trkpt lat="41.74263792047754" lon="15.825579366575948"><ele>787.3333333333333</ele><time>2026-04-14T15:30:02Z</time></trkpt><trkpt lat="41.74257383194997" lon="15.82559494687839"><ele>789.0</ele><time>2026-04-14T15:30:04Z</time></trkpt><trkpt lat="41.74248697983086" lon="15.825644280608929"><ele>790.6666666666667</ele><time>2026-04-14T15:30:06Z</time></trkpt><trkpt lat="41.742411533940725" lon="15.825684110084833"><ele>792.3333333333334</ele><time>2026-04-14T15:30:08Z</time></trkpt><trkpt lat="41.742334039636674" lon="15.825711322456922"><ele>794.0</ele><time>2026-04-14T15:30:10Z</time></trkpt><trkpt lat="41.742255598185615" lon="15.825760333738444"><ele>794.0</ele><time>2026-04-14T15:30:12Z</time></trkpt><trkpt lat="41.74218553856216" lon="15.825799279913324"><ele>794.0</ele><time>2026-04-14T15:30:14Z</time></trkpt><trkpt lat="41.74204438424195" lon="15.825840172964975"><ele>794.0</ele><time>2026-04-14T15:30:15Z</time></trkpt><trkpt lat="41.741932823259816" lon="15.825798818471634"><ele>794.0</ele><time>2026-04-14T15:30:16Z</time></trkpt><trkpt lat="41.74182830036407" lon="15.825755198435298"><ele>794.0</ele><time>2026-04-14T15:30:18Z</time></trkpt><trkpt lat="41.741761991216" lon="15.825769327980073"><ele>795.4000000000001</ele><time>2026-04-14T15:30:19Z</time></trkpt><trkpt lat="41.741685167718984" lon="15.825732880659373"><ele>796.8</ele><time>2026-04-14T15:30:20Z</time></trkpt><trkpt lat="41.741602763040625" lon="15.825599872052438"><ele>798.2</ele><time>2026-04-14T15:30:22Z</time></trkpt><trkpt lat="41.74154731890325" lon="15.825648055642242"><ele>799.5999999999999</ele><time>2026-04-14T15:30:23Z</time></trkpt><trkpt lat="41.741387434412296" lon="15.825615667063424"><ele>801.0</ele><time>2026-04-14T15:30:25Z</time></trkpt><trkpt lat="41.74129287904161" lon="15.825592207991194"><ele>801.0</ele><time>2026-04-14T15:30:26Z</time></trkpt><trkpt lat="41.741207664086666" lon="15.82557580617304"><ele>801.0</ele><time>2026-04-14T15:30:27Z</time></trkpt><trkpt lat="41.74114193348555" lon="15.825594050597068"><ele>801.0</ele><time>2026-04-14T15:30:28Z</time></trkpt><trkpt lat="41.74106419199948" lon="15.825574531791313"><ele>801.0</ele><time>2026-04-14T15:30:29Z</time></trkpt><trkpt lat="41.74099560236704" lon="15.825536147376761"><ele>801.0</ele><time>2026-04-14T15:30:29.999Z</time></trkpt><trkpt lat="41.74091827638692" lon="15.825485520142696"><ele>801.0</ele><time>2026-04-14T15:30:30.999Z</time></trkpt><trkpt lat="41.740842143917135" lon="15.825448585115563"><ele>801.8333333333334</ele><time>2026-04-14T15:30:31.999Z</time></trkpt><trkpt lat="41.740760099579575" lon="15.825421641528896"><ele>802.6666666666667</ele><time>2026-04-14T15:30:32.999Z</time></trkpt><trkpt lat="41.740683036184656" lon="15.825395328226522"><ele>803.5</ele><time>2026-04-14T15:30:33.999Z</time></trkpt><trkpt lat="41.74061867996108" lon="15.825367075670048"><ele>804.3333333333334</ele><time>2026-04-14T15:30:34.999Z</time></trkpt><trkpt lat="41.74055397620934" lon="15.82532197978403"><ele>805.1666666666667</ele><time>2026-04-14T15:30:35.999Z</time></trkpt><trkpt lat="41.740478847549774" lon="15.825263318460786"><ele>806.0</ele><time>2026-04-14T15:30:36.999Z</time></trkpt><trkpt lat="41.740403784491896" lon="15.825221732662998"><ele>806.0000000000001</ele><time>2026-04-14T15:30:37.999Z</time></trkpt><trkpt lat="41.74034189419927" lon="15.825158253813068"><ele>806.0</ele><time>2026-04-14T15:30:38.999Z</time></trkpt><trkpt lat="41.740281394838526" lon="15.825087761098041"><ele>806.0</ele><time>2026-04-14T15:30:39.999Z</time></trkpt><trkpt lat="41.740218236553964" lon="15.825036062057908"><ele>806.0</ele><time>2026-04-14T15:30:40.999Z</time></trkpt><trkpt lat="41.740156458984515" lon="15.824988862437623"><ele>806.0000000000001</ele><time>2026-04-14T15:30:41.999Z</time></trkpt><trkpt lat="41.74009891636813" lon="15.824943481040597"><ele>806.0</ele><time>2026-04-14T15:30:42.999Z</time></trkpt><trkpt lat="41.74001801576657" lon="15.824854092912803"><ele>805.3333333333334</ele><time>2026-04-14T15:30:44.999Z</time></trkpt><trkpt lat="41.739965921744" lon="15.82474538624659"><ele>804.6666666666667</ele><time>2026-04-14T15:30:46.999Z</time></trkpt><trkpt lat="41.73989162336453" lon="15.824686561707106"><ele>804.0</ele><time>2026-04-14T15:30:48.999Z</time></trkpt><trkpt lat="41.73983820439166" lon="15.82462110147207"><ele>803.3333333333333</ele><time>2026-04-14T15:30:50.999Z</time></trkpt><trkpt lat="41.73978718186525" lon="15.824541442972196"><ele>802.6666666666666</ele><time>2026-04-14T15:30:53.999Z</time></trkpt><trkpt lat="41.73976663225343" lon="15.824427108201583"><ele>802.0</ele><time>2026-04-14T15:30:56.999Z</time></trkpt><trkpt lat="41.739763440283376" lon="15.82433954255546"><ele>801.3333333333333</ele><time>2026-04-14T15:30:59.999Z</time></trkpt><trkpt lat="41.739704077040265" lon="15.824247030824818"><ele>800.6666666666666</ele><time>2026-04-14T15:31:03.999Z</time></trkpt><trkpt lat="41.73971891110081" lon="15.82413093540719"><ele>800.0</ele><time>2026-04-14T15:31:06.999Z</time></trkpt><trkpt lat="41.73972867132081" lon="15.824010618735079"><ele>799.3333333333333</ele><time>2026-04-14T15:31:08.999Z</time></trkpt><trkpt lat="41.73968699991374" lon="15.8239382414806"><ele>798.6666666666666</ele><time>2026-04-14T15:31:10.999Z</time></trkpt><trkpt lat="41.73961969052537" lon="15.82392107087105"><ele>798.0</ele><time>2026-04-14T15:31:12.999Z</time></trkpt><trkpt lat="41.73950355519481" lon="15.823841714399133"><ele>798.0</ele><time>2026-04-14T15:31:14.999Z</time></trkpt><trkpt lat="41.73944519195383" lon="15.823760316187201"><ele>798.0</ele><time>2026-04-14T15:31:15.999Z</time></trkpt><trkpt lat="41.73940405801348" lon="15.823636082895185"><ele>798.0</ele><time>2026-04-14T15:31:16.999Z</time></trkpt><trkpt lat="41.739373731768204" lon="15.823552443494142"><ele>798.0</ele><time>2026-04-14T15:31:17.999Z</time></trkpt><trkpt lat="41.73933298742031" lon="15.823458670779578"><ele>798.0</ele><time>2026-04-14T15:31:18.999Z</time></trkpt><trkpt lat="41.73928932456123" lon="15.823360266688212"><ele>798.0</ele><time>2026-04-14T15:31:19.999Z</time></trkpt><trkpt lat="41.739239504169525" lon="15.823246295554888"><ele>795.5999999999999</ele><time>2026-04-14T15:31:21Z</time></trkpt><trkpt lat="41.739176874492436" lon="15.82312735425099"><ele>793.1999999999999</ele><time>2026-04-14T15:31:22Z</time></trkpt><trkpt lat="41.73911953822471" lon="15.823007923284134"><ele>790.8</ele><time>2026-04-14T15:31:23Z</time></trkpt><trkpt lat="41.73906539639859" lon="15.822893841250426"><ele>788.4</ele><time>2026-04-14T15:31:24Z</time></trkpt><trkpt lat="41.73901396975958" lon="15.822756377107027"><ele>786.0</ele><time>2026-04-14T15:31:25Z</time></trkpt><trkpt lat="41.73895562359291" lon="15.822663648537228"><ele>785.5714285714287</ele><time>2026-04-14T15:31:26Z</time></trkpt><trkpt lat="41.738899773419845" lon="15.82260370866517"><ele>785.1428571428571</ele><time>2026-04-14T15:31:27Z</time></trkpt><trkpt lat="41.738859743082806" lon="15.822538289614398"><ele>784.7142857142858</ele><time>2026-04-14T15:31:28Z</time></trkpt><trkpt lat="41.738824746411936" lon="15.822463636143123"><ele>784.2857142857143</ele><time>2026-04-14T15:31:29Z</time></trkpt><trkpt lat="41.73878116136536" lon="15.822381084181753"><ele>783.8571428571429</ele><time>2026-04-14T15:31:30Z</time></trkpt><trkpt lat="41.73872031979576" lon="15.822316329906329"><ele>783.4285714285714</ele><time>2026-04-14T15:31:31Z</time></trkpt><trkpt lat="41.73866517378709" lon="15.822231324683319"><ele>783.0</ele><time>2026-04-14T15:31:32Z</time></trkpt><trkpt lat="41.73861370478779" lon="15.822146078041516"><ele>780.8</ele><time>2026-04-14T15:31:33Z</time></trkpt><trkpt lat="41.738521668315485" lon="15.822036888729114"><ele>778.5999999999999</ele><time>2026-04-14T15:31:35Z</time></trkpt><trkpt lat="41.73848299045251" lon="15.821930586279978"><ele>776.4000000000001</ele><time>2026-04-14T15:31:36Z</time></trkpt><trkpt lat="41.73841656985836" lon="15.821836069630603"><ele>774.2</ele><time>2026-04-14T15:31:37Z</time></trkpt><trkpt lat="41.73835453204347" lon="15.821767745906518"><ele>772.0</ele><time>2026-04-14T15:31:38Z</time></trkpt><trkpt lat="41.738236151229245" lon="15.821742605316555"><ele>770.9999999999999</ele><time>2026-04-14T15:31:40Z</time></trkpt><trkpt lat="41.73815928313547" lon="15.821729055530179"><ele>770.0</ele><time>2026-04-14T15:31:42Z</time></trkpt><trkpt lat="41.738073950350824" lon="15.821739475411599"><ele>769.0</ele><time>2026-04-14T15:31:43Z</time></trkpt><trkpt lat="41.73796255003251" lon="15.821701809883688"><ele>768.0</ele><time>2026-04-14T15:31:45Z</time></trkpt><trkpt lat="41.73789681545199" lon="15.821705644761701"><ele>767.0</ele><time>2026-04-14T15:31:46Z</time></trkpt><trkpt lat="41.737822561432836" lon="15.82171699414905"><ele>766.0</ele><time>2026-04-14T15:31:47Z</time></trkpt><trkpt lat="41.73772680804136" lon="15.82172514153408"><ele>764.5999999999999</ele><time>2026-04-14T15:31:48Z</time></trkpt><trkpt lat="41.73764866981009" lon="15.821718303743443"><ele>763.2</ele><time>2026-04-14T15:31:49Z</time></trkpt><trkpt lat="41.73753881574586" lon="15.821701860431407"><ele>761.8</ele><time>2026-04-14T15:31:51Z</time></trkpt><trkpt lat="41.737450139849926" lon="15.82166380534253"><ele>760.4000000000001</ele><time>2026-04-14T15:31:53Z</time></trkpt><trkpt lat="41.73737358282263" lon="15.821591634625873"><ele>759.0</ele><time>2026-04-14T15:31:57Z</time></trkpt><trkpt lat="41.7372491254564" lon="15.821561667962182"><ele>759.0</ele><time>2026-04-14T15:32:01Z</time></trkpt><trkpt lat="41.73717395110446" lon="15.821619853093358"><ele>759.0</ele><time>2026-04-14T15:32:04Z</time></trkpt><trkpt lat="41.73709776537109" lon="15.821690499173636"><ele>759.0</ele><time>2026-04-14T15:32:07Z</time></trkpt><trkpt lat="41.737050983459355" lon="15.82176662456559"><ele>759.0</ele><time>2026-04-14T15:32:10Z</time></trkpt><trkpt lat="41.73700784121408" lon="15.821829074632527"><ele>759.0</ele><time>2026-04-14T15:32:14Z</time></trkpt><trkpt lat="41.73695054933982" lon="15.821920938988773"><ele>759.0</ele><time>2026-04-14T15:33:29.999Z</time></trkpt><trkpt lat="41.736892665528266" lon="15.82205000778807"><ele>757.8000000000001</ele><time>2026-04-14T15:33:31.999Z</time></trkpt><trkpt lat="41.73684713630482" lon="15.822171140909916"><ele>756.6</ele><time>2026-04-14T15:33:33.999Z</time></trkpt><trkpt lat="41.7368320198831" lon="15.822310243349682"><ele>755.4</ele><time>2026-04-14T15:33:35.999Z</time></trkpt><trkpt lat="41.73682774474954" lon="15.82243476563196"><ele>754.2</ele><time>2026-04-14T15:33:38Z</time></trkpt><trkpt lat="41.736804799502146" lon="15.822587533308052"><ele>753.0</ele><time>2026-04-14T15:33:40Z</time></trkpt><trkpt lat="41.73679180812485" lon="15.822692552101799"><ele>753.0</ele><time>2026-04-14T15:33:42Z</time></trkpt><trkpt lat="41.736786498067914" lon="15.82280375410491"><ele>753.0</ele><time>2026-04-14T15:33:44Z</time></trkpt><trkpt lat="41.7367740409863" lon="15.82290996349329"><ele>753.0</ele><time>2026-04-14T15:33:46Z</time></trkpt><trkpt lat="41.736684440265556" lon="15.822971367505499"><ele>753.0</ele><time>2026-04-14T15:33:48Z</time></trkpt><trkpt lat="41.7366530326682" lon="15.823050692598143"><ele>753.0</ele><time>2026-04-14T15:33:50Z</time></trkpt><trkpt lat="41.736565701991154" lon="15.823127511684937"><ele>753.0</ele><time>2026-04-14T15:33:52Z</time></trkpt><trkpt lat="41.736466537999654" lon="15.823183277564109"><ele>753.0</ele><time>2026-04-14T15:33:54Z</time></trkpt><trkpt lat="41.73637063287001" lon="15.823217378452341"><ele>753.0</ele><time>2026-04-14T15:33:55Z</time></trkpt><trkpt lat="41.73628807766307" lon="15.823199198947924"><ele>753.0</ele><time>2026-04-14T15:33:57Z</time></trkpt><trkpt lat="41.73615735145393" lon="15.823239519880977"><ele>753.0</ele><time>2026-04-14T15:33:59Z</time></trkpt><trkpt lat="41.736084502778844" lon="15.823254208333452"><ele>753.0</ele><time>2026-04-14T15:34:00Z</time></trkpt><trkpt lat="41.73599779028486" lon="15.823268338836947"><ele>750.0</ele><time>2026-04-14T15:34:01Z</time></trkpt><trkpt lat="41.73588735074842" lon="15.82319297180147"><ele>747.0</ele><time>2026-04-14T15:34:02Z</time></trkpt><trkpt lat="41.73582019434157" lon="15.823180419397355"><ele>744.0</ele><time>2026-04-14T15:34:03Z</time></trkpt><trkpt lat="41.735674408777065" lon="15.82315961938985"><ele>741.0</ele><time>2026-04-14T15:34:05Z</time></trkpt><trkpt lat="41.73559994349275" lon="15.823044038501692"><ele>741.0</ele><time>2026-04-14T15:34:07Z</time></trkpt><trkpt lat="41.73553278668079" lon="15.822958444068384"><ele>741.0</ele><time>2026-04-14T15:34:09Z</time></trkpt><trkpt lat="41.735475547848445" lon="15.822894885715929"><ele>741.0</ele><time>2026-04-14T15:34:12Z</time></trkpt><trkpt lat="41.73542359818664" lon="15.822828741399498"><ele>741.0</ele><time>2026-04-14T15:34:14Z</time></trkpt><trkpt lat="41.73539621955324" lon="15.822706448047791"><ele>741.0</ele><time>2026-04-14T15:34:16Z</time></trkpt><trkpt lat="41.73539003683346" lon="15.822591125696722"><ele>741.0</ele><time>2026-04-14T15:34:18Z</time></trkpt><trkpt lat="41.735369804841184" lon="15.822486718720565"><ele>740.5714285714286</ele><time>2026-04-14T15:34:21Z</time></trkpt><trkpt lat="41.73540617631669" lon="15.822417847763806"><ele>740.1428571428572</ele><time>2026-04-14T15:34:23Z</time></trkpt><trkpt lat="41.7353374964189" lon="15.822382001813807"><ele>739.7142857142858</ele><time>2026-04-14T15:34:26Z</time></trkpt><trkpt lat="41.735334896902835" lon="15.822282707644653"><ele>739.2857142857142</ele><time>2026-04-14T15:34:29.999Z</time></trkpt><trkpt lat="41.73532764036131" lon="15.822188328229895"><ele>738.8571428571429</ele><time>2026-04-14T15:34:36.999Z</time></trkpt><trkpt lat="41.73525966217113" lon="15.822153997203582"><ele>738.4285714285714</ele><time>2026-04-14T15:34:40.999Z</time></trkpt><trkpt lat="41.735187103587464" lon="15.822146559301471"><ele>738.0</ele><time>2026-04-14T15:34:43.999Z</time></trkpt><trkpt lat="41.73511607396642" lon="15.822150389415171"><ele>735.2</ele><time>2026-04-14T15:34:46.999Z</time></trkpt><trkpt lat="41.73504506028829" lon="15.82214125019039"><ele>732.4</ele><time>2026-04-14T15:34:48.999Z</time></trkpt><trkpt lat="41.734866215637524" lon="15.822130722633158"><ele>729.6</ele><time>2026-04-14T15:34:50.999Z</time></trkpt><trkpt lat="41.73479222666637" lon="15.822185287863423"><ele>726.8000000000001</ele><time>2026-04-14T15:34:51.999Z</time></trkpt><trkpt lat="41.73472343648547" lon="15.822181660656895"><ele>724.0</ele><time>2026-04-14T15:34:52.999Z</time></trkpt><trkpt lat="41.73465793144449" lon="15.822193186426714"><ele>724.0</ele><time>2026-04-14T15:34:53.999Z</time></trkpt><trkpt lat="41.734593431919706" lon="15.82220443898979"><ele>724.0</ele><time>2026-04-14T15:34:54.999Z</time></trkpt><trkpt lat="41.73450008081046" lon="15.822188705459906"><ele>724.0</ele><time>2026-04-14T15:34:57.999Z</time></trkpt><trkpt lat="41.73441049619258" lon="15.822189142736523"><ele>724.0</ele><time>2026-04-14T15:34:59.999Z</time></trkpt><trkpt lat="41.73431101114982" lon="15.822203027646442"><ele>724.0</ele><time>2026-04-14T15:35:01.999Z</time></trkpt><trkpt lat="41.73424993171316" lon="15.82226555286793"><ele>724.0</ele><time>2026-04-14T15:35:05.999Z</time></trkpt><trkpt lat="41.734168035580154" lon="15.822317097666298"><ele>723.5</ele><time>2026-04-14T15:35:08.999Z</time></trkpt><trkpt lat="41.73410395941637" lon="15.82240784540162"><ele>723.0</ele><time>2026-04-14T15:35:11.999Z</time></trkpt><trkpt lat="41.73405479157108" lon="15.822477060156226"><ele>722.5</ele><time>2026-04-14T15:35:13.999Z</time></trkpt><trkpt lat="41.73397745966215" lon="15.82257789031346"><ele>722.0</ele><time>2026-04-14T15:35:15.999Z</time></trkpt><trkpt lat="41.733896407403144" lon="15.822658834807944"><ele>721.5</ele><time>2026-04-14T15:35:18.999Z</time></trkpt><trkpt lat="41.73384579571154" lon="15.822731477447613"><ele>721.0</ele><time>2026-04-14T15:35:19.999Z</time></trkpt><trkpt lat="41.733692629736055" lon="15.822802782257442"><ele>721.0</ele><time>2026-04-14T15:35:23.999Z</time></trkpt><trkpt lat="41.73360223894212" lon="15.822894730445547"><ele>721.0</ele><time>2026-04-14T15:35:25.999Z</time></trkpt><trkpt lat="41.73351853322482" lon="15.822938858754735"><ele>721.0</ele><time>2026-04-14T15:35:26.999Z</time></trkpt><trkpt lat="41.73340397670239" lon="15.822937764602349"><ele>721.0</ele><time>2026-04-14T15:35:27.999Z</time></trkpt><trkpt lat="41.733310986447016" lon="15.822948226794065"><ele>721.0</ele><time>2026-04-14T15:35:28.999Z</time></trkpt><trkpt lat="41.73319899636157" lon="15.822929820786161"><ele>717.75</ele><time>2026-04-14T15:35:29.999Z</time></trkpt><trkpt lat="41.73304591640918" lon="15.822900948555116"><ele>714.5</ele><time>2026-04-14T15:35:31.999Z</time></trkpt><trkpt lat="41.73294579384932" lon="15.822930305179359"><ele>711.25</ele><time>2026-04-14T15:35:34Z</time></trkpt><trkpt lat="41.732856883432056" lon="15.8229066047289"><ele>708.0</ele><time>2026-04-14T15:35:35Z</time></trkpt><trkpt lat="41.73273266287166" lon="15.822926695939426"><ele>706.1666666666666</ele><time>2026-04-14T15:35:40Z</time></trkpt><trkpt lat="41.7326676385886" lon="15.822932527835695"><ele>704.3333333333334</ele><time>2026-04-14T15:35:42Z</time></trkpt><trkpt lat="41.73256036147835" lon="15.822963830164316"><ele>702.5</ele><time>2026-04-14T15:35:43Z</time></trkpt><trkpt lat="41.73247749408521" lon="15.822988826585608"><ele>700.6666666666667</ele><time>2026-04-14T15:35:44Z</time></trkpt><trkpt lat="41.73240232077661" lon="15.823010414523134"><ele>698.8333333333334</ele><time>2026-04-14T15:35:45Z</time></trkpt><trkpt lat="41.73231035760645" lon="15.8230264315174"><ele>697.0</ele><time>2026-04-14T15:35:46Z</time></trkpt><trkpt lat="41.73240575441136" lon="15.822993944736144"><ele>697.0</ele><time>2026-04-14T15:35:47Z</time></trkpt><trkpt lat="41.732322006135625" lon="15.823043646408614"><ele>697.0</ele><time>2026-04-14T15:35:49Z</time></trkpt><trkpt lat="41.73224780791185" lon="15.82306366588421"><ele>697.0</ele><time>2026-04-14T15:35:50Z</time></trkpt><trkpt lat="41.73217462650218" lon="15.823076878247667"><ele>697.0</ele><time>2026-04-14T15:35:51Z</time></trkpt><trkpt lat="41.73209847923978" lon="15.823104822131103"><ele>697.0</ele><time>2026-04-14T15:35:52Z</time></trkpt><trkpt lat="41.732039401367565" lon="15.82301396447923"><ele>697.0</ele><time>2026-04-14T15:35:55Z</time></trkpt><trkpt lat="41.73198459306611" lon="15.82310091922494"><ele>697.0</ele><time>2026-04-14T15:35:57Z</time></trkpt><trkpt lat="41.73190805420469" lon="15.823178295984185"><ele>697.0</ele><time>2026-04-14T15:35:59Z</time></trkpt><trkpt lat="41.7318316193921" lon="15.82330698634995"><ele>697.0</ele><time>2026-04-14T15:36:01Z</time></trkpt><trkpt lat="41.73176046791591" lon="15.823427541898203"><ele>697.0</ele><time>2026-04-14T15:36:02Z</time></trkpt><trkpt lat="41.73170156982767" lon="15.82351224823463"><ele>697.0</ele><time>2026-04-14T15:36:03Z</time></trkpt><trkpt lat="41.73161637579473" lon="15.823668552845024"><ele>697.0</ele><time>2026-04-14T15:36:04Z</time></trkpt><trkpt lat="41.73148204774208" lon="15.82372407394768"><ele>697.0</ele><time>2026-04-14T15:36:05Z</time></trkpt><trkpt lat="41.73136839853422" lon="15.823828778109641"><ele>697.0</ele><time>2026-04-14T15:36:06Z</time></trkpt><trkpt lat="41.731257154219726" lon="15.823900860381245"><ele>697.0</ele><time>2026-04-14T15:36:07Z</time></trkpt><trkpt lat="41.731128930146106" lon="15.82397424496578"><ele>692.25</ele><time>2026-04-14T15:36:08Z</time></trkpt><trkpt lat="41.73097354721095" lon="15.823988950365026"><ele>687.5</ele><time>2026-04-14T15:36:09Z</time></trkpt><trkpt lat="41.73083593947441" lon="15.824024060328425"><ele>682.75</ele><time>2026-04-14T15:36:10Z</time></trkpt><trkpt lat="41.73076740434805" lon="15.824073873479861"><ele>678.0</ele><time>2026-04-14T15:36:11Z</time></trkpt><trkpt lat="41.73062609591474" lon="15.824076269175313"><ele>678.0</ele><time>2026-04-14T15:36:12Z</time></trkpt><trkpt lat="41.73053918218918" lon="15.824090241531225"><ele>678.0</ele><time>2026-04-14T15:36:13Z</time></trkpt><trkpt lat="41.730375858504225" lon="15.82410248440395"><ele>678.0</ele><time>2026-04-14T15:36:14Z</time></trkpt><trkpt lat="41.7302736875126" lon="15.824121369213103"><ele>678.0</ele><time>2026-04-14T15:36:15Z</time></trkpt><trkpt lat="41.73017086248053" lon="15.824119598594603"><ele>674.8</ele><time>2026-04-14T15:36:16Z</time></trkpt><trkpt lat="41.7300840819547" lon="15.824091959636629"><ele>671.5999999999999</ele><time>2026-04-14T15:36:17Z</time></trkpt><trkpt lat="41.72999272899003" lon="15.824093936087445"><ele>668.4000000000001</ele><time>2026-04-14T15:36:18Z</time></trkpt><trkpt lat="41.72991869919492" lon="15.82408275632898"><ele>665.2</ele><time>2026-04-14T15:36:19Z</time></trkpt><trkpt lat="41.729778993952905" lon="15.82412486402979"><ele>662.0</ele><time>2026-04-14T15:36:21Z</time></trkpt><trkpt lat="41.72969328108792" lon="15.824176203098745"><ele>662.0</ele><time>2026-04-14T15:36:23Z</time></trkpt><trkpt lat="41.72964420451783" lon="15.824252542614278"><ele>662.0</ele><time>2026-04-14T15:36:25Z</time></trkpt><trkpt lat="41.729643828390024" lon="15.824354051474245"><ele>662.0</ele><time>2026-04-14T15:36:29Z</time></trkpt><trkpt lat="41.72957834862361" lon="15.824516311633708"><ele>662.0</ele><time>2026-04-14T15:36:31Z</time></trkpt><trkpt lat="41.729567242739776" lon="15.824600066794467"><ele>662.0</ele><time>2026-04-14T15:36:32Z</time></trkpt><trkpt lat="41.729479430038225" lon="15.824739416839318"><ele>662.1666666666666</ele><time>2026-04-14T15:36:34Z</time></trkpt><trkpt lat="41.72941973190395" lon="15.824838405145382"><ele>662.3333333333333</ele><time>2026-04-14T15:36:35Z</time></trkpt><trkpt lat="41.72936317594858" lon="15.824921080182742"><ele>662.5</ele><time>2026-04-14T15:36:36Z</time></trkpt><trkpt lat="41.72930765171382" lon="15.824991484335564"><ele>662.6666666666666</ele><time>2026-04-14T15:36:37Z</time></trkpt><trkpt lat="41.72925446121099" lon="15.82507682077472"><ele>662.8333333333334</ele><time>2026-04-14T15:36:38Z</time></trkpt><trkpt lat="41.729250499174576" lon="15.825184662137053"><ele>663.0</ele><time>2026-04-14T15:36:39Z</time></trkpt><trkpt lat="41.72925858257774" lon="15.825339854673311"><ele>660.0</ele><time>2026-04-14T15:36:40Z</time></trkpt><trkpt lat="41.72917468155675" lon="15.825471686965262"><ele>657.0</ele><time>2026-04-14T15:36:41Z</time></trkpt><trkpt lat="41.729169191342926" lon="15.825595358082865"><ele>654.0</ele><time>2026-04-14T15:36:42Z</time></trkpt><trkpt lat="41.72910348167927" lon="15.825721026479393"><ele>651.0</ele><time>2026-04-14T15:36:43Z</time></trkpt><trkpt lat="41.72903831835547" lon="15.825833071245748"><ele>648.0</ele><time>2026-04-14T15:36:44Z</time></trkpt><trkpt lat="41.72898546892835" lon="15.825890276177327"><ele>648.0</ele><time>2026-04-14T15:36:45Z</time></trkpt><trkpt lat="41.72891940081484" lon="15.825929945131968"><ele>648.0</ele><time>2026-04-14T15:36:46Z</time></trkpt><trkpt lat="41.728838267867474" lon="15.82605713619357"><ele>648.0</ele><time>2026-04-14T15:36:48Z</time></trkpt><trkpt lat="41.728851902420416" lon="15.826142077215042"><ele>648.0</ele><time>2026-04-14T15:36:51Z</time></trkpt><trkpt lat="41.72882784777153" lon="15.82622921173041"><ele>648.0</ele><time>2026-04-14T15:36:52Z</time></trkpt><trkpt lat="41.728750936504575" lon="15.826263186387814"><ele>648.0</ele><time>2026-04-14T15:36:54Z</time></trkpt><trkpt lat="41.728732742628" lon="15.82636484656129"><ele>648.0</ele><time>2026-04-14T15:36:56Z</time></trkpt><trkpt lat="41.72868582359511" lon="15.826459520679359"><ele>648.0</ele><time>2026-04-14T15:36:57Z</time></trkpt><trkpt lat="41.72869416803437" lon="15.826574833188051"><ele>648.0</ele><time>2026-04-14T15:37:00Z</time></trkpt><trkpt lat="41.72870869091719" lon="15.826700662127559"><ele>648.0</ele><time>2026-04-14T15:37:03Z</time></trkpt><trkpt lat="41.7287212059379" lon="15.826852874710916"><ele>648.0</ele><time>2026-04-14T15:37:06Z</time></trkpt><trkpt lat="41.72878094199491" lon="15.826887850706546"><ele>648.0</ele><time>2026-04-14T15:37:08Z</time></trkpt><trkpt lat="41.7286560540051" lon="15.82701645084374"><ele>648.0</ele><time>2026-04-14T15:37:10Z</time></trkpt><trkpt lat="41.728578635704956" lon="15.82702545310848"><ele>648.0</ele><time>2026-04-14T15:37:13Z</time></trkpt><trkpt lat="41.7286081377698" lon="15.827127590471108"><ele>648.0</ele><time>2026-04-14T15:37:16Z</time></trkpt><trkpt lat="41.72859113688263" lon="15.827223406251381"><ele>648.0</ele><time>2026-04-14T15:37:20Z</time></trkpt><trkpt lat="41.72858730085775" lon="15.827335522011184"><ele>648.0</ele><time>2026-04-14T15:37:24Z</time></trkpt><trkpt lat="41.72859462357999" lon="15.827424823592294"><ele>648.0</ele><time>2026-04-14T15:37:26.999Z</time></trkpt><trkpt lat="41.728529790251336" lon="15.827481710918672"><ele>646.5999999999999</ele><time>2026-04-14T15:37:29.999Z</time></trkpt><trkpt lat="41.72855850019043" lon="15.827574323034263"><ele>645.1999999999999</ele><time>2026-04-14T15:37:32.999Z</time></trkpt><trkpt lat="41.72849604597468" lon="15.827609973274274"><ele>643.8</ele><time>2026-04-14T15:37:36.999Z</time></trkpt><trkpt lat="41.72853258228192" lon="15.827684237298495"><ele>642.4</ele><time>2026-04-14T15:37:37.999Z</time></trkpt><trkpt lat="41.7284966959069" lon="15.82783172526781"><ele>641.0</ele><time>2026-04-14T15:37:40Z</time></trkpt><trkpt lat="41.72839076013889" lon="15.827970408302864"><ele>640.1999999999999</ele><time>2026-04-14T15:37:42Z</time></trkpt><trkpt lat="41.72829348783573" lon="15.828043349393866"><ele>639.4</ele><time>2026-04-14T15:37:43Z</time></trkpt><trkpt lat="41.72823604579758" lon="15.828109050332719"><ele>638.6</ele><time>2026-04-14T15:37:44Z</time></trkpt><trkpt lat="41.72816780719869" lon="15.828182996079446"><ele>637.8</ele><time>2026-04-14T15:37:45Z</time></trkpt><trkpt lat="41.72812209881017" lon="15.82824936852975"><ele>637.0</ele><time>2026-04-14T15:37:46Z</time></trkpt><trkpt lat="41.72803610286396" lon="15.828373007002934"><ele>637.0</ele><time>2026-04-14T15:37:48Z</time></trkpt><trkpt lat="41.72798756536005" lon="15.828449359992968"><ele>637.0</ele><time>2026-04-14T15:37:49Z</time></trkpt><trkpt lat="41.7279075916052" lon="15.82852008730356"><ele>637.0</ele><time>2026-04-14T15:37:50Z</time></trkpt><trkpt lat="41.727765201653945" lon="15.828550434749319"><ele>637.0</ele><time>2026-04-14T15:37:51Z</time></trkpt><trkpt lat="41.72764854979377" lon="15.828558932507233"><ele>637.0</ele><time>2026-04-14T15:37:52Z</time></trkpt><trkpt lat="41.72757377742362" lon="15.828578038932813"><ele>636.5</ele><time>2026-04-14T15:37:53Z</time></trkpt><trkpt lat="41.727512466464525" lon="15.828611618664171"><ele>636.0</ele><time>2026-04-14T15:37:54Z</time></trkpt><trkpt lat="41.727441640770856" lon="15.828661923327198"><ele>635.5</ele><time>2026-04-14T15:37:55Z</time></trkpt><trkpt lat="41.72735480203641" lon="15.828710363605966"><ele>635.0</ele><time>2026-04-14T15:37:56Z</time></trkpt><trkpt lat="41.72727644507361" lon="15.828811030200741"><ele>634.5</ele><time>2026-04-14T15:37:57Z</time></trkpt><trkpt lat="41.72723037214493" lon="15.828882962234243"><ele>634.0</ele><time>2026-04-14T15:37:58Z</time></trkpt><trkpt lat="41.727147911960664" lon="15.829062342201423"><ele>634.0</ele><time>2026-04-14T15:38:00Z</time></trkpt><trkpt lat="41.727096262227114" lon="15.82919051523556"><ele>634.0</ele><time>2026-04-14T15:38:01Z</time></trkpt><trkpt lat="41.7270167402609" lon="15.829263129800877"><ele>634.0</ele><time>2026-04-14T15:38:02Z</time></trkpt><trkpt lat="41.72693646390196" lon="15.829444669314109"><ele>634.0</ele><time>2026-04-14T15:38:04Z</time></trkpt><trkpt lat="41.726841573739954" lon="15.829564083862428"><ele>633.6</ele><time>2026-04-14T15:38:05Z</time></trkpt><trkpt lat="41.726749149032294" lon="15.829658607032442"><ele>633.2</ele><time>2026-04-14T15:38:06Z</time></trkpt><trkpt lat="41.726659464845625" lon="15.829789547154805"><ele>632.8000000000001</ele><time>2026-04-14T15:38:07Z</time></trkpt><trkpt lat="41.72659709979016" lon="15.82983607423791"><ele>632.4</ele><time>2026-04-14T15:38:08Z</time></trkpt><trkpt lat="41.72649710906406" lon="15.829939421077393"><ele>632.0</ele><time>2026-04-14T15:38:10Z</time></trkpt><trkpt lat="41.72643964875532" lon="15.829978250606171"><ele>632.0</ele><time>2026-04-14T15:38:11Z</time></trkpt><trkpt lat="41.72629081395047" lon="15.83007243685306"><ele>632.0</ele><time>2026-04-14T15:38:13Z</time></trkpt><trkpt lat="41.726223388149776" lon="15.83009243968027"><ele>632.0</ele><time>2026-04-14T15:38:15Z</time></trkpt><trkpt lat="41.7255469889668" lon="15.831457274467992"><ele>629.5</ele><time>2026-04-14T15:38:16Z</time></trkpt><trkpt lat="41.7254636391942" lon="15.83157106010403"><ele>627.0</ele><time>2026-04-14T15:38:19Z</time></trkpt><trkpt lat="41.72530099164526" lon="15.831564436143964"><ele>624.5</ele><time>2026-04-14T15:38:20Z</time></trkpt><trkpt lat="41.7252045899518" lon="15.831731068270795"><ele>622.0</ele><time>2026-04-14T15:38:21Z</time></trkpt><trkpt lat="41.725166056898765" lon="15.831878726151759"><ele>619.3333333333334</ele><time>2026-04-14T15:38:22Z</time></trkpt><trkpt lat="41.72497211371866" lon="15.8321289400472"><ele>616.6666666666666</ele><time>2026-04-14T15:38:24Z</time></trkpt><trkpt lat="41.724888005126076" lon="15.832230240323671"><ele>614.0</ele><time>2026-04-14T15:38:25Z</time></trkpt><trkpt lat="41.724817547212076" lon="15.832316802675432"><ele>614.0</ele><time>2026-04-14T15:38:26Z</time></trkpt><trkpt lat="41.72473691834352" lon="15.832309394364376"><ele>614.0</ele><time>2026-04-14T15:38:27Z</time></trkpt><trkpt lat="41.724618759229124" lon="15.83240654907875"><ele>614.0</ele><time>2026-04-14T15:38:28Z</time></trkpt><trkpt lat="41.72449282160722" lon="15.832493554989737"><ele>614.0</ele><time>2026-04-14T15:38:29Z</time></trkpt><trkpt lat="41.724375750906965" lon="15.832510984724571"><ele>613.0</ele><time>2026-04-14T15:38:30Z</time></trkpt><trkpt lat="41.72426773444419" lon="15.832528919032644"><ele>612.0</ele><time>2026-04-14T15:38:31Z</time></trkpt><trkpt lat="41.724184918138256" lon="15.832608067775489"><ele>611.0</ele><time>2026-04-14T15:38:32Z</time></trkpt><trkpt lat="41.72412392357745" lon="15.83264773395046"><ele>610.0</ele><time>2026-04-14T15:38:33Z</time></trkpt><trkpt lat="41.72397960091878" lon="15.832676496256417"><ele>609.0</ele><time>2026-04-14T15:38:34Z</time></trkpt><trkpt lat="41.7238759925751" lon="15.832713880812303"><ele>608.75</ele><time>2026-04-14T15:38:35Z</time></trkpt><trkpt lat="41.723803103564045" lon="15.832713016635468"><ele>608.5</ele><time>2026-04-14T15:38:36Z</time></trkpt><trkpt lat="41.72372128924886" lon="15.832705561579578"><ele>608.25</ele><time>2026-04-14T15:38:37Z</time></trkpt><trkpt lat="41.72364578019493" lon="15.832693777064183"><ele>608.0</ele><time>2026-04-14T15:38:38Z</time></trkpt><trkpt lat="41.72339938080006" lon="15.832701497569289"><ele>608.0</ele><time>2026-04-14T15:38:40Z</time></trkpt><trkpt lat="41.723322779310465" lon="15.832660320534686"><ele>608.0</ele><time>2026-04-14T15:38:41Z</time></trkpt><trkpt lat="41.723253422706705" lon="15.832633077428122"><ele>608.0</ele><time>2026-04-14T15:38:42Z</time></trkpt><trkpt lat="41.72318151379457" lon="15.832623429055193"><ele>608.0</ele><time>2026-04-14T15:38:43Z</time></trkpt><trkpt lat="41.72308637435702" lon="15.832612095439037"><ele>608.0</ele><time>2026-04-14T15:38:44Z</time></trkpt><trkpt lat="41.72303195487592" lon="15.832563327719242"><ele>608.0</ele><time>2026-04-14T15:38:45Z</time></trkpt><trkpt lat="41.72293823061172" lon="15.832560232756528"><ele>607.3333333333333</ele><time>2026-04-14T15:38:46Z</time></trkpt><trkpt lat="41.722852090538574" lon="15.832498835017224"><ele>606.6666666666666</ele><time>2026-04-14T15:38:47Z</time></trkpt><trkpt lat="41.72278814392694" lon="15.83248594245769"><ele>606.0</ele><time>2026-04-14T15:38:48Z</time></trkpt><trkpt lat="41.722725340831744" lon="15.83243736749569"><ele>605.3333333333334</ele><time>2026-04-14T15:38:49Z</time></trkpt><trkpt lat="41.72266919494391" lon="15.832337197759443"><ele>604.6666666666667</ele><time>2026-04-14T15:38:50Z</time></trkpt><trkpt lat="41.72259933814343" lon="15.832299526208235"><ele>604.0</ele><time>2026-04-14T15:38:51Z</time></trkpt><trkpt lat="41.722511877054394" lon="15.83217220889987"><ele>599.3333333333334</ele><time>2026-04-14T15:38:53Z</time></trkpt><trkpt lat="41.72239788646884" lon="15.832036480274452"><ele>594.6666666666666</ele><time>2026-04-14T15:38:54Z</time></trkpt><trkpt lat="41.72223479562627" lon="15.832011887095552"><ele>590.0</ele><time>2026-04-14T15:38:55Z</time></trkpt><trkpt lat="41.72202456488981" lon="15.831943638246218"><ele>590.0</ele><time>2026-04-14T15:38:56Z</time></trkpt><trkpt lat="41.72190128820555" lon="15.831877781176614"><ele>590.0</ele><time>2026-04-14T15:38:57Z</time></trkpt><trkpt lat="41.721821006588854" lon="15.831762259879055"><ele>590.0</ele><time>2026-04-14T15:38:58Z</time></trkpt><trkpt lat="41.721730985988344" lon="15.83167698835377"><ele>590.0</ele><time>2026-04-14T15:38:59Z</time></trkpt><trkpt lat="41.72166481697771" lon="15.831542410628305"><ele>590.3333333333333</ele><time>2026-04-14T15:39:00Z</time></trkpt><trkpt lat="41.72158860944826" lon="15.831476994096212"><ele>590.6666666666666</ele><time>2026-04-14T15:39:01Z</time></trkpt><trkpt lat="41.721531075503165" lon="15.83142335029443"><ele>591.0</ele><time>2026-04-14T15:39:02Z</time></trkpt><trkpt lat="41.72146830158742" lon="15.831342822658806"><ele>591.3333333333334</ele><time>2026-04-14T15:39:03Z</time></trkpt><trkpt lat="41.72140032273338" lon="15.831295479919472"><ele>591.6666666666667</ele><time>2026-04-14T15:39:04Z</time></trkpt><trkpt lat="41.72130023409301" lon="15.831237807708748"><ele>592.0</ele><time>2026-04-14T15:39:05Z</time></trkpt><trkpt lat="41.72124648604694" lon="15.831178025313815"><ele>592.0</ele><time>2026-04-14T15:39:06Z</time></trkpt><trkpt lat="41.72116167445677" lon="15.83110707741685"><ele>592.0</ele><time>2026-04-14T15:39:07Z</time></trkpt><trkpt lat="41.72112016113448" lon="15.8310110602372"><ele>592.0</ele><time>2026-04-14T15:39:08Z</time></trkpt><trkpt lat="41.721058286235305" lon="15.830933290088838"><ele>592.0</ele><time>2026-04-14T15:39:09Z</time></trkpt><trkpt lat="41.72102615081528" lon="15.83081497007031"><ele>592.0</ele><time>2026-04-14T15:39:10Z</time></trkpt><trkpt lat="41.7209890275936" lon="15.830716104965285"><ele>592.0</ele><time>2026-04-14T15:39:11Z</time></trkpt><trkpt lat="41.72092826333536" lon="15.830613261959448"><ele>785.0</ele><time>2026-04-14T15:39:12Z</time></trkpt><trkpt lat="41.746159226286906" lon="15.882878471667611"><ele>785.0</ele><time>2026-04-14T15:09:49Z</time></trkpt><trkpt lat="41.74621430574894" lon="15.882992055600333"><ele>785.0</ele><time>2026-04-14T15:09:50Z</time></trkpt><trkpt lat="41.74630726500685" lon="15.883095549735522"><ele>785.0</ele><time>2026-04-14T15:09:52Z</time></trkpt><trkpt lat="41.74636036805975" lon="15.883153390462454"><ele>785.0</ele><time>2026-04-14T15:09:53Z</time></trkpt><trkpt lat="41.74643530867983" lon="15.883248404937744"><ele>785.0</ele><time>2026-04-14T15:09:54Z</time></trkpt><trkpt lat="41.74648579889822" lon="15.883303510476033"><ele>785.0000000000001</ele><time>2026-04-14T15:09:55Z</time></trkpt><trkpt lat="41.74655505499089" lon="15.883369631761148"><ele>785.0</ele><time>2026-04-14T15:09:56Z</time></trkpt><trkpt lat="41.74658676181604" lon="15.8834601379401"><ele>785.0</ele><time>2026-04-14T15:09:58Z</time></trkpt><trkpt lat="41.7466031607397" lon="15.883561438578171"><ele>785.0</ele><time>2026-04-14T15:09:59Z</time></trkpt><trkpt lat="41.74662963490606" lon="15.883640384481081"><ele>785.0000000000001</ele><time>2026-04-14T15:10:00Z</time></trkpt><trkpt lat="41.74669273841867" lon="15.883799271833123"><ele>785.0</ele><time>2026-04-14T15:10:02Z</time></trkpt><trkpt lat="41.7467307823531" lon="15.883903782765525"><ele>783.3333333333334</ele><time>2026-04-14T15:10:04Z</time></trkpt><trkpt lat="41.746793290811105" lon="15.883969498652139"><ele>781.6666666666667</ele><time>2026-04-14T15:10:07Z</time></trkpt><trkpt lat="41.74684163514923" lon="15.884033755533535"><ele>780.0</ele><time>2026-04-14T15:10:09Z</time></trkpt><trkpt lat="41.74693838399312" lon="15.884097351198253"><ele>778.3333333333333</ele><time>2026-04-14T15:10:12Z</time></trkpt><trkpt lat="41.746978830276305" lon="15.884179063943362"><ele>776.6666666666666</ele><time>2026-04-14T15:10:14Z</time></trkpt><trkpt lat="41.74700626124532" lon="15.884285688830008"><ele>775.0</ele><time>2026-04-14T15:10:16Z</time></trkpt><trkpt lat="41.74705352830244" lon="15.88440681034125"><ele>770.6666666666666</ele><time>2026-04-14T15:10:19Z</time></trkpt><trkpt lat="41.747068834804836" lon="15.884507880915557"><ele>766.3333333333333</ele><time>2026-04-14T15:10:21Z</time></trkpt><trkpt lat="41.74708073993596" lon="15.88461684813311"><ele>762.0</ele><time>2026-04-14T15:10:27Z</time></trkpt><trkpt lat="41.74713185732529" lon="15.884689298064501"><ele>757.6666666666666</ele><time>2026-04-14T15:10:31Z</time></trkpt><trkpt lat="41.74714175361535" lon="15.88481689634649"><ele>753.3333333333333</ele><time>2026-04-14T15:10:39Z</time></trkpt><trkpt lat="41.747186332109194" lon="15.884883672104717"><ele>749.0</ele><time>2026-04-14T15:10:48Z</time></trkpt><trkpt lat="41.747241837301104" lon="15.884938669567036"><ele>749.0</ele><time>2026-04-14T15:10:52Z</time></trkpt><trkpt lat="41.74731617309348" lon="15.884964176509419"><ele>749.0</ele><time>2026-04-14T15:10:54Z</time></trkpt><trkpt lat="41.747397483255746" lon="15.88502751782312"><ele>749.0</ele><time>2026-04-14T15:10:57Z</time></trkpt><trkpt lat="41.7474675195577" lon="15.88507128517121"><ele>749.0</ele><time>2026-04-14T15:10:59Z</time></trkpt><trkpt lat="41.74750366646681" lon="15.885157317381736"><ele>749.0</ele><time>2026-04-14T15:11:01Z</time></trkpt><trkpt lat="41.74756587235513" lon="15.885190388331418"><ele>749.0</ele><time>2026-04-14T15:11:03Z</time></trkpt><trkpt lat="41.747678083303455" lon="15.88522512814276"><ele>744.4000000000001</ele><time>2026-04-14T15:11:05.999Z</time></trkpt><trkpt lat="41.74778515114015" lon="15.885298087073615"><ele>739.8</ele><time>2026-04-14T15:11:07.999Z</time></trkpt><trkpt lat="41.74789149859036" lon="15.88537579831712"><ele>735.2</ele><time>2026-04-14T15:11:09.999Z</time></trkpt><trkpt lat="41.74795730935587" lon="15.885466670591752"><ele>730.5999999999999</ele><time>2026-04-14T15:11:11.999Z</time></trkpt><trkpt lat="41.7480448625512" lon="15.885493357267732"><ele>726.0</ele><time>2026-04-14T15:11:13.999Z</time></trkpt><trkpt lat="41.748087091343976" lon="15.885573863128833"><ele>726.0</ele><time>2026-04-14T15:11:15.999Z</time></trkpt><trkpt lat="41.74821124750799" lon="15.885542795851045"><ele>726.0</ele><time>2026-04-14T15:11:17.999Z</time></trkpt><trkpt lat="41.74826090925422" lon="15.885622865001258"><ele>726.0</ele><time>2026-04-14T15:11:19.999Z</time></trkpt><trkpt lat="41.74833897429415" lon="15.885570077110003"><ele>726.0</ele><time>2026-04-14T15:11:21.999Z</time></trkpt><trkpt lat="41.74836038237165" lon="15.88567434082181"><ele>726.0</ele><time>2026-04-14T15:11:23.999Z</time></trkpt><trkpt lat="41.74843350734771" lon="15.885768902612073"><ele>726.0</ele><time>2026-04-14T15:11:27.999Z</time></trkpt><trkpt lat="41.748518081471815" lon="15.885786779623025"><ele>726.0</ele><time>2026-04-14T15:11:29.999Z</time></trkpt><trkpt lat="41.74855046623466" lon="15.88586724481136"><ele>726.0</ele><time>2026-04-14T15:11:32.999Z</time></trkpt><trkpt lat="41.748583076309046" lon="15.88594072332018"><ele>726.0</ele><time>2026-04-14T15:11:35.999Z</time></trkpt><trkpt lat="41.748643902233056" lon="15.88600313740051"><ele>726.0</ele><time>2026-04-14T15:11:41.999Z</time></trkpt><trkpt lat="41.74879305579715" lon="15.886117040280558"><ele>722.4</ele><time>2026-04-14T15:11:50.999Z</time></trkpt><trkpt lat="41.748833915024065" lon="15.886193681166551"><ele>718.8</ele><time>2026-04-14T15:11:53Z</time></trkpt><trkpt lat="41.748937899490215" lon="15.886232348466615"><ele>715.1999999999999</ele><time>2026-04-14T15:11:55Z</time></trkpt><trkpt lat="41.749054417891045" lon="15.886280187100075"><ele>711.5999999999999</ele><time>2026-04-14T15:11:57Z</time></trkpt><trkpt lat="41.7491783468437" lon="15.88633886096042"><ele>708.0</ele><time>2026-04-14T15:11:58Z</time></trkpt><trkpt lat="41.74928130161566" lon="15.886439014013575"><ele>708.0</ele><time>2026-04-14T15:12:00Z</time></trkpt><trkpt lat="41.749310389163284" lon="15.886604881242041"><ele>708.0</ele><time>2026-04-14T15:12:01Z</time></trkpt><trkpt lat="41.749329688975685" lon="15.886702192083577"><ele>708.0</ele><time>2026-04-14T15:12:02Z</time></trkpt><trkpt lat="41.74938997856309" lon="15.886806002229335"><ele>708.0</ele><time>2026-04-14T15:12:03Z</time></trkpt><trkpt lat="41.749455736940895" lon="15.88689428561687"><ele>708.0</ele><time>2026-04-14T15:12:04Z</time></trkpt><trkpt lat="41.74952317775586" lon="15.886987723102598"><ele>703.3333333333334</ele><time>2026-04-14T15:12:06Z</time></trkpt><trkpt lat="41.74959059225913" lon="15.8870779354921"><ele>698.6666666666667</ele><time>2026-04-14T15:12:08Z</time></trkpt><trkpt lat="41.7496609241014" lon="15.887123052084734"><ele>694.0</ele><time>2026-04-14T15:12:11Z</time></trkpt><trkpt lat="41.749898415804346" lon="15.88753096752781"><ele>692.8000000000001</ele><time>2026-04-14T15:12:19Z</time></trkpt><trkpt lat="41.75000597958574" lon="15.887597525620574"><ele>691.6</ele><time>2026-04-14T15:12:27Z</time></trkpt><trkpt lat="41.750063029400465" lon="15.887643608424275"><ele>690.4</ele><time>2026-04-14T15:12:32Z</time></trkpt><trkpt lat="41.75014351534599" lon="15.887624378597312"><ele>689.2</ele><time>2026-04-14T15:12:34Z</time></trkpt><trkpt lat="41.75024702405731" lon="15.887585899196242"><ele>688.0</ele><time>2026-04-14T15:12:36Z</time></trkpt><trkpt lat="41.75033768496723" lon="15.887546474175599"><ele>688.0</ele><time>2026-04-14T15:12:38Z</time></trkpt><trkpt lat="41.75039520579544" lon="15.88749999719797"><ele>688.0</ele><time>2026-04-14T15:12:39Z</time></trkpt><trkpt lat="41.75048475793625" lon="15.88741008004906"><ele>688.0</ele><time>2026-04-14T15:12:41Z</time></trkpt><trkpt lat="41.75059372120886" lon="15.88734041874904"><ele>688.0</ele><time>2026-04-14T15:12:43Z</time></trkpt><trkpt lat="41.75067304779869" lon="15.887328968400405"><ele>688.0</ele><time>2026-04-14T15:12:44Z</time></trkpt><trkpt lat="41.75077926013314" lon="15.887233852127531"><ele>688.0</ele><time>2026-04-14T15:12:46Z</time></trkpt><trkpt lat="41.750840802845566" lon="15.887133401292184"><ele>688.0</ele><time>2026-04-14T15:12:48Z</time></trkpt><trkpt lat="41.750889810501846" lon="15.887068888101204"><ele>688.0</ele><time>2026-04-14T15:12:50Z</time></trkpt><trkpt lat="41.75093521112254" lon="15.886998126842519"><ele>688.0</ele><time>2026-04-14T15:12:51Z</time></trkpt><trkpt lat="41.75101387680652" lon="15.88682686290578"><ele>688.0</ele><time>2026-04-14T15:12:52Z</time></trkpt><trkpt lat="41.751070149249486" lon="15.886743843434099"><ele>689.0</ele><time>2026-04-14T15:12:53Z</time></trkpt><trkpt lat="41.751106453879096" lon="15.886668682106226"><ele>690.0</ele><time>2026-04-14T15:12:54Z</time></trkpt><trkpt lat="41.751216640431586" lon="15.886508692146448"><ele>691.0</ele><time>2026-04-14T15:12:56Z</time></trkpt><trkpt lat="41.751258703899715" lon="15.886442930299111"><ele>692.0</ele><time>2026-04-14T15:12:57Z</time></trkpt><trkpt lat="41.75132959322433" lon="15.886323436649901"><ele>693.0</ele><time>2026-04-14T15:12:58Z</time></trkpt><trkpt lat="41.75140325533671" lon="15.886230417964395"><ele>693.0</ele><time>2026-04-14T15:13:00Z</time></trkpt><trkpt lat="41.75146117105897" lon="15.886137888221393"><ele>693.0</ele><time>2026-04-14T15:13:03Z</time></trkpt><trkpt lat="41.75146873825299" lon="15.886053459329434"><ele>693.0</ele><time>2026-04-14T15:13:07.999Z</time></trkpt><trkpt lat="41.75140845056188" lon="15.885851601501578"><ele>693.0</ele><time>2026-04-14T15:13:32.999Z</time></trkpt><trkpt lat="41.75147065302375" lon="15.885799593440218"><ele>693.0</ele><time>2026-04-14T15:13:38.999Z</time></trkpt><trkpt lat="41.75153169718017" lon="15.885776918668272"><ele>692.5999999999999</ele><time>2026-04-14T15:13:41.999Z</time></trkpt><trkpt lat="41.75159298442867" lon="15.885719078776923"><ele>692.1999999999999</ele><time>2026-04-14T15:13:46.999Z</time></trkpt><trkpt lat="41.751538257875865" lon="15.885655806184323"><ele>691.8</ele><time>2026-04-14T15:14:15Z</time></trkpt><trkpt lat="41.751456409895994" lon="15.885566922140992"><ele>691.4</ele><time>2026-04-14T15:14:17Z</time></trkpt><trkpt lat="41.751393102378024" lon="15.88545143128369"><ele>691.0</ele><time>2026-04-14T15:14:19Z</time></trkpt><trkpt lat="41.75139984027376" lon="15.885281770515244"><ele>691.0</ele><time>2026-04-14T15:14:21Z</time></trkpt><trkpt lat="41.751412892586025" lon="15.885194778374933"><ele>691.0</ele><time>2026-04-14T15:14:22Z</time></trkpt><trkpt lat="41.75150211997396" lon="15.885112326348922"><ele>691.0</ele><time>2026-04-14T15:14:23Z</time></trkpt><trkpt lat="41.75154503617334" lon="15.88495577326371"><ele>691.0</ele><time>2026-04-14T15:14:24Z</time></trkpt><trkpt lat="41.75158764561582" lon="15.88484777378506"><ele>691.0</ele><time>2026-04-14T15:14:25Z</time></trkpt><trkpt lat="41.751628583328184" lon="15.884745072586757"><ele>690.8</ele><time>2026-04-14T15:14:26Z</time></trkpt><trkpt lat="41.751662002012736" lon="15.884625564886752"><ele>690.5999999999999</ele><time>2026-04-14T15:14:27Z</time></trkpt><trkpt lat="41.75172593282348" lon="15.884556756922045"><ele>690.4</ele><time>2026-04-14T15:14:28Z</time></trkpt><trkpt lat="41.75180422755934" lon="15.884423547897384"><ele>690.2</ele><time>2026-04-14T15:14:30Z</time></trkpt><trkpt lat="41.751881199949494" lon="15.884304370496613"><ele>690.0</ele><time>2026-04-14T15:14:31Z</time></trkpt><trkpt lat="41.751947619004" lon="15.884130125427012"><ele>689.5</ele><time>2026-04-14T15:14:32Z</time></trkpt><trkpt lat="41.751998220289614" lon="15.883995408955508"><ele>689.0</ele><time>2026-04-14T15:14:33Z</time></trkpt><trkpt lat="41.7520881297702" lon="15.883813129108725"><ele>688.5</ele><time>2026-04-14T15:14:35Z</time></trkpt><trkpt lat="41.752137206080064" lon="15.883722987914808"><ele>688.0</ele><time>2026-04-14T15:14:36Z</time></trkpt><trkpt lat="41.75221416110833" lon="15.883588208119793"><ele>688.4</ele><time>2026-04-14T15:14:37Z</time></trkpt><trkpt lat="41.75229141603041" lon="15.883430273824336"><ele>688.8</ele><time>2026-04-14T15:14:38Z</time></trkpt><trkpt lat="41.752341590928346" lon="15.883311719581148"><ele>689.2</ele><time>2026-04-14T15:14:39Z</time></trkpt><trkpt lat="41.75238961956105" lon="15.883181569619978"><ele>689.6</ele><time>2026-04-14T15:14:40Z</time></trkpt><trkpt lat="41.75243454155592" lon="15.883074678768994"><ele>690.0</ele><time>2026-04-14T15:14:41Z</time></trkpt><trkpt lat="41.75247493452652" lon="15.882934648888023"><ele>690.0</ele><time>2026-04-14T15:14:42Z</time></trkpt><trkpt lat="41.752522576110174" lon="15.882827518952945"><ele>690.0</ele><time>2026-04-14T15:14:43Z</time></trkpt><trkpt lat="41.75256745230399" lon="15.882654174705552"><ele>690.0</ele><time>2026-04-14T15:14:45Z</time></trkpt><trkpt lat="41.75258074969868" lon="15.882520154461483"><ele>690.0</ele><time>2026-04-14T15:14:46Z</time></trkpt><trkpt lat="41.75259700567741" lon="15.882409958784418"><ele>690.0</ele><time>2026-04-14T15:14:47Z</time></trkpt><trkpt lat="41.75258986936775" lon="15.882317329200042"><ele>690.4</ele><time>2026-04-14T15:14:48Z</time></trkpt><trkpt lat="41.75261421350232" lon="15.882166652866598"><ele>690.8</ele><time>2026-04-14T15:14:49Z</time></trkpt><trkpt lat="41.75261176178184" lon="15.88205899555853"><ele>691.2</ele><time>2026-04-14T15:14:50Z</time></trkpt><trkpt lat="41.75261225243406" lon="15.881933776818922"><ele>691.6</ele><time>2026-04-14T15:14:51Z</time></trkpt><trkpt lat="41.752627409869" lon="15.881798403669418"><ele>692.0</ele><time>2026-04-14T15:14:52Z</time></trkpt><trkpt lat="41.75265359649599" lon="15.881678405103973"><ele>693.1666666666666</ele><time>2026-04-14T15:14:53Z</time></trkpt><trkpt lat="41.752679025272485" lon="15.881555348588439"><ele>694.3333333333333</ele><time>2026-04-14T15:14:54Z</time></trkpt><trkpt lat="41.75272002738672" lon="15.881480230914256"><ele>695.5</ele><time>2026-04-14T15:14:55Z</time></trkpt><trkpt lat="41.752774689544076" lon="15.881371017164254"><ele>696.6666666666666</ele><time>2026-04-14T15:14:56Z</time></trkpt><trkpt lat="41.752794293778955" lon="15.881285288998162"><ele>697.8333333333334</ele><time>2026-04-14T15:14:57Z</time></trkpt><trkpt lat="41.75283040085836" lon="15.881204258919428"><ele>699.0</ele><time>2026-04-14T15:14:58Z</time></trkpt><trkpt lat="41.7528848359619" lon="15.881042212225234"><ele>696.8333333333334</ele><time>2026-04-14T15:14:59Z</time></trkpt><trkpt lat="41.75290576707815" lon="15.880916649431772"><ele>694.6666666666666</ele><time>2026-04-14T15:15:00Z</time></trkpt><trkpt lat="41.75292670478586" lon="15.880810427571156"><ele>692.5</ele><time>2026-04-14T15:15:01Z</time></trkpt><trkpt lat="41.75293655934392" lon="15.880687797191532"><ele>690.3333333333333</ele><time>2026-04-14T15:15:02Z</time></trkpt><trkpt lat="41.75295693703808" lon="15.880565203343709"><ele>688.1666666666666</ele><time>2026-04-14T15:15:03Z</time></trkpt><trkpt lat="41.7529717066882" lon="15.880459568998672"><ele>686.0</ele><time>2026-04-14T15:15:04Z</time></trkpt><trkpt lat="41.75296649470204" lon="15.880338345836547"><ele>686.0</ele><time>2026-04-14T15:15:05Z</time></trkpt><trkpt lat="41.752939358877185" lon="15.880233441738424"><ele>686.0</ele><time>2026-04-14T15:15:06Z</time></trkpt><trkpt lat="41.75289091168049" lon="15.880131466652362"><ele>686.0</ele><time>2026-04-14T15:15:07Z</time></trkpt><trkpt lat="41.75288661629629" lon="15.879972917275127"><ele>686.0</ele><time>2026-04-14T15:15:08Z</time></trkpt><trkpt lat="41.752876364325154" lon="15.87983623085883"><ele>686.0</ele><time>2026-04-14T15:15:09Z</time></trkpt><trkpt lat="41.752935184426974" lon="15.879585538181926"><ele>686.75</ele><time>2026-04-14T15:15:11Z</time></trkpt><trkpt lat="41.75297948026827" lon="15.879471008308299"><ele>687.5</ele><time>2026-04-14T15:15:12Z</time></trkpt><trkpt lat="41.75305230456917" lon="15.879303112832833"><ele>688.25</ele><time>2026-04-14T15:15:14Z</time></trkpt><trkpt lat="41.753129394932515" lon="15.87917931747005"><ele>689.0</ele><time>2026-04-14T15:15:15.999Z</time></trkpt><trkpt lat="41.75319209752394" lon="15.879093068570459"><ele>689.8000000000001</ele><time>2026-04-14T15:15:16.999Z</time></trkpt><trkpt lat="41.75322298847511" lon="15.87899494075563"><ele>690.6</ele><time>2026-04-14T15:15:17.999Z</time></trkpt><trkpt lat="41.75325679360011" lon="15.87887001233359"><ele>691.4</ele><time>2026-04-14T15:15:18.999Z</time></trkpt><trkpt lat="41.753269596750435" lon="15.878722122798541"><ele>692.2</ele><time>2026-04-14T15:15:19.999Z</time></trkpt><trkpt lat="41.7532859003787" lon="15.878554852838594"><ele>693.0</ele><time>2026-04-14T15:15:20.999Z</time></trkpt><trkpt lat="41.75333669863829" lon="15.878423205027925"><ele>694.2</ele><time>2026-04-14T15:15:21.999Z</time></trkpt><trkpt lat="41.75337051025258" lon="15.878269565781727"><ele>695.4</ele><time>2026-04-14T15:15:22.999Z</time></trkpt><trkpt lat="41.75347177937723" lon="15.878153739229463"><ele>696.6</ele><time>2026-04-14T15:15:24.999Z</time></trkpt><trkpt lat="41.753517651906805" lon="15.878029503277125"><ele>697.8000000000001</ele><time>2026-04-14T15:15:26.999Z</time></trkpt><trkpt lat="41.75355497695611" lon="15.87792162576843"><ele>699.0</ele><time>2026-04-14T15:15:27.999Z</time></trkpt><trkpt lat="41.75353934264732" lon="15.87769613388826"><ele>699.25</ele><time>2026-04-14T15:15:29.999Z</time></trkpt><trkpt lat="41.75348561115041" lon="15.877583324085967"><ele>699.5</ele><time>2026-04-14T15:15:30.999Z</time></trkpt><trkpt lat="41.753404758812565" lon="15.877475387455776"><ele>699.75</ele><time>2026-04-14T15:15:31.999Z</time></trkpt><trkpt lat="41.7533527712871" lon="15.877365800320945"><ele>700.0</ele><time>2026-04-14T15:15:32.999Z</time></trkpt><trkpt lat="41.753247811245515" lon="15.877229450892793"><ele>700.0</ele><time>2026-04-14T15:15:33.999Z</time></trkpt><trkpt lat="41.753202009448486" lon="15.877127903408434"><ele>700.0</ele><time>2026-04-14T15:15:34.999Z</time></trkpt><trkpt lat="41.75315817141925" lon="15.877006669635536"><ele>700.0</ele><time>2026-04-14T15:15:35.999Z</time></trkpt><trkpt lat="41.7531302965252" lon="15.876864335228147"><ele>700.0</ele><time>2026-04-14T15:15:36.999Z</time></trkpt><trkpt lat="41.75312382646201" lon="15.876690898211182"><ele>700.0</ele><time>2026-04-14T15:15:37.999Z</time></trkpt><trkpt lat="41.75315345105649" lon="15.876604357490608"><ele>700.0</ele><time>2026-04-14T15:15:38.999Z</time></trkpt><trkpt lat="41.75315866059421" lon="15.876488945046303"><ele>700.0</ele><time>2026-04-14T15:15:39.999Z</time></trkpt><trkpt lat="41.75313097026242" lon="15.876281826928139"><ele>700.0</ele><time>2026-04-14T15:15:40.999Z</time></trkpt><trkpt lat="41.75309804527285" lon="15.876077483176154"><ele>700.0</ele><time>2026-04-14T15:15:41.999Z</time></trkpt><trkpt lat="41.75306003789215" lon="15.875842218979324"><ele>700.8</ele><time>2026-04-14T15:15:42.999Z</time></trkpt><trkpt lat="41.75305637330734" lon="15.875738334891677"><ele>701.6</ele><time>2026-04-14T15:15:43.999Z</time></trkpt><trkpt lat="41.75309726347481" lon="15.875646640740865"><ele>702.4000000000001</ele><time>2026-04-14T15:15:44.999Z</time></trkpt><trkpt lat="41.75319228599625" lon="15.87555445201021"><ele>703.2</ele><time>2026-04-14T15:15:45.999Z</time></trkpt><trkpt lat="41.75328654848408" lon="15.87548619291588"><ele>704.0</ele><time>2026-04-14T15:15:46.999Z</time></trkpt><trkpt lat="41.75338350698027" lon="15.87541109173549"><ele>704.0</ele><time>2026-04-14T15:15:47.999Z</time></trkpt><trkpt lat="41.75348628735657" lon="15.875335663673912"><ele>704.0</ele><time>2026-04-14T15:15:48.999Z</time></trkpt><trkpt lat="41.75354139753527" lon="15.875285682967306"><ele>704.0</ele><time>2026-04-14T15:15:49.999Z</time></trkpt><trkpt lat="41.75356357988095" lon="15.875144959544075"><ele>704.0</ele><time>2026-04-14T15:15:50.999Z</time></trkpt><trkpt lat="41.75356085392801" lon="15.874998036163785"><ele>704.0</ele><time>2026-04-14T15:15:51.999Z</time></trkpt><trkpt lat="41.753540302609885" lon="15.874838963671921"><ele>704.6666666666666</ele><time>2026-04-14T15:15:52.999Z</time></trkpt><trkpt lat="41.75352676977831" lon="15.874623863300139"><ele>705.3333333333334</ele><time>2026-04-14T15:15:53.999Z</time></trkpt><trkpt lat="41.75352505107304" lon="15.874369346384603"><ele>706.0</ele><time>2026-04-14T15:15:54.999Z</time></trkpt><trkpt lat="41.75346310676331" lon="15.874148513823393"><ele>706.0</ele><time>2026-04-14T15:15:55.999Z</time></trkpt><trkpt lat="41.75342347873055" lon="15.87396461120327"><ele>706.0</ele><time>2026-04-14T15:15:56.999Z</time></trkpt><trkpt lat="41.7533368337181" lon="15.873804425458587"><ele>706.0</ele><time>2026-04-14T15:15:57.999Z</time></trkpt><trkpt lat="41.75333484145967" lon="15.873683596261722"><ele>706.0</ele><time>2026-04-14T15:15:58.999Z</time></trkpt><trkpt lat="41.75332648899415" lon="15.873568797605564"><ele>706.0</ele><time>2026-04-14T15:15:59.999Z</time></trkpt><trkpt lat="41.753302632724846" lon="15.873442469069635"><ele>706.0</ele><time>2026-04-14T15:16:00.999Z</time></trkpt><trkpt lat="41.75327880196512" lon="15.873316465043118"><ele>706.0</ele><time>2026-04-14T15:16:01.999Z</time></trkpt><trkpt lat="41.75322702351363" lon="15.873245417046578"><ele>706.0</ele><time>2026-04-14T15:16:02.999Z</time></trkpt><trkpt lat="41.75315811083897" lon="15.87317361163322"><ele>706.0</ele><time>2026-04-14T15:16:03.999Z</time></trkpt><trkpt lat="41.75306138390979" lon="15.87318605700673"><ele>705.5</ele><time>2026-04-14T15:16:05Z</time></trkpt><trkpt lat="41.75293372868526" lon="15.873145670297623"><ele>705.0</ele><time>2026-04-14T15:16:06Z</time></trkpt><trkpt lat="41.75278679380555" lon="15.873107325426407"><ele>704.5</ele><time>2026-04-14T15:16:07Z</time></trkpt><trkpt lat="41.75267832948738" lon="15.873035996439995"><ele>704.0</ele><time>2026-04-14T15:16:08Z</time></trkpt><trkpt lat="41.75259310366713" lon="15.872952941831445"><ele>704.8000000000001</ele><time>2026-04-14T15:16:09Z</time></trkpt><trkpt lat="41.75249762545457" lon="15.872851989047184"><ele>705.6</ele><time>2026-04-14T15:16:10Z</time></trkpt><trkpt lat="41.75246937458658" lon="15.872721998156475"><ele>706.4</ele><time>2026-04-14T15:16:11Z</time></trkpt><trkpt lat="41.75253230259516" lon="15.87268978849929"><ele>707.2</ele><time>2026-04-14T15:16:12Z</time></trkpt><trkpt lat="41.75250039779977" lon="15.872568697477204"><ele>708.0</ele><time>2026-04-14T15:16:14Z</time></trkpt><trkpt lat="41.75250567232975" lon="15.872456047707315"><ele>708.0</ele><time>2026-04-14T15:16:16Z</time></trkpt><trkpt lat="41.752521190966014" lon="15.872361239688892"><ele>708.0</ele><time>2026-04-14T15:16:18Z</time></trkpt><trkpt lat="41.75253931803697" lon="15.872277600530959"><ele>708.0</ele><time>2026-04-14T15:16:19Z</time></trkpt><trkpt lat="41.7525398989357" lon="15.872101305002015"><ele>708.0</ele><time>2026-04-14T15:16:21Z</time></trkpt><trkpt lat="41.752511509186895" lon="15.871980318115629"><ele>708.0</ele><time>2026-04-14T15:16:23Z</time></trkpt><trkpt lat="41.7524994234809" lon="15.871865552006177"><ele>708.0</ele><time>2026-04-14T15:16:25Z</time></trkpt><trkpt lat="41.75243989307999" lon="15.871808915319482"><ele>708.0</ele><time>2026-04-14T15:16:26Z</time></trkpt><trkpt lat="41.75234266171089" lon="15.871727841645573"><ele>708.0</ele><time>2026-04-14T15:16:28Z</time></trkpt><trkpt lat="41.75226433546364" lon="15.87165706400303"><ele>708.0</ele><time>2026-04-14T15:16:30Z</time></trkpt><trkpt lat="41.7522076674278" lon="15.871617086285989"><ele>708.0</ele><time>2026-04-14T15:16:31Z</time></trkpt><trkpt lat="41.75211775126681" lon="15.871544295721081"><ele>707.0</ele><time>2026-04-14T15:16:32Z</time></trkpt><trkpt lat="41.7520828729364" lon="15.871451849581817"><ele>706.0</ele><time>2026-04-14T15:16:33Z</time></trkpt><trkpt lat="41.75204236182271" lon="15.87135493793977"><ele>705.0</ele><time>2026-04-14T15:16:35Z</time></trkpt><trkpt lat="41.75198870040454" lon="15.871235388117105"><ele>704.0</ele><time>2026-04-14T15:16:37Z</time></trkpt><trkpt lat="41.75196558617817" lon="15.871122758415284"><ele>703.0</ele><time>2026-04-14T15:16:38Z</time></trkpt><trkpt lat="41.75191459052045" lon="15.871002849535587"><ele>704.2</ele><time>2026-04-14T15:16:39Z</time></trkpt><trkpt lat="41.75183725282491" lon="15.870870673750337"><ele>705.4</ele><time>2026-04-14T15:16:40Z</time></trkpt><trkpt lat="41.751722533019176" lon="15.870841738738276"><ele>706.6</ele><time>2026-04-14T15:16:41Z</time></trkpt><trkpt lat="41.75165725949085" lon="15.870794217346406"><ele>707.8000000000001</ele><time>2026-04-14T15:16:42Z</time></trkpt><trkpt lat="41.75160955829928" lon="15.870736346948698"><ele>709.0</ele><time>2026-04-14T15:16:43Z</time></trkpt><trkpt lat="41.751516115190704" lon="15.87071410607516"><ele>709.0</ele><time>2026-04-14T15:16:44Z</time></trkpt><trkpt lat="41.751411742254064" lon="15.870639704012554"><ele>709.0</ele><time>2026-04-14T15:16:45Z</time></trkpt><trkpt lat="41.75135211174995" lon="15.870559814762904"><ele>709.0</ele><time>2026-04-14T15:16:46Z</time></trkpt><trkpt lat="41.75129415049018" lon="15.870493086382687"><ele>709.0</ele><time>2026-04-14T15:16:47Z</time></trkpt><trkpt lat="41.75132738270835" lon="15.870388158322491"><ele>709.0</ele><time>2026-04-14T15:16:48Z</time></trkpt><trkpt lat="41.75135184419071" lon="15.870246162486357"><ele>709.0</ele><time>2026-04-14T15:16:49Z</time></trkpt><trkpt lat="41.75133512477646" lon="15.870161552843236"><ele>709.0</ele><time>2026-04-14T15:16:50Z</time></trkpt><trkpt lat="41.75138972758006" lon="15.870096475684377"><ele>709.0</ele><time>2026-04-14T15:16:52Z</time></trkpt><trkpt lat="41.751465594304165" lon="15.870018594881673"><ele>709.0</ele><time>2026-04-14T15:16:54Z</time></trkpt><trkpt lat="41.751545904359396" lon="15.869971540288"><ele>709.0</ele><time>2026-04-14T15:16:55Z</time></trkpt><trkpt lat="41.751673651342884" lon="15.869880175049977"><ele>709.5</ele><time>2026-04-14T15:16:57Z</time></trkpt><trkpt lat="41.75177324984109" lon="15.869846072594386"><ele>710.0</ele><time>2026-04-14T15:16:58Z</time></trkpt><trkpt lat="41.751858717336425" lon="15.869795699308192"><ele>710.5</ele><time>2026-04-14T15:16:59Z</time></trkpt><trkpt lat="41.751923094374575" lon="15.86975072263328"><ele>711.0</ele><time>2026-04-14T15:17:00Z</time></trkpt><trkpt lat="41.75199778505568" lon="15.869687063652165"><ele>711.5</ele><time>2026-04-14T15:17:01Z</time></trkpt><trkpt lat="41.75201454831342" lon="15.869598166857088"><ele>712.0</ele><time>2026-04-14T15:17:03Z</time></trkpt><trkpt lat="41.75200142003161" lon="15.86946294615486"><ele>712.2</ele><time>2026-04-14T15:17:05Z</time></trkpt><trkpt lat="41.751992344796726" lon="15.869309263033353"><ele>712.4000000000001</ele><time>2026-04-14T15:17:06Z</time></trkpt><trkpt lat="41.75197422047943" lon="15.869208737463094"><ele>712.5999999999999</ele><time>2026-04-14T15:17:07Z</time></trkpt><trkpt lat="41.75196380934353" lon="15.869002197104269"><ele>712.8</ele><time>2026-04-14T15:17:08Z</time></trkpt><trkpt lat="41.75195861913426" lon="15.868870857543968"><ele>713.0</ele><time>2026-04-14T15:17:09Z</time></trkpt><trkpt lat="41.75197446881939" lon="15.868746678567065"><ele>713.0</ele><time>2026-04-14T15:17:10Z</time></trkpt><trkpt lat="41.751998649379736" lon="15.868617919468987"><ele>713.0</ele><time>2026-04-14T15:17:11Z</time></trkpt><trkpt lat="41.75200610422973" lon="15.86849543931484"><ele>713.0</ele><time>2026-04-14T15:17:12Z</time></trkpt><trkpt lat="41.75203863411721" lon="15.868341922762482"><ele>713.0</ele><time>2026-04-14T15:17:13Z</time></trkpt><trkpt lat="41.752079572828194" lon="15.868143067957385"><ele>713.8</ele><time>2026-04-14T15:17:14Z</time></trkpt><trkpt lat="41.75213535665928" lon="15.867978343930778"><ele>714.5999999999999</ele><time>2026-04-14T15:17:15Z</time></trkpt><trkpt lat="41.75218748297729" lon="15.867851019576962"><ele>715.4000000000001</ele><time>2026-04-14T15:17:16Z</time></trkpt><trkpt lat="41.752224056341994" lon="15.867710166879037"><ele>716.2</ele><time>2026-04-14T15:17:17Z</time></trkpt><trkpt lat="41.75225237740403" lon="15.867628956368241"><ele>717.0</ele><time>2026-04-14T15:17:18Z</time></trkpt><trkpt lat="41.752301289314794" lon="15.867498941323516"><ele>718.5</ele><time>2026-04-14T15:17:19Z</time></trkpt><trkpt lat="41.75241770703746" lon="15.867444224139446"><ele>720.0</ele><time>2026-04-14T15:17:20Z</time></trkpt><trkpt lat="41.75250793855512" lon="15.86739065422589"><ele>721.5</ele><time>2026-04-14T15:17:21Z</time></trkpt><trkpt lat="41.75258154445064" lon="15.867324820984207"><ele>723.0</ele><time>2026-04-14T15:17:22Z</time></trkpt><trkpt lat="41.752679242225966" lon="15.867182586585315"><ele>721.5</ele><time>2026-04-14T15:17:24Z</time></trkpt><trkpt lat="41.752722689576494" lon="15.867045169447254"><ele>720.0</ele><time>2026-04-14T15:17:25Z</time></trkpt><trkpt lat="41.75273728044153" lon="15.866962629382906"><ele>718.5</ele><time>2026-04-14T15:17:26Z</time></trkpt><trkpt lat="41.75274165160692" lon="15.86686490809009"><ele>717.0</ele><time>2026-04-14T15:17:27Z</time></trkpt><trkpt lat="41.75274167718374" lon="15.866737796210797"><ele>715.5</ele><time>2026-04-14T15:17:28Z</time></trkpt><trkpt lat="41.7527209084253" lon="15.866653072566482"><ele>714.0</ele><time>2026-04-14T15:17:29Z</time></trkpt><trkpt lat="41.75271601347726" lon="15.866524640692305"><ele>716.5</ele><time>2026-04-14T15:17:30Z</time></trkpt><trkpt lat="41.75266852417347" lon="15.866321546251157"><ele>719.0</ele><time>2026-04-14T15:17:32Z</time></trkpt><trkpt lat="41.75264827195509" lon="15.866173964009384"><ele>721.5</ele><time>2026-04-14T15:17:33Z</time></trkpt><trkpt lat="41.75261741677052" lon="15.866059470361584"><ele>724.0</ele><time>2026-04-14T15:17:34Z</time></trkpt><trkpt lat="41.75259683772849" lon="15.865916103639798"><ele>724.0</ele><time>2026-04-14T15:17:35Z</time></trkpt><trkpt lat="41.752594814146484" lon="15.865753218124249"><ele>724.0</ele><time>2026-04-14T15:17:36Z</time></trkpt><trkpt lat="41.75262450981492" lon="15.865554723113032"><ele>724.0</ele><time>2026-04-14T15:17:37Z</time></trkpt><trkpt lat="41.75267293261396" lon="15.865346924264333"><ele>724.0</ele><time>2026-04-14T15:17:37.999Z</time></trkpt><trkpt lat="41.75268905161982" lon="15.865193811015391"><ele>724.5</ele><time>2026-04-14T15:17:38.999Z</time></trkpt><trkpt lat="41.75267337888743" lon="15.86501584487332"><ele>725.0</ele><time>2026-04-14T15:17:40.999Z</time></trkpt><trkpt lat="41.752648563465925" lon="15.864902125005896"><ele>725.5</ele><time>2026-04-14T15:17:41.999Z</time></trkpt><trkpt lat="41.75265829172102" lon="15.864722425540831"><ele>726.0</ele><time>2026-04-14T15:17:42.999Z</time></trkpt><trkpt lat="41.752634616094305" lon="15.864595696951548"><ele>726.0</ele><time>2026-04-14T15:17:43.999Z</time></trkpt><trkpt lat="41.75252459713046" lon="15.864514794785208"><ele>726.0</ele><time>2026-04-14T15:17:44.999Z</time></trkpt><trkpt lat="41.752445107937625" lon="15.864422713591017"><ele>726.0</ele><time>2026-04-14T15:17:45.999Z</time></trkpt><trkpt lat="41.752360182429406" lon="15.864311303120385"><ele>726.0</ele><time>2026-04-14T15:17:46.999Z</time></trkpt><trkpt lat="41.75235360154367" lon="15.864198946675629"><ele>726.0</ele><time>2026-04-14T15:17:47.999Z</time></trkpt><trkpt lat="41.752372668910446" lon="15.864095229281933"><ele>726.5999999999999</ele><time>2026-04-14T15:17:48.999Z</time></trkpt><trkpt lat="41.75239647205783" lon="15.863987974661255"><ele>727.2</ele><time>2026-04-14T15:17:49.999Z</time></trkpt><trkpt lat="41.75242979862953" lon="15.863914714945384"><ele>727.8</ele><time>2026-04-14T15:17:50.999Z</time></trkpt><trkpt lat="41.75256547792774" lon="15.863775976125332"><ele>728.4000000000001</ele><time>2026-04-14T15:17:51.999Z</time></trkpt><trkpt lat="41.7526438762044" lon="15.863672277108416"><ele>729.0</ele><time>2026-04-14T15:17:52.999Z</time></trkpt><trkpt lat="41.7527099462232" lon="15.863602529471615"><ele>727.0</ele><time>2026-04-14T15:17:53.999Z</time></trkpt><trkpt lat="41.752765868442374" lon="15.86349149757901"><ele>725.0</ele><time>2026-04-14T15:17:54.999Z</time></trkpt><trkpt lat="41.75280598897565" lon="15.863310565466763"><ele>723.0</ele><time>2026-04-14T15:17:55.999Z</time></trkpt><trkpt lat="41.75285308182713" lon="15.86311603238501"><ele>721.0</ele><time>2026-04-14T15:17:56.999Z</time></trkpt><trkpt lat="41.75289707097952" lon="15.862871200821145"><ele>721.0</ele><time>2026-04-14T15:17:57.999Z</time></trkpt><trkpt lat="41.75287339342347" lon="15.862732609278522"><ele>721.0</ele><time>2026-04-14T15:17:58.999Z</time></trkpt><trkpt lat="41.752909436630105" lon="15.862492978061997"><ele>721.0</ele><time>2026-04-14T15:17:59.999Z</time></trkpt><trkpt lat="41.7528632379583" lon="15.862368026414941"><ele>721.0</ele><time>2026-04-14T15:18:00.999Z</time></trkpt><trkpt lat="41.75279303254286" lon="15.862256359452633"><ele>721.5</ele><time>2026-04-14T15:18:01.999Z</time></trkpt><trkpt lat="41.752732369214314" lon="15.862082798504519"><ele>722.0</ele><time>2026-04-14T15:18:03.999Z</time></trkpt><trkpt lat="41.75272592423575" lon="15.861933533981048"><ele>722.5</ele><time>2026-04-14T15:18:04.999Z</time></trkpt><trkpt lat="41.75276853444425" lon="15.861788226272585"><ele>723.0</ele><time>2026-04-14T15:18:05.999Z</time></trkpt><trkpt lat="41.75280781807046" lon="15.861668296007073"><ele>723.4</ele><time>2026-04-14T15:18:06.999Z</time></trkpt><trkpt lat="41.75287042255349" lon="15.861511042478917"><ele>723.8</ele><time>2026-04-14T15:18:07.999Z</time></trkpt><trkpt lat="41.75294152126238" lon="15.861443210724858"><ele>724.2</ele><time>2026-04-14T15:18:08.999Z</time></trkpt><trkpt lat="41.753003937326746" lon="15.861357877479252"><ele>724.6</ele><time>2026-04-14T15:18:09.999Z</time></trkpt><trkpt lat="41.75301909464902" lon="15.861259560773485"><ele>725.0</ele><time>2026-04-14T15:18:11Z</time></trkpt><trkpt lat="41.75302238458248" lon="15.861130476530192"><ele>726.0</ele><time>2026-04-14T15:18:12Z</time></trkpt><trkpt lat="41.75308544724406" lon="15.86091830836551"><ele>727.0</ele><time>2026-04-14T15:18:14Z</time></trkpt><trkpt lat="41.75316962211255" lon="15.86070859807988"><ele>728.0</ele><time>2026-04-14T15:18:16Z</time></trkpt><trkpt lat="41.753223607348396" lon="15.86063419933473"><ele>729.0</ele><time>2026-04-14T15:18:17Z</time></trkpt><trkpt lat="41.753272779075225" lon="15.86055234437512"><ele>729.0</ele><time>2026-04-14T15:18:18Z</time></trkpt><trkpt lat="41.75334533565779" lon="15.860422931980507"><ele>729.0</ele><time>2026-04-14T15:18:20Z</time></trkpt><trkpt lat="41.75344875336782" lon="15.86031260620802"><ele>729.0</ele><time>2026-04-14T15:18:22Z</time></trkpt><trkpt lat="41.75347450739699" lon="15.86022586854411"><ele>729.0</ele><time>2026-04-14T15:18:23Z</time></trkpt><trkpt lat="41.75353960651769" lon="15.860021194009073"><ele>728.25</ele><time>2026-04-14T15:18:25Z</time></trkpt><trkpt lat="41.75360042440055" lon="15.85989951451472"><ele>727.5</ele><time>2026-04-14T15:18:26Z</time></trkpt><trkpt lat="41.75368708152016" lon="15.85969573897373"><ele>726.75</ele><time>2026-04-14T15:18:27Z</time></trkpt><trkpt lat="41.753759498727334" lon="15.859580262677163"><ele>726.0</ele><time>2026-04-14T15:18:28Z</time></trkpt><trkpt lat="41.7538232123268" lon="15.859441778540681"><ele>726.0</ele><time>2026-04-14T15:18:29Z</time></trkpt><trkpt lat="41.75385360337399" lon="15.859314076850708"><ele>726.0</ele><time>2026-04-14T15:18:30Z</time></trkpt><trkpt lat="41.75387905628497" lon="15.859217123849852"><ele>726.0</ele><time>2026-04-14T15:18:31Z</time></trkpt><trkpt lat="41.75389063433978" lon="15.859093002628894"><ele>726.0</ele><time>2026-04-14T15:18:32Z</time></trkpt><trkpt lat="41.75395930427362" lon="15.858971776694814"><ele>726.0</ele><time>2026-04-14T15:18:33Z</time></trkpt><trkpt lat="41.753977968145925" lon="15.858889573860248"><ele>726.0</ele><time>2026-04-14T15:18:34Z</time></trkpt><trkpt lat="41.75399539805991" lon="15.85879207514822"><ele>727.1999999999999</ele><time>2026-04-14T15:18:35Z</time></trkpt><trkpt lat="41.7540493365619" lon="15.858637877004842"><ele>728.4</ele><time>2026-04-14T15:18:37Z</time></trkpt><trkpt lat="41.7540915089273" lon="15.858486956405708"><ele>729.6</ele><time>2026-04-14T15:18:39Z</time></trkpt><trkpt lat="41.75411443322656" lon="15.858395407497355"><ele>730.8</ele><time>2026-04-14T15:18:41Z</time></trkpt><trkpt lat="41.75414770040754" lon="15.858298236608396"><ele>732.0</ele><time>2026-04-14T15:19:46.999Z</time></trkpt><trkpt lat="41.75412225080992" lon="15.858147468746406"><ele>732.1666666666666</ele><time>2026-04-14T15:19:49.999Z</time></trkpt><trkpt lat="41.75413915086366" lon="15.858034776486285"><ele>732.3333333333334</ele><time>2026-04-14T15:19:50.999Z</time></trkpt><trkpt lat="41.754140851297294" lon="15.85794047174524"><ele>732.5</ele><time>2026-04-14T15:19:51.999Z</time></trkpt><trkpt lat="41.75413008633431" lon="15.857837414111488"><ele>732.6666666666667</ele><time>2026-04-14T15:19:52.999Z</time></trkpt><trkpt lat="41.75412723953468" lon="15.85772146968554"><ele>732.8333333333334</ele><time>2026-04-14T15:19:53.999Z</time></trkpt><trkpt lat="41.75409798881297" lon="15.857628649240766"><ele>733.0</ele><time>2026-04-14T15:19:55.999Z</time></trkpt><trkpt lat="41.754053926767384" lon="15.857540132205381"><ele>733.4</ele><time>2026-04-14T15:19:57.999Z</time></trkpt><trkpt lat="41.75400184295805" lon="15.85748158140034"><ele>733.8</ele><time>2026-04-14T15:19:58.999Z</time></trkpt><trkpt lat="41.75396172197116" lon="15.857397055967256"><ele>734.2</ele><time>2026-04-14T15:19:59.999Z</time></trkpt><trkpt lat="41.75393881957019" lon="15.857232628935355"><ele>734.6</ele><time>2026-04-14T15:20:00.999Z</time></trkpt><trkpt lat="41.75391431830295" lon="15.857141313019145"><ele>735.0</ele><time>2026-04-14T15:20:01.999Z</time></trkpt><trkpt lat="41.753856917466514" lon="15.856986628673141"><ele>735.0</ele><time>2026-04-14T15:20:03.999Z</time></trkpt><trkpt lat="41.7538660687045" lon="15.856864685120806"><ele>735.0</ele><time>2026-04-14T15:20:04.999Z</time></trkpt><trkpt lat="41.75379900874893" lon="15.856703228763193"><ele>735.0</ele><time>2026-04-14T15:20:06.999Z</time></trkpt><trkpt lat="41.75371404337651" lon="15.856611425938695"><ele>735.0</ele><time>2026-04-14T15:20:07.999Z</time></trkpt><trkpt lat="41.753615346805226" lon="15.856503893017326"><ele>735.0</ele><time>2026-04-14T15:20:08.999Z</time></trkpt><trkpt lat="41.753581752980075" lon="15.856383020254327"><ele>735.0</ele><time>2026-04-14T15:20:09.999Z</time></trkpt><trkpt lat="41.75351745562593" lon="15.85628709481438"><ele>735.0</ele><time>2026-04-14T15:20:10.999Z</time></trkpt><trkpt lat="41.753468767137214" lon="15.856190847863248"><ele>735.0</ele><time>2026-04-14T15:20:11.999Z</time></trkpt><trkpt lat="41.753401345604246" lon="15.856121055233123"><ele>735.0</ele><time>2026-04-14T15:20:12.999Z</time></trkpt><trkpt lat="41.75333842642141" lon="15.856014914037805"><ele>734.0</ele><time>2026-04-14T15:20:13.999Z</time></trkpt><trkpt lat="41.75325080829141" lon="15.855878100013511"><ele>733.0</ele><time>2026-04-14T15:20:15.999Z</time></trkpt><trkpt lat="41.75316193207181" lon="15.855785367584474"><ele>732.0</ele><time>2026-04-14T15:20:18Z</time></trkpt><trkpt lat="41.7531071620771" lon="15.855649876969125"><ele>731.0</ele><time>2026-04-14T15:20:20Z</time></trkpt><trkpt lat="41.75295445483223" lon="15.855592947202446"><ele>731.0</ele><time>2026-04-14T15:20:22Z</time></trkpt><trkpt lat="41.7528226353209" lon="15.855570799822733"><ele>731.0</ele><time>2026-04-14T15:20:24Z</time></trkpt><trkpt lat="41.75261937052452" lon="15.855511738697043"><ele>731.0</ele><time>2026-04-14T15:20:25Z</time></trkpt><trkpt lat="41.752512286833166" lon="15.855491248208955"><ele>731.0</ele><time>2026-04-14T15:20:26Z</time></trkpt><trkpt lat="41.75241447880433" lon="15.855426404767226"><ele>729.1999999999999</ele><time>2026-04-14T15:20:27Z</time></trkpt><trkpt lat="41.75230166390727" lon="15.855354839863942"><ele>727.4</ele><time>2026-04-14T15:20:28Z</time></trkpt><trkpt lat="41.752222723412615" lon="15.855290416710712"><ele>725.6</ele><time>2026-04-14T15:20:29Z</time></trkpt><trkpt lat="41.752166354626056" lon="15.85523504969643"><ele>723.8</ele><time>2026-04-14T15:20:30Z</time></trkpt><trkpt lat="41.75208054366859" lon="15.855127020305309"><ele>722.0</ele><time>2026-04-14T15:20:31Z</time></trkpt><trkpt lat="41.752046341827466" lon="15.855017671861821"><ele>722.0</ele><time>2026-04-14T15:20:32Z</time></trkpt><trkpt lat="41.751989113229634" lon="15.854913191530082"><ele>722.0</ele><time>2026-04-14T15:20:33Z</time></trkpt><trkpt lat="41.75194313263635" lon="15.854842770680849"><ele>722.0</ele><time>2026-04-14T15:20:34Z</time></trkpt><trkpt lat="41.75188913585917" lon="15.854726117238803"><ele>722.0</ele><time>2026-04-14T15:20:35Z</time></trkpt><trkpt lat="41.75185502586609" lon="15.854585377758335"><ele>722.0</ele><time>2026-04-14T15:20:36Z</time></trkpt><trkpt lat="41.751776762207065" lon="15.85445206862892"><ele>721.1666666666666</ele><time>2026-04-14T15:20:38Z</time></trkpt><trkpt lat="41.75170192519568" lon="15.8544093834553"><ele>720.3333333333333</ele><time>2026-04-14T15:20:40Z</time></trkpt><trkpt lat="41.7516480860243" lon="15.854248553806022"><ele>719.5</ele><time>2026-04-14T15:20:42Z</time></trkpt><trkpt lat="41.75163313486668" lon="15.854135557350697"><ele>718.6666666666666</ele><time>2026-04-14T15:20:48Z</time></trkpt><trkpt lat="41.751626398210405" lon="15.854042460629184"><ele>717.8333333333334</ele><time>2026-04-14T15:20:50Z</time></trkpt><trkpt lat="41.751668230621426" lon="15.85394965291382"><ele>717.0</ele><time>2026-04-14T15:20:52Z</time></trkpt><trkpt lat="41.75171558335676" lon="15.85387413249487"><ele>717.0</ele><time>2026-04-14T15:20:55Z</time></trkpt><trkpt lat="41.75170082772871" lon="15.853767167439099"><ele>717.0</ele><time>2026-04-14T15:21:04Z</time></trkpt><trkpt lat="41.751678806497914" lon="15.853666501991755"><ele>717.0</ele><time>2026-04-14T15:21:06Z</time></trkpt><trkpt lat="41.75158145317752" lon="15.853574758652716"><ele>717.0</ele><time>2026-04-14T15:21:08Z</time></trkpt><trkpt lat="41.75143284927825" lon="15.853461523280853"><ele>717.0</ele><time>2026-04-14T15:21:09Z</time></trkpt><trkpt lat="41.75135115321299" lon="15.853365010230519"><ele>716.75</ele><time>2026-04-14T15:21:10Z</time></trkpt><trkpt lat="41.75127749066055" lon="15.853197380029817"><ele>716.5</ele><time>2026-04-14T15:21:11Z</time></trkpt><trkpt lat="41.75118329253816" lon="15.853096684283216"><ele>716.25</ele><time>2026-04-14T15:21:12Z</time></trkpt><trkpt lat="41.75110584296885" lon="15.853007713284558"><ele>716.0</ele><time>2026-04-14T15:21:13Z</time></trkpt><trkpt lat="41.751044546421646" lon="15.852929585960348"><ele>716.4</ele><time>2026-04-14T15:21:14Z</time></trkpt><trkpt lat="41.750952733848415" lon="15.852786221429694"><ele>716.8</ele><time>2026-04-14T15:21:16Z</time></trkpt><trkpt lat="41.75090521950319" lon="15.8526889192471"><ele>717.1999999999999</ele><time>2026-04-14T15:21:17Z</time></trkpt><trkpt lat="41.750895947141196" lon="15.852527528060406"><ele>717.5999999999999</ele><time>2026-04-14T15:21:18Z</time></trkpt><trkpt lat="41.750860149344874" lon="15.852444791887464"><ele>718.0</ele><time>2026-04-14T15:21:19Z</time></trkpt><trkpt lat="41.750807424030675" lon="15.852354583275458"><ele>718.0</ele><time>2026-04-14T15:21:20Z</time></trkpt><trkpt lat="41.75076005052906" lon="15.852230980040316"><ele>718.0</ele><time>2026-04-14T15:21:21Z</time></trkpt><trkpt lat="41.75070296324968" lon="15.85216308660181"><ele>718.0</ele><time>2026-04-14T15:21:22Z</time></trkpt><trkpt lat="41.75065621189766" lon="15.852050505959339"><ele>718.0</ele><time>2026-04-14T15:21:23Z</time></trkpt><trkpt lat="41.75060610941251" lon="15.85195166733195"><ele>718.0</ele><time>2026-04-14T15:21:24Z</time></trkpt><trkpt lat="41.75056409806153" lon="15.851810578201016"><ele>718.0</ele><time>2026-04-14T15:21:25Z</time></trkpt><trkpt lat="41.75052978141424" lon="15.85167683484862"><ele>718.0</ele><time>2026-04-14T15:21:26Z</time></trkpt><trkpt lat="41.75050878769208" lon="15.851506268571713"><ele>718.0</ele><time>2026-04-14T15:21:27Z</time></trkpt><trkpt lat="41.75044809026025" lon="15.851381932310106"><ele>718.0</ele><time>2026-04-14T15:21:28Z</time></trkpt><trkpt lat="41.75036465535718" lon="15.851196109451687"><ele>718.0</ele><time>2026-04-14T15:21:30Z</time></trkpt><trkpt lat="41.750283820172314" lon="15.851079672225147"><ele>718.0</ele><time>2026-04-14T15:21:31Z</time></trkpt><trkpt lat="41.75016612109494" lon="15.850935245064758"><ele>718.0</ele><time>2026-04-14T15:21:32Z</time></trkpt><trkpt lat="41.75007862069681" lon="15.850829788961414"><ele>718.0</ele><time>2026-04-14T15:21:33Z</time></trkpt><trkpt lat="41.75000398064372" lon="15.850735445942158"><ele>717.1666666666667</ele><time>2026-04-14T15:21:34Z</time></trkpt><trkpt lat="41.74995031586333" lon="15.850663337661516"><ele>716.3333333333334</ele><time>2026-04-14T15:21:35Z</time></trkpt><trkpt lat="41.7498890158399" lon="15.850568732464149"><ele>715.5</ele><time>2026-04-14T15:21:36Z</time></trkpt><trkpt lat="41.749823708011846" lon="15.85051058501837"><ele>714.6666666666666</ele><time>2026-04-14T15:21:37Z</time></trkpt><trkpt lat="41.74975957008527" lon="15.850444613511753"><ele>713.8333333333333</ele><time>2026-04-14T15:21:38Z</time></trkpt><trkpt lat="41.749686979205165" lon="15.850403248234691"><ele>713.0</ele><time>2026-04-14T15:21:39Z</time></trkpt><trkpt lat="41.749570175466765" lon="15.850408920539635"><ele>713.0</ele><time>2026-04-14T15:21:40Z</time></trkpt><trkpt lat="41.74940559341913" lon="15.85040033666449"><ele>713.0</ele><time>2026-04-14T15:21:42Z</time></trkpt><trkpt lat="41.74932920826836" lon="15.850375704504497"><ele>713.0</ele><time>2026-04-14T15:21:44Z</time></trkpt><trkpt lat="41.74924949940698" lon="15.850359550919663"><ele>713.0</ele><time>2026-04-14T15:21:45Z</time></trkpt><trkpt lat="41.74913122013952" lon="15.85031917262718"><ele>713.0</ele><time>2026-04-14T15:21:47Z</time></trkpt><trkpt lat="41.74903974986558" lon="15.850306053707834"><ele>711.2</ele><time>2026-04-14T15:21:48Z</time></trkpt><trkpt lat="41.74896207781624" lon="15.850264141972565"><ele>709.4</ele><time>2026-04-14T15:21:49Z</time></trkpt><trkpt lat="41.7487929119457" lon="15.850234529553017"><ele>707.6</ele><time>2026-04-14T15:21:50.999Z</time></trkpt><trkpt lat="41.74869983243424" lon="15.850313575090096"><ele>705.8000000000001</ele><time>2026-04-14T15:21:51.999Z</time></trkpt><trkpt lat="41.748626845194366" lon="15.850328097144859"><ele>704.0</ele><time>2026-04-14T15:21:52.999Z</time></trkpt><trkpt lat="41.74850948615236" lon="15.85031353866205"><ele>701.6</ele><time>2026-04-14T15:21:53.999Z</time></trkpt><trkpt lat="41.74840007689658" lon="15.850296702355282"><ele>699.2</ele><time>2026-04-14T15:21:54.999Z</time></trkpt><trkpt lat="41.74824646681962" lon="15.850315070418205"><ele>696.8000000000001</ele><time>2026-04-14T15:21:56.999Z</time></trkpt><trkpt lat="41.74815428170728" lon="15.850336928422527"><ele>694.4000000000001</ele><time>2026-04-14T15:21:57.999Z</time></trkpt><trkpt lat="41.7480918887205" lon="15.850360774574199"><ele>692.0</ele><time>2026-04-14T15:21:58.999Z</time></trkpt><trkpt lat="41.747951964719334" lon="15.850365920410312"><ele>692.0</ele><time>2026-04-14T15:22:00.999Z</time></trkpt><trkpt lat="41.747841901410325" lon="15.850332417537528"><ele>692.0</ele><time>2026-04-14T15:22:02.999Z</time></trkpt><trkpt lat="41.7477536033232" lon="15.850314944490751"><ele>692.0</ele><time>2026-04-14T15:22:03.999Z</time></trkpt><trkpt lat="41.7476168913712" lon="15.850356367282789"><ele>692.0</ele><time>2026-04-14T15:22:08.999Z</time></trkpt><trkpt lat="41.7475630547428" lon="15.850295909412672"><ele>692.0</ele><time>2026-04-14T15:22:11.999Z</time></trkpt><trkpt lat="41.74747985366682" lon="15.85028021040804"><ele>689.2</ele><time>2026-04-14T15:22:14.999Z</time></trkpt><trkpt lat="41.74736821766684" lon="15.850270373506708"><ele>686.4000000000001</ele><time>2026-04-14T15:22:16.999Z</time></trkpt><trkpt lat="41.7472698434452" lon="15.850283856843685"><ele>683.5999999999999</ele><time>2026-04-14T15:22:18.999Z</time></trkpt><trkpt lat="41.747172562357385" lon="15.850261113232987"><ele>680.8</ele><time>2026-04-14T15:22:20.999Z</time></trkpt><trkpt lat="41.747062619162335" lon="15.850236059881027"><ele>678.0</ele><time>2026-04-14T15:22:23Z</time></trkpt><trkpt lat="41.746989646209755" lon="15.850250848967363"><ele>678.0</ele><time>2026-04-14T15:22:25Z</time></trkpt><trkpt lat="41.7469008455308" lon="15.85025697099972"><ele>678.0</ele><time>2026-04-14T15:22:27Z</time></trkpt><trkpt lat="41.746831667665646" lon="15.850260750442754"><ele>678.0</ele><time>2026-04-14T15:22:30Z</time></trkpt><trkpt lat="41.74676733649743" lon="15.850230809106508"><ele>678.0</ele><time>2026-04-14T15:22:31Z</time></trkpt><trkpt lat="41.74668077342278" lon="15.850155946213945"><ele>678.0</ele><time>2026-04-14T15:22:33Z</time></trkpt><trkpt lat="41.746588344207645" lon="15.850156313481913"><ele>678.0</ele><time>2026-04-14T15:22:35Z</time></trkpt><trkpt lat="41.74650787255534" lon="15.850095666258696"><ele>676.5999999999999</ele><time>2026-04-14T15:22:37Z</time></trkpt><trkpt lat="41.746443778573" lon="15.850080277361634"><ele>675.1999999999999</ele><time>2026-04-14T15:22:38Z</time></trkpt><trkpt lat="41.74633402911702" lon="15.850120758185206"><ele>673.8</ele><time>2026-04-14T15:22:40Z</time></trkpt><trkpt lat="41.746222024424085" lon="15.8500865108746"><ele>672.4</ele><time>2026-04-14T15:22:41Z</time></trkpt><trkpt lat="41.74613660606516" lon="15.850080630791883"><ele>671.0</ele><time>2026-04-14T15:22:42Z</time></trkpt><trkpt lat="41.746033975372924" lon="15.85007762974297"><ele>670.5999999999999</ele><time>2026-04-14T15:22:44Z</time></trkpt><trkpt lat="41.74596377255956" lon="15.850104823057112"><ele>670.2</ele><time>2026-04-14T15:22:45Z</time></trkpt><trkpt lat="41.745828657100816" lon="15.850156548996889"><ele>669.8</ele><time>2026-04-14T15:22:47Z</time></trkpt><trkpt lat="41.74573198446693" lon="15.850157101433286"><ele>669.4000000000001</ele><time>2026-04-14T15:22:48Z</time></trkpt><trkpt lat="41.745635225474736" lon="15.850161359070974"><ele>669.0</ele><time>2026-04-14T15:22:49Z</time></trkpt><trkpt lat="41.74552154623627" lon="15.85015434574159"><ele>669.0</ele><time>2026-04-14T15:22:50Z</time></trkpt><trkpt lat="41.7454007917674" lon="15.850148903670148"><ele>669.0</ele><time>2026-04-14T15:22:51Z</time></trkpt><trkpt lat="41.74532530758773" lon="15.850105342064444"><ele>669.0</ele><time>2026-04-14T15:22:53Z</time></trkpt><trkpt lat="41.74525637960176" lon="15.85012448921053"><ele>669.0</ele><time>2026-04-14T15:22:54Z</time></trkpt><trkpt lat="41.74516611697897" lon="15.850155998138323"><ele>669.0</ele><time>2026-04-14T15:22:55Z</time></trkpt><trkpt lat="41.74509938698424" lon="15.850230723495274"><ele>667.6666666666666</ele><time>2026-04-14T15:22:56Z</time></trkpt><trkpt lat="41.74504635115392" lon="15.850294627419201"><ele>666.3333333333334</ele><time>2026-04-14T15:22:57Z</time></trkpt><trkpt lat="41.74496235395149" lon="15.850276677488093"><ele>665.0</ele><time>2026-04-14T15:22:59Z</time></trkpt><trkpt lat="41.744907473069084" lon="15.850392836140076"><ele>663.6666666666667</ele><time>2026-04-14T15:23:01Z</time></trkpt><trkpt lat="41.74490785814138" lon="15.850492876622816"><ele>662.3333333333334</ele><time>2026-04-14T15:23:04Z</time></trkpt><trkpt lat="41.74484549446171" lon="15.850522968839535"><ele>661.0</ele><time>2026-04-14T15:23:06Z</time></trkpt><trkpt lat="41.74477544655872" lon="15.850511850238854"><ele>661.0</ele><time>2026-04-14T15:23:08Z</time></trkpt><trkpt lat="41.744682877067326" lon="15.850484598463241"><ele>661.0</ele><time>2026-04-14T15:23:09Z</time></trkpt><trkpt lat="41.744585559697484" lon="15.85045886205703"><ele>661.0</ele><time>2026-04-14T15:23:10Z</time></trkpt><trkpt lat="41.744503204740404" lon="15.850401863340009"><ele>661.0</ele><time>2026-04-14T15:23:11Z</time></trkpt><trkpt lat="41.74442089759793" lon="15.850185507945456"><ele>660.6666666666667</ele><time>2026-04-14T15:23:12Z</time></trkpt><trkpt lat="41.74432630267373" lon="15.849937510319497"><ele>660.3333333333334</ele><time>2026-04-14T15:23:13Z</time></trkpt><trkpt lat="41.74422784245942" lon="15.849697592761084"><ele>660.0</ele><time>2026-04-14T15:23:14Z</time></trkpt><trkpt lat="41.74409283437491" lon="15.849461219141899"><ele>660.3333333333334</ele><time>2026-04-14T15:23:15Z</time></trkpt><trkpt lat="41.74399091499548" lon="15.849250726074775"><ele>660.6666666666667</ele><time>2026-04-14T15:23:16Z</time></trkpt><trkpt lat="41.74391480630108" lon="15.849047392370675"><ele>661.0</ele><time>2026-04-14T15:23:17Z</time></trkpt><trkpt lat="41.74382040096777" lon="15.848908418690868"><ele>661.0</ele><time>2026-04-14T15:23:18Z</time></trkpt><trkpt lat="41.74377932566418" lon="15.848734899476035"><ele>661.0</ele><time>2026-04-14T15:23:19Z</time></trkpt><trkpt lat="41.74372850935973" lon="15.848570958073536"><ele>661.0</ele><time>2026-04-14T15:23:20Z</time></trkpt><trkpt lat="41.743681607094544" lon="15.84842416815056"><ele>661.0</ele><time>2026-04-14T15:23:21Z</time></trkpt><trkpt lat="41.74364328029141" lon="15.848256051646317"><ele>661.3333333333334</ele><time>2026-04-14T15:23:22Z</time></trkpt><trkpt lat="41.743617191379485" lon="15.848068342488677"><ele>661.6666666666666</ele><time>2026-04-14T15:23:23Z</time></trkpt><trkpt lat="41.74357836692388" lon="15.847857480407706"><ele>662.0</ele><time>2026-04-14T15:23:24Z</time></trkpt><trkpt lat="41.743554076339144" lon="15.847614597907302"><ele>659.0</ele><time>2026-04-14T15:23:25Z</time></trkpt><trkpt lat="41.743506662254084" lon="15.847370852166472"><ele>656.0</ele><time>2026-04-14T15:23:26Z</time></trkpt><trkpt lat="41.74348674101558" lon="15.847067341251135"><ele>653.0</ele><time>2026-04-14T15:23:27Z</time></trkpt><trkpt lat="41.74345525008059" lon="15.846886921155601"><ele>652.2</ele><time>2026-04-14T15:23:28Z</time></trkpt><trkpt lat="41.74342657215394" lon="15.846791425872524"><ele>651.4</ele><time>2026-04-14T15:23:29Z</time></trkpt><trkpt lat="41.74340975309652" lon="15.846653228320953"><ele>650.6</ele><time>2026-04-14T15:23:30Z</time></trkpt><trkpt lat="41.74338129697927" lon="15.846513376581001"><ele>649.8000000000001</ele><time>2026-04-14T15:23:31Z</time></trkpt><trkpt lat="41.74337357446617" lon="15.846336220718053"><ele>649.0</ele><time>2026-04-14T15:23:32Z</time></trkpt><trkpt lat="41.743390506612485" lon="15.846139924561095"><ele>649.0</ele><time>2026-04-14T15:23:33Z</time></trkpt><trkpt lat="41.74340758312852" lon="15.845965325142897"><ele>649.0</ele><time>2026-04-14T15:23:34Z</time></trkpt><trkpt lat="41.743412146930105" lon="15.845816646783865"><ele>649.0</ele><time>2026-04-14T15:23:35Z</time></trkpt><trkpt lat="41.74342010978809" lon="15.845639903571827"><ele>649.0</ele><time>2026-04-14T15:23:36Z</time></trkpt><trkpt lat="41.743429942150506" lon="15.845470655138193"><ele>648.6</ele><time>2026-04-14T15:23:37Z</time></trkpt><trkpt lat="41.74343867639316" lon="15.845340194597137"><ele>648.2</ele><time>2026-04-14T15:23:38Z</time></trkpt><trkpt lat="41.74344399361351" lon="15.84522358345519"><ele>647.8000000000001</ele><time>2026-04-14T15:23:39Z</time></trkpt><trkpt lat="41.74340900553394" lon="15.84513083117785"><ele>647.4000000000001</ele><time>2026-04-14T15:23:41Z</time></trkpt><trkpt lat="41.743388882908725" lon="15.845028446890412"><ele>647.0</ele><time>2026-04-14T15:23:42Z</time></trkpt><trkpt lat="41.74336364555741" lon="15.844779816961573"><ele>647.0</ele><time>2026-04-14T15:23:44Z</time></trkpt><trkpt lat="41.743257590331005" lon="15.844705918655647"><ele>647.0</ele><time>2026-04-14T15:23:46Z</time></trkpt><trkpt lat="41.74319755189846" lon="15.844622622264065"><ele>647.0</ele><time>2026-04-14T15:23:49.999Z</time></trkpt><trkpt lat="41.743083754218425" lon="15.844542874412815"><ele>647.0</ele><time>2026-04-14T15:23:52.999Z</time></trkpt><trkpt lat="41.74298034335069" lon="15.844488014006131"><ele>647.0</ele><time>2026-04-14T15:23:53.999Z</time></trkpt><trkpt lat="41.74289806940934" lon="15.844428934415644"><ele>647.0</ele><time>2026-04-14T15:23:54.999Z</time></trkpt><trkpt lat="41.74282471371045" lon="15.844327873214782"><ele>647.0</ele><time>2026-04-14T15:23:55.999Z</time></trkpt><trkpt lat="41.742735659877205" lon="15.844226465906761"><ele>647.0</ele><time>2026-04-14T15:23:56.999Z</time></trkpt><trkpt lat="41.742615852698115" lon="15.844121430597676"><ele>647.0</ele><time>2026-04-14T15:23:57.999Z</time></trkpt><trkpt lat="41.74251262227326" lon="15.844043078361336"><ele>647.2</ele><time>2026-04-14T15:23:58.999Z</time></trkpt><trkpt lat="41.74242229816929" lon="15.843946376969027"><ele>647.4000000000001</ele><time>2026-04-14T15:24:00.999Z</time></trkpt><trkpt lat="41.74240045286698" lon="15.84382737521796"><ele>647.5999999999999</ele><time>2026-04-14T15:24:02.999Z</time></trkpt><trkpt lat="41.742384633182645" lon="15.843742926602376"><ele>647.8</ele><time>2026-04-14T15:24:03.999Z</time></trkpt><trkpt lat="41.742388235047244" lon="15.84363599314494"><ele>648.0</ele><time>2026-04-14T15:24:04.999Z</time></trkpt><trkpt lat="41.742402401745444" lon="15.843493404856337"><ele>648.8333333333334</ele><time>2026-04-14T15:24:05.999Z</time></trkpt><trkpt lat="41.74242599916881" lon="15.843340255578221"><ele>649.6666666666666</ele><time>2026-04-14T15:24:06.999Z</time></trkpt><trkpt lat="41.742463742200165" lon="15.843251522019827"><ele>650.5</ele><time>2026-04-14T15:24:07.999Z</time></trkpt><trkpt lat="41.742514361133175" lon="15.843145995186184"><ele>651.3333333333333</ele><time>2026-04-14T15:24:08.999Z</time></trkpt><trkpt lat="41.74255678700542" lon="15.843062563322606"><ele>652.1666666666666</ele><time>2026-04-14T15:24:09.999Z</time></trkpt><trkpt lat="41.74259184666575" lon="15.842970143678475"><ele>653.0</ele><time>2026-04-14T15:24:10.999Z</time></trkpt><trkpt lat="41.74262668695943" lon="15.842857471051799"><ele>653.0</ele><time>2026-04-14T15:24:11.999Z</time></trkpt><trkpt lat="41.74263829189781" lon="15.842758590662715"><ele>653.0</ele><time>2026-04-14T15:24:13.999Z</time></trkpt><trkpt lat="41.74267010578942" lon="15.842619558007772"><ele>653.0</ele><time>2026-04-14T15:24:14.999Z</time></trkpt><trkpt lat="41.742740467723884" lon="15.84245553038372"><ele>653.0</ele><time>2026-04-14T15:24:15.999Z</time></trkpt><trkpt lat="41.742844638583286" lon="15.842270781616778"><ele>651.25</ele><time>2026-04-14T15:24:16.999Z</time></trkpt><trkpt lat="41.74293205092262" lon="15.842087475186728"><ele>649.5</ele><time>2026-04-14T15:24:17.999Z</time></trkpt><trkpt lat="41.74299338232915" lon="15.841935223892172"><ele>647.75</ele><time>2026-04-14T15:24:18.999Z</time></trkpt><trkpt lat="41.743033851754895" lon="15.841799369787587"><ele>646.0</ele><time>2026-04-14T15:24:19.999Z</time></trkpt><trkpt lat="41.74306946994871" lon="15.841606872814367"><ele>646.0</ele><time>2026-04-14T15:24:20.999Z</time></trkpt><trkpt lat="41.74310357627665" lon="15.841465085912617"><ele>646.0</ele><time>2026-04-14T15:24:21.999Z</time></trkpt><trkpt lat="41.74309991360702" lon="15.841349860571336"><ele>646.0</ele><time>2026-04-14T15:24:22.999Z</time></trkpt><trkpt lat="41.74308790554487" lon="15.841245652136463"><ele>646.0</ele><time>2026-04-14T15:24:23.999Z</time></trkpt><trkpt lat="41.743071426123116" lon="15.841159281662586"><ele>646.0</ele><time>2026-04-14T15:24:24.999Z</time></trkpt><trkpt lat="41.743067473700975" lon="15.841044092197416"><ele>646.0</ele><time>2026-04-14T15:24:25.999Z</time></trkpt><trkpt lat="41.74305093216435" lon="15.840872365167852"><ele>646.8</ele><time>2026-04-14T15:24:31Z</time></trkpt><trkpt lat="41.74309975626747" lon="15.840756609549446"><ele>647.5999999999999</ele><time>2026-04-14T15:24:32Z</time></trkpt><trkpt lat="41.74317710146242" lon="15.840675718788738"><ele>648.4</ele><time>2026-04-14T15:24:36Z</time></trkpt><trkpt lat="41.74317668062198" lon="15.840537325096975"><ele>649.2</ele><time>2026-04-14T15:24:39Z</time></trkpt><trkpt lat="41.74316811567262" lon="15.840356086989239"><ele>650.0</ele><time>2026-04-14T15:24:40Z</time></trkpt><trkpt lat="41.7432019853196" lon="15.840113738803073"><ele>650.6666666666666</ele><time>2026-04-14T15:24:46Z</time></trkpt><trkpt lat="41.74319219482446" lon="15.840002968823539"><ele>651.3333333333333</ele><time>2026-04-14T15:24:47Z</time></trkpt><trkpt lat="41.7431787601561" lon="15.839888088323043"><ele>652.0</ele><time>2026-04-14T15:24:50Z</time></trkpt><trkpt lat="41.74319508497929" lon="15.839714423833934"><ele>652.6666666666666</ele><time>2026-04-14T15:24:52Z</time></trkpt><trkpt lat="41.74321646230964" lon="15.839621485067648"><ele>653.3333333333334</ele><time>2026-04-14T15:24:53Z</time></trkpt><trkpt lat="41.74319904547895" lon="15.839524423398952"><ele>654.0</ele><time>2026-04-14T15:24:55Z</time></trkpt><trkpt lat="41.743221136947845" lon="15.83939431134809"><ele>655.0</ele><time>2026-04-14T15:24:56Z</time></trkpt><trkpt lat="41.743268290871136" lon="15.83929782344147"><ele>656.0</ele><time>2026-04-14T15:24:57Z</time></trkpt><trkpt lat="41.74331277512942" lon="15.83920921311147"><ele>657.0</ele><time>2026-04-14T15:24:58Z</time></trkpt><trkpt lat="41.74336017795314" lon="15.839129553954573"><ele>658.0</ele><time>2026-04-14T15:24:59Z</time></trkpt><trkpt lat="41.743472109342015" lon="15.839001847582125"><ele>659.0</ele><time>2026-04-14T15:25:00Z</time></trkpt><trkpt lat="41.743458072226225" lon="15.839103144925893"><ele>659.0</ele><time>2026-04-14T15:25:01Z</time></trkpt><trkpt lat="41.74349627817214" lon="15.83899250416303"><ele>659.0</ele><time>2026-04-14T15:25:02Z</time></trkpt><trkpt lat="41.7435447512403" lon="15.838856913000791"><ele>659.0</ele><time>2026-04-14T15:25:05Z</time></trkpt><trkpt lat="41.743574839993215" lon="15.838738261549967"><ele>659.0</ele><time>2026-04-14T15:25:06Z</time></trkpt><trkpt lat="41.74361011850877" lon="15.838549832183709"><ele>659.0</ele><time>2026-04-14T15:25:07Z</time></trkpt><trkpt lat="41.74361202306307" lon="15.83842706194901"><ele>657.2</ele><time>2026-04-14T15:25:08Z</time></trkpt><trkpt lat="41.74365597876424" lon="15.838314676585474"><ele>655.4000000000001</ele><time>2026-04-14T15:25:09Z</time></trkpt><trkpt lat="41.743724784747045" lon="15.838196067680691"><ele>653.6</ele><time>2026-04-14T15:25:10Z</time></trkpt><trkpt lat="41.743809790173366" lon="15.838083838920895"><ele>651.8</ele><time>2026-04-14T15:25:11Z</time></trkpt><trkpt lat="41.74389630457876" lon="15.838045988102515"><ele>650.0</ele><time>2026-04-14T15:25:12Z</time></trkpt><trkpt lat="41.74394622548792" lon="15.837987378596388"><ele>650.0</ele><time>2026-04-14T15:25:13Z</time></trkpt><trkpt lat="41.74399983292072" lon="15.837911763657397"><ele>650.0</ele><time>2026-04-14T15:25:14Z</time></trkpt><trkpt lat="41.74404404686707" lon="15.837800224873009"><ele>650.0</ele><time>2026-04-14T15:25:15Z</time></trkpt><trkpt lat="41.74403645175987" lon="15.837668705817693"><ele>650.0</ele><time>2026-04-14T15:25:16Z</time></trkpt><trkpt lat="41.7439700107421" lon="15.83762254991902"><ele>650.0</ele><time>2026-04-14T15:25:17Z</time></trkpt><trkpt lat="41.74402205897986" lon="15.837556636307339"><ele>650.0</ele><time>2026-04-14T15:25:18Z</time></trkpt><trkpt lat="41.74411145465364" lon="15.83754056210842"><ele>651.6</ele><time>2026-04-14T15:25:20Z</time></trkpt><trkpt lat="41.74419750114562" lon="15.837597580241484"><ele>653.2</ele><time>2026-04-14T15:25:22Z</time></trkpt><trkpt lat="41.74426149176899" lon="15.837579545547309"><ele>654.8</ele><time>2026-04-14T15:25:28Z</time></trkpt><trkpt lat="41.74433443372718" lon="15.837432432602059"><ele>656.4</ele><time>2026-04-14T15:25:41Z</time></trkpt><trkpt lat="41.744377369838716" lon="15.83754103343791"><ele>658.0</ele><time>2026-04-14T15:25:55.999Z</time></trkpt><trkpt lat="41.74449192091953" lon="15.83750013906587"><ele>658.0</ele><time>2026-04-14T15:25:57.999Z</time></trkpt><trkpt lat="41.74463167221094" lon="15.83737280197841"><ele>658.0</ele><time>2026-04-14T15:25:59.999Z</time></trkpt><trkpt lat="41.744728292421826" lon="15.837294273517733"><ele>658.0</ele><time>2026-04-14T15:26:00.999Z</time></trkpt><trkpt lat="41.74481359105891" lon="15.837177476924987"><ele>658.0</ele><time>2026-04-14T15:26:01.999Z</time></trkpt><trkpt lat="41.74491206658557" lon="15.837050872043951"><ele>658.0</ele><time>2026-04-14T15:26:02.999Z</time></trkpt><trkpt lat="41.74501117418995" lon="15.836920113484542"><ele>658.0</ele><time>2026-04-14T15:26:03.999Z</time></trkpt><trkpt lat="41.74506533285046" lon="15.836815456119702"><ele>658.0</ele><time>2026-04-14T15:26:04.999Z</time></trkpt><trkpt lat="41.74512777787965" lon="15.836722617376484"><ele>658.0</ele><time>2026-04-14T15:26:05.999Z</time></trkpt><trkpt lat="41.745203804855684" lon="15.836500045291656"><ele>657.6666666666667</ele><time>2026-04-14T15:26:06.999Z</time></trkpt><trkpt lat="41.74526505818564" lon="15.83642715264495"><ele>657.3333333333334</ele><time>2026-04-14T15:26:07.999Z</time></trkpt><trkpt lat="41.74529840370005" lon="15.836318368701173"><ele>657.0</ele><time>2026-04-14T15:26:08.999Z</time></trkpt><trkpt lat="41.74532179357636" lon="15.836229263022648"><ele>656.6666666666666</ele><time>2026-04-14T15:26:09.999Z</time></trkpt><trkpt lat="41.74528101693323" lon="15.836111973089485"><ele>656.3333333333333</ele><time>2026-04-14T15:26:12.999Z</time></trkpt><trkpt lat="41.745295474188794" lon="15.835997414747666"><ele>656.0</ele><time>2026-04-14T15:26:13.999Z</time></trkpt><trkpt lat="41.74533617039311" lon="15.835891437295535"><ele>656.0</ele><time>2026-04-14T15:26:14.999Z</time></trkpt><trkpt lat="41.74538655911865" lon="15.83576853540707"><ele>656.0</ele><time>2026-04-14T15:26:15.999Z</time></trkpt><trkpt lat="41.74542269102872" lon="15.83563133227714"><ele>656.0</ele><time>2026-04-14T15:26:16.999Z</time></trkpt><trkpt lat="41.74546056875059" lon="15.835469463370671"><ele>656.0</ele><time>2026-04-14T15:26:17.999Z</time></trkpt><trkpt lat="41.74546513079283" lon="15.835342795339534"><ele>656.0</ele><time>2026-04-14T15:26:18.999Z</time></trkpt><trkpt lat="41.74549157722607" lon="15.835160777678517"><ele>657.5999999999999</ele><time>2026-04-14T15:26:19.999Z</time></trkpt><trkpt lat="41.74551254502822" lon="15.835014601664755"><ele>659.2</ele><time>2026-04-14T15:26:20.999Z</time></trkpt><trkpt lat="41.74550874371022" lon="15.834926677634261"><ele>660.8</ele><time>2026-04-14T15:26:21.999Z</time></trkpt><trkpt lat="41.74554520555248" lon="15.834772302191865"><ele>662.4000000000001</ele><time>2026-04-14T15:26:22.999Z</time></trkpt><trkpt lat="41.7455678915822" lon="15.834619598084164"><ele>664.0</ele><time>2026-04-14T15:26:23.999Z</time></trkpt><trkpt lat="41.74555617329708" lon="15.834426446891054"><ele>665.5</ele><time>2026-04-14T15:26:24.999Z</time></trkpt><trkpt lat="41.74551078909404" lon="15.834291296885327"><ele>667.0</ele><time>2026-04-14T15:26:25.999Z</time></trkpt><trkpt lat="41.74554943139424" lon="15.83411817634222"><ele>668.5</ele><time>2026-04-14T15:26:26.999Z</time></trkpt><trkpt lat="41.7455912284028" lon="15.83394915228504"><ele>670.0</ele><time>2026-04-14T15:26:27.999Z</time></trkpt><trkpt lat="41.74561869550221" lon="15.833832002809299"><ele>670.0</ele><time>2026-04-14T15:26:28.999Z</time></trkpt><trkpt lat="41.74564146821671" lon="15.83366307577806"><ele>670.0</ele><time>2026-04-14T15:26:30.999Z</time></trkpt><trkpt lat="41.74563082438088" lon="15.833576412607465"><ele>670.0</ele><time>2026-04-14T15:26:31.999Z</time></trkpt><trkpt lat="41.745662524210324" lon="15.833441165277153"><ele>670.0</ele><time>2026-04-14T15:26:32.999Z</time></trkpt><trkpt lat="41.745710832738574" lon="15.833319241450106"><ele>670.0</ele><time>2026-04-14T15:26:33.999Z</time></trkpt><trkpt lat="41.7457405284015" lon="15.833209007576121"><ele>670.8</ele><time>2026-04-14T15:26:35Z</time></trkpt><trkpt lat="41.74577059902172" lon="15.833058356176982"><ele>671.6</ele><time>2026-04-14T15:26:36Z</time></trkpt><trkpt lat="41.74582554369432" lon="15.83291283639025"><ele>672.4000000000001</ele><time>2026-04-14T15:26:37Z</time></trkpt><trkpt lat="41.745860055457676" lon="15.832808171704373"><ele>673.2</ele><time>2026-04-14T15:26:38Z</time></trkpt><trkpt lat="41.745910311280106" lon="15.832722956877275"><ele>674.0</ele><time>2026-04-14T15:26:39Z</time></trkpt><trkpt lat="41.74592730868421" lon="15.832594700683115"><ele>675.0</ele><time>2026-04-14T15:26:40Z</time></trkpt><trkpt lat="41.74595709821826" lon="15.832507520063736"><ele>676.0</ele><time>2026-04-14T15:26:41Z</time></trkpt><trkpt lat="41.74598798983536" lon="15.832383776808738"><ele>677.0</ele><time>2026-04-14T15:26:42Z</time></trkpt><trkpt lat="41.74603172884038" lon="15.832237137450258"><ele>678.0</ele><time>2026-04-14T15:26:43Z</time></trkpt><trkpt lat="41.746083512686916" lon="15.8320882610041"><ele>679.0</ele><time>2026-04-14T15:26:44Z</time></trkpt><trkpt lat="41.74610465295781" lon="15.831988238538388"><ele>677.8000000000001</ele><time>2026-04-14T15:26:45Z</time></trkpt><trkpt lat="41.74614104648967" lon="15.831862432882687"><ele>676.6</ele><time>2026-04-14T15:26:46Z</time></trkpt><trkpt lat="41.746185980034575" lon="15.831764241256826"><ele>675.4</ele><time>2026-04-14T15:26:47Z</time></trkpt><trkpt lat="41.74624698037079" lon="15.8316703877419"><ele>674.2</ele><time>2026-04-14T15:26:48Z</time></trkpt><trkpt lat="41.74630115156809" lon="15.831564130834806"><ele>673.0</ele><time>2026-04-14T15:26:49Z</time></trkpt><trkpt lat="41.746363545445895" lon="15.831421152761736"><ele>673.0</ele><time>2026-04-14T15:26:50Z</time></trkpt><trkpt lat="41.74640790169564" lon="15.831197265383604"><ele>673.0</ele><time>2026-04-14T15:26:51Z</time></trkpt><trkpt lat="41.746472843996" lon="15.83106044714146"><ele>673.0</ele><time>2026-04-14T15:26:52Z</time></trkpt><trkpt lat="41.7465225505357" lon="15.83096594647896"><ele>673.0</ele><time>2026-04-14T15:26:53Z</time></trkpt><trkpt lat="41.74656853308027" lon="15.83086351819971"><ele>674.0</ele><time>2026-04-14T15:26:54Z</time></trkpt><trkpt lat="41.74659927182298" lon="15.830732457780169"><ele>675.0</ele><time>2026-04-14T15:26:55Z</time></trkpt><trkpt lat="41.74664813738744" lon="15.830592540113328"><ele>676.0</ele><time>2026-04-14T15:26:57Z</time></trkpt><trkpt lat="41.74669282421405" lon="15.830485532091872"><ele>677.0</ele><time>2026-04-14T15:26:58Z</time></trkpt><trkpt lat="41.74670966255451" lon="15.830369998183409"><ele>678.0</ele><time>2026-04-14T15:27:01Z</time></trkpt><trkpt lat="41.74675288665673" lon="15.83027331711495"><ele>678.5999999999999</ele><time>2026-04-14T15:27:02Z</time></trkpt><trkpt lat="41.74679717561817" lon="15.830126094383507"><ele>679.1999999999999</ele><time>2026-04-14T15:27:03Z</time></trkpt><trkpt lat="41.74686649093447" lon="15.829971724286711"><ele>679.8</ele><time>2026-04-14T15:27:04Z</time></trkpt><trkpt lat="41.7469110798063" lon="15.829894471447696"><ele>680.4</ele><time>2026-04-14T15:27:05Z</time></trkpt><trkpt lat="41.74698403712574" lon="15.829789170455236"><ele>681.0</ele><time>2026-04-14T15:27:06Z</time></trkpt><trkpt lat="41.74704330697629" lon="15.829635174926521"><ele>680.5</ele><time>2026-04-14T15:27:07Z</time></trkpt><trkpt lat="41.74710810181789" lon="15.829447751966603"><ele>680.0</ele><time>2026-04-14T15:27:09Z</time></trkpt><trkpt lat="41.7471808259032" lon="15.829433823957894"><ele>679.5</ele><time>2026-04-14T15:27:14Z</time></trkpt><trkpt lat="41.74722668904928" lon="15.829367427226183"><ele>679.0</ele><time>2026-04-14T15:27:15Z</time></trkpt><trkpt lat="41.747218424033804" lon="15.829281744751711"><ele>678.5</ele><time>2026-04-14T15:27:16Z</time></trkpt><trkpt lat="41.74725831471147" lon="15.829187047199058"><ele>678.0</ele><time>2026-04-14T15:27:18Z</time></trkpt><trkpt lat="41.74731159971625" lon="15.829078107509588"><ele>678.0</ele><time>2026-04-14T15:27:20Z</time></trkpt><trkpt lat="41.747352490980575" lon="15.828953950069973"><ele>678.0</ele><time>2026-04-14T15:27:22Z</time></trkpt><trkpt lat="41.74737568615373" lon="15.828851594399529"><ele>678.0</ele><time>2026-04-14T15:27:25Z</time></trkpt><trkpt lat="41.74740698252256" lon="15.828726739312717"><ele>678.0</ele><time>2026-04-14T15:27:28Z</time></trkpt><trkpt lat="41.747292860722176" lon="15.828529557910551"><ele>679.2</ele><time>2026-04-14T15:27:30Z</time></trkpt><trkpt lat="41.747334799394864" lon="15.828456601940513"><ele>680.4</ele><time>2026-04-14T15:27:31Z</time></trkpt><trkpt lat="41.74734737374934" lon="15.828355271576198"><ele>681.6</ele><time>2026-04-14T15:27:32Z</time></trkpt><trkpt lat="41.74732374179372" lon="15.828150926538607"><ele>682.8000000000001</ele><time>2026-04-14T15:27:34Z</time></trkpt><trkpt lat="41.74729434552681" lon="15.828055559016564"><ele>684.0</ele><time>2026-04-14T15:27:35Z</time></trkpt><trkpt lat="41.74727457271452" lon="15.827900055798057"><ele>684.0</ele><time>2026-04-14T15:27:37Z</time></trkpt><trkpt lat="41.74731005343735" lon="15.827763159589548"><ele>684.0</ele><time>2026-04-14T15:27:39Z</time></trkpt><trkpt lat="41.74725449438898" lon="15.827722264648374"><ele>684.0</ele><time>2026-04-14T15:27:41Z</time></trkpt><trkpt lat="41.74713747913594" lon="15.82766325609437"><ele>684.0</ele><time>2026-04-14T15:27:43Z</time></trkpt><trkpt lat="41.74708260221194" lon="15.827557016215293"><ele>684.0</ele><time>2026-04-14T15:27:47Z</time></trkpt><trkpt lat="41.747086273919585" lon="15.827339216525202"><ele>685.1666666666666</ele><time>2026-04-14T15:27:48Z</time></trkpt><trkpt lat="41.74705669414229" lon="15.827242681524806"><ele>686.3333333333334</ele><time>2026-04-14T15:27:50Z</time></trkpt><trkpt lat="41.74702790779208" lon="15.82714148847495"><ele>687.5</ele><time>2026-04-14T15:27:52Z</time></trkpt><trkpt lat="41.74701113690445" lon="15.827035134614245"><ele>688.6666666666667</ele><time>2026-04-14T15:27:55Z</time></trkpt><trkpt lat="41.74701683761692" lon="15.826893338406071"><ele>689.8333333333334</ele><time>2026-04-14T15:27:57Z</time></trkpt><trkpt lat="41.74698213069815" lon="15.826785563985993"><ele>691.0</ele><time>2026-04-14T15:27:59Z</time></trkpt><trkpt lat="41.74695704057879" lon="15.826643363161189"><ele>691.8</ele><time>2026-04-14T15:28:01Z</time></trkpt><trkpt lat="41.74689434872902" lon="15.826576903726854"><ele>692.5999999999999</ele><time>2026-04-14T15:28:02.999Z</time></trkpt><trkpt lat="41.746917668145706" lon="15.826487098726783"><ele>693.4</ele><time>2026-04-14T15:28:04.999Z</time></trkpt><trkpt lat="41.74686821512967" lon="15.826326954244646"><ele>694.2</ele><time>2026-04-14T15:28:05.999Z</time></trkpt><trkpt lat="41.74679770635618" lon="15.826240708987925"><ele>695.0</ele><time>2026-04-14T15:28:09.999Z</time></trkpt><trkpt lat="41.74673409782741" lon="15.826141171220817"><ele>697.3333333333333</ele><time>2026-04-14T15:28:12.999Z</time></trkpt><trkpt lat="41.74670988840531" lon="15.826026099398224"><ele>699.6666666666666</ele><time>2026-04-14T15:28:14.999Z</time></trkpt><trkpt lat="41.74671139210583" lon="15.82592587948586"><ele>702.0</ele><time>2026-04-14T15:28:15.999Z</time></trkpt><trkpt lat="41.74671067817521" lon="15.825812252492561"><ele>704.3333333333334</ele><time>2026-04-14T15:28:17.999Z</time></trkpt><trkpt lat="41.74669641242173" lon="15.825718329930346"><ele>706.6666666666667</ele><time>2026-04-14T15:28:18.999Z</time></trkpt><trkpt lat="41.746676363646856" lon="15.825611759765273"><ele>709.0</ele><time>2026-04-14T15:28:20.999Z</time></trkpt><trkpt lat="41.74670686486681" lon="15.825463606428684"><ele>710.0</ele><time>2026-04-14T15:28:22.999Z</time></trkpt><trkpt lat="41.746722455726804" lon="15.825359215461269"><ele>711.0</ele><time>2026-04-14T15:28:23.999Z</time></trkpt><trkpt lat="41.74671468324159" lon="15.825258299294774"><ele>712.0</ele><time>2026-04-14T15:28:24.999Z</time></trkpt><trkpt lat="41.746695588378685" lon="15.8251646645575"><ele>713.0</ele><time>2026-04-14T15:28:25.999Z</time></trkpt><trkpt lat="41.746620981162685" lon="15.82510210876728"><ele>714.0</ele><time>2026-04-14T15:28:28.999Z</time></trkpt><trkpt lat="41.746542934230945" lon="15.825072115468272"><ele>715.0</ele><time>2026-04-14T15:28:32.999Z</time></trkpt><trkpt lat="41.746129134306926" lon="15.823513480873702"><ele>717.3333333333334</ele><time>2026-04-14T15:28:35.999Z</time></trkpt><trkpt lat="41.74609636378402" lon="15.823434564351778"><ele>719.6666666666667</ele><time>2026-04-14T15:28:37.999Z</time></trkpt><trkpt lat="41.746034690540526" lon="15.823467255427728"><ele>722.0</ele><time>2026-04-14T15:28:38.999Z</time></trkpt><trkpt lat="41.745951273925336" lon="15.823481565789324"><ele>724.3333333333334</ele><time>2026-04-14T15:28:39.999Z</time></trkpt><trkpt lat="41.745820027265225" lon="15.823502089853504"><ele>726.6666666666666</ele><time>2026-04-14T15:28:41Z</time></trkpt><trkpt lat="41.745740626226905" lon="15.82350611256172"><ele>729.0</ele><time>2026-04-14T15:28:42Z</time></trkpt><trkpt lat="41.74566134584359" lon="15.823482519158377"><ele>730.2</ele><time>2026-04-14T15:28:43Z</time></trkpt><trkpt lat="41.74559917700117" lon="15.823398668455962"><ele>731.4000000000001</ele><time>2026-04-14T15:28:45Z</time></trkpt><trkpt lat="41.745539793864836" lon="15.823277798733045"><ele>732.6</ele><time>2026-04-14T15:28:47Z</time></trkpt><trkpt lat="41.74546178954302" lon="15.823180947114068"><ele>733.8</ele><time>2026-04-14T15:28:50Z</time></trkpt><trkpt lat="41.74535789789989" lon="15.82322389647811"><ele>735.0</ele><time>2026-04-14T15:28:53Z</time></trkpt><trkpt lat="41.74520687658698" lon="15.82323316228166"><ele>740.6666666666666</ele><time>2026-04-14T15:28:54Z</time></trkpt><trkpt lat="41.74501137828995" lon="15.823211663381716"><ele>746.3333333333333</ele><time>2026-04-14T15:28:55Z</time></trkpt><trkpt lat="41.74488679747625" lon="15.823201652344096"><ele>752.0</ele><time>2026-04-14T15:28:56Z</time></trkpt><trkpt lat="41.74474155066699" lon="15.823138542408996"><ele>752.0</ele><time>2026-04-14T15:28:57Z</time></trkpt><trkpt lat="41.744650266073435" lon="15.823093575712422"><ele>752.0</ele><time>2026-04-14T15:28:58Z</time></trkpt><trkpt lat="41.74457202780157" lon="15.823100126017277"><ele>752.0</ele><time>2026-04-14T15:28:59Z</time></trkpt><trkpt lat="41.74443803676179" lon="15.823159864487188"><ele>752.0</ele><time>2026-04-14T15:29:00Z</time></trkpt><trkpt lat="41.74435798309764" lon="15.823100023380517"><ele>752.0</ele><time>2026-04-14T15:29:01Z</time></trkpt><trkpt lat="41.74427677344523" lon="15.82307827069174"><ele>759.0</ele><time>2026-04-14T15:29:02Z</time></trkpt><trkpt lat="41.74432446067139" lon="15.82301805685394"><ele>766.0</ele><time>2026-04-14T15:29:03Z</time></trkpt><trkpt lat="41.7437137244658" lon="15.822871578872038"><ele>766.0</ele><time>2026-04-14T15:29:08.528Z</time></trkpt><trkpt lat="41.743637481033886" lon="15.823005782702888"><ele>766.0</ele><time>2026-04-14T15:29:23Z</time></trkpt><trkpt lat="41.74357091516459" lon="15.823110004558231"><ele>766.0</ele><time>2026-04-14T15:29:25Z</time></trkpt><trkpt lat="41.743503790589216" lon="15.823190548619165"><ele>766.0</ele><time>2026-04-14T15:29:27Z</time></trkpt><trkpt lat="41.74345822508422" lon="15.823275116851413"><ele>766.0</ele><time>2026-04-14T15:29:28Z</time></trkpt><trkpt lat="41.743418789282785" lon="15.823343386397296"><ele>767.1999999999999</ele><time>2026-04-14T15:29:29Z</time></trkpt><trkpt lat="41.743388164615624" lon="15.823446319051893"><ele>768.4</ele><time>2026-04-14T15:29:31Z</time></trkpt><trkpt lat="41.743385081714976" lon="15.823561880151235"><ele>769.6</ele><time>2026-04-14T15:29:32Z</time></trkpt><trkpt lat="41.74336305554478" lon="15.823725859709157"><ele>770.8</ele><time>2026-04-14T15:29:33Z</time></trkpt><trkpt lat="41.74334310929701" lon="15.8238720822405"><ele>772.0</ele><time>2026-04-14T15:29:34Z</time></trkpt><trkpt lat="41.74329740065194" lon="15.824002664635989"><ele>773.25</ele><time>2026-04-14T15:29:35Z</time></trkpt><trkpt lat="41.74318477367047" lon="15.82429821875612"><ele>774.5</ele><time>2026-04-14T15:29:36Z</time></trkpt><trkpt lat="41.7431270812925" lon="15.82445203124028"><ele>775.75</ele><time>2026-04-14T15:29:37Z</time></trkpt><trkpt lat="41.74309221698911" lon="15.824524671196611"><ele>777.0</ele><time>2026-04-14T15:29:38Z</time></trkpt><trkpt lat="41.74303660044587" lon="15.82467107463382"><ele>778.4000000000001</ele><time>2026-04-14T15:29:39Z</time></trkpt><trkpt lat="41.74300449339719" lon="15.824819705292356"><ele>779.8000000000001</ele><time>2026-04-14T15:29:40Z</time></trkpt><trkpt lat="41.742922245133244" lon="15.824908692114446"><ele>781.2</ele><time>2026-04-14T15:29:41Z</time></trkpt><trkpt lat="41.74286895783922" lon="15.82481423854443"><ele>782.6</ele><time>2026-04-14T15:29:42Z</time></trkpt><trkpt lat="41.74287333680906" lon="15.824939378573758"><ele>784.0</ele><time>2026-04-14T15:29:43Z</time></trkpt><trkpt lat="41.742855214332614" lon="15.825035213878724"><ele>784.0</ele><time>2026-04-14T15:29:45Z</time></trkpt><trkpt lat="41.74276783923597" lon="15.825076948797841"><ele>784.0</ele><time>2026-04-14T15:29:48Z</time></trkpt><trkpt lat="41.74272603982068" lon="15.825195626804538"><ele>784.0</ele><time>2026-04-14T15:29:51Z</time></trkpt><trkpt lat="41.74266934395164" lon="15.825278073755117"><ele>784.0</ele><time>2026-04-14T15:29:54Z</time></trkpt><trkpt lat="41.74263036431708" lon="15.825367386925684"><ele>784.0</ele><time>2026-04-14T15:29:56Z</time></trkpt><trkpt lat="41.742662364077525" lon="15.825498265219075"><ele>785.6666666666666</ele><time>2026-04-14T15:29:59Z</time></trkpt><trkpt lat="41.74263792047754" lon="15.825579366575948"><ele>787.3333333333333</ele><time>2026-04-14T15:30:02Z</time></trkpt><trkpt lat="41.74257383194997" lon="15.82559494687839"><ele>789.0</ele><time>2026-04-14T15:30:04Z</time></trkpt><trkpt lat="41.74248697983086" lon="15.825644280608929"><ele>790.6666666666667</ele><time>2026-04-14T15:30:06Z</time></trkpt><trkpt lat="41.742411533940725" lon="15.825684110084833"><ele>792.3333333333334</ele><time>2026-04-14T15:30:08Z</time></trkpt><trkpt lat="41.742334039636674" lon="15.825711322456922"><ele>794.0</ele><time>2026-04-14T15:30:10Z</time></trkpt><trkpt lat="41.742255598185615" lon="15.825760333738444"><ele>794.0</ele><time>2026-04-14T15:30:12Z</time></trkpt><trkpt lat="41.74218553856216" lon="15.825799279913324"><ele>794.0</ele><time>2026-04-14T15:30:14Z</time></trkpt><trkpt lat="41.74204438424195" lon="15.825840172964975"><ele>794.0</ele><time>2026-04-14T15:30:15Z</time></trkpt><trkpt lat="41.741932823259816" lon="15.825798818471634"><ele>794.0</ele><time>2026-04-14T15:30:16Z</time></trkpt><trkpt lat="41.74182830036407" lon="15.825755198435298"><ele>794.0</ele><time>2026-04-14T15:30:18Z</time></trkpt><trkpt lat="41.741761991216" lon="15.825769327980073"><ele>795.4000000000001</ele><time>2026-04-14T15:30:19Z</time></trkpt><trkpt lat="41.741685167718984" lon="15.825732880659373"><ele>796.8</ele><time>2026-04-14T15:30:20Z</time></trkpt><trkpt lat="41.741602763040625" lon="15.825599872052438"><ele>798.2</ele><time>2026-04-14T15:30:22Z</time></trkpt><trkpt lat="41.74154731890325" lon="15.825648055642242"><ele>799.5999999999999</ele><time>2026-04-14T15:30:23Z</time></trkpt><trkpt lat="41.741387434412296" lon="15.825615667063424"><ele>801.0</ele><time>2026-04-14T15:30:25Z</time></trkpt><trkpt lat="41.74129287904161" lon="15.825592207991194"><ele>801.0</ele><time>2026-04-14T15:30:26Z</time></trkpt><trkpt lat="41.741207664086666" lon="15.82557580617304"><ele>801.0</ele><time>2026-04-14T15:30:27Z</time></trkpt><trkpt lat="41.74114193348555" lon="15.825594050597068"><ele>801.0</ele><time>2026-04-14T15:30:28Z</time></trkpt><trkpt lat="41.74106419199948" lon="15.825574531791313"><ele>801.0</ele><time>2026-04-14T15:30:29Z</time></trkpt><trkpt lat="41.74099560236704" lon="15.825536147376761"><ele>801.0</ele><time>2026-04-14T15:30:29.999Z</time></trkpt><trkpt lat="41.74091827638692" lon="15.825485520142696"><ele>801.0</ele><time>2026-04-14T15:30:30.999Z</time></trkpt><trkpt lat="41.740842143917135" lon="15.825448585115563"><ele>801.8333333333334</ele><time>2026-04-14T15:30:31.999Z</time></trkpt><trkpt lat="41.740760099579575" lon="15.825421641528896"><ele>802.6666666666667</ele><time>2026-04-14T15:30:32.999Z</time></trkpt><trkpt lat="41.740683036184656" lon="15.825395328226522"><ele>803.5</ele><time>2026-04-14T15:30:33.999Z</time></trkpt><trkpt lat="41.74061867996108" lon="15.825367075670048"><ele>804.3333333333334</ele><time>2026-04-14T15:30:34.999Z</time></trkpt><trkpt lat="41.74055397620934" lon="15.82532197978403"><ele>805.1666666666667</ele><time>2026-04-14T15:30:35.999Z</time></trkpt><trkpt lat="41.740478847549774" lon="15.825263318460786"><ele>806.0</ele><time>2026-04-14T15:30:36.999Z</time></trkpt><trkpt lat="41.740403784491896" lon="15.825221732662998"><ele>806.0000000000001</ele><time>2026-04-14T15:30:37.999Z</time></trkpt><trkpt lat="41.74034189419927" lon="15.825158253813068"><ele>806.0</ele><time>2026-04-14T15:30:38.999Z</time></trkpt><trkpt lat="41.740281394838526" lon="15.825087761098041"><ele>806.0</ele><time>2026-04-14T15:30:39.999Z</time></trkpt><trkpt lat="41.740218236553964" lon="15.825036062057908"><ele>806.0</ele><time>2026-04-14T15:30:40.999Z</time></trkpt><trkpt lat="41.740156458984515" lon="15.824988862437623"><ele>806.0000000000001</ele><time>2026-04-14T15:30:41.999Z</time></trkpt><trkpt lat="41.74009891636813" lon="15.824943481040597"><ele>806.0</ele><time>2026-04-14T15:30:42.999Z</time></trkpt><trkpt lat="41.74001801576657" lon="15.824854092912803"><ele>805.3333333333334</ele><time>2026-04-14T15:30:44.999Z</time></trkpt><trkpt lat="41.739965921744" lon="15.82474538624659"><ele>804.6666666666667</ele><time>2026-04-14T15:30:46.999Z</time></trkpt><trkpt lat="41.73989162336453" lon="15.824686561707106"><ele>804.0</ele><time>2026-04-14T15:30:48.999Z</time></trkpt><trkpt lat="41.73983820439166" lon="15.82462110147207"><ele>803.3333333333333</ele><time>2026-04-14T15:30:50.999Z</time></trkpt><trkpt lat="41.73978718186525" lon="15.824541442972196"><ele>802.6666666666666</ele><time>2026-04-14T15:30:53.999Z</time></trkpt><trkpt lat="41.73976663225343" lon="15.824427108201583"><ele>802.0</ele><time>2026-04-14T15:30:56.999Z</time></trkpt><trkpt lat="41.739763440283376" lon="15.82433954255546"><ele>801.3333333333333</ele><time>2026-04-14T15:30:59.999Z</time></trkpt><trkpt lat="41.739704077040265" lon="15.824247030824818"><ele>800.6666666666666</ele><time>2026-04-14T15:31:03.999Z</time></trkpt><trkpt lat="41.73971891110081" lon="15.82413093540719"><ele>800.0</ele><time>2026-04-14T15:31:06.999Z</time></trkpt><trkpt lat="41.73972867132081" lon="15.824010618735079"><ele>799.3333333333333</ele><time>2026-04-14T15:31:08.999Z</time></trkpt><trkpt lat="41.73968699991374" lon="15.8239382414806"><ele>798.6666666666666</ele><time>2026-04-14T15:31:10.999Z</time></trkpt><trkpt lat="41.73961969052537" lon="15.82392107087105"><ele>798.0</ele><time>2026-04-14T15:31:12.999Z</time></trkpt><trkpt lat="41.73950355519481" lon="15.823841714399133"><ele>798.0</ele><time>2026-04-14T15:31:14.999Z</time></trkpt><trkpt lat="41.73944519195383" lon="15.823760316187201"><ele>798.0</ele><time>2026-04-14T15:31:15.999Z</time></trkpt><trkpt lat="41.73940405801348" lon="15.823636082895185"><ele>798.0</ele><time>2026-04-14T15:31:16.999Z</time></trkpt><trkpt lat="41.739373731768204" lon="15.823552443494142"><ele>798.0</ele><time>2026-04-14T15:31:17.999Z</time></trkpt><trkpt lat="41.73933298742031" lon="15.823458670779578"><ele>798.0</ele><time>2026-04-14T15:31:18.999Z</time></trkpt><trkpt lat="41.73928932456123" lon="15.823360266688212"><ele>798.0</ele><time>2026-04-14T15:31:19.999Z</time></trkpt><trkpt lat="41.739239504169525" lon="15.823246295554888"><ele>795.5999999999999</ele><time>2026-04-14T15:31:21Z</time></trkpt><trkpt lat="41.739176874492436" lon="15.82312735425099"><ele>793.1999999999999</ele><time>2026-04-14T15:31:22Z</time></trkpt><trkpt lat="41.73911953822471" lon="15.823007923284134"><ele>790.8</ele><time>2026-04-14T15:31:23Z</time></trkpt><trkpt lat="41.73906539639859" lon="15.822893841250426"><ele>788.4</ele><time>2026-04-14T15:31:24Z</time></trkpt><trkpt lat="41.73901396975958" lon="15.822756377107027"><ele>786.0</ele><time>2026-04-14T15:31:25Z</time></trkpt><trkpt lat="41.73895562359291" lon="15.822663648537228"><ele>785.5714285714287</ele><time>2026-04-14T15:31:26Z</time></trkpt><trkpt lat="41.738899773419845" lon="15.82260370866517"><ele>785.1428571428571</ele><time>2026-04-14T15:31:27Z</time></trkpt><trkpt lat="41.738859743082806" lon="15.822538289614398"><ele>784.7142857142858</ele><time>2026-04-14T15:31:28Z</time></trkpt><trkpt lat="41.738824746411936" lon="15.822463636143123"><ele>784.2857142857143</ele><time>2026-04-14T15:31:29Z</time></trkpt><trkpt lat="41.73878116136536" lon="15.822381084181753"><ele>783.8571428571429</ele><time>2026-04-14T15:31:30Z</time></trkpt><trkpt lat="41.73872031979576" lon="15.822316329906329"><ele>783.4285714285714</ele><time>2026-04-14T15:31:31Z</time></trkpt><trkpt lat="41.73866517378709" lon="15.822231324683319"><ele>783.0</ele><time>2026-04-14T15:31:32Z</time></trkpt><trkpt lat="41.73861370478779" lon="15.822146078041516"><ele>780.8</ele><time>2026-04-14T15:31:33Z</time></trkpt><trkpt lat="41.738521668315485" lon="15.822036888729114"><ele>778.5999999999999</ele><time>2026-04-14T15:31:35Z</time></trkpt><trkpt lat="41.73848299045251" lon="15.821930586279978"><ele>776.4000000000001</ele><time>2026-04-14T15:31:36Z</time></trkpt><trkpt lat="41.73841656985836" lon="15.821836069630603"><ele>774.2</ele><time>2026-04-14T15:31:37Z</time></trkpt><trkpt lat="41.73835453204347" lon="15.821767745906518"><ele>772.0</ele><time>2026-04-14T15:31:38Z</time></trkpt><trkpt lat="41.738236151229245" lon="15.821742605316555"><ele>770.9999999999999</ele><time>2026-04-14T15:31:40Z</time></trkpt><trkpt lat="41.73815928313547" lon="15.821729055530179"><ele>770.0</ele><time>2026-04-14T15:31:42Z</time></trkpt><trkpt lat="41.738073950350824" lon="15.821739475411599"><ele>769.0</ele><time>2026-04-14T15:31:43Z</time></trkpt><trkpt lat="41.73796255003251" lon="15.821701809883688"><ele>768.0</ele><time>2026-04-14T15:31:45Z</time></trkpt><trkpt lat="41.73789681545199" lon="15.821705644761701"><ele>767.0</ele><time>2026-04-14T15:31:46Z</time></trkpt><trkpt lat="41.737822561432836" lon="15.82171699414905"><ele>766.0</ele><time>2026-04-14T15:31:47Z</time></trkpt><trkpt lat="41.73772680804136" lon="15.82172514153408"><ele>764.5999999999999</ele><time>2026-04-14T15:31:48Z</time></trkpt><trkpt lat="41.73764866981009" lon="15.821718303743443"><ele>763.2</ele><time>2026-04-14T15:31:49Z</time></trkpt><trkpt lat="41.73753881574586" lon="15.821701860431407"><ele>761.8</ele><time>2026-04-14T15:31:51Z</time></trkpt><trkpt lat="41.737450139849926" lon="15.82166380534253"><ele>760.4000000000001</ele><time>2026-04-14T15:31:53Z</time></trkpt><trkpt lat="41.73737358282263" lon="15.821591634625873"><ele>759.0</ele><time>2026-04-14T15:31:57Z</time></trkpt><trkpt lat="41.7372491254564" lon="15.821561667962182"><ele>759.0</ele><time>2026-04-14T15:32:01Z</time></trkpt><trkpt lat="41.73717395110446" lon="15.821619853093358"><ele>759.0</ele><time>2026-04-14T15:32:04Z</time></trkpt><trkpt lat="41.73709776537109" lon="15.821690499173636"><ele>759.0</ele><time>2026-04-14T15:32:07Z</time></trkpt><trkpt lat="41.737050983459355" lon="15.82176662456559"><ele>759.0</ele><time>2026-04-14T15:32:10Z</time></trkpt><trkpt lat="41.73700784121408" lon="15.821829074632527"><ele>759.0</ele><time>2026-04-14T15:32:14Z</time></trkpt><trkpt lat="41.73695054933982" lon="15.821920938988773"><ele>759.0</ele><time>2026-04-14T15:33:29.999Z</time></trkpt><trkpt lat="41.736892665528266" lon="15.82205000778807"><ele>757.8000000000001</ele><time>2026-04-14T15:33:31.999Z</time></trkpt><trkpt lat="41.73684713630482" lon="15.822171140909916"><ele>756.6</ele><time>2026-04-14T15:33:33.999Z</time></trkpt><trkpt lat="41.7368320198831" lon="15.822310243349682"><ele>755.4</ele><time>2026-04-14T15:33:35.999Z</time></trkpt><trkpt lat="41.73682774474954" lon="15.82243476563196"><ele>754.2</ele><time>2026-04-14T15:33:38Z</time></trkpt><trkpt lat="41.736804799502146" lon="15.822587533308052"><ele>753.0</ele><time>2026-04-14T15:33:40Z</time></trkpt><trkpt lat="41.73679180812485" lon="15.822692552101799"><ele>753.0</ele><time>2026-04-14T15:33:42Z</time></trkpt><trkpt lat="41.736786498067914" lon="15.82280375410491"><ele>753.0</ele><time>2026-04-14T15:33:44Z</time></trkpt><trkpt lat="41.7367740409863" lon="15.82290996349329"><ele>753.0</ele><time>2026-04-14T15:33:46Z</time></trkpt><trkpt lat="41.736684440265556" lon="15.822971367505499"><ele>753.0</ele><time>2026-04-14T15:33:48Z</time></trkpt><trkpt lat="41.7366530326682" lon="15.823050692598143"><ele>753.0</ele><time>2026-04-14T15:33:50Z</time></trkpt><trkpt lat="41.736565701991154" lon="15.823127511684937"><ele>753.0</ele><time>2026-04-14T15:33:52Z</time></trkpt><trkpt lat="41.736466537999654" lon="15.823183277564109"><ele>753.0</ele><time>2026-04-14T15:33:54Z</time></trkpt><trkpt lat="41.73637063287001" lon="15.823217378452341"><ele>753.0</ele><time>2026-04-14T15:33:55Z</time></trkpt><trkpt lat="41.73628807766307" lon="15.823199198947924"><ele>753.0</ele><time>2026-04-14T15:33:57Z</time></trkpt><trkpt lat="41.73615735145393" lon="15.823239519880977"><ele>753.0</ele><time>2026-04-14T15:33:59Z</time></trkpt><trkpt lat="41.736084502778844" lon="15.823254208333452"><ele>753.0</ele><time>2026-04-14T15:34:00Z</time></trkpt><trkpt lat="41.73599779028486" lon="15.823268338836947"><ele>750.0</ele><time>2026-04-14T15:34:01Z</time></trkpt><trkpt lat="41.73588735074842" lon="15.82319297180147"><ele>747.0</ele><time>2026-04-14T15:34:02Z</time></trkpt><trkpt lat="41.73582019434157" lon="15.823180419397355"><ele>744.0</ele><time>2026-04-14T15:34:03Z</time></trkpt><trkpt lat="41.735674408777065" lon="15.82315961938985"><ele>741.0</ele><time>2026-04-14T15:34:05Z</time></trkpt><trkpt lat="41.73559994349275" lon="15.823044038501692"><ele>741.0</ele><time>2026-04-14T15:34:07Z</time></trkpt><trkpt lat="41.73553278668079" lon="15.822958444068384"><ele>741.0</ele><time>2026-04-14T15:34:09Z</time></trkpt><trkpt lat="41.735475547848445" lon="15.822894885715929"><ele>741.0</ele><time>2026-04-14T15:34:12Z</time></trkpt><trkpt lat="41.73542359818664" lon="15.822828741399498"><ele>741.0</ele><time>2026-04-14T15:34:14Z</time></trkpt><trkpt lat="41.73539621955324" lon="15.822706448047791"><ele>741.0</ele><time>2026-04-14T15:34:16Z</time></trkpt><trkpt lat="41.73539003683346" lon="15.822591125696722"><ele>741.0</ele><time>2026-04-14T15:34:18Z</time></trkpt><trkpt lat="41.735369804841184" lon="15.822486718720565"><ele>740.5714285714286</ele><time>2026-04-14T15:34:21Z</time></trkpt><trkpt lat="41.73540617631669" lon="15.822417847763806"><ele>740.1428571428572</ele><time>2026-04-14T15:34:23Z</time></trkpt><trkpt lat="41.7353374964189" lon="15.822382001813807"><ele>739.7142857142858</ele><time>2026-04-14T15:34:26Z</time></trkpt><trkpt lat="41.735334896902835" lon="15.822282707644653"><ele>739.2857142857142</ele><time>2026-04-14T15:34:29.999Z</time></trkpt><trkpt lat="41.73532764036131" lon="15.822188328229895"><ele>738.8571428571429</ele><time>2026-04-14T15:34:36.999Z</time></trkpt><trkpt lat="41.73525966217113" lon="15.822153997203582"><ele>738.4285714285714</ele><time>2026-04-14T15:34:40.999Z</time></trkpt><trkpt lat="41.735187103587464" lon="15.822146559301471"><ele>738.0</ele><time>2026-04-14T15:34:43.999Z</time></trkpt><trkpt lat="41.73511607396642" lon="15.822150389415171"><ele>735.2</ele><time>2026-04-14T15:34:46.999Z</time></trkpt><trkpt lat="41.73504506028829" lon="15.82214125019039"><ele>732.4</ele><time>2026-04-14T15:34:48.999Z</time></trkpt><trkpt lat="41.734866215637524" lon="15.822130722633158"><ele>729.6</ele><time>2026-04-14T15:34:50.999Z</time></trkpt><trkpt lat="41.73479222666637" lon="15.822185287863423"><ele>726.8000000000001</ele><time>2026-04-14T15:34:51.999Z</time></trkpt><trkpt lat="41.73472343648547" lon="15.822181660656895"><ele>724.0</ele><time>2026-04-14T15:34:52.999Z</time></trkpt><trkpt lat="41.73465793144449" lon="15.822193186426714"><ele>724.0</ele><time>2026-04-14T15:34:53.999Z</time></trkpt><trkpt lat="41.734593431919706" lon="15.82220443898979"><ele>724.0</ele><time>2026-04-14T15:34:54.999Z</time></trkpt><trkpt lat="41.73450008081046" lon="15.822188705459906"><ele>724.0</ele><time>2026-04-14T15:34:57.999Z</time></trkpt><trkpt lat="41.73441049619258" lon="15.822189142736523"><ele>724.0</ele><time>2026-04-14T15:34:59.999Z</time></trkpt><trkpt lat="41.73431101114982" lon="15.822203027646442"><ele>724.0</ele><time>2026-04-14T15:35:01.999Z</time></trkpt><trkpt lat="41.73424993171316" lon="15.82226555286793"><ele>724.0</ele><time>2026-04-14T15:35:05.999Z</time></trkpt><trkpt lat="41.734168035580154" lon="15.822317097666298"><ele>723.5</ele><time>2026-04-14T15:35:08.999Z</time></trkpt><trkpt lat="41.73410395941637" lon="15.82240784540162"><ele>723.0</ele><time>2026-04-14T15:35:11.999Z</time></trkpt><trkpt lat="41.73405479157108" lon="15.822477060156226"><ele>722.5</ele><time>2026-04-14T15:35:13.999Z</time></trkpt><trkpt lat="41.73397745966215" lon="15.82257789031346"><ele>722.0</ele><time>2026-04-14T15:35:15.999Z</time></trkpt><trkpt lat="41.733896407403144" lon="15.822658834807944"><ele>721.5</ele><time>2026-04-14T15:35:18.999Z</time></trkpt><trkpt lat="41.73384579571154" lon="15.822731477447613"><ele>721.0</ele><time>2026-04-14T15:35:19.999Z</time></trkpt><trkpt lat="41.733692629736055" lon="15.822802782257442"><ele>721.0</ele><time>2026-04-14T15:35:23.999Z</time></trkpt><trkpt lat="41.73360223894212" lon="15.822894730445547"><ele>721.0</ele><time>2026-04-14T15:35:25.999Z</time></trkpt><trkpt lat="41.73351853322482" lon="15.822938858754735"><ele>721.0</ele><time>2026-04-14T15:35:26.999Z</time></trkpt><trkpt lat="41.73340397670239" lon="15.822937764602349"><ele>721.0</ele><time>2026-04-14T15:35:27.999Z</time></trkpt><trkpt lat="41.733310986447016" lon="15.822948226794065"><ele>721.0</ele><time>2026-04-14T15:35:28.999Z</time></trkpt><trkpt lat="41.73319899636157" lon="15.822929820786161"><ele>717.75</ele><time>2026-04-14T15:35:29.999Z</time></trkpt><trkpt lat="41.73304591640918" lon="15.822900948555116"><ele>714.5</ele><time>2026-04-14T15:35:31.999Z</time></trkpt><trkpt lat="41.73294579384932" lon="15.822930305179359"><ele>711.25</ele><time>2026-04-14T15:35:34Z</time></trkpt><trkpt lat="41.732856883432056" lon="15.8229066047289"><ele>708.0</ele><time>2026-04-14T15:35:35Z</time></trkpt><trkpt lat="41.73273266287166" lon="15.822926695939426"><ele>706.1666666666666</ele><time>2026-04-14T15:35:40Z</time></trkpt><trkpt lat="41.7326676385886" lon="15.822932527835695"><ele>704.3333333333334</ele><time>2026-04-14T15:35:42Z</time></trkpt><trkpt lat="41.73256036147835" lon="15.822963830164316"><ele>702.5</ele><time>2026-04-14T15:35:43Z</time></trkpt><trkpt lat="41.73247749408521" lon="15.822988826585608"><ele>700.6666666666667</ele><time>2026-04-14T15:35:44Z</time></trkpt><trkpt lat="41.73240232077661" lon="15.823010414523134"><ele>698.8333333333334</ele><time>2026-04-14T15:35:45Z</time></trkpt><trkpt lat="41.73231035760645" lon="15.8230264315174"><ele>697.0</ele><time>2026-04-14T15:35:46Z</time></trkpt><trkpt lat="41.73240575441136" lon="15.822993944736144"><ele>697.0</ele><time>2026-04-14T15:35:47Z</time></trkpt><trkpt lat="41.732322006135625" lon="15.823043646408614"><ele>697.0</ele><time>2026-04-14T15:35:49Z</time></trkpt><trkpt lat="41.73224780791185" lon="15.82306366588421"><ele>697.0</ele><time>2026-04-14T15:35:50Z</time></trkpt><trkpt lat="41.73217462650218" lon="15.823076878247667"><ele>697.0</ele><time>2026-04-14T15:35:51Z</time></trkpt><trkpt lat="41.73209847923978" lon="15.823104822131103"><ele>697.0</ele><time>2026-04-14T15:35:52Z</time></trkpt><trkpt lat="41.732039401367565" lon="15.82301396447923"><ele>697.0</ele><time>2026-04-14T15:35:55Z</time></trkpt><trkpt lat="41.73198459306611" lon="15.82310091922494"><ele>697.0</ele><time>2026-04-14T15:35:57Z</time></trkpt><trkpt lat="41.73190805420469" lon="15.823178295984185"><ele>697.0</ele><time>2026-04-14T15:35:59Z</time></trkpt><trkpt lat="41.7318316193921" lon="15.82330698634995"><ele>697.0</ele><time>2026-04-14T15:36:01Z</time></trkpt><trkpt lat="41.73176046791591" lon="15.823427541898203"><ele>697.0</ele><time>2026-04-14T15:36:02Z</time></trkpt><trkpt lat="41.73170156982767" lon="15.82351224823463"><ele>697.0</ele><time>2026-04-14T15:36:03Z</time></trkpt><trkpt lat="41.73161637579473" lon="15.823668552845024"><ele>697.0</ele><time>2026-04-14T15:36:04Z</time></trkpt><trkpt lat="41.73148204774208" lon="15.82372407394768"><ele>697.0</ele><time>2026-04-14T15:36:05Z</time></trkpt><trkpt lat="41.73136839853422" lon="15.823828778109641"><ele>697.0</ele><time>2026-04-14T15:36:06Z</time></trkpt><trkpt lat="41.731257154219726" lon="15.823900860381245"><ele>697.0</ele><time>2026-04-14T15:36:07Z</time></trkpt><trkpt lat="41.731128930146106" lon="15.82397424496578"><ele>692.25</ele><time>2026-04-14T15:36:08Z</time></trkpt><trkpt lat="41.73097354721095" lon="15.823988950365026"><ele>687.5</ele><time>2026-04-14T15:36:09Z</time></trkpt><trkpt lat="41.73083593947441" lon="15.824024060328425"><ele>682.75</ele><time>2026-04-14T15:36:10Z</time></trkpt><trkpt lat="41.73076740434805" lon="15.824073873479861"><ele>678.0</ele><time>2026-04-14T15:36:11Z</time></trkpt><trkpt lat="41.73062609591474" lon="15.824076269175313"><ele>678.0</ele><time>2026-04-14T15:36:12Z</time></trkpt><trkpt lat="41.73053918218918" lon="15.824090241531225"><ele>678.0</ele><time>2026-04-14T15:36:13Z</time></trkpt><trkpt lat="41.730375858504225" lon="15.82410248440395"><ele>678.0</ele><time>2026-04-14T15:36:14Z</time></trkpt><trkpt lat="41.7302736875126" lon="15.824121369213103"><ele>678.0</ele><time>2026-04-14T15:36:15Z</time></trkpt><trkpt lat="41.73017086248053" lon="15.824119598594603"><ele>674.8</ele><time>2026-04-14T15:36:16Z</time></trkpt><trkpt lat="41.7300840819547" lon="15.824091959636629"><ele>671.5999999999999</ele><time>2026-04-14T15:36:17Z</time></trkpt><trkpt lat="41.72999272899003" lon="15.824093936087445"><ele>668.4000000000001</ele><time>2026-04-14T15:36:18Z</time></trkpt><trkpt lat="41.72991869919492" lon="15.82408275632898"><ele>665.2</ele><time>2026-04-14T15:36:19Z</time></trkpt><trkpt lat="41.729778993952905" lon="15.82412486402979"><ele>662.0</ele><time>2026-04-14T15:36:21Z</time></trkpt><trkpt lat="41.72969328108792" lon="15.824176203098745"><ele>662.0</ele><time>2026-04-14T15:36:23Z</time></trkpt><trkpt lat="41.72964420451783" lon="15.824252542614278"><ele>662.0</ele><time>2026-04-14T15:36:25Z</time></trkpt><trkpt lat="41.729643828390024" lon="15.824354051474245"><ele>662.0</ele><time>2026-04-14T15:36:29Z</time></trkpt><trkpt lat="41.72957834862361" lon="15.824516311633708"><ele>662.0</ele><time>2026-04-14T15:36:31Z</time></trkpt><trkpt lat="41.729567242739776" lon="15.824600066794467"><ele>662.0</ele><time>2026-04-14T15:36:32Z</time></trkpt><trkpt lat="41.729479430038225" lon="15.824739416839318"><ele>662.1666666666666</ele><time>2026-04-14T15:36:34Z</time></trkpt><trkpt lat="41.72941973190395" lon="15.824838405145382"><ele>662.3333333333333</ele><time>2026-04-14T15:36:35Z</time></trkpt><trkpt lat="41.72936317594858" lon="15.824921080182742"><ele>662.5</ele><time>2026-04-14T15:36:36Z</time></trkpt><trkpt lat="41.72930765171382" lon="15.824991484335564"><ele>662.6666666666666</ele><time>2026-04-14T15:36:37Z</time></trkpt><trkpt lat="41.72925446121099" lon="15.82507682077472"><ele>662.8333333333334</ele><time>2026-04-14T15:36:38Z</time></trkpt><trkpt lat="41.729250499174576" lon="15.825184662137053"><ele>663.0</ele><time>2026-04-14T15:36:39Z</time></trkpt><trkpt lat="41.72925858257774" lon="15.825339854673311"><ele>660.0</ele><time>2026-04-14T15:36:40Z</time></trkpt><trkpt lat="41.72917468155675" lon="15.825471686965262"><ele>657.0</ele><time>2026-04-14T15:36:41Z</time></trkpt><trkpt lat="41.729169191342926" lon="15.825595358082865"><ele>654.0</ele><time>2026-04-14T15:36:42Z</time></trkpt><trkpt lat="41.72910348167927" lon="15.825721026479393"><ele>651.0</ele><time>2026-04-14T15:36:43Z</time></trkpt><trkpt lat="41.72903831835547" lon="15.825833071245748"><ele>648.0</ele><time>2026-04-14T15:36:44Z</time></trkpt><trkpt lat="41.72898546892835" lon="15.825890276177327"><ele>648.0</ele><time>2026-04-14T15:36:45Z</time></trkpt><trkpt lat="41.72891940081484" lon="15.825929945131968"><ele>648.0</ele><time>2026-04-14T15:36:46Z</time></trkpt><trkpt lat="41.728838267867474" lon="15.82605713619357"><ele>648.0</ele><time>2026-04-14T15:36:48Z</time></trkpt><trkpt lat="41.728851902420416" lon="15.826142077215042"><ele>648.0</ele><time>2026-04-14T15:36:51Z</time></trkpt><trkpt lat="41.72882784777153" lon="15.82622921173041"><ele>648.0</ele><time>2026-04-14T15:36:52Z</time></trkpt><trkpt lat="41.728750936504575" lon="15.826263186387814"><ele>648.0</ele><time>2026-04-14T15:36:54Z</time></trkpt><trkpt lat="41.728732742628" lon="15.82636484656129"><ele>648.0</ele><time>2026-04-14T15:36:56Z</time></trkpt><trkpt lat="41.72868582359511" lon="15.826459520679359"><ele>648.0</ele><time>2026-04-14T15:36:57Z</time></trkpt><trkpt lat="41.72869416803437" lon="15.826574833188051"><ele>648.0</ele><time>2026-04-14T15:37:00Z</time></trkpt><trkpt lat="41.72870869091719" lon="15.826700662127559"><ele>648.0</ele><time>2026-04-14T15:37:03Z</time></trkpt><trkpt lat="41.7287212059379" lon="15.826852874710916"><ele>648.0</ele><time>2026-04-14T15:37:06Z</time></trkpt><trkpt lat="41.72878094199491" lon="15.826887850706546"><ele>648.0</ele><time>2026-04-14T15:37:08Z</time></trkpt><trkpt lat="41.7286560540051" lon="15.82701645084374"><ele>648.0</ele><time>2026-04-14T15:37:10Z</time></trkpt><trkpt lat="41.728578635704956" lon="15.82702545310848"><ele>648.0</ele><time>2026-04-14T15:37:13Z</time></trkpt><trkpt lat="41.7286081377698" lon="15.827127590471108"><ele>648.0</ele><time>2026-04-14T15:37:16Z</time></trkpt><trkpt lat="41.72859113688263" lon="15.827223406251381"><ele>648.0</ele><time>2026-04-14T15:37:20Z</time></trkpt><trkpt lat="41.72858730085775" lon="15.827335522011184"><ele>648.0</ele><time>2026-04-14T15:37:24Z</time></trkpt><trkpt lat="41.72859462357999" lon="15.827424823592294"><ele>648.0</ele><time>2026-04-14T15:37:26.999Z</time></trkpt><trkpt lat="41.728529790251336" lon="15.827481710918672"><ele>646.5999999999999</ele><time>2026-04-14T15:37:29.999Z</time></trkpt><trkpt lat="41.72855850019043" lon="15.827574323034263"><ele>645.1999999999999</ele><time>2026-04-14T15:37:32.999Z</time></trkpt><trkpt lat="41.72849604597468" lon="15.827609973274274"><ele>643.8</ele><time>2026-04-14T15:37:36.999Z</time></trkpt><trkpt lat="41.72853258228192" lon="15.827684237298495"><ele>642.4</ele><time>2026-04-14T15:37:37.999Z</time></trkpt><trkpt lat="41.7284966959069" lon="15.82783172526781"><ele>641.0</ele><time>2026-04-14T15:37:40Z</time></trkpt><trkpt lat="41.72839076013889" lon="15.827970408302864"><ele>640.1999999999999</ele><time>2026-04-14T15:37:42Z</time></trkpt><trkpt lat="41.72829348783573" lon="15.828043349393866"><ele>639.4</ele><time>2026-04-14T15:37:43Z</time></trkpt><trkpt lat="41.72823604579758" lon="15.828109050332719"><ele>638.6</ele><time>2026-04-14T15:37:44Z</time></trkpt><trkpt lat="41.72816780719869" lon="15.828182996079446"><ele>637.8</ele><time>2026-04-14T15:37:45Z</time></trkpt><trkpt lat="41.72812209881017" lon="15.82824936852975"><ele>637.0</ele><time>2026-04-14T15:37:46Z</time></trkpt><trkpt lat="41.72803610286396" lon="15.828373007002934"><ele>637.0</ele><time>2026-04-14T15:37:48Z</time></trkpt><trkpt lat="41.72798756536005" lon="15.828449359992968"><ele>637.0</ele><time>2026-04-14T15:37:49Z</time></trkpt><trkpt lat="41.7279075916052" lon="15.82852008730356"><ele>637.0</ele><time>2026-04-14T15:37:50Z</time></trkpt><trkpt lat="41.727765201653945" lon="15.828550434749319"><ele>637.0</ele><time>2026-04-14T15:37:51Z</time></trkpt><trkpt lat="41.72764854979377" lon="15.828558932507233"><ele>637.0</ele><time>2026-04-14T15:37:52Z</time></trkpt><trkpt lat="41.72757377742362" lon="15.828578038932813"><ele>636.5</ele><time>2026-04-14T15:37:53Z</time></trkpt><trkpt lat="41.727512466464525" lon="15.828611618664171"><ele>636.0</ele><time>2026-04-14T15:37:54Z</time></trkpt><trkpt lat="41.727441640770856" lon="15.828661923327198"><ele>635.5</ele><time>2026-04-14T15:37:55Z</time></trkpt><trkpt lat="41.72735480203641" lon="15.828710363605966"><ele>635.0</ele><time>2026-04-14T15:37:56Z</time></trkpt><trkpt lat="41.72727644507361" lon="15.828811030200741"><ele>634.5</ele><time>2026-04-14T15:37:57Z</time></trkpt><trkpt lat="41.72723037214493" lon="15.828882962234243"><ele>634.0</ele><time>2026-04-14T15:37:58Z</time></trkpt><trkpt lat="41.727147911960664" lon="15.829062342201423"><ele>634.0</ele><time>2026-04-14T15:38:00Z</time></trkpt><trkpt lat="41.727096262227114" lon="15.82919051523556"><ele>634.0</ele><time>2026-04-14T15:38:01Z</time></trkpt><trkpt lat="41.7270167402609" lon="15.829263129800877"><ele>634.0</ele><time>2026-04-14T15:38:02Z</time></trkpt><trkpt lat="41.72693646390196" lon="15.829444669314109"><ele>634.0</ele><time>2026-04-14T15:38:04Z</time></trkpt><trkpt lat="41.726841573739954" lon="15.829564083862428"><ele>633.6</ele><time>2026-04-14T15:38:05Z</time></trkpt><trkpt lat="41.726749149032294" lon="15.829658607032442"><ele>633.2</ele><time>2026-04-14T15:38:06Z</time></trkpt><trkpt lat="41.726659464845625" lon="15.829789547154805"><ele>632.8000000000001</ele><time>2026-04-14T15:38:07Z</time></trkpt><trkpt lat="41.72659709979016" lon="15.82983607423791"><ele>632.4</ele><time>2026-04-14T15:38:08Z</time></trkpt><trkpt lat="41.72649710906406" lon="15.829939421077393"><ele>632.0</ele><time>2026-04-14T15:38:10Z</time></trkpt><trkpt lat="41.72643964875532" lon="15.829978250606171"><ele>632.0</ele><time>2026-04-14T15:38:11Z</time></trkpt><trkpt lat="41.72629081395047" lon="15.83007243685306"><ele>632.0</ele><time>2026-04-14T15:38:13Z</time></trkpt><trkpt lat="41.726223388149776" lon="15.83009243968027"><ele>632.0</ele><time>2026-04-14T15:38:15Z</time></trkpt><trkpt lat="41.7255469889668" lon="15.831457274467992"><ele>629.5</ele><time>2026-04-14T15:38:16Z</time></trkpt><trkpt lat="41.7254636391942" lon="15.83157106010403"><ele>627.0</ele><time>2026-04-14T15:38:19Z</time></trkpt><trkpt lat="41.72530099164526" lon="15.831564436143964"><ele>624.5</ele><time>2026-04-14T15:38:20Z</time></trkpt><trkpt lat="41.7252045899518" lon="15.831731068270795"><ele>622.0</ele><time>2026-04-14T15:38:21Z</time></trkpt><trkpt lat="41.725166056898765" lon="15.831878726151759"><ele>619.3333333333334</ele><time>2026-04-14T15:38:22Z</time></trkpt><trkpt lat="41.72497211371866" lon="15.8321289400472"><ele>616.6666666666666</ele><time>2026-04-14T15:38:24Z</time></trkpt><trkpt lat="41.724888005126076" lon="15.832230240323671"><ele>614.0</ele><time>2026-04-14T15:38:25Z</time></trkpt><trkpt lat="41.724817547212076" lon="15.832316802675432"><ele>614.0</ele><time>2026-04-14T15:38:26Z</time></trkpt><trkpt lat="41.72473691834352" lon="15.832309394364376"><ele>614.0</ele><time>2026-04-14T15:38:27Z</time></trkpt><trkpt lat="41.724618759229124" lon="15.83240654907875"><ele>614.0</ele><time>2026-04-14T15:38:28Z</time></trkpt><trkpt lat="41.72449282160722" lon="15.832493554989737"><ele>614.0</ele><time>2026-04-14T15:38:29Z</time></trkpt><trkpt lat="41.724375750906965" lon="15.832510984724571"><ele>613.0</ele><time>2026-04-14T15:38:30Z</time></trkpt><trkpt lat="41.72426773444419" lon="15.832528919032644"><ele>612.0</ele><time>2026-04-14T15:38:31Z</time></trkpt><trkpt lat="41.724184918138256" lon="15.832608067775489"><ele>611.0</ele><time>2026-04-14T15:38:32Z</time></trkpt><trkpt lat="41.72412392357745" lon="15.83264773395046"><ele>610.0</ele><time>2026-04-14T15:38:33Z</time></trkpt><trkpt lat="41.72397960091878" lon="15.832676496256417"><ele>609.0</ele><time>2026-04-14T15:38:34Z</time></trkpt><trkpt lat="41.7238759925751" lon="15.832713880812303"><ele>608.75</ele><time>2026-04-14T15:38:35Z</time></trkpt><trkpt lat="41.723803103564045" lon="15.832713016635468"><ele>608.5</ele><time>2026-04-14T15:38:36Z</time></trkpt><trkpt lat="41.72372128924886" lon="15.832705561579578"><ele>608.25</ele><time>2026-04-14T15:38:37Z</time></trkpt><trkpt lat="41.72364578019493" lon="15.832693777064183"><ele>608.0</ele><time>2026-04-14T15:38:38Z</time></trkpt><trkpt lat="41.72339938080006" lon="15.832701497569289"><ele>608.0</ele><time>2026-04-14T15:38:40Z</time></trkpt><trkpt lat="41.723322779310465" lon="15.832660320534686"><ele>608.0</ele><time>2026-04-14T15:38:41Z</time></trkpt><trkpt lat="41.723253422706705" lon="15.832633077428122"><ele>608.0</ele><time>2026-04-14T15:38:42Z</time></trkpt><trkpt lat="41.72318151379457" lon="15.832623429055193"><ele>608.0</ele><time>2026-04-14T15:38:43Z</time></trkpt><trkpt lat="41.72308637435702" lon="15.832612095439037"><ele>608.0</ele><time>2026-04-14T15:38:44Z</time></trkpt><trkpt lat="41.72303195487592" lon="15.832563327719242"><ele>608.0</ele><time>2026-04-14T15:38:45Z</time></trkpt><trkpt lat="41.72293823061172" lon="15.832560232756528"><ele>607.3333333333333</ele><time>2026-04-14T15:38:46Z</time></trkpt><trkpt lat="41.722852090538574" lon="15.832498835017224"><ele>606.6666666666666</ele><time>2026-04-14T15:38:47Z</time></trkpt><trkpt lat="41.72278814392694" lon="15.83248594245769"><ele>606.0</ele><time>2026-04-14T15:38:48Z</time></trkpt><trkpt lat="41.722725340831744" lon="15.83243736749569"><ele>605.3333333333334</ele><time>2026-04-14T15:38:49Z</time></trkpt><trkpt lat="41.72266919494391" lon="15.832337197759443"><ele>604.6666666666667</ele><time>2026-04-14T15:38:50Z</time></trkpt><trkpt lat="41.72259933814343" lon="15.832299526208235"><ele>604.0</ele><time>2026-04-14T15:38:51Z</time></trkpt><trkpt lat="41.722511877054394" lon="15.83217220889987"><ele>599.3333333333334</ele><time>2026-04-14T15:38:53Z</time></trkpt><trkpt lat="41.72239788646884" lon="15.832036480274452"><ele>594.6666666666666</ele><time>2026-04-14T15:38:54Z</time></trkpt><trkpt lat="41.72223479562627" lon="15.832011887095552"><ele>590.0</ele><time>2026-04-14T15:38:55Z</time></trkpt><trkpt lat="41.72202456488981" lon="15.831943638246218"><ele>590.0</ele><time>2026-04-14T15:38:56Z</time></trkpt><trkpt lat="41.72190128820555" lon="15.831877781176614"><ele>590.0</ele><time>2026-04-14T15:38:57Z</time></trkpt><trkpt lat="41.721821006588854" lon="15.831762259879055"><ele>590.0</ele><time>2026-04-14T15:38:58Z</time></trkpt><trkpt lat="41.721730985988344" lon="15.83167698835377"><ele>590.0</ele><time>2026-04-14T15:38:59Z</time></trkpt><trkpt lat="41.72166481697771" lon="15.831542410628305"><ele>590.3333333333333</ele><time>2026-04-14T15:39:00Z</time></trkpt><trkpt lat="41.72158860944826" lon="15.831476994096212"><ele>590.6666666666666</ele><time>2026-04-14T15:39:01Z</time></trkpt><trkpt lat="41.721531075503165" lon="15.83142335029443"><ele>591.0</ele><time>2026-04-14T15:39:02Z</time></trkpt><trkpt lat="41.72146830158742" lon="15.831342822658806"><ele>591.3333333333334</ele><time>2026-04-14T15:39:03Z</time></trkpt><trkpt lat="41.72140032273338" lon="15.831295479919472"><ele>591.6666666666667</ele><time>2026-04-14T15:39:04Z</time></trkpt><trkpt lat="41.72130023409301" lon="15.831237807708748"><ele>592.0</ele><time>2026-04-14T15:39:05Z</time></trkpt><trkpt lat="41.72124648604694" lon="15.831178025313815"><ele>592.0</ele><time>2026-04-14T15:39:06Z</time></trkpt><trkpt lat="41.72116167445677" lon="15.83110707741685"><ele>592.0</ele><time>2026-04-14T15:39:07Z</time></trkpt><trkpt lat="41.72112016113448" lon="15.8310110602372"><ele>592.0</ele><time>2026-04-14T15:39:08Z</time></trkpt><trkpt lat="41.721058286235305" lon="15.830933290088838"><ele>592.0</ele><time>2026-04-14T15:39:09Z</time></trkpt><trkpt lat="41.72102615081528" lon="15.83081497007031"><ele>592.0</ele><time>2026-04-14T15:39:10Z</time></trkpt><trkpt lat="41.7209890275936" lon="15.830716104965285"><ele>592.0</ele><time>2026-04-14T15:39:11Z</time></trkpt><trkpt lat="41.72092826333536" lon="15.830613261959448"><ele>590.8333333333334</ele><time>2026-04-14T15:39:12Z</time></trkpt><trkpt lat="41.72089520520175" lon="15.830481126476657"><ele>589.6666666666667</ele><time>2026-04-14T15:39:13Z</time></trkpt><trkpt lat="41.72085793507078" lon="15.830389103452115"><ele>588.5</ele><time>2026-04-14T15:39:14Z</time></trkpt><trkpt lat="41.720802396433285" lon="15.83029837801107"><ele>587.3333333333334</ele><time>2026-04-14T15:39:15Z</time></trkpt><trkpt lat="41.72074704271161" lon="15.830232873175083"><ele>586.1666666666666</ele><time>2026-04-14T15:39:16Z</time></trkpt><trkpt lat="41.72069826518684" lon="15.830154348879578"><ele>585.0</ele><time>2026-04-14T15:39:17Z</time></trkpt><trkpt lat="41.72066497769086" lon="15.830026896490667"><ele>585.0</ele><time>2026-04-14T15:39:18Z</time></trkpt><trkpt lat="41.72062648800036" lon="15.829909635646084"><ele>585.0</ele><time>2026-04-14T15:39:19Z</time></trkpt><trkpt lat="41.72055927671058" lon="15.829797188669334"><ele>585.0</ele><time>2026-04-14T15:39:20Z</time></trkpt><trkpt lat="41.72050949392553" lon="15.829700379868918"><ele>585.0</ele><time>2026-04-14T15:39:21Z</time></trkpt><trkpt lat="41.72046239488794" lon="15.82959123362198"><ele>585.0</ele><time>2026-04-14T15:39:22Z</time></trkpt><trkpt lat="41.720393318172604" lon="15.82948167979737"><ele>585.0</ele><time>2026-04-14T15:39:23Z</time></trkpt><trkpt lat="41.72033328536541" lon="15.82933359994928"><ele>585.0</ele><time>2026-04-14T15:39:24Z</time></trkpt><trkpt lat="41.72027401897647" lon="15.829196331217767"><ele>585.0</ele><time>2026-04-14T15:39:25Z</time></trkpt><trkpt lat="41.72022734219209" lon="15.829038571298755"><ele>585.0</ele><time>2026-04-14T15:39:26Z</time></trkpt><trkpt lat="41.72015807797543" lon="15.828980133469909"><ele>582.0</ele><time>2026-04-14T15:39:27Z</time></trkpt><trkpt lat="41.720094343760636" lon="15.828895439849068"><ele>579.0</ele><time>2026-04-14T15:39:28Z</time></trkpt><trkpt lat="41.72005285247976" lon="15.828810548912731"><ele>576.0</ele><time>2026-04-14T15:39:29Z</time></trkpt><trkpt lat="41.71999308814737" lon="15.828717983297675"><ele>573.0</ele><time>2026-04-14T15:39:30Z</time></trkpt><trkpt lat="41.719933614283555" lon="15.828624409140444"><ele>570.0</ele><time>2026-04-14T15:39:31Z</time></trkpt><trkpt lat="41.71985966496929" lon="15.828521017212305"><ele>570.4</ele><time>2026-04-14T15:39:32Z</time></trkpt><trkpt lat="41.71980574530201" lon="15.828419447813591"><ele>570.8</ele><time>2026-04-14T15:39:33Z</time></trkpt><trkpt lat="41.719748991317836" lon="15.828356802295467"><ele>571.2</ele><time>2026-04-14T15:39:34Z</time></trkpt><trkpt lat="41.71971308640336" lon="15.828257946182543"><ele>571.6</ele><time>2026-04-14T15:39:35Z</time></trkpt><trkpt lat="41.71959881600804" lon="15.828229531170134"><ele>572.0</ele><time>2026-04-14T15:39:37Z</time></trkpt><trkpt lat="41.71950658229502" lon="15.828170351701441"><ele>570.2</ele><time>2026-04-14T15:39:38Z</time></trkpt><trkpt lat="41.719355954829275" lon="15.8281186309691"><ele>568.4000000000001</ele><time>2026-04-14T15:39:40Z</time></trkpt><trkpt lat="41.71926727775491" lon="15.82809720150597"><ele>566.5999999999999</ele><time>2026-04-14T15:39:41Z</time></trkpt><trkpt lat="41.71917993425605" lon="15.828045156707503"><ele>564.8</ele><time>2026-04-14T15:39:43Z</time></trkpt><trkpt lat="41.71912545941126" lon="15.827956093113338"><ele>563.0</ele><time>2026-04-14T15:39:45Z</time></trkpt><trkpt lat="41.71909276355574" lon="15.827802947849756"><ele>563.0</ele><time>2026-04-14T15:39:46Z</time></trkpt><trkpt lat="41.71904206543656" lon="15.827733809173168"><ele>563.0</ele><time>2026-04-14T15:39:47Z</time></trkpt><trkpt lat="41.71897689233474" lon="15.827626991553018"><ele>563.0</ele><time>2026-04-14T15:39:48Z</time></trkpt><trkpt lat="41.718950119429245" lon="15.827533427546504"><ele>563.0</ele><time>2026-04-14T15:39:49Z</time></trkpt><trkpt lat="41.71890881755483" lon="15.827422877505178"><ele>563.0</ele><time>2026-04-14T15:39:54Z</time></trkpt><trkpt lat="41.71886830327958" lon="15.827320669625824"><ele>563.0</ele><time>2026-04-14T15:39:56Z</time></trkpt><trkpt lat="41.718830480552896" lon="15.827240652191646"><ele>562.3333333333333</ele><time>2026-04-14T15:39:57Z</time></trkpt><trkpt lat="41.718785469538176" lon="15.827071678013715"><ele>561.6666666666666</ele><time>2026-04-14T15:39:58Z</time></trkpt><trkpt lat="41.718663408354" lon="15.82694707968311"><ele>561.0</ele><time>2026-04-14T15:39:59Z</time></trkpt><trkpt lat="41.71860866720619" lon="15.826728402752453"><ele>561.0</ele><time>2026-04-14T15:40:00Z</time></trkpt><trkpt lat="41.71857182779575" lon="15.82661058849164"><ele>561.0</ele><time>2026-04-14T15:40:01Z</time></trkpt><trkpt lat="41.71854257513453" lon="15.826482770925534"><ele>561.0</ele><time>2026-04-14T15:40:02Z</time></trkpt><trkpt lat="41.718493921756306" lon="15.826351011064526"><ele>561.0</ele><time>2026-04-14T15:40:04Z</time></trkpt><trkpt lat="41.718430944373964" lon="15.826356405186488"><ele>561.0</ele><time>2026-04-14T15:40:14Z</time></trkpt><trkpt lat="41.71840763092508" lon="15.826272521325818"><ele>561.0</ele><time>2026-04-14T15:40:29Z</time></trkpt><trkpt lat="41.71838258171419" lon="15.826187121713552"><ele>558.2</ele><time>2026-04-14T15:40:40Z</time></trkpt><trkpt lat="41.71836865094362" lon="15.826097258389657"><ele>555.4000000000001</ele><time>2026-04-14T15:40:59Z</time></trkpt><trkpt lat="41.718317090360415" lon="15.826044131760188"><ele>552.6</ele><time>2026-04-14T15:41:01Z</time></trkpt><trkpt lat="41.71825801272762" lon="15.825923217956994"><ele>549.8000000000001</ele><time>2026-04-14T15:41:03Z</time></trkpt><trkpt lat="41.71820457538297" lon="15.825800011352328"><ele>547.0</ele><time>2026-04-14T15:41:05Z</time></trkpt><trkpt lat="41.718133459353865" lon="15.825677023612299"><ele>545.6</ele><time>2026-04-14T15:41:07Z</time></trkpt><trkpt lat="41.718090176263296" lon="15.825613139375738"><ele>544.2</ele><time>2026-04-14T15:41:08Z</time></trkpt><trkpt lat="41.718060279648064" lon="15.82550932409395"><ele>542.8</ele><time>2026-04-14T15:41:09Z</time></trkpt><trkpt lat="41.71798476313606" lon="15.825386693990852"><ele>541.4</ele><time>2026-04-14T15:41:11Z</time></trkpt><trkpt lat="41.7179503600483" lon="15.825315239630452"><ele>540.0</ele><time>2026-04-14T15:41:12Z</time></trkpt><trkpt lat="41.71789171895214" lon="15.825171352827306"><ele>540.4</ele><time>2026-04-14T15:41:14Z</time></trkpt><trkpt lat="41.71786898659669" lon="15.825087080394626"><ele>540.8</ele><time>2026-04-14T15:41:15Z</time></trkpt><trkpt lat="41.71780917589253" lon="15.824947527925184"><ele>541.2</ele><time>2026-04-14T15:41:16.999Z</time></trkpt><trkpt lat="41.71778480790873" lon="15.824867794625952"><ele>541.6</ele><time>2026-04-14T15:41:17.999Z</time></trkpt><trkpt lat="41.71777945936339" lon="15.824751088477544"><ele>542.0</ele><time>2026-04-14T15:41:18.999Z</time></trkpt><trkpt lat="41.71778167735015" lon="15.824561980620299"><ele>542.0</ele><time>2026-04-14T15:41:19.999Z</time></trkpt><trkpt lat="41.717743796070586" lon="15.824387732232813"><ele>542.0</ele><time>2026-04-14T15:41:21.999Z</time></trkpt><trkpt lat="41.7177176822174" lon="15.824233948786818"><ele>542.0</ele><time>2026-04-14T15:41:23.999Z</time></trkpt><trkpt lat="41.71770689305746" lon="15.824120621685307"><ele>542.0</ele><time>2026-04-14T15:41:24.999Z</time></trkpt><trkpt lat="41.71764132602688" lon="15.823919346954174"><ele>539.0</ele><time>2026-04-14T15:41:25.999Z</time></trkpt><trkpt lat="41.71760359464932" lon="15.823821916155188"><ele>536.0</ele><time>2026-04-14T15:41:26.999Z</time></trkpt><trkpt lat="41.717564567059824" lon="15.8237337705233"><ele>533.0</ele><time>2026-04-14T15:41:27.999Z</time></trkpt><trkpt lat="41.71753390148179" lon="15.823636581997262"><ele>530.0</ele><time>2026-04-14T15:41:28.999Z</time></trkpt><trkpt lat="41.71752209731314" lon="15.823549154979373"><ele>527.0</ele><time>2026-04-14T15:41:29.999Z</time></trkpt><trkpt lat="41.71742650436033" lon="15.823439316470264"><ele>524.0</ele><time>2026-04-14T15:41:30.999Z</time></trkpt><trkpt lat="41.71734706412616" lon="15.823344222031357"><ele>523.2</ele><time>2026-04-14T15:41:31.999Z</time></trkpt><trkpt lat="41.71729495908112" lon="15.823256862621248"><ele>522.4</ele><time>2026-04-14T15:41:32.999Z</time></trkpt><trkpt lat="41.71724774799098" lon="15.823047919766275"><ele>521.6</ele><time>2026-04-14T15:41:33.999Z</time></trkpt><trkpt lat="41.71723571487368" lon="15.822952818926215"><ele>520.8</ele><time>2026-04-14T15:41:34.999Z</time></trkpt><trkpt lat="41.71723395430081" lon="15.822867183243732"><ele>520.0</ele><time>2026-04-14T15:41:35.999Z</time></trkpt><trkpt lat="41.71719682068191" lon="15.822768205630966"><ele>518.6</ele><time>2026-04-14T15:41:36.999Z</time></trkpt><trkpt lat="41.71714670906803" lon="15.822635419149307"><ele>517.2</ele><time>2026-04-14T15:41:37.999Z</time></trkpt><trkpt lat="41.71709484224875" lon="15.822521433113817"><ele>515.8</ele><time>2026-04-14T15:41:38.999Z</time></trkpt><trkpt lat="41.71704010752598" lon="15.822406651174894"><ele>514.4</ele><time>2026-04-14T15:41:39.999Z</time></trkpt><trkpt lat="41.71700084932872" lon="15.822304338985786"><ele>513.0</ele><time>2026-04-14T15:41:40.999Z</time></trkpt><trkpt lat="41.716957279718436" lon="15.822196964973205"><ele>513.0</ele><time>2026-04-14T15:41:41.999Z</time></trkpt><trkpt lat="41.71696855413372" lon="15.822046663772174"><ele>513.0</ele><time>2026-04-14T15:41:42.999Z</time></trkpt><trkpt lat="41.71696820750704" lon="15.821935238349694"><ele>513.0</ele><time>2026-04-14T15:41:43.999Z</time></trkpt><trkpt lat="41.716968611113074" lon="15.8218388065305"><ele>513.0</ele><time>2026-04-14T15:41:44.999Z</time></trkpt><trkpt lat="41.71694615834629" lon="15.821728866548586"><ele>513.0</ele><time>2026-04-14T15:41:45.999Z</time></trkpt><trkpt lat="41.71689750989044" lon="15.821585613986835"><ele>511.5</ele><time>2026-04-14T15:41:46.999Z</time></trkpt><trkpt lat="41.71687391736769" lon="15.821465996721077"><ele>510.0</ele><time>2026-04-14T15:41:47.999Z</time></trkpt><trkpt lat="41.71685225630465" lon="15.821314285831956"><ele>508.5</ele><time>2026-04-14T15:41:48.999Z</time></trkpt><trkpt lat="41.716841075993415" lon="15.821095725019825"><ele>507.0</ele><time>2026-04-14T15:41:49.999Z</time></trkpt><trkpt lat="41.716806623758146" lon="15.820906744760805"><ele>506.5</ele><time>2026-04-14T15:41:51Z</time></trkpt><trkpt lat="41.716770122558295" lon="15.82078835406562"><ele>506.0</ele><time>2026-04-14T15:41:52Z</time></trkpt><trkpt lat="41.716724397472966" lon="15.820689811344478"><ele>505.5</ele><time>2026-04-14T15:41:53Z</time></trkpt><trkpt lat="41.71667433659153" lon="15.820586116141882"><ele>505.0</ele><time>2026-04-14T15:41:54Z</time></trkpt><trkpt lat="41.71664303988257" lon="15.820485919960603"><ele>504.5</ele><time>2026-04-14T15:41:55Z</time></trkpt><trkpt lat="41.716604807732246" lon="15.820410615514282"><ele>504.0</ele><time>2026-04-14T15:41:56Z</time></trkpt><trkpt lat="41.716582160808414" lon="15.820326953345134"><ele>504.0</ele><time>2026-04-14T15:41:57Z</time></trkpt><trkpt lat="41.71656282952846" lon="15.820236631389893"><ele>504.0</ele><time>2026-04-14T15:41:58Z</time></trkpt><trkpt lat="41.71654411284681" lon="15.820144407365369"><ele>504.0</ele><time>2026-04-14T15:41:59Z</time></trkpt><trkpt lat="41.71651241933856" lon="15.820066160246327"><ele>504.0</ele><time>2026-04-14T15:42:00Z</time></trkpt><trkpt lat="41.71647653950087" lon="15.819967015491732"><ele>504.0</ele><time>2026-04-14T15:42:01Z</time></trkpt><trkpt lat="41.716438255313896" lon="15.819869175968531"><ele>504.0</ele><time>2026-04-14T15:42:02Z</time></trkpt><trkpt lat="41.7163990335769" lon="15.819735825396085"><ele>502.79999999999995</ele><time>2026-04-14T15:42:03Z</time></trkpt><trkpt lat="41.71633837135477" lon="15.819634441972177"><ele>501.59999999999997</ele><time>2026-04-14T15:42:04Z</time></trkpt><trkpt lat="41.71628378031251" lon="15.819529104215995"><ele>500.4</ele><time>2026-04-14T15:42:05Z</time></trkpt><trkpt lat="41.716246576062275" lon="15.819406078955101"><ele>499.2</ele><time>2026-04-14T15:42:06Z</time></trkpt><trkpt lat="41.71621539500724" lon="15.819281427723531"><ele>498.0</ele><time>2026-04-14T15:42:07Z</time></trkpt><trkpt lat="41.71618808323681" lon="15.819163838171239"><ele>498.2</ele><time>2026-04-14T15:42:08Z</time></trkpt><trkpt lat="41.716139077938365" lon="15.81903616158624"><ele>498.4</ele><time>2026-04-14T15:42:09Z</time></trkpt><trkpt lat="41.716114108248405" lon="15.81892557074639"><ele>498.59999999999997</ele><time>2026-04-14T15:42:10Z</time></trkpt><trkpt lat="41.71608402315355" lon="15.818819429100637"><ele>498.79999999999995</ele><time>2026-04-14T15:42:11Z</time></trkpt><trkpt lat="41.716053722790576" lon="15.818700840900817"><ele>499.0</ele><time>2026-04-14T15:42:12Z</time></trkpt><trkpt lat="41.71602687681114" lon="15.818582660716693"><ele>497.79999999999995</ele><time>2026-04-14T15:42:13Z</time></trkpt><trkpt lat="41.71600074515224" lon="15.818473294095758"><ele>496.59999999999997</ele><time>2026-04-14T15:42:14Z</time></trkpt><trkpt lat="41.71597317352956" lon="15.818353239862466"><ele>495.4</ele><time>2026-04-14T15:42:15Z</time></trkpt><trkpt lat="41.71595467140346" lon="15.818214279750656"><ele>494.2</ele><time>2026-04-14T15:42:16Z</time></trkpt><trkpt lat="41.71591076587377" lon="15.818067825360652"><ele>493.0</ele><time>2026-04-14T15:42:17Z</time></trkpt><trkpt lat="41.71586124677746" lon="15.817925372094733"><ele>493.0</ele><time>2026-04-14T15:42:18Z</time></trkpt><trkpt lat="41.71580399498182" lon="15.817779023671191"><ele>493.0</ele><time>2026-04-14T15:42:19Z</time></trkpt><trkpt lat="41.7157387255835" lon="15.817631948798704"><ele>493.0</ele><time>2026-04-14T15:42:20Z</time></trkpt><trkpt lat="41.71569052546376" lon="15.817494189251013"><ele>493.0</ele><time>2026-04-14T15:42:21Z</time></trkpt><trkpt lat="41.71564425837203" lon="15.817353859684843"><ele>492.2</ele><time>2026-04-14T15:42:22Z</time></trkpt><trkpt lat="41.715598611902635" lon="15.817219008016744"><ele>491.4</ele><time>2026-04-14T15:42:23Z</time></trkpt><trkpt lat="41.71556200257135" lon="15.817087891024682"><ele>490.59999999999997</ele><time>2026-04-14T15:42:24Z</time></trkpt><trkpt lat="41.71553115819285" lon="15.816963507907978"><ele>489.79999999999995</ele><time>2026-04-14T15:42:25Z</time></trkpt><trkpt lat="41.71549601575623" lon="15.816837719384802"><ele>489.0</ele><time>2026-04-14T15:42:26Z</time></trkpt><trkpt lat="41.71545529994788" lon="15.816713583245624"><ele>488.4</ele><time>2026-04-14T15:42:27Z</time></trkpt><trkpt lat="41.71542106515698" lon="15.816594497792742"><ele>487.79999999999995</ele><time>2026-04-14T15:42:28Z</time></trkpt><trkpt lat="41.71538047044834" lon="15.816476436694453"><ele>487.20000000000005</ele><time>2026-04-14T15:42:29Z</time></trkpt><trkpt lat="41.71534337143648" lon="15.816347160697692"><ele>486.6</ele><time>2026-04-14T15:42:30Z</time></trkpt><trkpt lat="41.715302187125246" lon="15.816224125873054"><ele>486.0</ele><time>2026-04-14T15:42:31Z</time></trkpt><trkpt lat="41.71526320587119" lon="15.816100436569574"><ele>484.8</ele><time>2026-04-14T15:42:32Z</time></trkpt><trkpt lat="41.71522715675841" lon="15.815970567807842"><ele>483.6</ele><time>2026-04-14T15:42:33Z</time></trkpt><trkpt lat="41.715190323510285" lon="15.815844254782487"><ele>482.4</ele><time>2026-04-14T15:42:34Z</time></trkpt><trkpt lat="41.71515367672698" lon="15.815720371832843"><ele>481.2</ele><time>2026-04-14T15:42:35Z</time></trkpt><trkpt lat="41.71510918859266" lon="15.815602968309104"><ele>480.0</ele><time>2026-04-14T15:42:36Z</time></trkpt><trkpt lat="41.71507104561608" lon="15.815481573711569"><ele>480.0</ele><time>2026-04-14T15:42:37Z</time></trkpt><trkpt lat="41.7150304289959" lon="15.815363722742058"><ele>480.0</ele><time>2026-04-14T15:42:38Z</time></trkpt><trkpt lat="41.71499099530051" lon="15.815239133299626"><ele>480.0</ele><time>2026-04-14T15:42:39Z</time></trkpt><trkpt lat="41.714951152102536" lon="15.815119713157614"><ele>480.0</ele><time>2026-04-14T15:42:40Z</time></trkpt><trkpt lat="41.71490586483159" lon="15.814997058238173"><ele>480.0</ele><time>2026-04-14T15:42:41Z</time></trkpt><trkpt lat="41.71485995423376" lon="15.814870714238825"><ele>479.6</ele><time>2026-04-14T15:42:42Z</time></trkpt><trkpt lat="41.71480917785833" lon="15.81473511607601"><ele>479.2</ele><time>2026-04-14T15:42:43Z</time></trkpt><trkpt lat="41.71475408265261" lon="15.81460936615314"><ele>478.79999999999995</ele><time>2026-04-14T15:42:44Z</time></trkpt><trkpt lat="41.714693828938216" lon="15.814483420569085"><ele>478.4</ele><time>2026-04-14T15:42:45Z</time></trkpt><trkpt lat="41.71462899490316" lon="15.814361024175692"><ele>478.0</ele><time>2026-04-14T15:42:46Z</time></trkpt><trkpt lat="41.71456563109043" lon="15.814224988711903"><ele>477.2</ele><time>2026-04-14T15:42:47Z</time></trkpt><trkpt lat="41.714498504494145" lon="15.81409263131606"><ele>476.4</ele><time>2026-04-14T15:42:48Z</time></trkpt><trkpt lat="41.71443254593322" lon="15.813972190636727"><ele>475.59999999999997</ele><time>2026-04-14T15:42:49Z</time></trkpt><trkpt lat="41.71436892654715" lon="15.813856507164505"><ele>474.79999999999995</ele><time>2026-04-14T15:42:50Z</time></trkpt><trkpt lat="41.714304515475725" lon="15.813757530373225"><ele>474.0</ele><time>2026-04-14T15:42:51Z</time></trkpt><trkpt lat="41.71424257460661" lon="15.813662690219138"><ele>474.0</ele><time>2026-04-14T15:42:52Z</time></trkpt><trkpt lat="41.714190069708295" lon="15.8135582467413"><ele>474.0</ele><time>2026-04-14T15:42:53Z</time></trkpt><trkpt lat="41.71413083891516" lon="15.813453129661102"><ele>474.0</ele><time>2026-04-14T15:42:54Z</time></trkpt><trkpt lat="41.714077248714624" lon="15.813344914753523"><ele>474.0</ele><time>2026-04-14T15:42:55Z</time></trkpt><trkpt lat="41.7140265800565" lon="15.813242235430335"><ele>474.0</ele><time>2026-04-14T15:42:56Z</time></trkpt><trkpt lat="41.7139800771227" lon="15.81312537976302"><ele>473.4</ele><time>2026-04-14T15:42:57Z</time></trkpt><trkpt lat="41.7139327070666" lon="15.812998384390427"><ele>472.79999999999995</ele><time>2026-04-14T15:42:58Z</time></trkpt><trkpt lat="41.71389426407788" lon="15.812870758603049"><ele>472.20000000000005</ele><time>2026-04-14T15:42:59Z</time></trkpt><trkpt lat="41.71385017263455" lon="15.812741598263257"><ele>471.6</ele><time>2026-04-14T15:43:00Z</time></trkpt><trkpt lat="41.71381362546405" lon="15.812623569626128"><ele>471.0</ele><time>2026-04-14T15:43:01Z</time></trkpt><trkpt lat="41.71378036778358" lon="15.812504644654767"><ele>470.3333333333333</ele><time>2026-04-14T15:43:02Z</time></trkpt><trkpt lat="41.713747416273414" lon="15.812406405385923"><ele>469.66666666666663</ele><time>2026-04-14T15:43:03Z</time></trkpt><trkpt lat="41.713715767093944" lon="15.812312624392975"><ele>469.0</ele><time>2026-04-14T15:43:04Z</time></trkpt><trkpt lat="41.71367828346435" lon="15.812209691096312"><ele>468.3333333333333</ele><time>2026-04-14T15:43:05Z</time></trkpt><trkpt lat="41.71364193732121" lon="15.812097629138014"><ele>467.66666666666663</ele><time>2026-04-14T15:43:06Z</time></trkpt><trkpt lat="41.713602004126365" lon="15.811982877215247"><ele>467.0</ele><time>2026-04-14T15:43:07Z</time></trkpt><trkpt lat="41.71356165676518" lon="15.811872448812569"><ele>466.66666666666663</ele><time>2026-04-14T15:43:08Z</time></trkpt><trkpt lat="41.71352149815077" lon="15.811749730137265"><ele>466.3333333333333</ele><time>2026-04-14T15:43:09Z</time></trkpt><trkpt lat="41.713478770969274" lon="15.811646225426358"><ele>466.0</ele><time>2026-04-14T15:43:10Z</time></trkpt><trkpt lat="41.7134465935703" lon="15.811550186764343"><ele>465.66666666666663</ele><time>2026-04-14T15:43:11Z</time></trkpt><trkpt lat="41.71340415437124" lon="15.811444858203329"><ele>465.3333333333333</ele><time>2026-04-14T15:43:12Z</time></trkpt><trkpt lat="41.713366419263686" lon="15.811346882451092"><ele>465.0</ele><time>2026-04-14T15:43:13Z</time></trkpt><trkpt lat="41.71333930449415" lon="15.811261601281428"><ele>465.0</ele><time>2026-04-14T15:43:14Z</time></trkpt><trkpt lat="41.71330306660452" lon="15.811183659713446"><ele>465.0</ele><time>2026-04-14T15:43:15Z</time></trkpt><trkpt lat="41.713234789344995" lon="15.811095516801773"><ele>465.0</ele><time>2026-04-14T15:43:16Z</time></trkpt><trkpt lat="41.713148326343216" lon="15.811022912661203"><ele>465.0</ele><time>2026-04-14T15:43:17Z</time></trkpt><trkpt lat="41.71307692334419" lon="15.810950941728546"><ele>465.0</ele><time>2026-04-14T15:43:18Z</time></trkpt><trkpt lat="41.71300800054418" lon="15.810879358749197"><ele>465.0</ele><time>2026-04-14T15:43:19Z</time></trkpt><trkpt lat="41.71294691867512" lon="15.810801180469742"><ele>464.8</ele><time>2026-04-14T15:43:20Z</time></trkpt><trkpt lat="41.71289558663944" lon="15.810697426815542"><ele>464.6</ele><time>2026-04-14T15:43:20.999Z</time></trkpt><trkpt lat="41.71283002839577" lon="15.81062881140206"><ele>464.4</ele><time>2026-04-14T15:43:21.999Z</time></trkpt><trkpt lat="41.71275124323694" lon="15.810563503847995"><ele>464.2</ele><time>2026-04-14T15:43:22.999Z</time></trkpt><trkpt lat="41.71264585187232" lon="15.810509679642264"><ele>464.0</ele><time>2026-04-14T15:43:23.999Z</time></trkpt><trkpt lat="41.71258376488951" lon="15.810404470001023"><ele>463.99999999999994</ele><time>2026-04-14T15:43:24.999Z</time></trkpt><trkpt lat="41.71252240089211" lon="15.810332992139609"><ele>464.0</ele><time>2026-04-14T15:43:25.999Z</time></trkpt><trkpt lat="41.712449983578765" lon="15.810258973008604"><ele>464.0</ele><time>2026-04-14T15:43:26.999Z</time></trkpt><trkpt lat="41.71238335133623" lon="15.81018322704516"><ele>464.0</ele><time>2026-04-14T15:43:27.999Z</time></trkpt><trkpt lat="41.712314560129656" lon="15.8101041177181"><ele>463.99999999999994</ele><time>2026-04-14T15:43:28.999Z</time></trkpt><trkpt lat="41.7122476213513" lon="15.810024053883163"><ele>464.0</ele><time>2026-04-14T15:43:29.999Z</time></trkpt><trkpt lat="41.71218270409896" lon="15.809932556394854"><ele>464.0</ele><time>2026-04-14T15:43:30.999Z</time></trkpt><trkpt lat="41.71212381956533" lon="15.809835786231972"><ele>464.0</ele><time>2026-04-14T15:43:31.999Z</time></trkpt><trkpt lat="41.7120675586945" lon="15.809733860651477"><ele>464.0</ele><time>2026-04-14T15:43:32.999Z</time></trkpt><trkpt lat="41.7120187992374" lon="15.809627252331934"><ele>464.0</ele><time>2026-04-14T15:43:33.999Z</time></trkpt><trkpt lat="41.711985865169176" lon="15.809510194243712"><ele>464.0</ele><time>2026-04-14T15:43:34.999Z</time></trkpt><trkpt lat="41.71195369423353" lon="15.809401499314593"><ele>463.99999999999994</ele><time>2026-04-14T15:43:35.999Z</time></trkpt><trkpt lat="41.711914155265724" lon="15.809299527556872"><ele>464.0</ele><time>2026-04-14T15:43:36.999Z</time></trkpt><trkpt lat="41.711870663427504" lon="15.809196985318644"><ele>464.0</ele><time>2026-04-14T15:43:37.999Z</time></trkpt><trkpt lat="41.71182503997156" lon="15.809089491690642"><ele>464.0</ele><time>2026-04-14T15:43:38.999Z</time></trkpt><trkpt lat="41.71178542588897" lon="15.808981793501221"><ele>463.99999999999994</ele><time>2026-04-14T15:43:39.999Z</time></trkpt><trkpt lat="41.711744140216204" lon="15.808869422711593"><ele>464.0</ele><time>2026-04-14T15:43:40.999Z</time></trkpt><trkpt lat="41.71170430668703" lon="15.80875355600196"><ele>464.0</ele><time>2026-04-14T15:43:41.999Z</time></trkpt><trkpt lat="41.71165640515375" lon="15.808637943491593"><ele>464.0</ele><time>2026-04-14T15:43:42.999Z</time></trkpt><trkpt lat="41.71161463189043" lon="15.808526620524248"><ele>464.0</ele><time>2026-04-14T15:43:43.999Z</time></trkpt><trkpt lat="41.7115719550437" lon="15.808409157306539"><ele>464.0</ele><time>2026-04-14T15:43:44.999Z</time></trkpt><trkpt lat="41.71153397692817" lon="15.80829391640875"><ele>464.0</ele><time>2026-04-14T15:43:45.999Z</time></trkpt><trkpt lat="41.71149701337576" lon="15.808184506733589"><ele>463.79999999999995</ele><time>2026-04-14T15:43:46.999Z</time></trkpt><trkpt lat="41.71145720351344" lon="15.808076560387871"><ele>463.59999999999997</ele><time>2026-04-14T15:43:47.999Z</time></trkpt><trkpt lat="41.711413008950736" lon="15.807963001875263"><ele>463.4</ele><time>2026-04-14T15:43:48.999Z</time></trkpt><trkpt lat="41.71136628045565" lon="15.807856574267753"><ele>463.2</ele><time>2026-04-14T15:43:49.999Z</time></trkpt><trkpt lat="41.71132365041511" lon="15.807754816403905"><ele>463.0</ele><time>2026-04-14T15:43:50.999Z</time></trkpt><trkpt lat="41.71128787555798" lon="15.807621594922146"><ele>463.00000000000006</ele><time>2026-04-14T15:43:51.999Z</time></trkpt><trkpt lat="41.71124771840873" lon="15.80750625562733"><ele>463.0</ele><time>2026-04-14T15:43:52.999Z</time></trkpt><trkpt lat="41.71121099682981" lon="15.807397045781151"><ele>463.0</ele><time>2026-04-14T15:43:53.999Z</time></trkpt><trkpt lat="41.71117603105621" lon="15.80729601624157"><ele>463.0</ele><time>2026-04-14T15:43:54.999Z</time></trkpt><trkpt lat="41.71113444949896" lon="15.807200335449572"><ele>463.00000000000006</ele><time>2026-04-14T15:43:55.999Z</time></trkpt><trkpt lat="41.71110620760608" lon="15.807099510861718"><ele>463.0</ele><time>2026-04-14T15:43:57Z</time></trkpt><trkpt lat="41.71104194356349" lon="15.806996188129682"><ele>463.33333333333337</ele><time>2026-04-14T15:43:58Z</time></trkpt><trkpt lat="41.71100016412491" lon="15.80686276482798"><ele>463.6666666666667</ele><time>2026-04-14T15:43:59Z</time></trkpt><trkpt lat="41.71097354202502" lon="15.806746661120059"><ele>464.0</ele><time>2026-04-14T15:44:00Z</time></trkpt><trkpt lat="41.710970453245224" lon="15.806646043587683"><ele>464.33333333333337</ele><time>2026-04-14T15:44:01Z</time></trkpt><trkpt lat="41.710946076581905" lon="15.806550776402869"><ele>464.6666666666667</ele><time>2026-04-14T15:44:02Z</time></trkpt><trkpt lat="41.710923028818144" lon="15.806468973650928"><ele>465.0</ele><time>2026-04-14T15:44:03Z</time></trkpt><trkpt lat="41.71086742788951" lon="15.806379396883672"><ele>465.0</ele><time>2026-04-14T15:44:05Z</time></trkpt><trkpt lat="41.710829436956814" lon="15.806301488392455"><ele>465.0</ele><time>2026-04-14T15:44:06Z</time></trkpt><trkpt lat="41.71078569982194" lon="15.8061859591064"><ele>465.0</ele><time>2026-04-14T15:44:07Z</time></trkpt><trkpt lat="41.71074156359059" lon="15.806089767712479"><ele>465.0</ele><time>2026-04-14T15:44:08Z</time></trkpt><trkpt lat="41.7107005683834" lon="15.805989956614257"><ele>465.0</ele><time>2026-04-14T15:44:09Z</time></trkpt><trkpt lat="41.710651736412366" lon="15.80588917495746"><ele>465.0</ele><time>2026-04-14T15:44:10Z</time></trkpt><trkpt lat="41.71060837801136" lon="15.805797882534339"><ele>464.6666666666667</ele><time>2026-04-14T15:44:11Z</time></trkpt><trkpt lat="41.71057268411044" lon="15.805696169084845"><ele>464.33333333333337</ele><time>2026-04-14T15:44:12Z</time></trkpt><trkpt lat="41.71052458850753" lon="15.805596845665931"><ele>464.0</ele><time>2026-04-14T15:44:13Z</time></trkpt><trkpt lat="41.71048468525795" lon="15.805500189653385"><ele>463.6666666666667</ele><time>2026-04-14T15:44:14Z</time></trkpt><trkpt lat="41.71045000861438" lon="15.805398092141704"><ele>463.33333333333337</ele><time>2026-04-14T15:44:15Z</time></trkpt><trkpt lat="41.71041260608069" lon="15.80530859564318"><ele>463.0</ele><time>2026-04-14T15:44:16Z</time></trkpt><trkpt lat="41.71037200868279" lon="15.805206078422609"><ele>463.0</ele><time>2026-04-14T15:44:17Z</time></trkpt><trkpt lat="41.71033787157411" lon="15.805125921345827"><ele>462.99999999999994</ele><time>2026-04-14T15:44:18Z</time></trkpt><trkpt lat="41.710288667200466" lon="15.804982024850926"><ele>462.99999999999994</ele><time>2026-04-14T15:44:20Z</time></trkpt><trkpt lat="41.710241239777815" lon="15.804874197463976"><ele>463.0</ele><time>2026-04-14T15:44:22Z</time></trkpt><trkpt lat="41.710176918768504" lon="15.804706145215931"><ele>463.0</ele><time>2026-04-14T15:44:24Z</time></trkpt><trkpt lat="41.71013672168385" lon="15.804580081303074"><ele>463.33333333333337</ele><time>2026-04-14T15:44:25Z</time></trkpt><trkpt lat="41.71009618432785" lon="15.804442844010278"><ele>463.6666666666667</ele><time>2026-04-14T15:44:26Z</time></trkpt><trkpt lat="41.7100586438514" lon="15.804315448708612"><ele>464.0</ele><time>2026-04-14T15:44:27Z</time></trkpt><trkpt lat="41.71002964355911" lon="15.80420812359495"><ele>464.33333333333337</ele><time>2026-04-14T15:44:28Z</time></trkpt><trkpt lat="41.71000582429549" lon="15.804107252162437"><ele>464.6666666666667</ele><time>2026-04-14T15:44:29Z</time></trkpt><trkpt lat="41.70998670694248" lon="15.804015840684352"><ele>465.0</ele><time>2026-04-14T15:44:30Z</time></trkpt><trkpt lat="41.70997618863941" lon="15.803924581192957"><ele>465.0</ele><time>2026-04-14T15:44:31Z</time></trkpt><trkpt lat="41.70996952171048" lon="15.803837363669533"><ele>465.0</ele><time>2026-04-14T15:44:32Z</time></trkpt><trkpt lat="41.70996789128661" lon="15.803724929948865"><ele>465.0</ele><time>2026-04-14T15:44:33Z</time></trkpt><trkpt lat="41.70996827436533" lon="15.803542762525861"><ele>465.0</ele><time>2026-04-14T15:44:34Z</time></trkpt><trkpt lat="41.70997188849513" lon="15.80332823916848"><ele>465.0</ele><time>2026-04-14T15:44:35Z</time></trkpt><trkpt lat="41.709966364802106" lon="15.803091317565745"><ele>464.75</ele><time>2026-04-14T15:44:36Z</time></trkpt><trkpt lat="41.7099534734767" lon="15.802864426793056"><ele>464.5</ele><time>2026-04-14T15:44:37Z</time></trkpt><trkpt lat="41.709937869722005" lon="15.802681406178294"><ele>464.25</ele><time>2026-04-14T15:44:38Z</time></trkpt><trkpt lat="41.709922869644934" lon="15.80251298415179"><ele>464.0</ele><time>2026-04-14T15:44:39Z</time></trkpt><trkpt lat="41.70989890487568" lon="15.802368137620602"><ele>463.79999999999995</ele><time>2026-04-14T15:44:40Z</time></trkpt><trkpt lat="41.70987619186659" lon="15.802228646285846"><ele>463.59999999999997</ele><time>2026-04-14T15:44:41Z</time></trkpt><trkpt lat="41.70985542603425" lon="15.802098253704296"><ele>463.4</ele><time>2026-04-14T15:44:42Z</time></trkpt><trkpt lat="41.709834006689114" lon="15.80197720691058"><ele>463.2</ele><time>2026-04-14T15:44:43Z</time></trkpt><trkpt lat="41.70981725930037" lon="15.8018539915957"><ele>463.0</ele><time>2026-04-14T15:44:44Z</time></trkpt><trkpt lat="41.70980573960974" lon="15.801738372119251"><ele>463.00000000000006</ele><time>2026-04-14T15:44:45Z</time></trkpt><trkpt lat="41.70979345893876" lon="15.801627693013858"><ele>463.0</ele><time>2026-04-14T15:44:46Z</time></trkpt><trkpt lat="41.7097777644948" lon="15.801524549629097"><ele>463.0</ele><time>2026-04-14T15:44:47Z</time></trkpt><trkpt lat="41.709762038589744" lon="15.801430082471365"><ele>463.0</ele><time>2026-04-14T15:44:48Z</time></trkpt><trkpt lat="41.70974447224388" lon="15.801325406249699"><ele>463.00000000000006</ele><time>2026-04-14T15:44:49Z</time></trkpt><trkpt lat="41.709728848420134" lon="15.80122151621155"><ele>463.0</ele><time>2026-04-14T15:44:50Z</time></trkpt><trkpt lat="41.709714060899884" lon="15.8011249003578"><ele>463.00000000000006</ele><time>2026-04-14T15:44:51Z</time></trkpt><trkpt lat="41.709701553918286" lon="15.801019498621567"><ele>463.0</ele><time>2026-04-14T15:44:52Z</time></trkpt><trkpt lat="41.70968972153465" lon="15.800923106689597"><ele>463.0</ele><time>2026-04-14T15:44:53Z</time></trkpt><trkpt lat="41.7096715201804" lon="15.800817266459173"><ele>463.0</ele><time>2026-04-14T15:44:54Z</time></trkpt><trkpt lat="41.70964709991311" lon="15.800702404566179"><ele>463.00000000000006</ele><time>2026-04-14T15:44:55Z</time></trkpt><trkpt lat="41.709610743925765" lon="15.800576011701999"><ele>463.0</ele><time>2026-04-14T15:44:56Z</time></trkpt><trkpt lat="41.70957913911067" lon="15.800460819097776"><ele>462.79999999999995</ele><time>2026-04-14T15:44:57Z</time></trkpt><trkpt lat="41.70952350789465" lon="15.800327322496539"><ele>462.59999999999997</ele><time>2026-04-14T15:44:58Z</time></trkpt><trkpt lat="41.70946046308643" lon="15.800193225014658"><ele>462.40000000000003</ele><time>2026-04-14T15:44:59Z</time></trkpt><trkpt lat="41.70942036413086" lon="15.800082998029087"><ele>462.20000000000005</ele><time>2026-04-14T15:45:00Z</time></trkpt><trkpt lat="41.70937289399369" lon="15.799996084551811"><ele>462.0</ele><time>2026-04-14T15:45:01Z</time></trkpt><trkpt lat="41.70933051550716" lon="15.799924261505337"><ele>462.20000000000005</ele><time>2026-04-14T15:45:02Z</time></trkpt><trkpt lat="41.70928799125843" lon="15.79979577542197"><ele>462.40000000000003</ele><time>2026-04-14T15:45:03Z</time></trkpt><trkpt lat="41.70924002248273" lon="15.799694009007919"><ele>462.59999999999997</ele><time>2026-04-14T15:45:04Z</time></trkpt><trkpt lat="41.7091974195688" lon="15.799582752049535"><ele>462.79999999999995</ele><time>2026-04-14T15:45:05Z</time></trkpt><trkpt lat="41.709133907071646" lon="15.799441027797634"><ele>463.0</ele><time>2026-04-14T15:45:06Z</time></trkpt><trkpt lat="41.7090780645179" lon="15.799266469202273"><ele>463.0</ele><time>2026-04-14T15:45:07Z</time></trkpt><trkpt lat="41.70902506651758" lon="15.799123373340425"><ele>462.99999999999994</ele><time>2026-04-14T15:45:08Z</time></trkpt><trkpt lat="41.70898346213208" lon="15.79900426272234"><ele>462.99999999999994</ele><time>2026-04-14T15:45:09Z</time></trkpt><trkpt lat="41.70895714917678" lon="15.798873515577137"><ele>463.0</ele><time>2026-04-14T15:45:10Z</time></trkpt><trkpt lat="41.70894555833388" lon="15.798766272639876"><ele>463.0</ele><time>2026-04-14T15:45:11Z</time></trkpt><trkpt lat="41.70892961074384" lon="15.798614733980436"><ele>463.33333333333337</ele><time>2026-04-14T15:45:12Z</time></trkpt><trkpt lat="41.70889307378522" lon="15.798432129177518"><ele>463.66666666666663</ele><time>2026-04-14T15:45:13Z</time></trkpt><trkpt lat="41.70884299656738" lon="15.798243244039279"><ele>464.0</ele><time>2026-04-14T15:45:14Z</time></trkpt><trkpt lat="41.7087956101388" lon="15.79800717196162"><ele>464.0</ele><time>2026-04-14T15:45:15Z</time></trkpt><trkpt lat="41.70873998288914" lon="15.797817000262892"><ele>464.0</ele><time>2026-04-14T15:45:16Z</time></trkpt><trkpt lat="41.708693856357094" lon="15.797627747222522"><ele>464.0</ele><time>2026-04-14T15:45:17Z</time></trkpt><trkpt lat="41.708660077426444" lon="15.797443819694228"><ele>464.0</ele><time>2026-04-14T15:45:17.999Z</time></trkpt><trkpt lat="41.70862083141325" lon="15.797265008125608"><ele>464.0</ele><time>2026-04-14T15:45:18.999Z</time></trkpt><trkpt lat="41.708588178097436" lon="15.79710948682922"><ele>464.0</ele><time>2026-04-14T15:45:19.999Z</time></trkpt><trkpt lat="41.708564941901294" lon="15.796946768810978"><ele>464.0</ele><time>2026-04-14T15:45:20.999Z</time></trkpt><trkpt lat="41.70853304299912" lon="15.796811686852108"><ele>464.0</ele><time>2026-04-14T15:45:21.999Z</time></trkpt><trkpt lat="41.70852227429634" lon="15.79668348691445"><ele>464.0</ele><time>2026-04-14T15:45:22.999Z</time></trkpt><trkpt lat="41.70847223145295" lon="15.796559036117712"><ele>464.5</ele><time>2026-04-14T15:45:23.999Z</time></trkpt><trkpt lat="41.70842973089298" lon="15.7963888236975"><ele>465.0</ele><time>2026-04-14T15:45:24.999Z</time></trkpt><trkpt lat="41.70839373222162" lon="15.796196274232788"><ele>465.5</ele><time>2026-04-14T15:45:25.999Z</time></trkpt><trkpt lat="41.70836608805429" lon="15.796014226442821"><ele>466.0</ele><time>2026-04-14T15:45:26.999Z</time></trkpt><trkpt lat="41.708320802309466" lon="15.795876193344364"><ele>466.0</ele><time>2026-04-14T15:45:27.999Z</time></trkpt><trkpt lat="41.70828105830241" lon="15.795735608930205"><ele>466.0</ele><time>2026-04-14T15:45:28.999Z</time></trkpt><trkpt lat="41.70824256222602" lon="15.795587037644696"><ele>466.0</ele><time>2026-04-14T15:45:29.999Z</time></trkpt><trkpt lat="41.708193633310906" lon="15.795431749033314"><ele>466.0</ele><time>2026-04-14T15:45:30.999Z</time></trkpt><trkpt lat="41.70815048145598" lon="15.795276457761181"><ele>465.5</ele><time>2026-04-14T15:45:31.999Z</time></trkpt><trkpt lat="41.70810552106574" lon="15.795124337072934"><ele>465.0</ele><time>2026-04-14T15:45:32.999Z</time></trkpt><trkpt lat="41.708081423910365" lon="15.794977443649683"><ele>464.5</ele><time>2026-04-14T15:45:33.999Z</time></trkpt><trkpt lat="41.70804847261036" lon="15.794822945331024"><ele>464.0</ele><time>2026-04-14T15:45:34.999Z</time></trkpt><trkpt lat="41.70801528252928" lon="15.794639604184539"><ele>464.0</ele><time>2026-04-14T15:45:35.999Z</time></trkpt><trkpt lat="41.707984689692786" lon="15.794473228035073"><ele>464.0</ele><time>2026-04-14T15:45:36.999Z</time></trkpt><trkpt lat="41.7079670253379" lon="15.794306733864666"><ele>464.0</ele><time>2026-04-14T15:45:37.999Z</time></trkpt><trkpt lat="41.707944673495405" lon="15.79414306359658"><ele>464.0</ele><time>2026-04-14T15:45:38.999Z</time></trkpt><trkpt lat="41.70791666942856" lon="15.793965161768535"><ele>463.75</ele><time>2026-04-14T15:45:39.999Z</time></trkpt><trkpt lat="41.70787976904077" lon="15.793765954818983"><ele>463.5</ele><time>2026-04-14T15:45:40.999Z</time></trkpt><trkpt lat="41.707859114917134" lon="15.793595137020333"><ele>463.25</ele><time>2026-04-14T15:45:41.999Z</time></trkpt><trkpt lat="41.70783089371279" lon="15.7934133526351"><ele>463.0</ele><time>2026-04-14T15:45:42.999Z</time></trkpt><trkpt lat="41.70781108417477" lon="15.793236680767729"><ele>462.5</ele><time>2026-04-14T15:45:43.999Z</time></trkpt><trkpt lat="41.70779093802938" lon="15.793069062075158"><ele>462.0</ele><time>2026-04-14T15:45:44.999Z</time></trkpt><trkpt lat="41.70777309585488" lon="15.792897281178405"><ele>461.5</ele><time>2026-04-14T15:45:45.999Z</time></trkpt><trkpt lat="41.70775681166226" lon="15.792733684761966"><ele>461.0</ele><time>2026-04-14T15:45:46.999Z</time></trkpt><trkpt lat="41.70774018781607" lon="15.792551608278231"><ele>462.0</ele><time>2026-04-14T15:45:47.999Z</time></trkpt><trkpt lat="41.70771487934069" lon="15.792394549715107"><ele>463.0</ele><time>2026-04-14T15:45:48.999Z</time></trkpt><trkpt lat="41.70768806388935" lon="15.792235970570179"><ele>464.0</ele><time>2026-04-14T15:45:49.999Z</time></trkpt><trkpt lat="41.707662526103604" lon="15.792075501499292"><ele>465.0</ele><time>2026-04-14T15:45:50.999Z</time></trkpt><trkpt lat="41.70763997919022" lon="15.791913303661477"><ele>465.0</ele><time>2026-04-14T15:45:51.999Z</time></trkpt><trkpt lat="41.70761261287414" lon="15.791764107728637"><ele>465.0</ele><time>2026-04-14T15:45:52.999Z</time></trkpt><trkpt lat="41.70759978999116" lon="15.791595478296511"><ele>465.0</ele><time>2026-04-14T15:45:53.999Z</time></trkpt><trkpt lat="41.707587165295024" lon="15.791434752357013"><ele>465.0</ele><time>2026-04-14T15:45:54.999Z</time></trkpt><trkpt lat="41.707575442879296" lon="15.791277998282212"><ele>465.0</ele><time>2026-04-14T15:45:55.999Z</time></trkpt><trkpt lat="41.707567478689406" lon="15.791121579474071"><ele>465.0</ele><time>2026-04-14T15:45:56.999Z</time></trkpt><trkpt lat="41.707570896438504" lon="15.790976279528934"><ele>465.0</ele><time>2026-04-14T15:45:57.999Z</time></trkpt><trkpt lat="41.70758519859985" lon="15.790818765965103"><ele>465.0</ele><time>2026-04-14T15:45:58.999Z</time></trkpt><trkpt lat="41.70759987200743" lon="15.790677149366505"><ele>464.75</ele><time>2026-04-14T15:45:59.999Z</time></trkpt><trkpt lat="41.70761484828446" lon="15.790525477897653"><ele>464.5</ele><time>2026-04-14T15:46:00.999Z</time></trkpt><trkpt lat="41.70762912520603" lon="15.7903755813571"><ele>464.25</ele><time>2026-04-14T15:46:01.999Z</time></trkpt><trkpt lat="41.70764735992802" lon="15.790214742820528"><ele>464.0</ele><time>2026-04-14T15:46:03Z</time></trkpt><trkpt lat="41.70766816629967" lon="15.790052847560037"><ele>464.0</ele><time>2026-04-14T15:46:04Z</time></trkpt><trkpt lat="41.707693019464905" lon="15.789880515145096"><ele>464.0</ele><time>2026-04-14T15:46:05Z</time></trkpt><trkpt lat="41.70770691897878" lon="15.789722267380535"><ele>464.0</ele><time>2026-04-14T15:46:06Z</time></trkpt><trkpt lat="41.70772382016088" lon="15.789550637525881"><ele>464.0</ele><time>2026-04-14T15:46:07Z</time></trkpt><trkpt lat="41.70773703667449" lon="15.789379126095126"><ele>464.25</ele><time>2026-04-14T15:46:08Z</time></trkpt><trkpt lat="41.70775486886603" lon="15.78921373940678"><ele>464.5</ele><time>2026-04-14T15:46:09Z</time></trkpt><trkpt lat="41.70777740730121" lon="15.789043828503097"><ele>464.75</ele><time>2026-04-14T15:46:10Z</time></trkpt><trkpt lat="41.70779987041806" lon="15.788870851190076"><ele>465.0</ele><time>2026-04-14T15:46:11Z</time></trkpt><trkpt lat="41.70782049555728" lon="15.788691976024925"><ele>465.0</ele><time>2026-04-14T15:46:12Z</time></trkpt><trkpt lat="41.70783555928319" lon="15.788519964159564"><ele>465.0</ele><time>2026-04-14T15:46:13Z</time></trkpt><trkpt lat="41.707848876795474" lon="15.788336993792635"><ele>465.0</ele><time>2026-04-14T15:46:14Z</time></trkpt><trkpt lat="41.707865258727836" lon="15.788151586540428"><ele>465.0</ele><time>2026-04-14T15:46:15Z</time></trkpt><trkpt lat="41.70788564683114" lon="15.787970501659025"><ele>465.0</ele><time>2026-04-14T15:46:16Z</time></trkpt><trkpt lat="41.707905914217875" lon="15.787799482137654"><ele>465.0</ele><time>2026-04-14T15:46:17Z</time></trkpt><trkpt lat="41.70792492436131" lon="15.7876389023332"><ele>465.0</ele><time>2026-04-14T15:46:18Z</time></trkpt><trkpt lat="41.70793769050899" lon="15.787484421995567"><ele>465.0</ele><time>2026-04-14T15:46:19Z</time></trkpt><trkpt lat="41.70794788235096" lon="15.787338157094968"><ele>465.0</ele><time>2026-04-14T15:46:20Z</time></trkpt><trkpt lat="41.70796389296024" lon="15.787192929330221"><ele>465.0</ele><time>2026-04-14T15:46:21Z</time></trkpt><trkpt lat="41.7079828564163" lon="15.78705056693561"><ele>465.0</ele><time>2026-04-14T15:46:22Z</time></trkpt><trkpt lat="41.707999651449406" lon="15.78693189910643"><ele>465.0</ele><time>2026-04-14T15:46:23Z</time></trkpt><trkpt lat="41.708014857813325" lon="15.786809252456093"><ele>465.0</ele><time>2026-04-14T15:46:24Z</time></trkpt><trkpt lat="41.70801494390854" lon="15.786706372220362"><ele>465.0</ele><time>2026-04-14T15:46:25Z</time></trkpt><trkpt lat="41.7079873927558" lon="15.786619079569984"><ele>465.0</ele><time>2026-04-14T15:46:26Z</time></trkpt><trkpt lat="41.70792407238917" lon="15.786562437879272"><ele>465.0</ele><time>2026-04-14T15:46:27Z</time></trkpt><trkpt lat="41.70782784563775" lon="15.78651251284824"><ele>465.0</ele><time>2026-04-14T15:46:28Z</time></trkpt><trkpt lat="41.707707971329306" lon="15.786492093123607"><ele>465.0</ele><time>2026-04-14T15:46:29Z</time></trkpt><trkpt lat="41.707599785652434" lon="15.786483553373147"><ele>465.0</ele><time>2026-04-14T15:46:30Z</time></trkpt><trkpt lat="41.7074969827873" lon="15.786435849080455"><ele>465.0</ele><time>2026-04-14T15:46:31Z</time></trkpt><trkpt lat="41.70741598792415" lon="15.78639866956875"><ele>465.0</ele><time>2026-04-14T15:46:32Z</time></trkpt><trkpt lat="41.707355526188636" lon="15.786364105149294"><ele>465.0</ele><time>2026-04-14T15:46:34Z</time></trkpt><trkpt lat="41.70716632067067" lon="15.786312854116025"><ele>465.0</ele><time>2026-04-14T15:46:47Z</time></trkpt><trkpt lat="41.70708123658456" lon="15.786191560457775"><ele>465.0</ele><time>2026-04-14T15:46:49Z</time></trkpt><trkpt lat="41.70702713813387" lon="15.786088042128203"><ele>465.0</ele><time>2026-04-14T15:46:50Z</time></trkpt><trkpt lat="41.70696184823596" lon="15.785964430417518"><ele>465.0</ele><time>2026-04-14T15:46:51Z</time></trkpt><trkpt lat="41.70688631570173" lon="15.785829164521168"><ele>465.5</ele><time>2026-04-14T15:46:52Z</time></trkpt><trkpt lat="41.706805412823854" lon="15.785706055231298"><ele>466.0</ele><time>2026-04-14T15:46:53Z</time></trkpt><trkpt lat="41.70673288925633" lon="15.785580389108173"><ele>466.5</ele><time>2026-04-14T15:46:54Z</time></trkpt><trkpt lat="41.70668149767087" lon="15.78545684574653"><ele>467.0</ele><time>2026-04-14T15:46:55Z</time></trkpt><trkpt lat="41.70663920909326" lon="15.785325374758823"><ele>467.0</ele><time>2026-04-14T15:46:56Z</time></trkpt><trkpt lat="41.70659605319023" lon="15.785163886709585"><ele>467.0</ele><time>2026-04-14T15:46:57Z</time></trkpt><trkpt lat="41.706573886396804" lon="15.78501343468849"><ele>467.0</ele><time>2026-04-14T15:46:58Z</time></trkpt><trkpt lat="41.706554825135946" lon="15.784860975996368"><ele>467.0</ele><time>2026-04-14T15:46:59Z</time></trkpt><trkpt lat="41.70653706421227" lon="15.784691319207154"><ele>467.0</ele><time>2026-04-14T15:47:00Z</time></trkpt><trkpt lat="41.70652043254268" lon="15.784540844691943"><ele>467.0</ele><time>2026-04-14T15:47:01Z</time></trkpt><trkpt lat="41.706498588377315" lon="15.784371226985327"><ele>467.0</ele><time>2026-04-14T15:47:02Z</time></trkpt><trkpt lat="41.706477733596486" lon="15.784205961863508"><ele>467.0</ele><time>2026-04-14T15:47:03Z</time></trkpt><trkpt lat="41.706473633083675" lon="15.784051071321672"><ele>467.5</ele><time>2026-04-14T15:47:04Z</time></trkpt><trkpt lat="41.70648537801591" lon="15.783886487416103"><ele>468.0</ele><time>2026-04-14T15:47:05Z</time></trkpt><trkpt lat="41.7065116362046" lon="15.783750219688718"><ele>468.5</ele><time>2026-04-14T15:47:06Z</time></trkpt><trkpt lat="41.70653491762997" lon="15.783591619969979"><ele>469.0</ele><time>2026-04-14T15:47:07Z</time></trkpt><trkpt lat="41.706560328034826" lon="15.783432399071266"><ele>469.25</ele><time>2026-04-14T15:47:08Z</time></trkpt><trkpt lat="41.70658182003876" lon="15.783263291465044"><ele>469.5</ele><time>2026-04-14T15:47:08.999Z</time></trkpt><trkpt lat="41.70659315160124" lon="15.783101084554621"><ele>469.75</ele><time>2026-04-14T15:47:09.999Z</time></trkpt><trkpt lat="41.7066079208127" lon="15.782941312277321"><ele>470.0</ele><time>2026-04-14T15:47:10.999Z</time></trkpt><trkpt lat="41.706617630657554" lon="15.782790905611687"><ele>470.4</ele><time>2026-04-14T15:47:11.999Z</time></trkpt><trkpt lat="41.70661881377053" lon="15.782633015646134"><ele>470.8</ele><time>2026-04-14T15:47:12.999Z</time></trkpt><trkpt lat="41.70661340383892" lon="15.78248349059129"><ele>471.20000000000005</ele><time>2026-04-14T15:47:13.999Z</time></trkpt><trkpt lat="41.70661171106185" lon="15.782356640217017"><ele>471.6</ele><time>2026-04-14T15:47:14.999Z</time></trkpt><trkpt lat="41.706608605092725" lon="15.782227177120754"><ele>472.0</ele><time>2026-04-14T15:47:15.999Z</time></trkpt><trkpt lat="41.7066038169993" lon="15.782078763500877"><ele>472.0</ele><time>2026-04-14T15:47:16.999Z</time></trkpt><trkpt lat="41.706603096329616" lon="15.781935552743748"><ele>472.00000000000006</ele><time>2026-04-14T15:47:17.999Z</time></trkpt><trkpt lat="41.70659888847928" lon="15.7817924613565"><ele>472.00000000000006</ele><time>2026-04-14T15:47:18.999Z</time></trkpt><trkpt lat="41.70659386879441" lon="15.781653118634"><ele>472.0</ele><time>2026-04-14T15:47:19.999Z</time></trkpt><trkpt lat="41.70659232453435" lon="15.781505995358263"><ele>472.0</ele><time>2026-04-14T15:47:20.999Z</time></trkpt><trkpt lat="41.70659211596267" lon="15.781353190773396"><ele>471.75</ele><time>2026-04-14T15:47:21.999Z</time></trkpt><trkpt lat="41.70657807012556" lon="15.781210673392453"><ele>471.5</ele><time>2026-04-14T15:47:22.999Z</time></trkpt><trkpt lat="41.70656897606927" lon="15.781051473858998"><ele>471.25</ele><time>2026-04-14T15:47:23.999Z</time></trkpt><trkpt lat="41.70655253794592" lon="15.780904114784132"><ele>471.0</ele><time>2026-04-14T15:47:24.999Z</time></trkpt><trkpt lat="41.706540931858385" lon="15.780746502968137"><ele>471.75</ele><time>2026-04-14T15:47:25.999Z</time></trkpt><trkpt lat="41.70653276934516" lon="15.780592629973578"><ele>472.5</ele><time>2026-04-14T15:47:26.999Z</time></trkpt><trkpt lat="41.70653466741812" lon="15.780444797065297"><ele>473.25</ele><time>2026-04-14T15:47:27.999Z</time></trkpt><trkpt lat="41.70653146420115" lon="15.780278633190113"><ele>474.0</ele><time>2026-04-14T15:47:28.999Z</time></trkpt><trkpt lat="41.7065264328531" lon="15.7801033424575"><ele>474.25</ele><time>2026-04-14T15:47:29.999Z</time></trkpt><trkpt lat="41.70652737987142" lon="15.779941729606652"><ele>474.5</ele><time>2026-04-14T15:47:30.999Z</time></trkpt><trkpt lat="41.70651465267117" lon="15.77979029364596"><ele>474.75</ele><time>2026-04-14T15:47:31.999Z</time></trkpt><trkpt lat="41.706498174633694" lon="15.779609637873422"><ele>475.0</ele><time>2026-04-14T15:47:32.999Z</time></trkpt><trkpt lat="41.706489394459936" lon="15.779430357648494"><ele>475.25</ele><time>2026-04-14T15:47:33.999Z</time></trkpt><trkpt lat="41.70647951885723" lon="15.779253453237024"><ele>475.5</ele><time>2026-04-14T15:47:34.999Z</time></trkpt><trkpt lat="41.706469399421046" lon="15.77907465234292"><ele>475.75</ele><time>2026-04-14T15:47:35.999Z</time></trkpt><trkpt lat="41.70645259244506" lon="15.778927600888213"><ele>476.0</ele><time>2026-04-14T15:47:36.999Z</time></trkpt><trkpt lat="41.70642993947865" lon="15.77876729059295"><ele>476.0</ele><time>2026-04-14T15:47:37.999Z</time></trkpt><trkpt lat="41.706405600975295" lon="15.77859790747466"><ele>476.0</ele><time>2026-04-14T15:47:38.999Z</time></trkpt><trkpt lat="41.70638095950934" lon="15.778420775302452"><ele>476.0</ele><time>2026-04-14T15:47:39.999Z</time></trkpt><trkpt lat="41.70637031992898" lon="15.778267794497546"><ele>476.0</ele><time>2026-04-14T15:47:40.999Z</time></trkpt><trkpt lat="41.706356065351216" lon="15.77810386113108"><ele>476.25</ele><time>2026-04-14T15:47:41.999Z</time></trkpt><trkpt lat="41.70632368488893" lon="15.777887433745194"><ele>476.5</ele><time>2026-04-14T15:47:42.999Z</time></trkpt><trkpt lat="41.706301241819766" lon="15.777699487955024"><ele>476.75</ele><time>2026-04-14T15:47:43.999Z</time></trkpt><trkpt lat="41.70629271978729" lon="15.777527037231678"><ele>477.0</ele><time>2026-04-14T15:47:44.999Z</time></trkpt><trkpt lat="41.70628023222905" lon="15.777371727973202"><ele>477.8</ele><time>2026-04-14T15:47:45.999Z</time></trkpt><trkpt lat="41.706253469112326" lon="15.777225249272693"><ele>478.6</ele><time>2026-04-14T15:47:46.999Z</time></trkpt><trkpt lat="41.70621885483186" lon="15.777107280517939"><ele>479.40000000000003</ele><time>2026-04-14T15:47:47.999Z</time></trkpt><trkpt lat="41.70617157532035" lon="15.77700785489603"><ele>480.20000000000005</ele><time>2026-04-14T15:47:48.999Z</time></trkpt><trkpt lat="41.70611635876813" lon="15.776911232606384"><ele>481.0</ele><time>2026-04-14T15:47:49.999Z</time></trkpt><trkpt lat="41.706050563608464" lon="15.776852285415206"><ele>481.00000000000006</ele><time>2026-04-14T15:47:50.999Z</time></trkpt><trkpt lat="41.70598696460323" lon="15.776783008381134"><ele>481.0</ele><time>2026-04-14T15:47:51.999Z</time></trkpt><trkpt lat="41.705921383008715" lon="15.776783126693589"><ele>481.0</ele><time>2026-04-14T15:47:52.999Z</time></trkpt><trkpt lat="41.70582894550714" lon="15.776794270407272"><ele>481.0</ele><time>2026-04-14T15:47:53.999Z</time></trkpt><trkpt lat="41.70573327751645" lon="15.776810554518105"><ele>481.00000000000006</ele><time>2026-04-14T15:47:54.999Z</time></trkpt><trkpt lat="41.705635897333615" lon="15.776834330329576"><ele>481.0</ele><time>2026-04-14T15:47:55.999Z</time></trkpt><trkpt lat="41.705543441384116" lon="15.776858050271263"><ele>481.0</ele><time>2026-04-14T15:47:56.999Z</time></trkpt><trkpt lat="41.70546012588227" lon="15.77689478019722"><ele>481.0</ele><time>2026-04-14T15:47:57.999Z</time></trkpt><trkpt lat="41.70538163810576" lon="15.776946573503135"><ele>481.0</ele><time>2026-04-14T15:47:58.999Z</time></trkpt><trkpt lat="41.70531298765779" lon="15.777004147118356"><ele>481.0</ele><time>2026-04-14T15:47:59.999Z</time></trkpt><trkpt lat="41.70522376034272" lon="15.777071400519109"><ele>481.0</ele><time>2026-04-14T15:48:00.999Z</time></trkpt><trkpt lat="41.705119172422314" lon="15.777161116074627"><ele>482.00000000000006</ele><time>2026-04-14T15:48:01.999Z</time></trkpt><trkpt lat="41.70504318217039" lon="15.777228100359961"><ele>483.0</ele><time>2026-04-14T15:48:02.999Z</time></trkpt><trkpt lat="41.7049529528777" lon="15.777279736634064"><ele>484.0</ele><time>2026-04-14T15:48:03.999Z</time></trkpt><trkpt lat="41.70487571969763" lon="15.77732538892718"><ele>485.0</ele><time>2026-04-14T15:48:04.999Z</time></trkpt><trkpt lat="41.70480434384395" lon="15.777347925766453"><ele>486.00000000000006</ele><time>2026-04-14T15:48:05.999Z</time></trkpt><trkpt lat="41.70472083565571" lon="15.777375509193382"><ele>487.0</ele><time>2026-04-14T15:48:06.999Z</time></trkpt><trkpt lat="41.704646635674045" lon="15.777401020918793"><ele>487.00000000000006</ele><time>2026-04-14T15:48:07.999Z</time></trkpt><trkpt lat="41.704570603799176" lon="15.77741392202954"><ele>487.0</ele><time>2026-04-14T15:48:09Z</time></trkpt><trkpt lat="41.70449009955295" lon="15.777435774441972"><ele>487.0</ele><time>2026-04-14T15:48:10Z</time></trkpt><trkpt lat="41.70436556473939" lon="15.777450889979228"><ele>487.0</ele><time>2026-04-14T15:48:11Z</time></trkpt><trkpt lat="41.704299785516746" lon="15.777413588894865"><ele>487.00000000000006</ele><time>2026-04-14T15:48:13Z</time></trkpt><trkpt lat="41.70423499293145" lon="15.777379301237087"><ele>487.0</ele><time>2026-04-14T15:48:14Z</time></trkpt><trkpt lat="41.704164799736475" lon="15.777329983763979"><ele>489.0</ele><time>2026-04-14T15:48:15Z</time></trkpt><trkpt lat="41.70408178650295" lon="15.777264399673651"><ele>491.00000000000006</ele><time>2026-04-14T15:48:16Z</time></trkpt><trkpt lat="41.70399401612634" lon="15.777263502113735"><ele>493.00000000000006</ele><time>2026-04-14T15:48:17Z</time></trkpt><trkpt lat="41.70385701324186" lon="15.777290896724367"><ele>495.0</ele><time>2026-04-14T15:48:18Z</time></trkpt><trkpt lat="41.70376687174651" lon="15.777293228188238"><ele>497.0</ele><time>2026-04-14T15:48:19Z</time></trkpt><trkpt lat="41.703701938551994" lon="15.777310818306058"><ele>499.75</ele><time>2026-04-14T15:48:20Z</time></trkpt><trkpt lat="41.70355696802387" lon="15.777342778376346"><ele>502.5</ele><time>2026-04-14T15:49:09Z</time></trkpt><trkpt lat="41.7034569749976" lon="15.777373621054794"><ele>505.25</ele><time>2026-04-14T15:49:10Z</time></trkpt><trkpt lat="41.703346963852454" lon="15.777410308797021"><ele>508.0</ele><time>2026-04-14T15:49:11Z</time></trkpt><trkpt lat="41.7032555236728" lon="15.77744310820051"><ele>508.0</ele><time>2026-04-14T15:49:12Z</time></trkpt><trkpt lat="41.703164839585945" lon="15.777463091844574"><ele>508.0</ele><time>2026-04-14T15:49:13Z</time></trkpt><trkpt lat="41.70306101323214" lon="15.77748433933841"><ele>508.0</ele><time>2026-04-14T15:49:14Z</time></trkpt><trkpt lat="41.70292742990877" lon="15.777519541040277"><ele>508.0</ele><time>2026-04-14T15:49:15Z</time></trkpt><trkpt lat="41.70280707398926" lon="15.777533170988596"><ele>510.5</ele><time>2026-04-14T15:49:16Z</time></trkpt><trkpt lat="41.702683689668696" lon="15.777537285209993"><ele>513.0</ele><time>2026-04-14T15:49:17Z</time></trkpt><trkpt lat="41.702527546052025" lon="15.77753989461477"><ele>515.5</ele><time>2026-04-14T15:49:18Z</time></trkpt><trkpt lat="41.70239864704183" lon="15.777548880982755"><ele>518.0</ele><time>2026-04-14T15:49:19Z</time></trkpt><trkpt lat="41.70230055284971" lon="15.777601068779116"><ele>518.0</ele><time>2026-04-14T15:49:20Z</time></trkpt><trkpt lat="41.702213470490726" lon="15.7776685338533"><ele>518.0</ele><time>2026-04-14T15:49:21Z</time></trkpt><trkpt lat="41.702116819239635" lon="15.777681959517183"><ele>518.0</ele><time>2026-04-14T15:49:22Z</time></trkpt><trkpt lat="41.70202938609264" lon="15.777684256854606"><ele>518.0</ele><time>2026-04-14T15:49:23Z</time></trkpt><trkpt lat="41.701872406530995" lon="15.777684112590288"><ele>518.0</ele><time>2026-04-14T15:49:25Z</time></trkpt><trkpt lat="41.70177632000619" lon="15.777688431729215"><ele>521.5</ele><time>2026-04-14T15:49:26Z</time></trkpt><trkpt lat="41.70165645832509" lon="15.777670410122653"><ele>525.0</ele><time>2026-04-14T15:49:27Z</time></trkpt><trkpt lat="41.701529517835965" lon="15.777689568084595"><ele>528.5</ele><time>2026-04-14T15:49:28Z</time></trkpt><trkpt lat="41.701448025058696" lon="15.777745725975818"><ele>532.0</ele><time>2026-04-14T15:49:29Z</time></trkpt><trkpt lat="41.701358759433695" lon="15.777869726584184"><ele>532.2</ele><time>2026-04-14T15:49:30Z</time></trkpt><trkpt lat="41.70126745736397" lon="15.778007254108346"><ele>532.4000000000001</ele><time>2026-04-14T15:49:31Z</time></trkpt><trkpt lat="41.70116475000059" lon="15.778126508075083"><ele>532.5999999999999</ele><time>2026-04-14T15:49:32Z</time></trkpt><trkpt lat="41.701140954571635" lon="15.778224516018987"><ele>532.8</ele><time>2026-04-14T15:49:33Z</time></trkpt><trkpt lat="41.701144286190356" lon="15.778338054433576"><ele>533.0</ele><time>2026-04-14T15:49:34Z</time></trkpt><trkpt lat="41.70110861762048" lon="15.778462204081872"><ele>535.8</ele><time>2026-04-14T15:49:35Z</time></trkpt><trkpt lat="41.7010035759794" lon="15.77852791862898"><ele>538.5999999999999</ele><time>2026-04-14T15:49:37Z</time></trkpt><trkpt lat="41.70088900415342" lon="15.778460449019883"><ele>541.4000000000001</ele><time>2026-04-14T15:49:39Z</time></trkpt><trkpt lat="41.70079674451412" lon="15.778479178120328"><ele>544.2</ele><time>2026-04-14T15:49:41Z</time></trkpt><trkpt lat="41.70071350952119" lon="15.7784562518354"><ele>547.0</ele><time>2026-04-14T15:49:43Z</time></trkpt><trkpt lat="41.700593620072304" lon="15.778484268361568"><ele>547.0</ele><time>2026-04-14T15:49:45Z</time></trkpt><trkpt lat="41.700457230595944" lon="15.778481558459383"><ele>547.0</ele><time>2026-04-14T15:49:47Z</time></trkpt><trkpt lat="41.70036170255724" lon="15.778530445433605"><ele>547.0</ele><time>2026-04-14T15:49:48Z</time></trkpt><trkpt lat="41.700291503247904" lon="15.778562953535715"><ele>547.0</ele><time>2026-04-14T15:49:49Z</time></trkpt><trkpt lat="41.700192069098584" lon="15.778599062755"><ele>547.0</ele><time>2026-04-14T15:49:51Z</time></trkpt><trkpt lat="41.7001080802795" lon="15.778609085724986"><ele>550.0</ele><time>2026-04-14T15:49:51.999Z</time></trkpt><trkpt lat="41.70002919486511" lon="15.778611025474188"><ele>553.0</ele><time>2026-04-14T15:49:52.999Z</time></trkpt><trkpt lat="41.699962333975364" lon="15.77861629915079"><ele>556.0</ele><time>2026-04-14T15:49:53.999Z</time></trkpt><trkpt lat="41.69989726648071" lon="15.77860456557879"><ele>559.0</ele><time>2026-04-14T15:49:54.999Z</time></trkpt><trkpt lat="41.69982407784073" lon="15.778586662675261"><ele>562.0</ele><time>2026-04-14T15:49:55.999Z</time></trkpt><trkpt lat="41.699759194239185" lon="15.778596103166157"><ele>565.0</ele><time>2026-04-14T15:49:56.999Z</time></trkpt><trkpt lat="41.699698139080105" lon="15.778629107792195"><ele>568.0</ele><time>2026-04-14T15:49:57.999Z</time></trkpt><trkpt lat="41.69958718560014" lon="15.778659172984181"><ele>568.0</ele><time>2026-04-14T15:49:59.999Z</time></trkpt><trkpt lat="41.69946381388562" lon="15.778676529653524"><ele>568.0</ele><time>2026-04-14T15:50:01.999Z</time></trkpt><trkpt lat="41.69939333782623" lon="15.778659716600236"><ele>568.0</ele><time>2026-04-14T15:50:02.999Z</time></trkpt><trkpt lat="41.69932243275297" lon="15.778616113429164"><ele>568.0</ele><time>2026-04-14T15:50:03.999Z</time></trkpt><trkpt lat="41.69924291338161" lon="15.778571806379079"><ele>568.0</ele><time>2026-04-14T15:50:04.999Z</time></trkpt><trkpt lat="41.699175300046434" lon="15.778526293368824"><ele>568.0</ele><time>2026-04-14T15:50:05.999Z</time></trkpt><trkpt lat="41.69911727236432" lon="15.778485933368884"><ele>570.1999999999999</ele><time>2026-04-14T15:50:06.999Z</time></trkpt><trkpt lat="41.69905666616085" lon="15.77846194334218"><ele>572.4</ele><time>2026-04-14T15:50:07.999Z</time></trkpt><trkpt lat="41.698948218752896" lon="15.778390773449773"><ele>574.5999999999999</ele><time>2026-04-14T15:50:09.999Z</time></trkpt><trkpt lat="41.69884922614399" lon="15.778399629663863"><ele>576.8</ele><time>2026-04-14T15:50:11.999Z</time></trkpt><trkpt lat="41.69876491282826" lon="15.778323073764877"><ele>579.0</ele><time>2026-04-14T15:50:16Z</time></trkpt><trkpt lat="41.6986683139567" lon="15.778266326727437"><ele>582.2</ele><time>2026-04-14T15:50:18Z</time></trkpt><trkpt lat="41.698568347334806" lon="15.778204596741714"><ele>585.4</ele><time>2026-04-14T15:50:20Z</time></trkpt><trkpt lat="41.69845987218358" lon="15.778182116992612"><ele>588.6</ele><time>2026-04-14T15:50:22Z</time></trkpt><trkpt lat="41.69840306971329" lon="15.778235034746968"><ele>591.8</ele><time>2026-04-14T15:50:27Z</time></trkpt><trkpt lat="41.69830211109493" lon="15.778232682688616"><ele>595.0</ele><time>2026-04-14T15:50:29Z</time></trkpt><trkpt lat="41.69817615337063" lon="15.778252086426583"><ele>595.0</ele><time>2026-04-14T15:50:31Z</time></trkpt><trkpt lat="41.69809662719909" lon="15.778257742022264"><ele>595.0</ele><time>2026-04-14T15:50:32Z</time></trkpt><trkpt lat="41.698010451928155" lon="15.778270558237143"><ele>595.0</ele><time>2026-04-14T15:50:33Z</time></trkpt><trkpt lat="41.69793851526387" lon="15.778287428392494"><ele>595.0</ele><time>2026-04-14T15:50:34Z</time></trkpt><trkpt lat="41.697858328152094" lon="15.7783128963773"><ele>595.0</ele><time>2026-04-14T15:50:35Z</time></trkpt><trkpt lat="41.697774646151515" lon="15.778300947436685"><ele>595.0</ele><time>2026-04-14T15:50:37Z</time></trkpt><trkpt lat="41.69769290632864" lon="15.778332292633383"><ele>598.1666666666667</ele><time>2026-04-14T15:50:40Z</time></trkpt><trkpt lat="41.697623683945004" lon="15.778326007020112"><ele>601.3333333333334</ele><time>2026-04-14T15:50:43Z</time></trkpt><trkpt lat="41.69755546944762" lon="15.778355373777789"><ele>604.5</ele><time>2026-04-14T15:50:47Z</time></trkpt><trkpt lat="41.69749025951488" lon="15.778409909721407"><ele>607.6666666666666</ele><time>2026-04-14T15:50:49Z</time></trkpt><trkpt lat="41.69743413378302" lon="15.778460392672315"><ele>610.8333333333333</ele><time>2026-04-14T15:50:51Z</time></trkpt><trkpt lat="41.69735116462404" lon="15.778520750239322"><ele>614.0</ele><time>2026-04-14T15:50:53Z</time></trkpt><trkpt lat="41.69728482481935" lon="15.778552764293073"><ele>615.6666666666666</ele><time>2026-04-14T15:50:58Z</time></trkpt><trkpt lat="41.69723398039185" lon="15.778615874422371"><ele>617.3333333333333</ele><time>2026-04-14T15:51:00Z</time></trkpt><trkpt lat="41.697166386944154" lon="15.778666808009532"><ele>619.0</ele><time>2026-04-14T15:51:02Z</time></trkpt><trkpt lat="41.697111443068685" lon="15.778720057715862"><ele>620.6666666666666</ele><time>2026-04-14T15:51:04Z</time></trkpt><trkpt lat="41.69698958486992" lon="15.778778601774803"><ele>622.3333333333334</ele><time>2026-04-14T15:51:07Z</time></trkpt><trkpt lat="41.69690675044824" lon="15.77877262362528"><ele>624.0</ele><time>2026-04-14T15:51:10Z</time></trkpt><trkpt lat="41.69681949091818" lon="15.778771207370065"><ele>625.5</ele><time>2026-04-14T15:51:12Z</time></trkpt><trkpt lat="41.69677692718205" lon="15.778853592087815"><ele>627.0</ele><time>2026-04-14T15:51:15Z</time></trkpt><trkpt lat="41.69670562657002" lon="15.778898873704556"><ele>628.5</ele><time>2026-04-14T15:51:17Z</time></trkpt><trkpt lat="41.69663483738187" lon="15.778941188929661"><ele>630.0</ele><time>2026-04-14T15:51:19Z</time></trkpt><trkpt lat="41.696581851663666" lon="15.779002525509286"><ele>631.5</ele><time>2026-04-14T15:51:21Z</time></trkpt><trkpt lat="41.69648478188275" lon="15.779054325659796"><ele>633.0</ele><time>2026-04-14T15:51:22Z</time></trkpt><trkpt lat="41.696375897617926" lon="15.779039242128954"><ele>633.0</ele><time>2026-04-14T15:51:23Z</time></trkpt><trkpt lat="41.696273607576984" lon="15.779055449092318"><ele>633.0</ele><time>2026-04-14T15:51:24Z</time></trkpt><trkpt lat="41.69619508041914" lon="15.77907793015342"><ele>633.0</ele><time>2026-04-14T15:51:25Z</time></trkpt><trkpt lat="41.6961247135674" lon="15.779110908864508"><ele>633.0</ele><time>2026-04-14T15:51:26Z</time></trkpt><trkpt lat="41.696036634163825" lon="15.779141642436148"><ele>633.0</ele><time>2026-04-14T15:51:27Z</time></trkpt><trkpt lat="41.69596201474583" lon="15.779153343193661"><ele>633.0</ele><time>2026-04-14T15:51:28Z</time></trkpt><trkpt lat="41.69586188911715" lon="15.779167999979284"><ele>634.5999999999999</ele><time>2026-04-14T15:51:29Z</time></trkpt><trkpt lat="41.69578614218956" lon="15.779171503495682"><ele>636.1999999999999</ele><time>2026-04-14T15:51:30Z</time></trkpt><trkpt lat="41.69569742817556" lon="15.779184042465095"><ele>637.8</ele><time>2026-04-14T15:51:31Z</time></trkpt><trkpt lat="41.69558751396524" lon="15.779204749706707"><ele>639.4</ele><time>2026-04-14T15:51:32Z</time></trkpt><trkpt lat="41.695494640115676" lon="15.779223432394518"><ele>641.0</ele><time>2026-04-14T15:51:33Z</time></trkpt><trkpt lat="41.69540545697907" lon="15.779234468610278"><ele>641.0</ele><time>2026-04-14T15:51:34Z</time></trkpt><trkpt lat="41.69533066602946" lon="15.779249438946678"><ele>641.0</ele><time>2026-04-14T15:51:35Z</time></trkpt><trkpt lat="41.6952617462239" lon="15.779270223315162"><ele>641.0</ele><time>2026-04-14T15:51:36Z</time></trkpt><trkpt lat="41.69519500132395" lon="15.779284338973643"><ele>641.0</ele><time>2026-04-14T15:51:37Z</time></trkpt><trkpt lat="41.695130783172196" lon="15.779279052729137"><ele>641.0</ele><time>2026-04-14T15:51:38Z</time></trkpt><trkpt lat="41.69506360981329" lon="15.779260304244438"><ele>641.0</ele><time>2026-04-14T15:51:39Z</time></trkpt><trkpt lat="41.69498678530748" lon="15.779252907077142"><ele>641.0</ele><time>2026-04-14T15:51:40Z</time></trkpt><trkpt lat="41.69490539238655" lon="15.779248328755092"><ele>642.5</ele><time>2026-04-14T15:51:40.999Z</time></trkpt><trkpt lat="41.694834425715385" lon="15.779237114510897"><ele>644.0</ele><time>2026-04-14T15:51:41.999Z</time></trkpt><trkpt lat="41.69476013972708" lon="15.779239403659545"><ele>645.5</ele><time>2026-04-14T15:51:42.999Z</time></trkpt><trkpt lat="41.694684438158994" lon="15.77923919289528"><ele>647.0</ele><time>2026-04-14T15:51:43.999Z</time></trkpt><trkpt lat="41.6946100343947" lon="15.779238102273116"><ele>648.5</ele><time>2026-04-14T15:51:44.999Z</time></trkpt><trkpt lat="41.694530132894236" lon="15.779229589094243"><ele>650.0</ele><time>2026-04-14T15:51:45.999Z</time></trkpt><trkpt lat="41.69444997695407" lon="15.779223994599306"><ele>650.4</ele><time>2026-04-14T15:51:46.999Z</time></trkpt><trkpt lat="41.69432811513951" lon="15.779212183678103"><ele>650.8</ele><time>2026-04-14T15:51:48.999Z</time></trkpt><trkpt lat="41.69421001915039" lon="15.77917151133335"><ele>651.2</ele><time>2026-04-14T15:51:50.999Z</time></trkpt><trkpt lat="41.69415864159143" lon="15.779119550145175"><ele>651.6</ele><time>2026-04-14T15:51:51.999Z</time></trkpt><trkpt lat="41.69405963308901" lon="15.779033499602281"><ele>652.0</ele><time>2026-04-14T15:51:53.999Z</time></trkpt><trkpt lat="41.69402120680263" lon="15.77895378247357"><ele>652.0</ele><time>2026-04-14T15:51:55.999Z</time></trkpt><trkpt lat="41.69398513805261" lon="15.77886226809728"><ele>652.0</ele><time>2026-04-14T15:51:57.999Z</time></trkpt><trkpt lat="41.69395412110127" lon="15.778788207068189"><ele>652.0</ele><time>2026-04-14T15:53:13Z</time></trkpt><trkpt lat="41.69390703271633" lon="15.778672737049911"><ele>652.0</ele><time>2026-04-14T15:53:15Z</time></trkpt><trkpt lat="41.69385603808188" lon="15.778548575292552"><ele>652.0</ele><time>2026-04-14T15:53:17Z</time></trkpt><trkpt lat="41.693792646859194" lon="15.77841100497261"><ele>651.6666666666667</ele><time>2026-04-14T15:53:19Z</time></trkpt><trkpt lat="41.69375917861662" lon="15.778338068837865"><ele>651.3333333333334</ele><time>2026-04-14T15:53:20Z</time></trkpt><trkpt lat="41.69372623617058" lon="15.778266007798065"><ele>651.0</ele><time>2026-04-14T15:53:21Z</time></trkpt><trkpt lat="41.69364859990544" lon="15.778129890112266"><ele>650.6666666666666</ele><time>2026-04-14T15:53:23Z</time></trkpt><trkpt lat="41.693590901168996" lon="15.778064649537507"><ele>650.3333333333333</ele><time>2026-04-14T15:53:24Z</time></trkpt><trkpt lat="41.6935378816432" lon="15.77800172925791"><ele>650.0</ele><time>2026-04-14T15:53:25Z</time></trkpt><trkpt lat="41.69349517660072" lon="15.777935320627433"><ele>650.0</ele><time>2026-04-14T15:53:26Z</time></trkpt><trkpt lat="41.69341837507005" lon="15.777805952934282"><ele>650.0</ele><time>2026-04-14T15:53:28Z</time></trkpt><trkpt lat="41.69338725030489" lon="15.777671559219428"><ele>650.0</ele><time>2026-04-14T15:53:30Z</time></trkpt><trkpt lat="41.69341705531874" lon="15.777517585727406"><ele>650.0</ele><time>2026-04-14T15:53:32Z</time></trkpt><trkpt lat="41.693444941692825" lon="15.777414933915223"><ele>650.0</ele><time>2026-04-14T15:53:33Z</time></trkpt><trkpt lat="41.693453423949556" lon="15.777316961261397"><ele>649.3333333333333</ele><time>2026-04-14T15:53:34Z</time></trkpt><trkpt lat="41.693455105306" lon="15.777217057902403"><ele>648.6666666666666</ele><time>2026-04-14T15:53:35Z</time></trkpt><trkpt lat="41.69345324157296" lon="15.777108187191534"><ele>648.0</ele><time>2026-04-14T15:53:36Z</time></trkpt><trkpt lat="41.69344371372467" lon="15.777002346084577"><ele>647.3333333333334</ele><time>2026-04-14T15:53:37Z</time></trkpt><trkpt lat="41.69340808341393" lon="15.776909298587034"><ele>646.6666666666667</ele><time>2026-04-14T15:53:38Z</time></trkpt><trkpt lat="41.69336827140146" lon="15.776800364667572"><ele>646.0</ele><time>2026-04-14T15:53:39Z</time></trkpt><trkpt lat="41.69333308227727" lon="15.776676978925305"><ele>645.5999999999999</ele><time>2026-04-14T15:53:40Z</time></trkpt><trkpt lat="41.69331511848911" lon="15.776550510485817"><ele>645.2</ele><time>2026-04-14T15:53:41Z</time></trkpt><trkpt lat="41.69329591126029" lon="15.776419282374802"><ele>644.8</ele><time>2026-04-14T15:53:42Z</time></trkpt><trkpt lat="41.69327090669735" lon="15.776279636692152"><ele>644.4000000000001</ele><time>2026-04-14T15:53:43Z</time></trkpt><trkpt lat="41.69325348345916" lon="15.776138374780464"><ele>644.0</ele><time>2026-04-14T15:53:44Z</time></trkpt><trkpt lat="41.69324783059779" lon="15.775997016473623"><ele>643.8000000000001</ele><time>2026-04-14T15:53:45Z</time></trkpt><trkpt lat="41.69324237573371" lon="15.77585021339315"><ele>643.6</ele><time>2026-04-14T15:53:46Z</time></trkpt><trkpt lat="41.693238497295155" lon="15.775714337590111"><ele>643.4</ele><time>2026-04-14T15:53:47Z</time></trkpt><trkpt lat="41.693244735021835" lon="15.77556826495042"><ele>643.2</ele><time>2026-04-14T15:53:48Z</time></trkpt><trkpt lat="41.693253988644386" lon="15.775432278460784"><ele>643.0</ele><time>2026-04-14T15:53:49Z</time></trkpt><trkpt lat="41.69326101279163" lon="15.775297294528745"><ele>643.0</ele><time>2026-04-14T15:53:50Z</time></trkpt><trkpt lat="41.69325398451256" lon="15.775165499350065"><ele>643.0</ele><time>2026-04-14T15:53:51Z</time></trkpt><trkpt lat="41.69322964709959" lon="15.775022891365184"><ele>643.0</ele><time>2026-04-14T15:53:52Z</time></trkpt><trkpt lat="41.6931876960455" lon="15.774889232767999"><ele>643.0</ele><time>2026-04-14T15:53:53Z</time></trkpt><trkpt lat="41.6931246242545" lon="15.774739976630999"><ele>643.0</ele><time>2026-04-14T15:53:54Z</time></trkpt><trkpt lat="41.69307086249149" lon="15.774593733625707"><ele>643.0</ele><time>2026-04-14T15:53:55Z</time></trkpt><trkpt lat="41.69302799114325" lon="15.774454155737306"><ele>643.0</ele><time>2026-04-14T15:53:56Z</time></trkpt><trkpt lat="41.692991504026196" lon="15.774317840134742"><ele>643.0</ele><time>2026-04-14T15:53:57Z</time></trkpt><trkpt lat="41.692960713558115" lon="15.77418366683912"><ele>643.0</ele><time>2026-04-14T15:53:58Z</time></trkpt><trkpt lat="41.6929456020121" lon="15.774041921711508"><ele>643.0</ele><time>2026-04-14T15:53:59Z</time></trkpt><trkpt lat="41.692952894606066" lon="15.773897279611628"><ele>642.75</ele><time>2026-04-14T15:54:00Z</time></trkpt><trkpt lat="41.692986061282085" lon="15.77374017838328"><ele>642.5</ele><time>2026-04-14T15:54:01Z</time></trkpt><trkpt lat="41.693021632919674" lon="15.773579332889048"><ele>642.25</ele><time>2026-04-14T15:54:02Z</time></trkpt><trkpt lat="41.693055244674895" lon="15.773429420029071"><ele>642.0</ele><time>2026-04-14T15:54:03Z</time></trkpt><trkpt lat="41.69307802228569" lon="15.773293166816135"><ele>641.6</ele><time>2026-04-14T15:54:04Z</time></trkpt><trkpt lat="41.69311062169273" lon="15.773152333555533"><ele>641.2</ele><time>2026-04-14T15:54:04.999Z</time></trkpt><trkpt lat="41.693153416076484" lon="15.77302744357832"><ele>640.8</ele><time>2026-04-14T15:54:05.999Z</time></trkpt><trkpt lat="41.693191845849874" lon="15.772901982306477"><ele>640.4</ele><time>2026-04-14T15:54:06.999Z</time></trkpt><trkpt lat="41.693229772072065" lon="15.772787161773"><ele>640.0</ele><time>2026-04-14T15:54:07.999Z</time></trkpt><trkpt lat="41.69327228322486" lon="15.772677912971341"><ele>639.4</ele><time>2026-04-14T15:54:08.999Z</time></trkpt><trkpt lat="41.69330462146758" lon="15.772568154980911"><ele>638.8</ele><time>2026-04-14T15:54:09.999Z</time></trkpt><trkpt lat="41.69333439063525" lon="15.77244815117765"><ele>638.2</ele><time>2026-04-14T15:54:10.999Z</time></trkpt><trkpt lat="41.693362440929576" lon="15.772330836291587"><ele>637.6</ele><time>2026-04-14T15:54:11.999Z</time></trkpt><trkpt lat="41.69339526307781" lon="15.772204440417976"><ele>637.0</ele><time>2026-04-14T15:54:12.999Z</time></trkpt><trkpt lat="41.693423479867064" lon="15.772073097124194"><ele>637.0</ele><time>2026-04-14T15:54:13.999Z</time></trkpt><trkpt lat="41.69344637144496" lon="15.77194892170043"><ele>637.0</ele><time>2026-04-14T15:54:14.999Z</time></trkpt><trkpt lat="41.69347030764534" lon="15.771826338039785"><ele>637.0</ele><time>2026-04-14T15:54:15.999Z</time></trkpt><trkpt lat="41.6934945177337" lon="15.771695063436248"><ele>637.0</ele><time>2026-04-14T15:54:16.999Z</time></trkpt><trkpt lat="41.6935151036802" lon="15.771559082054372"><ele>637.0</ele><time>2026-04-14T15:54:17.999Z</time></trkpt><trkpt lat="41.69354430200921" lon="15.771430711953286"><ele>637.4</ele><time>2026-04-14T15:54:18.999Z</time></trkpt><trkpt lat="41.69359173077733" lon="15.771298235785924"><ele>637.8000000000001</ele><time>2026-04-14T15:54:19.999Z</time></trkpt><trkpt lat="41.69363524824608" lon="15.771168841416216"><ele>638.2</ele><time>2026-04-14T15:54:20.999Z</time></trkpt><trkpt lat="41.69368223316443" lon="15.771051293711608"><ele>638.6</ele><time>2026-04-14T15:54:21.999Z</time></trkpt><trkpt lat="41.69373463381385" lon="15.770926449173901"><ele>639.0</ele><time>2026-04-14T15:54:22.999Z</time></trkpt><trkpt lat="41.69377344902255" lon="15.770798661264402"><ele>638.0</ele><time>2026-04-14T15:54:23.999Z</time></trkpt><trkpt lat="41.69382154454327" lon="15.770669361086822"><ele>637.0</ele><time>2026-04-14T15:54:24.999Z</time></trkpt><trkpt lat="41.693865535511755" lon="15.77055219034677"><ele>636.0</ele><time>2026-04-14T15:54:25.999Z</time></trkpt><trkpt lat="41.69391353969731" lon="15.770435595180519"><ele>635.0</ele><time>2026-04-14T15:54:27Z</time></trkpt><trkpt lat="41.69396212016938" lon="15.770334898766809"><ele>634.0</ele><time>2026-04-14T15:54:28Z</time></trkpt><trkpt lat="41.69401744367333" lon="15.770254960918262"><ele>633.3333333333334</ele><time>2026-04-14T15:54:29Z</time></trkpt><trkpt lat="41.69409025454141" lon="15.7701902070542"><ele>632.6666666666667</ele><time>2026-04-14T15:54:30Z</time></trkpt><trkpt lat="41.694165877169226" lon="15.770143411929926"><ele>632.0</ele><time>2026-04-14T15:54:31Z</time></trkpt><trkpt lat="41.69423124309949" lon="15.770079593986681"><ele>631.3333333333334</ele><time>2026-04-14T15:54:32Z</time></trkpt><trkpt lat="41.69427581804746" lon="15.769989738783655"><ele>630.6666666666666</ele><time>2026-04-14T15:54:33Z</time></trkpt><trkpt lat="41.69429189829576" lon="15.769862613136988"><ele>630.0</ele><time>2026-04-14T15:54:34Z</time></trkpt><trkpt lat="41.69430383928593" lon="15.769716341998196"><ele>630.0</ele><time>2026-04-14T15:54:35Z</time></trkpt><trkpt lat="41.69432622598563" lon="15.769559142051815"><ele>630.0</ele><time>2026-04-14T15:54:36Z</time></trkpt><trkpt lat="41.69435140868657" lon="15.769409564948187"><ele>630.0</ele><time>2026-04-14T15:54:37Z</time></trkpt><trkpt lat="41.69437421179981" lon="15.769247037684288"><ele>630.0</ele><time>2026-04-14T15:54:38Z</time></trkpt><trkpt lat="41.694398275320076" lon="15.769088125150226"><ele>629.25</ele><time>2026-04-14T15:54:39Z</time></trkpt><trkpt lat="41.69442105916331" lon="15.768934639107792"><ele>628.5</ele><time>2026-04-14T15:54:40Z</time></trkpt><trkpt lat="41.694427932134644" lon="15.768773653793758"><ele>627.75</ele><time>2026-04-14T15:54:41Z</time></trkpt><trkpt lat="41.694414687014756" lon="15.768607845907564"><ele>627.0</ele><time>2026-04-14T15:54:42Z</time></trkpt><trkpt lat="41.694377195125554" lon="15.768409549826465"><ele>627.0</ele><time>2026-04-14T15:54:43Z</time></trkpt><trkpt lat="41.694332217005595" lon="15.768229765474903"><ele>627.0</ele><time>2026-04-14T15:54:44Z</time></trkpt><trkpt lat="41.69428154790591" lon="15.768062095345503"><ele>627.0</ele><time>2026-04-14T15:54:45Z</time></trkpt><trkpt lat="41.694239656493345" lon="15.767916436114614"><ele>627.0</ele><time>2026-04-14T15:54:46Z</time></trkpt><trkpt lat="41.694211866827445" lon="15.767785652322933"><ele>627.8000000000001</ele><time>2026-04-14T15:54:47Z</time></trkpt><trkpt lat="41.69419137815909" lon="15.767670094121675"><ele>628.6</ele><time>2026-04-14T15:54:48Z</time></trkpt><trkpt lat="41.69417270044281" lon="15.767558436949255"><ele>629.4000000000001</ele><time>2026-04-14T15:54:49Z</time></trkpt><trkpt lat="41.694159329375616" lon="15.767444311929536"><ele>630.2</ele><time>2026-04-14T15:54:50Z</time></trkpt><trkpt lat="41.694147171959614" lon="15.76731491665619"><ele>631.0</ele><time>2026-04-14T15:54:51Z</time></trkpt><trkpt lat="41.694143321605054" lon="15.767179505060817"><ele>631.0</ele><time>2026-04-14T15:54:52Z</time></trkpt><trkpt lat="41.694152947362056" lon="15.76702538331603"><ele>631.0</ele><time>2026-04-14T15:54:53Z</time></trkpt><trkpt lat="41.69416432692705" lon="15.766855200327585"><ele>631.0</ele><time>2026-04-14T15:54:54Z</time></trkpt><trkpt lat="41.69418083833096" lon="15.766686295840113"><ele>631.0</ele><time>2026-04-14T15:54:55Z</time></trkpt><trkpt lat="41.694201705148316" lon="15.766501171079211"><ele>631.5</ele><time>2026-04-14T15:54:56Z</time></trkpt><trkpt lat="41.6942184841059" lon="15.76630275260393"><ele>632.0</ele><time>2026-04-14T15:54:57Z</time></trkpt><trkpt lat="41.694236164252374" lon="15.766093808130643"><ele>632.5</ele><time>2026-04-14T15:54:58Z</time></trkpt><trkpt lat="41.69425299076866" lon="15.76590707391719"><ele>633.0</ele><time>2026-04-14T15:54:59Z</time></trkpt><trkpt lat="41.6942656792725" lon="15.76573618748269"><ele>633.0</ele><time>2026-04-14T15:55:00Z</time></trkpt><trkpt lat="41.69427431569258" lon="15.765572707970096"><ele>633.0</ele><time>2026-04-14T15:55:01Z</time></trkpt><trkpt lat="41.69426518495735" lon="15.765422910953601"><ele>633.0</ele><time>2026-04-14T15:55:02Z</time></trkpt><trkpt lat="41.69425976117955" lon="15.765282129536239"><ele>633.0</ele><time>2026-04-14T15:55:03Z</time></trkpt><trkpt lat="41.69425560228848" lon="15.765141412313856"><ele>633.0</ele><time>2026-04-14T15:55:04Z</time></trkpt><trkpt lat="41.694268307364005" lon="15.765011875485918"><ele>632.6</ele><time>2026-04-14T15:55:05Z</time></trkpt><trkpt lat="41.69428223846865" lon="15.764875075857034"><ele>632.1999999999999</ele><time>2026-04-14T15:55:06Z</time></trkpt><trkpt lat="41.69430403890719" lon="15.764740477453852"><ele>631.8</ele><time>2026-04-14T15:55:07Z</time></trkpt><trkpt lat="41.69429376213707" lon="15.764602817400412"><ele>631.4</ele><time>2026-04-14T15:55:08Z</time></trkpt><trkpt lat="41.6942835802291" lon="15.76447764199289"><ele>631.0</ele><time>2026-04-14T15:55:09Z</time></trkpt><trkpt lat="41.69428461271738" lon="15.764358133359922"><ele>630.8</ele><time>2026-04-14T15:55:10Z</time></trkpt><trkpt lat="41.69430811462292" lon="15.764253603261627"><ele>630.6</ele><time>2026-04-14T15:55:11Z</time></trkpt><trkpt lat="41.69435813871951" lon="15.764153622538297"><ele>630.4</ele><time>2026-04-14T15:55:12Z</time></trkpt><trkpt lat="41.69443401021263" lon="15.764037461423918"><ele>630.2</ele><time>2026-04-14T15:55:13Z</time></trkpt><trkpt lat="41.69451858759211" lon="15.763938996505441"><ele>630.0</ele><time>2026-04-14T15:55:14Z</time></trkpt><trkpt lat="41.69459678883923" lon="15.763831295749133"><ele>630.0</ele><time>2026-04-14T15:55:15Z</time></trkpt><trkpt lat="41.694660355111246" lon="15.763712286840176"><ele>630.0</ele><time>2026-04-14T15:55:16Z</time></trkpt><trkpt lat="41.694725042999856" lon="15.763586044420336"><ele>630.0</ele><time>2026-04-14T15:55:17Z</time></trkpt><trkpt lat="41.694786068608195" lon="15.763459772125847"><ele>630.0</ele><time>2026-04-14T15:55:18Z</time></trkpt><trkpt lat="41.69484177488115" lon="15.763323733106661"><ele>629.75</ele><time>2026-04-14T15:55:19Z</time></trkpt><trkpt lat="41.69489567941683" lon="15.76315233236043"><ele>629.5</ele><time>2026-04-14T15:55:20Z</time></trkpt><trkpt lat="41.694944487803866" lon="15.762957622225697"><ele>629.25</ele><time>2026-04-14T15:55:21Z</time></trkpt><trkpt lat="41.6950005076462" lon="15.762771292803626"><ele>629.0</ele><time>2026-04-14T15:55:22Z</time></trkpt><trkpt lat="41.69505482745946" lon="15.76258681100688"><ele>629.0</ele><time>2026-04-14T15:55:23Z</time></trkpt><trkpt lat="41.695100328063255" lon="15.762409617644101"><ele>629.0</ele><time>2026-04-14T15:55:24Z</time></trkpt><trkpt lat="41.69515654475234" lon="15.762240431873632"><ele>629.0</ele><time>2026-04-14T15:55:25Z</time></trkpt><trkpt lat="41.69521231947319" lon="15.762073677830005"><ele>629.0</ele><time>2026-04-14T15:55:26Z</time></trkpt><trkpt lat="41.695250690454124" lon="15.761915181757471"><ele>629.0</ele><time>2026-04-14T15:55:27Z</time></trkpt><trkpt lat="41.69528328265431" lon="15.761764701155464"><ele>629.0</ele><time>2026-04-14T15:55:28Z</time></trkpt><trkpt lat="41.69531202851488" lon="15.761628436180317"><ele>629.0</ele><time>2026-04-14T15:55:29Z</time></trkpt><trkpt lat="41.69534442689924" lon="15.761495236050624"><ele>629.0</ele><time>2026-04-14T15:55:30Z</time></trkpt><trkpt lat="41.69537356138867" lon="15.761381869419433"><ele>629.0</ele><time>2026-04-14T15:55:31Z</time></trkpt><trkpt lat="41.69539065192274" lon="15.76127312576748"><ele>629.0</ele><time>2026-04-14T15:55:32Z</time></trkpt><trkpt lat="41.695395001324684" lon="15.761174899066011"><ele>629.0</ele><time>2026-04-14T15:55:33Z</time></trkpt><trkpt lat="41.69538907242085" lon="15.761089626900587"><ele>629.0</ele><time>2026-04-14T15:55:34Z</time></trkpt><trkpt lat="41.69532766948877" lon="15.760980894472988"><ele>629.0</ele><time>2026-04-14T15:55:36Z</time></trkpt><trkpt lat="41.69526272701341" lon="15.760971871234421"><ele>629.0</ele><time>2026-04-14T15:55:37Z</time></trkpt><trkpt lat="41.69518051568296" lon="15.760983458772943"><ele>629.0</ele><time>2026-04-14T15:55:38Z</time></trkpt><trkpt lat="41.69509774881267" lon="15.760983455887224"><ele>628.8333333333333</ele><time>2026-04-14T15:55:39Z</time></trkpt><trkpt lat="41.69502625367" lon="15.760984000391677"><ele>628.6666666666666</ele><time>2026-04-14T15:55:40Z</time></trkpt><trkpt lat="41.694945484519714" lon="15.76097869118189"><ele>628.5</ele><time>2026-04-14T15:55:41Z</time></trkpt><trkpt lat="41.69486470661937" lon="15.760977046741042"><ele>628.3333333333334</ele><time>2026-04-14T15:55:42Z</time></trkpt><trkpt lat="41.69478487349575" lon="15.760985909265512"><ele>628.1666666666667</ele><time>2026-04-14T15:55:43Z</time></trkpt><trkpt lat="41.69470780988028" lon="15.760967879802282"><ele>628.0</ele><time>2026-04-14T15:55:44Z</time></trkpt><trkpt lat="41.69462805867759" lon="15.760946046620122"><ele>628.0</ele><time>2026-04-14T15:55:45Z</time></trkpt><trkpt lat="41.694543100317304" lon="15.76093809296983"><ele>628.0</ele><time>2026-04-14T15:55:46Z</time></trkpt><trkpt lat="41.6944624979819" lon="15.760938364087881"><ele>628.0</ele><time>2026-04-14T15:55:47Z</time></trkpt><trkpt lat="41.69438833901481" lon="15.760919022845687"><ele>628.0</ele><time>2026-04-14T15:55:48Z</time></trkpt><trkpt lat="41.69431238538904" lon="15.760877709798047"><ele>628.0</ele><time>2026-04-14T15:55:49Z</time></trkpt><trkpt lat="41.694217968644196" lon="15.76083372827611"><ele>628.0</ele><time>2026-04-14T15:55:50Z</time></trkpt><trkpt lat="41.694137275912205" lon="15.760795654164006"><ele>627.6</ele><time>2026-04-14T15:55:51Z</time></trkpt><trkpt lat="41.69404880465214" lon="15.760758801098069"><ele>627.1999999999999</ele><time>2026-04-14T15:55:52Z</time></trkpt><trkpt lat="41.69396324803521" lon="15.760729967827293"><ele>626.8</ele><time>2026-04-14T15:55:53Z</time></trkpt><trkpt lat="41.69387499644574" lon="15.760610540653413"><ele>626.4</ele><time>2026-04-14T15:55:55Z</time></trkpt><trkpt lat="41.693866954173224" lon="15.76050944320113"><ele>626.0</ele><time>2026-04-14T15:55:56Z</time></trkpt><trkpt lat="41.69387208560538" lon="15.760406506533677"><ele>626.0</ele><time>2026-04-14T15:55:57Z</time></trkpt><trkpt lat="41.69386850721422" lon="15.760300972449663"><ele>626.0</ele><time>2026-04-14T15:55:58Z</time></trkpt><trkpt lat="41.693858301183916" lon="15.760188249599853"><ele>626.0</ele><time>2026-04-14T15:55:59Z</time></trkpt><trkpt lat="41.69383615628886" lon="15.760093578399694"><ele>626.0</ele><time>2026-04-14T15:56:00Z</time></trkpt><trkpt lat="41.693813752172964" lon="15.759989548964397"><ele>626.0</ele><time>2026-04-14T15:56:01Z</time></trkpt><trkpt lat="41.69377735225766" lon="15.759888931408783"><ele>626.0</ele><time>2026-04-14T15:56:02Z</time></trkpt><trkpt lat="41.69373685174163" lon="15.759804610922979"><ele>625.4285714285714</ele><time>2026-04-14T15:56:03Z</time></trkpt><trkpt lat="41.69368128015093" lon="15.759739693095476"><ele>624.8571428571429</ele><time>2026-04-14T15:56:04Z</time></trkpt><trkpt lat="41.69361369487235" lon="15.759697975626128"><ele>624.2857142857142</ele><time>2026-04-14T15:56:05Z</time></trkpt><trkpt lat="41.69353919879427" lon="15.759640583143204"><ele>623.7142857142858</ele><time>2026-04-14T15:56:06Z</time></trkpt><trkpt lat="41.693495417452105" lon="15.759559419926783"><ele>623.1428571428572</ele><time>2026-04-14T15:56:06.999Z</time></trkpt><trkpt lat="41.69348192336334" lon="15.759471763057679"><ele>622.5714285714286</ele><time>2026-04-14T15:56:07.999Z</time></trkpt><trkpt lat="41.693511720135696" lon="15.759386163973854"><ele>622.0</ele><time>2026-04-14T15:56:08.999Z</time></trkpt><trkpt lat="41.69354379066307" lon="15.759223211193744"><ele>620.2</ele><time>2026-04-14T15:56:10.999Z</time></trkpt><trkpt lat="41.69355264778773" lon="15.759050084673868"><ele>618.4000000000001</ele><time>2026-04-14T15:56:12.999Z</time></trkpt><trkpt lat="41.69354448423347" lon="15.758960634222118"><ele>616.5999999999999</ele><time>2026-04-14T15:56:13.999Z</time></trkpt><trkpt lat="41.69353207306441" lon="15.758827861252744"><ele>614.8</ele><time>2026-04-14T15:56:14.999Z</time></trkpt><trkpt lat="41.69352962784873" lon="15.758729222073013"><ele>613.0</ele><time>2026-04-14T15:56:15.999Z</time></trkpt><trkpt lat="41.69354303043574" lon="15.758595621401174"><ele>611.8</ele><time>2026-04-14T15:56:17.999Z</time></trkpt><trkpt lat="41.69351118743184" lon="15.758499638239602"><ele>610.5999999999999</ele><time>2026-04-14T15:56:19.999Z</time></trkpt><trkpt lat="41.69347614621791" lon="15.758345061364889"><ele>609.4000000000001</ele><time>2026-04-14T15:56:21.999Z</time></trkpt><trkpt lat="41.69343218276739" lon="15.758209521981573"><ele>608.2</ele><time>2026-04-14T15:56:23.999Z</time></trkpt><trkpt lat="41.69341599924207" lon="15.75812587745202"><ele>607.0</ele><time>2026-04-14T15:56:24.999Z</time></trkpt><trkpt lat="41.693395076108935" lon="15.757977241808033"><ele>607.0</ele><time>2026-04-14T15:56:26.999Z</time></trkpt><trkpt lat="41.693408606500654" lon="15.757888407795477"><ele>607.0</ele><time>2026-04-14T15:56:27.999Z</time></trkpt><trkpt lat="41.693419180972036" lon="15.757778758754394"><ele>607.0</ele><time>2026-04-14T15:56:28.999Z</time></trkpt><trkpt lat="41.69342596759278" lon="15.757673276577071"><ele>607.0</ele><time>2026-04-14T15:56:29.999Z</time></trkpt><trkpt lat="41.69342889992424" lon="15.757556008034848"><ele>607.0</ele><time>2026-04-14T15:56:30.999Z</time></trkpt><trkpt lat="41.693439605145784" lon="15.757448283719992"><ele>607.0</ele><time>2026-04-14T15:56:31.999Z</time></trkpt><trkpt lat="41.693447682334636" lon="15.757337940859216"><ele>606.4</ele><time>2026-04-14T15:56:33Z</time></trkpt><trkpt lat="41.693445853009344" lon="15.75724173413199"><ele>605.8000000000001</ele><time>2026-04-14T15:56:34Z</time></trkpt><trkpt lat="41.6934354406857" lon="15.757077248301696"><ele>605.2</ele><time>2026-04-14T15:56:36Z</time></trkpt><trkpt lat="41.69335783204189" lon="15.756943977118205"><ele>604.6</ele><time>2026-04-14T15:56:38Z</time></trkpt><trkpt lat="41.69328639764746" lon="15.756881478700718"><ele>604.0</ele><time>2026-04-14T15:56:39Z</time></trkpt><trkpt lat="41.69321089665681" lon="15.756850492607864"><ele>603.6666666666667</ele><time>2026-04-14T15:56:40Z</time></trkpt><trkpt lat="41.69315030808396" lon="15.756772651914895"><ele>603.3333333333334</ele><time>2026-04-14T15:56:41Z</time></trkpt><trkpt lat="41.693115215886294" lon="15.756677182259693"><ele>603.0</ele><time>2026-04-14T15:56:42Z</time></trkpt><trkpt lat="41.69308279439091" lon="15.75657970487518"><ele>602.6666666666666</ele><time>2026-04-14T15:56:43Z</time></trkpt><trkpt lat="41.69303610978276" lon="15.756476131697822"><ele>602.3333333333333</ele><time>2026-04-14T15:56:44Z</time></trkpt><trkpt lat="41.69296558724422" lon="15.756379901891407"><ele>602.0</ele><time>2026-04-14T15:56:45Z</time></trkpt><trkpt lat="41.69287853517447" lon="15.756275356904661"><ele>602.0</ele><time>2026-04-14T15:56:46Z</time></trkpt><trkpt lat="41.692793083297666" lon="15.756165270833742"><ele>602.0</ele><time>2026-04-14T15:56:47Z</time></trkpt><trkpt lat="41.692709022771055" lon="15.75606129413805"><ele>602.0</ele><time>2026-04-14T15:56:48Z</time></trkpt><trkpt lat="41.69262689798425" lon="15.755955273412207"><ele>602.0</ele><time>2026-04-14T15:56:49Z</time></trkpt><trkpt lat="41.692560626856164" lon="15.755848825680628"><ele>601.2</ele><time>2026-04-14T15:56:50Z</time></trkpt><trkpt lat="41.69249863586041" lon="15.755748136903636"><ele>600.4000000000001</ele><time>2026-04-14T15:56:51Z</time></trkpt><trkpt lat="41.69245706866441" lon="15.755607617260786"><ele>599.5999999999999</ele><time>2026-04-14T15:56:52Z</time></trkpt><trkpt lat="41.6924424604344" lon="15.755478785163099"><ele>598.8</ele><time>2026-04-14T15:56:53Z</time></trkpt><trkpt lat="41.69242010517745" lon="15.755309271610328"><ele>598.0</ele><time>2026-04-14T15:56:54Z</time></trkpt><trkpt lat="41.69238171565105" lon="15.755147926723314"><ele>598.0</ele><time>2026-04-14T15:56:55Z</time></trkpt><trkpt lat="41.69234151183357" lon="15.754996833983723"><ele>598.0</ele><time>2026-04-14T15:56:56Z</time></trkpt><trkpt lat="41.69230527815" lon="15.754865929573945"><ele>598.0</ele><time>2026-04-14T15:56:57Z</time></trkpt><trkpt lat="41.692274414394745" lon="15.75473699915348"><ele>598.0</ele><time>2026-04-14T15:56:58Z</time></trkpt><trkpt lat="41.69227035577736" lon="15.75462656304606"><ele>598.0</ele><time>2026-04-14T15:56:59Z</time></trkpt><trkpt lat="41.69228202595245" lon="15.754530578969847"><ele>598.0</ele><time>2026-04-14T15:57:00Z</time></trkpt><trkpt lat="41.692320073116704" lon="15.754428089964314"><ele>598.0</ele><time>2026-04-14T15:57:01Z</time></trkpt><trkpt lat="41.692364803084466" lon="15.754305933211224"><ele>598.0</ele><time>2026-04-14T15:57:02Z</time></trkpt><trkpt lat="41.692414816604916" lon="15.75418900786275"><ele>598.0</ele><time>2026-04-14T15:57:03Z</time></trkpt><trkpt lat="41.692459903155815" lon="15.754067187871952"><ele>598.0</ele><time>2026-04-14T15:57:04Z</time></trkpt><trkpt lat="41.6925062744344" lon="15.753966925883619"><ele>598.0</ele><time>2026-04-14T15:57:05Z</time></trkpt><trkpt lat="41.69256373615586" lon="15.753893504622642"><ele>598.0</ele><time>2026-04-14T15:57:06Z</time></trkpt><trkpt lat="41.69266845181245" lon="15.753821297770747"><ele>598.0</ele><time>2026-04-14T15:57:08Z</time></trkpt><trkpt lat="41.69278346615095" lon="15.753771513227163"><ele>598.0</ele><time>2026-04-14T15:57:10Z</time></trkpt><trkpt lat="41.69284960631062" lon="15.753709214824504"><ele>598.0</ele><time>2026-04-14T15:57:11Z</time></trkpt><trkpt lat="41.69291928043557" lon="15.75364606766357"><ele>598.0</ele><time>2026-04-14T15:57:12Z</time></trkpt><trkpt lat="41.69301538351495" lon="15.753609677870966"><ele>598.0</ele><time>2026-04-14T15:57:13Z</time></trkpt><trkpt lat="41.69311616305726" lon="15.753585167498658"><ele>598.0</ele><time>2026-04-14T15:57:14Z</time></trkpt><trkpt lat="41.69321042665436" lon="15.753555982898153"><ele>598.0</ele><time>2026-04-14T15:57:15Z</time></trkpt><trkpt lat="41.69330077928761" lon="15.753520026860222"><ele>598.0</ele><time>2026-04-14T15:57:16Z</time></trkpt><trkpt lat="41.69337796427697" lon="15.753485743444308"><ele>598.3333333333334</ele><time>2026-04-14T15:57:17Z</time></trkpt><trkpt lat="41.69344625647892" lon="15.75344423308135"><ele>598.6666666666667</ele><time>2026-04-14T15:57:18Z</time></trkpt><trkpt lat="41.69350777206768" lon="15.753365758547869"><ele>599.0</ele><time>2026-04-14T15:57:19Z</time></trkpt><trkpt lat="41.69356020532522" lon="15.753267407842607"><ele>599.3333333333334</ele><time>2026-04-14T15:57:20Z</time></trkpt><trkpt lat="41.69360148838524" lon="15.753164431218472"><ele>599.6666666666666</ele><time>2026-04-14T15:57:21Z</time></trkpt><trkpt lat="41.693638422684586" lon="15.753040502021442"><ele>600.0</ele><time>2026-04-14T15:57:22Z</time></trkpt><trkpt lat="41.69367303929041" lon="15.752916045124282"><ele>600.0</ele><time>2026-04-14T15:57:23Z</time></trkpt><trkpt lat="41.693720106406694" lon="15.75277711979024"><ele>600.0</ele><time>2026-04-14T15:57:24Z</time></trkpt><trkpt lat="41.69376991613915" lon="15.752642740061127"><ele>600.0</ele><time>2026-04-14T15:57:25Z</time></trkpt><trkpt lat="41.693814349676884" lon="15.752518178646147"><ele>600.0</ele><time>2026-04-14T15:57:26Z</time></trkpt><trkpt lat="41.69385391376532" lon="15.752392810323947"><ele>600.0</ele><time>2026-04-14T15:57:27Z</time></trkpt><trkpt lat="41.693867040065676" lon="15.752288241316531"><ele>600.4</ele><time>2026-04-14T15:57:28Z</time></trkpt><trkpt lat="41.69387670543456" lon="15.752175550782049"><ele>600.8</ele><time>2026-04-14T15:57:29Z</time></trkpt><trkpt lat="41.693881505657" lon="15.752044625837557"><ele>601.2</ele><time>2026-04-14T15:57:30Z</time></trkpt><trkpt lat="41.69388876177584" lon="15.751913053444337"><ele>601.6</ele><time>2026-04-14T15:57:31Z</time></trkpt><trkpt lat="41.69391108984292" lon="15.751774377214293"><ele>602.0</ele><time>2026-04-14T15:57:32Z</time></trkpt><trkpt lat="41.693947241628614" lon="15.751643218359234"><ele>602.2</ele><time>2026-04-14T15:57:33Z</time></trkpt><trkpt lat="41.69397110949358" lon="15.751513352324944"><ele>602.4000000000001</ele><time>2026-04-14T15:57:34Z</time></trkpt><trkpt lat="41.6940024303666" lon="15.751393280901096"><ele>602.5999999999999</ele><time>2026-04-14T15:57:35Z</time></trkpt><trkpt lat="41.694064950528755" lon="15.751302233496588"><ele>602.8</ele><time>2026-04-14T15:57:36Z</time></trkpt><trkpt lat="41.69414032500836" lon="15.75121267774535"><ele>603.0</ele><time>2026-04-14T15:57:37Z</time></trkpt><trkpt lat="41.69422008558679" lon="15.751113824139527"><ele>603.1999999999999</ele><time>2026-04-14T15:57:38Z</time></trkpt><trkpt lat="41.69427985247638" lon="15.75099614949901"><ele>603.4</ele><time>2026-04-14T15:57:39Z</time></trkpt><trkpt lat="41.69430824749338" lon="15.750869905211976"><ele>603.5999999999999</ele><time>2026-04-14T15:57:40Z</time></trkpt><trkpt lat="41.694313112891024" lon="15.750747537137677"><ele>603.8</ele><time>2026-04-14T15:57:41Z</time></trkpt><trkpt lat="41.6943285941692" lon="15.750617797912925"><ele>604.0</ele><time>2026-04-14T15:57:42Z</time></trkpt><trkpt lat="41.694362846904156" lon="15.750483687055825"><ele>604.0</ele><time>2026-04-14T15:57:43Z</time></trkpt><trkpt lat="41.694391571823246" lon="15.75035822829685"><ele>604.0</ele><time>2026-04-14T15:57:44Z</time></trkpt><trkpt lat="41.69440241137861" lon="15.750238962638107"><ele>604.0</ele><time>2026-04-14T15:57:45Z</time></trkpt><trkpt lat="41.69442335392118" lon="15.750128897781607"><ele>604.0</ele><time>2026-04-14T15:57:46Z</time></trkpt><trkpt lat="41.69446396375097" lon="15.75004585491862"><ele>604.0</ele><time>2026-04-14T15:57:47Z</time></trkpt><trkpt lat="41.694524538746954" lon="15.749994393577175"><ele>604.0</ele><time>2026-04-14T15:57:48Z</time></trkpt><trkpt lat="41.69458782072413" lon="15.749984943751757"><ele>603.2</ele><time>2026-04-14T15:57:49Z</time></trkpt><trkpt lat="41.69471183982653" lon="15.75001863016831"><ele>602.4</ele><time>2026-04-14T15:57:51Z</time></trkpt><trkpt lat="41.69482424703993" lon="15.750022165479203"><ele>601.6</ele><time>2026-04-14T15:57:53Z</time></trkpt><trkpt lat="41.69487974548846" lon="15.749980555331785"><ele>600.8</ele><time>2026-04-14T15:57:54Z</time></trkpt><trkpt lat="41.694936195999254" lon="15.749919560174762"><ele>600.0</ele><time>2026-04-14T15:57:55Z</time></trkpt><trkpt lat="41.69500403106819" lon="15.749851552865378"><ele>600.0</ele><time>2026-04-14T15:57:56Z</time></trkpt><trkpt lat="41.695076019030836" lon="15.749782891059816"><ele>600.0</ele><time>2026-04-14T15:57:57Z</time></trkpt><trkpt lat="41.69512743972658" lon="15.749697185013574"><ele>600.0</ele><time>2026-04-14T15:57:58Z</time></trkpt><trkpt lat="41.69517816526909" lon="15.749582385837343"><ele>600.0</ele><time>2026-04-14T15:57:59Z</time></trkpt><trkpt lat="41.6952093285127" lon="15.749466912807767"><ele>600.0</ele><time>2026-04-14T15:58:00Z</time></trkpt><trkpt lat="41.69523105177935" lon="15.749338582989987"><ele>600.25</ele><time>2026-04-14T15:58:01Z</time></trkpt><trkpt lat="41.695252781133476" lon="15.749204687474494"><ele>600.5</ele><time>2026-04-14T15:58:02Z</time></trkpt><trkpt lat="41.695270422169294" lon="15.7490488515912"><ele>600.75</ele><time>2026-04-14T15:58:03Z</time></trkpt><trkpt lat="41.69527930505161" lon="15.748887816326958"><ele>601.0</ele><time>2026-04-14T15:58:04Z</time></trkpt><trkpt lat="41.69529078994993" lon="15.748730594792274"><ele>601.0</ele><time>2026-04-14T15:58:05Z</time></trkpt><trkpt lat="41.69531965440084" lon="15.748572604496555"><ele>601.0</ele><time>2026-04-14T15:58:06Z</time></trkpt><trkpt lat="41.695355872015014" lon="15.748419389990383"><ele>601.0</ele><time>2026-04-14T15:58:07Z</time></trkpt><trkpt lat="41.6953992063557" lon="15.748265391644935"><ele>601.0</ele><time>2026-04-14T15:58:08Z</time></trkpt><trkpt lat="41.69543005966432" lon="15.748120405496463"><ele>601.0</ele><time>2026-04-14T15:58:09Z</time></trkpt><trkpt lat="41.69543566807255" lon="15.747979828687303"><ele>601.0</ele><time>2026-04-14T15:58:10Z</time></trkpt><trkpt lat="41.69543530488068" lon="15.747816763734509"><ele>601.0</ele><time>2026-04-14T15:58:11Z</time></trkpt><trkpt lat="41.69543547516876" lon="15.747666534327777"><ele>601.0</ele><time>2026-04-14T15:58:12Z</time></trkpt><trkpt lat="41.69544159147752" lon="15.74753027127383"><ele>601.0</ele><time>2026-04-14T15:58:13Z</time></trkpt><trkpt lat="41.695453692789314" lon="15.747388768667234"><ele>601.0</ele><time>2026-04-14T15:58:14Z</time></trkpt><trkpt lat="41.69546246670385" lon="15.747258303971101"><ele>601.0</ele><time>2026-04-14T15:58:15Z</time></trkpt><trkpt lat="41.69547414575162" lon="15.747127425844662"><ele>601.0</ele><time>2026-04-14T15:58:16Z</time></trkpt><trkpt lat="41.69548682663125" lon="15.746999493658905"><ele>601.0</ele><time>2026-04-14T15:58:17Z</time></trkpt><trkpt lat="41.69549160440504" lon="15.746852405672792"><ele>601.0</ele><time>2026-04-14T15:58:17.999Z</time></trkpt><trkpt lat="41.69548715625806" lon="15.746694203341155"><ele>601.0</ele><time>2026-04-14T15:58:18.999Z</time></trkpt><trkpt lat="41.69548282515731" lon="15.746565696361513"><ele>601.0</ele><time>2026-04-14T15:58:19.999Z</time></trkpt><trkpt lat="41.695512097108924" lon="15.746425458368709"><ele>601.0</ele><time>2026-04-14T15:58:20.999Z</time></trkpt><trkpt lat="41.695546049824245" lon="15.746272633528937"><ele>601.0</ele><time>2026-04-14T15:58:21.999Z</time></trkpt><trkpt lat="41.69557714353606" lon="15.746106140047837"><ele>600.5</ele><time>2026-04-14T15:58:22.999Z</time></trkpt><trkpt lat="41.69559960958297" lon="15.74595480193065"><ele>600.0</ele><time>2026-04-14T15:58:23.999Z</time></trkpt><trkpt lat="41.695617901125466" lon="15.745801988732037"><ele>599.5</ele><time>2026-04-14T15:58:24.999Z</time></trkpt><trkpt lat="41.695641348914926" lon="15.745650425634182"><ele>599.0</ele><time>2026-04-14T15:58:25.999Z</time></trkpt><trkpt lat="41.695664436230956" lon="15.745492057958877"><ele>599.0</ele><time>2026-04-14T15:58:26.999Z</time></trkpt><trkpt lat="41.6956895315368" lon="15.745351060078313"><ele>599.0</ele><time>2026-04-14T15:58:27.999Z</time></trkpt><trkpt lat="41.695715652839226" lon="15.745227566416988"><ele>599.0</ele><time>2026-04-14T15:58:28.999Z</time></trkpt><trkpt lat="41.69574121466608" lon="15.745111639438964"><ele>599.0</ele><time>2026-04-14T15:58:29.999Z</time></trkpt><trkpt lat="41.69578236564396" lon="15.745003148716279"><ele>599.0</ele><time>2026-04-14T15:58:30.999Z</time></trkpt><trkpt lat="41.695852261595334" lon="15.744909638337585"><ele>599.4</ele><time>2026-04-14T15:58:31.999Z</time></trkpt><trkpt lat="41.69594073359127" lon="15.744809066024027"><ele>599.8</ele><time>2026-04-14T15:58:32.999Z</time></trkpt><trkpt lat="41.69602017430493" lon="15.744711590341554"><ele>600.2</ele><time>2026-04-14T15:58:33.999Z</time></trkpt><trkpt lat="41.69610270566661" lon="15.74462375735244"><ele>600.6</ele><time>2026-04-14T15:58:34.999Z</time></trkpt><trkpt lat="41.696187944978675" lon="15.744537493431983"><ele>601.0</ele><time>2026-04-14T15:58:35.999Z</time></trkpt><trkpt lat="41.69626247207264" lon="15.744445876495886"><ele>600.8</ele><time>2026-04-14T15:58:36.999Z</time></trkpt><trkpt lat="41.6963143130265" lon="15.744334443427581"><ele>600.6</ele><time>2026-04-14T15:58:37.999Z</time></trkpt><trkpt lat="41.6963528270248" lon="15.74420776533528"><ele>600.4</ele><time>2026-04-14T15:58:39Z</time></trkpt><trkpt lat="41.69639627527853" lon="15.744080822416963"><ele>600.2</ele><time>2026-04-14T15:58:40Z</time></trkpt><trkpt lat="41.69643852321351" lon="15.743950777641672"><ele>600.0</ele><time>2026-04-14T15:58:41Z</time></trkpt><trkpt lat="41.69647205372374" lon="15.743819680674703"><ele>600.0</ele><time>2026-04-14T15:58:42Z</time></trkpt><trkpt lat="41.69649091956921" lon="15.743693663278913"><ele>600.0</ele><time>2026-04-14T15:58:43Z</time></trkpt><trkpt lat="41.69650778357434" lon="15.743578635841173"><ele>600.0</ele><time>2026-04-14T15:58:44Z</time></trkpt><trkpt lat="41.6965504173097" lon="15.74347831634522"><ele>600.0</ele><time>2026-04-14T15:58:45Z</time></trkpt><trkpt lat="41.6966190425379" lon="15.743407588728154"><ele>600.0</ele><time>2026-04-14T15:58:46Z</time></trkpt><trkpt lat="41.69670775982323" lon="15.743325270043796"><ele>599.4</ele><time>2026-04-14T15:58:47Z</time></trkpt><trkpt lat="41.69679482682489" lon="15.74320983914447"><ele>598.8</ele><time>2026-04-14T15:58:48Z</time></trkpt><trkpt lat="41.6968602968627" lon="15.743094879249563"><ele>598.2</ele><time>2026-04-14T15:58:49Z</time></trkpt><trkpt lat="41.69693007800602" lon="15.742999076595652"><ele>597.6</ele><time>2026-04-14T15:58:50Z</time></trkpt><trkpt lat="41.69701437852575" lon="15.742922665500524"><ele>597.0</ele><time>2026-04-14T15:58:51Z</time></trkpt><trkpt lat="41.697096520419365" lon="15.742868889894728"><ele>596.4</ele><time>2026-04-14T15:58:52Z</time></trkpt><trkpt lat="41.69717470900812" lon="15.742799507581255"><ele>595.8000000000001</ele><time>2026-04-14T15:58:53Z</time></trkpt><trkpt lat="41.69724120705246" lon="15.742707890489609"><ele>595.2</ele><time>2026-04-14T15:58:54Z</time></trkpt><trkpt lat="41.69728162770023" lon="15.742601378545912"><ele>594.6</ele><time>2026-04-14T15:58:55Z</time></trkpt><trkpt lat="41.69731166887881" lon="15.742482910054429"><ele>594.0</ele><time>2026-04-14T15:58:56Z</time></trkpt><trkpt lat="41.69734174938556" lon="15.742367538323519"><ele>592.6666666666666</ele><time>2026-04-14T15:58:57Z</time></trkpt><trkpt lat="41.69737470701464" lon="15.742254968620594"><ele>591.3333333333334</ele><time>2026-04-14T15:58:58Z</time></trkpt><trkpt lat="41.69742143775351" lon="15.742151285166265"><ele>590.0</ele><time>2026-04-14T15:58:59Z</time></trkpt><trkpt lat="41.69747188397938" lon="15.742055591311214"><ele>588.6666666666667</ele><time>2026-04-14T15:59:00Z</time></trkpt><trkpt lat="41.697523592605236" lon="15.741959385062477"><ele>587.3333333333334</ele><time>2026-04-14T15:59:01Z</time></trkpt><trkpt lat="41.69757495705944" lon="15.741872654296907"><ele>586.0</ele><time>2026-04-14T15:59:02Z</time></trkpt><trkpt lat="41.697636797046044" lon="15.741782995719513"><ele>584.6</ele><time>2026-04-14T15:59:03Z</time></trkpt><trkpt lat="41.697698194710696" lon="15.74168509499703"><ele>583.2</ele><time>2026-04-14T15:59:04Z</time></trkpt><trkpt lat="41.69774525593526" lon="15.741593519245896"><ele>581.8</ele><time>2026-04-14T15:59:05Z</time></trkpt><trkpt lat="41.6978087618992" lon="15.741505839041041"><ele>580.4</ele><time>2026-04-14T15:59:07Z</time></trkpt><trkpt lat="41.697906183536716" lon="15.741445749135002"><ele>579.0</ele><time>2026-04-14T15:59:09Z</time></trkpt><trkpt lat="41.69799706349207" lon="15.741368140774375"><ele>576.4</ele><time>2026-04-14T15:59:11Z</time></trkpt><trkpt lat="41.69804656643484" lon="15.74131205874652"><ele>573.8</ele><time>2026-04-14T15:59:12Z</time></trkpt><trkpt lat="41.69813949583887" lon="15.741190677966596"><ele>571.2</ele><time>2026-04-14T15:59:14Z</time></trkpt><trkpt lat="41.69822839721885" lon="15.741095126931992"><ele>568.6</ele><time>2026-04-14T15:59:16Z</time></trkpt><trkpt lat="41.698309499424475" lon="15.741016704804643"><ele>566.0</ele><time>2026-04-14T15:59:18Z</time></trkpt><trkpt lat="41.698377646371235" lon="15.740952236251207"><ele>565.3333333333333</ele><time>2026-04-14T15:59:20Z</time></trkpt><trkpt lat="41.698459376432055" lon="15.740877343303591"><ele>564.6666666666666</ele><time>2026-04-14T15:59:22Z</time></trkpt><trkpt lat="41.698529892972594" lon="15.740830200949596"><ele>564.0</ele><time>2026-04-14T15:59:24Z</time></trkpt><trkpt lat="41.698595328358515" lon="15.740898100285204"><ele>563.3333333333334</ele><time>2026-04-14T15:59:58Z</time></trkpt><trkpt lat="41.69863911557363" lon="15.740817167920447"><ele>562.6666666666667</ele><time>2026-04-14T16:01:06Z</time></trkpt><trkpt lat="41.698717458237304" lon="15.740757457050861"><ele>562.0</ele><time>2026-04-14T16:01:08Z</time></trkpt><trkpt lat="41.698810342167185" lon="15.74070128880687"><ele>560.5</ele><time>2026-04-14T16:01:10Z</time></trkpt><trkpt lat="41.69887465752095" lon="15.740681738560355"><ele>559.0</ele><time>2026-04-14T16:01:12Z</time></trkpt><trkpt lat="41.698966265585256" lon="15.740642079676324"><ele>557.5</ele><time>2026-04-14T16:01:14Z</time></trkpt><trkpt lat="41.69902731770244" lon="15.740617432475691"><ele>556.0</ele><time>2026-04-14T16:01:15Z</time></trkpt><trkpt lat="41.699105450803614" lon="15.740594024398924"><ele>554.5</ele><time>2026-04-14T16:01:16Z</time></trkpt><trkpt lat="41.699185290435004" lon="15.740569524515882"><ele>553.0</ele><time>2026-04-14T16:01:17Z</time></trkpt><trkpt lat="41.69925747283294" lon="15.740539075095256"><ele>553.0</ele><time>2026-04-14T16:01:18Z</time></trkpt><trkpt lat="41.69933467621812" lon="15.740491026872194"><ele>553.0</ele><time>2026-04-14T16:01:19Z</time></trkpt><trkpt lat="41.69940380548661" lon="15.740420074754589"><ele>553.0</ele><time>2026-04-14T16:01:20Z</time></trkpt><trkpt lat="41.699472915392356" lon="15.740310376161933"><ele>553.0</ele><time>2026-04-14T16:01:21Z</time></trkpt><trkpt lat="41.6995439357963" lon="15.740195537161904"><ele>553.0</ele><time>2026-04-14T16:01:22Z</time></trkpt><trkpt lat="41.69961526468491" lon="15.740083164452944"><ele>551.8</ele><time>2026-04-14T16:01:23Z</time></trkpt><trkpt lat="41.69967645207783" lon="15.739982204537089"><ele>550.5999999999999</ele><time>2026-04-14T16:01:24Z</time></trkpt><trkpt lat="41.69973907344334" lon="15.739887997324264"><ele>549.4000000000001</ele><time>2026-04-14T16:01:25Z</time></trkpt><trkpt lat="41.69979610680836" lon="15.739796323414106"><ele>548.2</ele><time>2026-04-14T16:01:26Z</time></trkpt><trkpt lat="41.69984661005448" lon="15.739702818968466"><ele>547.0</ele><time>2026-04-14T16:01:27Z</time></trkpt><trkpt lat="41.69989698915777" lon="15.739614448793573"><ele>547.0</ele><time>2026-04-14T16:01:28Z</time></trkpt><trkpt lat="41.699942611235" lon="15.739535619144407"><ele>547.0</ele><time>2026-04-14T16:01:29Z</time></trkpt><trkpt lat="41.69998235364251" lon="15.739460995594"><ele>547.0</ele><time>2026-04-14T16:01:30Z</time></trkpt><trkpt lat="41.70005945922438" lon="15.739315544334305"><ele>547.0</ele><time>2026-04-14T16:01:32Z</time></trkpt><trkpt lat="41.700105525765" lon="15.739253378851346"><ele>547.0</ele><time>2026-04-14T16:01:33Z</time></trkpt><trkpt lat="41.70016673966358" lon="15.73920316623984"><ele>547.0</ele><time>2026-04-14T16:01:34Z</time></trkpt><trkpt lat="41.70023016223684" lon="15.739168620049341"><ele>546.2</ele><time>2026-04-14T16:01:35Z</time></trkpt><trkpt lat="41.7003408278047" lon="15.739107667351455"><ele>545.4000000000001</ele><time>2026-04-14T16:01:37Z</time></trkpt><trkpt lat="41.70040272826663" lon="15.739074843261086"><ele>544.5999999999999</ele><time>2026-04-14T16:01:39Z</time></trkpt><trkpt lat="41.70053240936208" lon="15.738955780093285"><ele>543.8</ele><time>2026-04-14T16:01:45Z</time></trkpt><trkpt lat="41.70061203366216" lon="15.738866176102594"><ele>543.0</ele><time>2026-04-14T16:01:46Z</time></trkpt><trkpt lat="41.70070276722323" lon="15.738772676379021"><ele>543.0</ele><time>2026-04-14T16:01:47Z</time></trkpt><trkpt lat="41.70079578100936" lon="15.738659424772678"><ele>543.0</ele><time>2026-04-14T16:01:48Z</time></trkpt><trkpt lat="41.70088397937614" lon="15.738550679623112"><ele>543.0</ele><time>2026-04-14T16:01:49Z</time></trkpt><trkpt lat="41.70097639206718" lon="15.738445179360603"><ele>543.0</ele><time>2026-04-14T16:01:50Z</time></trkpt><trkpt lat="41.70107180654258" lon="15.738345634671404"><ele>543.0</ele><time>2026-04-14T16:01:51Z</time></trkpt><trkpt lat="41.701165801880116" lon="15.738250810679794"><ele>543.0</ele><time>2026-04-14T16:01:52Z</time></trkpt><trkpt lat="41.70124599781066" lon="15.7381667201674"><ele>543.0</ele><time>2026-04-14T16:01:53Z</time></trkpt><trkpt lat="41.701322677433275" lon="15.738084779397148"><ele>543.0</ele><time>2026-04-14T16:01:54Z</time></trkpt><trkpt lat="41.70140395076452" lon="15.73801500786441"><ele>543.0</ele><time>2026-04-14T16:01:55Z</time></trkpt><trkpt lat="41.70149095859568" lon="15.737961407715986"><ele>543.0</ele><time>2026-04-14T16:01:56Z</time></trkpt><trkpt lat="41.701579952391164" lon="15.737919099197722"><ele>543.0</ele><time>2026-04-14T16:01:57Z</time></trkpt><trkpt lat="41.701658081635955" lon="15.737889358297092"><ele>543.0</ele><time>2026-04-14T16:01:58Z</time></trkpt><trkpt lat="41.70172738429063" lon="15.737866824281422"><ele>543.0</ele><time>2026-04-14T16:01:59Z</time></trkpt><trkpt lat="41.7018318305387" lon="15.737829447387423"><ele>543.0</ele><time>2026-04-14T16:02:01Z</time></trkpt><trkpt lat="41.70205836601624" lon="15.737785647934288"><ele>543.1999999999999</ele><time>2026-04-14T16:02:11Z</time></trkpt><trkpt lat="41.70214088051457" lon="15.737763975907358"><ele>543.4</ele><time>2026-04-14T16:02:12Z</time></trkpt><trkpt lat="41.702215564647226" lon="15.737754050585698"><ele>543.5999999999999</ele><time>2026-04-14T16:02:13Z</time></trkpt><trkpt lat="41.702301180928565" lon="15.737751619697201"><ele>543.8</ele><time>2026-04-14T16:02:14Z</time></trkpt><trkpt lat="41.70240202628275" lon="15.737734389211592"><ele>544.0</ele><time>2026-04-14T16:02:15Z</time></trkpt><trkpt lat="41.70253994062286" lon="15.737695771086816"><ele>544.0</ele><time>2026-04-14T16:02:16Z</time></trkpt><trkpt lat="41.70268977065633" lon="15.737651064235141"><ele>544.0</ele><time>2026-04-14T16:02:17Z</time></trkpt><trkpt lat="41.70285758009221" lon="15.737616105839319"><ele>544.0</ele><time>2026-04-14T16:02:18Z</time></trkpt><trkpt lat="41.70302746077267" lon="15.737579398139216"><ele>544.5</ele><time>2026-04-14T16:02:18.999Z</time></trkpt><trkpt lat="41.70317940660027" lon="15.73755274319206"><ele>545.0</ele><time>2026-04-14T16:02:19.999Z</time></trkpt><trkpt lat="41.703292017560166" lon="15.737530199108631"><ele>545.5</ele><time>2026-04-14T16:02:20.999Z</time></trkpt><trkpt lat="41.703395961363796" lon="15.73752403386786"><ele>546.0</ele><time>2026-04-14T16:02:21.999Z</time></trkpt><trkpt lat="41.7035025911023" lon="15.737516059851929"><ele>546.8</ele><time>2026-04-14T16:02:22.999Z</time></trkpt><trkpt lat="41.70360196380951" lon="15.737496731366337"><ele>547.6</ele><time>2026-04-14T16:02:23.999Z</time></trkpt><trkpt lat="41.70370837583281" lon="15.737482185878704"><ele>548.4</ele><time>2026-04-14T16:02:24.999Z</time></trkpt><trkpt lat="41.703795090957094" lon="15.737463780908758"><ele>549.2</ele><time>2026-04-14T16:02:25.999Z</time></trkpt><trkpt lat="41.70388911196634" lon="15.737440872603006"><ele>550.0</ele><time>2026-04-14T16:02:26.999Z</time></trkpt><trkpt lat="41.70396510110295" lon="15.737424022775809"><ele>550.0</ele><time>2026-04-14T16:02:27.999Z</time></trkpt><trkpt lat="41.70404845750319" lon="15.737396005352718"><ele>550.0</ele><time>2026-04-14T16:02:28.999Z</time></trkpt><trkpt lat="41.704137826001286" lon="15.737383093006498"><ele>550.0</ele><time>2026-04-14T16:02:29.999Z</time></trkpt><trkpt lat="41.70424511072403" lon="15.737360348028444"><ele>550.0</ele><time>2026-04-14T16:02:30.999Z</time></trkpt><trkpt lat="41.70436783940446" lon="15.737327208536867"><ele>550.0</ele><time>2026-04-14T16:02:31.999Z</time></trkpt><trkpt lat="41.7044867083535" lon="15.737291604928664"><ele>550.4285714285714</ele><time>2026-04-14T16:02:32.999Z</time></trkpt><trkpt lat="41.704550196179966" lon="15.737270902560878"><ele>550.8571428571429</ele><time>2026-04-14T16:02:33.999Z</time></trkpt><trkpt lat="41.704621069264554" lon="15.737221709458291"><ele>551.2857142857142</ele><time>2026-04-14T16:02:35.999Z</time></trkpt><trkpt lat="41.704651364520196" lon="15.737144587082618"><ele>551.7142857142858</ele><time>2026-04-14T16:02:36.999Z</time></trkpt><trkpt lat="41.704652848441725" lon="15.737058083438743"><ele>552.1428571428571</ele><time>2026-04-14T16:02:37.999Z</time></trkpt><trkpt lat="41.704646990778706" lon="15.736955267969842"><ele>552.5714285714286</ele><time>2026-04-14T16:02:38.999Z</time></trkpt><trkpt lat="41.70464296160768" lon="15.736850908604358"><ele>553.0</ele><time>2026-04-14T16:02:39.999Z</time></trkpt><trkpt lat="41.70463808859378" lon="15.7367173015467"><ele>553.0</ele><time>2026-04-14T16:02:40.999Z</time></trkpt><trkpt lat="41.704652808965086" lon="15.736588799147542"><ele>553.0</ele><time>2026-04-14T16:02:41.999Z</time></trkpt><trkpt lat="41.704662502051804" lon="15.736482535670891"><ele>553.0</ele><time>2026-04-14T16:02:42.999Z</time></trkpt><trkpt lat="41.70465187501375" lon="15.736380120471383"><ele>553.0</ele><time>2026-04-14T16:02:44.999Z</time></trkpt><trkpt lat="41.70476169758674" lon="15.736369257345642"><ele>553.0</ele><time>2026-04-14T16:02:47.999Z</time></trkpt><trkpt lat="41.70484277158312" lon="15.736386167718903"><ele>553.0</ele><time>2026-04-14T16:02:48.999Z</time></trkpt><trkpt lat="41.7049457068935" lon="15.736428753711932"><ele>553.0</ele><time>2026-04-14T16:02:49.999Z</time></trkpt><trkpt lat="41.705058636374545" lon="15.736469514205659"><ele>553.0</ele><time>2026-04-14T16:02:51Z</time></trkpt><trkpt lat="41.705133566128424" lon="15.73648932566827"><ele>553.0</ele><time>2026-04-14T16:02:52Z</time></trkpt><trkpt lat="41.70524837496691" lon="15.736512011531724"><ele>553.0</ele><time>2026-04-14T16:02:54Z</time></trkpt><trkpt lat="41.705354462871405" lon="15.736527395178202"><ele>553.0</ele><time>2026-04-14T16:02:56Z</time></trkpt><trkpt lat="41.705563788910176" lon="15.736372108166806"><ele>553.8</ele><time>2026-04-14T16:03:08Z</time></trkpt><trkpt lat="41.705640193320825" lon="15.736233948337864"><ele>554.5999999999999</ele><time>2026-04-14T16:03:09Z</time></trkpt><trkpt lat="41.705681752495394" lon="15.736118937374858"><ele>555.4000000000001</ele><time>2026-04-14T16:03:10Z</time></trkpt><trkpt lat="41.705704474542664" lon="15.736021739057396"><ele>556.2</ele><time>2026-04-14T16:03:11Z</time></trkpt><trkpt lat="41.70573648516404" lon="15.735902868404935"><ele>557.0</ele><time>2026-04-14T16:03:12Z</time></trkpt><trkpt lat="41.705776547770945" lon="15.735781575162738"><ele>557.0</ele><time>2026-04-14T16:03:13Z</time></trkpt><trkpt lat="41.70581186583962" lon="15.735668336914811"><ele>557.0</ele><time>2026-04-14T16:03:14Z</time></trkpt><trkpt lat="41.70584158621131" lon="15.735562709997184"><ele>557.0</ele><time>2026-04-14T16:03:15Z</time></trkpt><trkpt lat="41.70588213734743" lon="15.735464173709811"><ele>557.0</ele><time>2026-04-14T16:03:16Z</time></trkpt><trkpt lat="41.70590975657871" lon="15.735375131532406"><ele>557.0</ele><time>2026-04-14T16:03:17Z</time></trkpt><trkpt lat="41.70597017152767" lon="15.735202972640673"><ele>556.8000000000001</ele><time>2026-04-14T16:03:19Z</time></trkpt><trkpt lat="41.706003227625324" lon="15.735096848898618"><ele>556.6</ele><time>2026-04-14T16:03:20Z</time></trkpt><trkpt lat="41.706051589023446" lon="15.734981090473866"><ele>556.4000000000001</ele><time>2026-04-14T16:03:21Z</time></trkpt><trkpt lat="41.70610527657431" lon="15.734860514108524"><ele>556.2</ele><time>2026-04-14T16:03:22Z</time></trkpt><trkpt lat="41.706153670105536" lon="15.734737516062914"><ele>556.0</ele><time>2026-04-14T16:03:23Z</time></trkpt><trkpt lat="41.706189599663944" lon="15.734596011964836"><ele>557.0</ele><time>2026-04-14T16:03:24Z</time></trkpt><trkpt lat="41.70623990487502" lon="15.734414963430469"><ele>558.0</ele><time>2026-04-14T16:03:25Z</time></trkpt><trkpt lat="41.70629644111554" lon="15.7342212475959"><ele>559.0</ele><time>2026-04-14T16:03:26Z</time></trkpt><trkpt lat="41.706351789220264" lon="15.733998735534973"><ele>559.0</ele><time>2026-04-14T16:03:27Z</time></trkpt><trkpt lat="41.70637574413099" lon="15.733806329398318"><ele>559.0</ele><time>2026-04-14T16:03:28Z</time></trkpt><trkpt lat="41.70638761156399" lon="15.733628738368383"><ele>559.0</ele><time>2026-04-14T16:03:29Z</time></trkpt><trkpt lat="41.70639476585282" lon="15.733461683169743"><ele>559.0</ele><time>2026-04-14T16:03:30Z</time></trkpt><trkpt lat="41.706391535710395" lon="15.733309470393227"><ele>559.1428571428571</ele><time>2026-04-14T16:03:31Z</time></trkpt><trkpt lat="41.70640773143149" lon="15.733218815709511"><ele>559.2857142857143</ele><time>2026-04-14T16:03:32Z</time></trkpt><trkpt lat="41.70643579445472" lon="15.733107781631286"><ele>559.4285714285714</ele><time>2026-04-14T16:03:33Z</time></trkpt><trkpt lat="41.706428284867094" lon="15.733007132502594"><ele>559.5714285714286</ele><time>2026-04-14T16:03:34Z</time></trkpt><trkpt lat="41.70643336584295" lon="15.732917471935837"><ele>559.7142857142858</ele><time>2026-04-14T16:03:35Z</time></trkpt><trkpt lat="41.706412170212225" lon="15.732827823692393"><ele>559.8571428571429</ele><time>2026-04-14T16:03:37Z</time></trkpt><trkpt lat="41.70644890583352" lon="15.732743985168732"><ele>560.0</ele><time>2026-04-14T16:03:41Z</time></trkpt><trkpt lat="41.706438774506715" lon="15.732624360270345"><ele>560.1666666666666</ele><time>2026-04-14T16:03:43Z</time></trkpt><trkpt lat="41.70644384828676" lon="15.732534557596452"><ele>560.3333333333333</ele><time>2026-04-14T16:03:44Z</time></trkpt><trkpt lat="41.70642210460317" lon="15.732452929696592"><ele>560.5</ele><time>2026-04-14T16:03:46Z</time></trkpt><trkpt lat="41.706444142115785" lon="15.73232954592839"><ele>560.6666666666666</ele><time>2026-04-14T16:03:48Z</time></trkpt><trkpt lat="41.706484290391714" lon="15.732257343844013"><ele>560.8333333333334</ele><time>2026-04-14T16:04:13Z</time></trkpt><trkpt lat="41.706496773308594" lon="15.732101249055018"><ele>561.0</ele><time>2026-04-14T16:04:17Z</time></trkpt><trkpt lat="41.70651651782046" lon="15.7319742725009"><ele>561.1666666666666</ele><time>2026-04-14T16:04:19Z</time></trkpt><trkpt lat="41.706504155460486" lon="15.731842897793326"><ele>561.3333333333334</ele><time>2026-04-14T16:04:20.999Z</time></trkpt><trkpt lat="41.70652372959154" lon="15.731740103471916"><ele>561.5</ele><time>2026-04-14T16:04:28.999Z</time></trkpt><trkpt lat="41.70651679810465" lon="15.731634272875812"><ele>561.6666666666667</ele><time>2026-04-14T16:04:32.999Z</time></trkpt><trkpt lat="41.70651961366836" lon="15.7315197294507"><ele>561.8333333333334</ele><time>2026-04-14T16:04:34.999Z</time></trkpt><trkpt lat="41.70652819887758" lon="15.731390795843737"><ele>562.0</ele><time>2026-04-14T16:04:36.999Z</time></trkpt><trkpt lat="41.70655428187266" lon="15.731236444865885"><ele>562.0</ele><time>2026-04-14T16:04:38.999Z</time></trkpt><trkpt lat="41.706570438321314" lon="15.731095681456711"><ele>562.0</ele><time>2026-04-14T16:04:39.999Z</time></trkpt><trkpt lat="41.706610619569894" lon="15.730953908464274"><ele>562.0</ele><time>2026-04-14T16:04:40.999Z</time></trkpt><trkpt lat="41.7066239370982" lon="15.730851335961802"><ele>562.0</ele><time>2026-04-14T16:04:41.999Z</time></trkpt><trkpt lat="41.70662973229179" lon="15.730690733741355"><ele>562.0</ele><time>2026-04-14T16:04:42.999Z</time></trkpt><trkpt lat="41.70665690801941" lon="15.730546718816942"><ele>562.4</ele><time>2026-04-14T16:04:43.999Z</time></trkpt><trkpt lat="41.70668356653801" lon="15.730374107728935"><ele>562.8000000000001</ele><time>2026-04-14T16:04:44.999Z</time></trkpt><trkpt lat="41.70671608248786" lon="15.730220997186981"><ele>563.2</ele><time>2026-04-14T16:04:45.999Z</time></trkpt><trkpt lat="41.706724685510004" lon="15.730093316511878"><ele>563.6</ele><time>2026-04-14T16:04:46.999Z</time></trkpt><trkpt lat="41.706737949281745" lon="15.729975529615407"><ele>564.0</ele><time>2026-04-14T16:04:47.999Z</time></trkpt><trkpt lat="41.70673161874902" lon="15.729837548216643"><ele>564.3333333333334</ele><time>2026-04-14T16:04:49.999Z</time></trkpt><trkpt lat="41.706731067727524" lon="15.729739123124288"><ele>564.6666666666666</ele><time>2026-04-14T16:04:51.999Z</time></trkpt><trkpt lat="41.70672676270013" lon="15.729603796283348"><ele>565.0</ele><time>2026-04-14T16:04:52.999Z</time></trkpt><trkpt lat="41.70671151514571" lon="15.729495749848379"><ele>565.3333333333333</ele><time>2026-04-14T16:04:54.999Z</time></trkpt><trkpt lat="41.70671726022721" lon="15.729411489970467"><ele>565.6666666666666</ele><time>2026-04-14T16:04:57Z</time></trkpt><trkpt lat="41.706701309832695" lon="15.72932355534296"><ele>566.0</ele><time>2026-04-14T16:04:59Z</time></trkpt><trkpt lat="41.70665754477658" lon="15.72922153375803"><ele>566.1666666666666</ele><time>2026-04-14T16:05:01Z</time></trkpt><trkpt lat="41.70659779956094" lon="15.729166207409158"><ele>566.3333333333333</ele><time>2026-04-14T16:05:03Z</time></trkpt><trkpt lat="41.706514868230144" lon="15.729162635674285"><ele>566.5</ele><time>2026-04-14T16:05:05Z</time></trkpt><trkpt lat="41.70645081512382" lon="15.729192495986311"><ele>566.6666666666666</ele><time>2026-04-14T16:05:07Z</time></trkpt><trkpt lat="41.706360592613954" lon="15.72922285627792"><ele>566.8333333333334</ele><time>2026-04-14T16:05:09Z</time></trkpt><trkpt lat="41.70628891100325" lon="15.729249066187492"><ele>567.0</ele><time>2026-04-14T16:05:11Z</time></trkpt><trkpt lat="41.70621175726761" lon="15.729339081955384"><ele>565.75</ele><time>2026-04-14T16:05:14Z</time></trkpt><trkpt lat="41.706068607469966" lon="15.72942585580117"><ele>564.5</ele><time>2026-04-14T16:05:16Z</time></trkpt><trkpt lat="41.70593789170575" lon="15.72948405568238"><ele>563.25</ele><time>2026-04-14T16:05:17Z</time></trkpt><trkpt lat="41.70587008751054" lon="15.729510892792081"><ele>562.0</ele><time>2026-04-14T16:05:18Z</time></trkpt><trkpt lat="41.7057611723177" lon="15.7295399474729"><ele>562.0</ele><time>2026-04-14T16:05:19Z</time></trkpt><trkpt lat="41.70568328553308" lon="15.729552598621911"><ele>562.0</ele><time>2026-04-14T16:05:20Z</time></trkpt><trkpt lat="41.70559608399389" lon="15.729577096382865"><ele>562.0</ele><time>2026-04-14T16:05:21Z</time></trkpt><trkpt lat="41.705465186598836" lon="15.729613820461054"><ele>562.0</ele><time>2026-04-14T16:05:22Z</time></trkpt><trkpt lat="41.705351608655604" lon="15.729658150357396"><ele>562.0</ele><time>2026-04-14T16:05:23Z</time></trkpt><trkpt lat="41.70522954517245" lon="15.729705237664975"><ele>560.5</ele><time>2026-04-14T16:05:24Z</time></trkpt><trkpt lat="41.70512232114568" lon="15.729756567543692"><ele>559.0</ele><time>2026-04-14T16:05:25Z</time></trkpt><trkpt lat="41.705005053527906" lon="15.72981552252652"><ele>557.5</ele><time>2026-04-14T16:05:26Z</time></trkpt><trkpt lat="41.70489878842188" lon="15.729882837185652"><ele>556.0</ele><time>2026-04-14T16:05:27Z</time></trkpt><trkpt lat="41.70478085013386" lon="15.729897711338085"><ele>556.0</ele><time>2026-04-14T16:05:28Z</time></trkpt><trkpt lat="41.70467551047711" lon="15.729950501253622"><ele>556.0</ele><time>2026-04-14T16:05:29Z</time></trkpt><trkpt lat="41.704568926273375" lon="15.729998825928428"><ele>556.0</ele><time>2026-04-14T16:05:30Z</time></trkpt><trkpt lat="41.704470113466556" lon="15.73005606360688"><ele>556.0</ele><time>2026-04-14T16:05:31Z</time></trkpt><trkpt lat="41.70437989769657" lon="15.730094130224911"><ele>556.0</ele><time>2026-04-14T16:05:32Z</time></trkpt><trkpt lat="41.70429247080849" lon="15.73013183944532"><ele>554.8</ele><time>2026-04-14T16:05:33Z</time></trkpt><trkpt lat="41.70420931193874" lon="15.730169893220497"><ele>553.6</ele><time>2026-04-14T16:05:34Z</time></trkpt><trkpt lat="41.70413041831918" lon="15.730179764947131"><ele>552.4</ele><time>2026-04-14T16:05:35Z</time></trkpt><trkpt lat="41.70405353203734" lon="15.73013104657164"><ele>551.2</ele><time>2026-04-14T16:05:36Z</time></trkpt><trkpt lat="41.70390983530885" lon="15.73016975319673"><ele>550.0</ele><time>2026-04-14T16:05:38Z</time></trkpt><trkpt lat="41.70378797540438" lon="15.730214614889139"><ele>550.0</ele><time>2026-04-14T16:05:40Z</time></trkpt><trkpt lat="41.70372268657851" lon="15.730289049301799"><ele>550.0</ele><time>2026-04-14T16:05:42Z</time></trkpt><trkpt lat="41.70366028400191" lon="15.730333124802241"><ele>550.0</ele><time>2026-04-14T16:05:45Z</time></trkpt><trkpt lat="41.70359442427959" lon="15.730362511884397"><ele>550.0</ele><time>2026-04-14T16:05:49Z</time></trkpt><trkpt lat="41.70352191155025" lon="15.730367971309157"><ele>550.0</ele><time>2026-04-14T16:05:50Z</time></trkpt><trkpt lat="41.70342781786551" lon="15.730395712079046"><ele>550.0</ele><time>2026-04-14T16:05:51Z</time></trkpt><trkpt lat="41.70333994503345" lon="15.730432439901362"><ele>549.5</ele><time>2026-04-14T16:05:52Z</time></trkpt><trkpt lat="41.70322832933309" lon="15.730457161811401"><ele>549.0</ele><time>2026-04-14T16:05:53Z</time></trkpt><trkpt lat="41.703141278551" lon="15.73051750794732"><ele>548.5</ele><time>2026-04-14T16:05:54Z</time></trkpt><trkpt lat="41.70293807805211" lon="15.730605576694366"><ele>548.0</ele><time>2026-04-14T16:05:55Z</time></trkpt><trkpt lat="41.70284373404628" lon="15.730647663200903"><ele>547.8</ele><time>2026-04-14T16:05:56Z</time></trkpt><trkpt lat="41.70273313011877" lon="15.730683392290048"><ele>547.5999999999999</ele><time>2026-04-14T16:05:57Z</time></trkpt><trkpt lat="41.70262758836995" lon="15.73071166702062"><ele>547.4000000000001</ele><time>2026-04-14T16:05:58Z</time></trkpt><trkpt lat="41.70253696515816" lon="15.730740933707056"><ele>547.2</ele><time>2026-04-14T16:05:59Z</time></trkpt><trkpt lat="41.70244588933561" lon="15.73077289694919"><ele>547.0</ele><time>2026-04-14T16:06:00Z</time></trkpt><trkpt lat="41.70237964948816" lon="15.730790331968322"><ele>547.0</ele><time>2026-04-14T16:06:01Z</time></trkpt><trkpt lat="41.7023330020006" lon="15.73087627189904"><ele>547.0</ele><time>2026-04-14T16:06:03Z</time></trkpt><trkpt lat="41.70223443686921" lon="15.730937466613625"><ele>547.0</ele><time>2026-04-14T16:06:05Z</time></trkpt><trkpt lat="41.702162478240616" lon="15.73098053148984"><ele>547.0</ele><time>2026-04-14T16:06:06Z</time></trkpt><trkpt lat="41.70203317059882" lon="15.731016778434164"><ele>547.0</ele><time>2026-04-14T16:06:07.999Z</time></trkpt><trkpt lat="41.70193790996734" lon="15.731035761631952"><ele>546.6666666666667</ele><time>2026-04-14T16:06:08.999Z</time></trkpt><trkpt lat="41.7018844541471" lon="15.731087636246093"><ele>546.3333333333334</ele><time>2026-04-14T16:06:09.999Z</time></trkpt><trkpt lat="41.70182036651081" lon="15.731089243496474"><ele>546.0</ele><time>2026-04-14T16:06:10.999Z</time></trkpt><trkpt lat="41.70175425666617" lon="15.731114265586635"><ele>545.6666666666666</ele><time>2026-04-14T16:06:11.999Z</time></trkpt><trkpt lat="41.7016342399327" lon="15.731184400225615"><ele>545.3333333333333</ele><time>2026-04-14T16:06:13.999Z</time></trkpt><trkpt lat="41.70156568072881" lon="15.731178053115952"><ele>545.0</ele><time>2026-04-14T16:06:14.999Z</time></trkpt><trkpt lat="41.70147498586639" lon="15.731171620550509"><ele>545.0</ele><time>2026-04-14T16:06:16.999Z</time></trkpt><trkpt lat="41.701413069677116" lon="15.731148700991692"><ele>545.0</ele><time>2026-04-14T16:06:19.999Z</time></trkpt><trkpt lat="41.70134970338469" lon="15.731142758902596"><ele>545.0</ele><time>2026-04-14T16:06:41.999Z</time></trkpt><trkpt lat="41.701291116488555" lon="15.731076155201103"><ele>545.0</ele><time>2026-04-14T16:06:43.999Z</time></trkpt><trkpt lat="41.70131784336423" lon="15.730921761583911"><ele>545.0</ele><time>2026-04-14T16:06:45.999Z</time></trkpt><trkpt lat="41.701344753157166" lon="15.730819068006122"><ele>545.0</ele><time>2026-04-14T16:06:46.999Z</time></trkpt><trkpt lat="41.70138691893594" lon="15.730699413822283"><ele>544.8</ele><time>2026-04-14T16:06:47.999Z</time></trkpt><trkpt lat="41.701414747214976" lon="15.730574745679696"><ele>544.6</ele><time>2026-04-14T16:06:48.999Z</time></trkpt><trkpt lat="41.701448328538625" lon="15.730441416971951"><ele>544.4</ele><time>2026-04-14T16:06:49.999Z</time></trkpt><trkpt lat="41.70148550472329" lon="15.730304515927601"><ele>544.2</ele><time>2026-04-14T16:06:50.999Z</time></trkpt><trkpt lat="41.70153110418639" lon="15.730165263805457"><ele>544.0</ele><time>2026-04-14T16:06:51.999Z</time></trkpt><trkpt lat="41.70157983528353" lon="15.730006509195109"><ele>544.0</ele><time>2026-04-14T16:06:52.999Z</time></trkpt><trkpt lat="41.70164337974742" lon="15.729855415261824"><ele>544.0</ele><time>2026-04-14T16:06:53.999Z</time></trkpt><trkpt lat="41.701708085523414" lon="15.729688763667445"><ele>544.0</ele><time>2026-04-14T16:06:54.999Z</time></trkpt><trkpt lat="41.70179140839491" lon="15.729517661335816"><ele>544.0</ele><time>2026-04-14T16:06:55.999Z</time></trkpt><trkpt lat="41.70184279874311" lon="15.729356412037598"><ele>544.0</ele><time>2026-04-14T16:06:56.999Z</time></trkpt><trkpt lat="41.70190406228948" lon="15.729192162338405"><ele>544.0</ele><time>2026-04-14T16:06:57.999Z</time></trkpt><trkpt lat="41.701959416621094" lon="15.729032954094562"><ele>544.0</ele><time>2026-04-14T16:06:58.999Z</time></trkpt><trkpt lat="41.70201479676275" lon="15.728857395169827"><ele>544.0</ele><time>2026-04-14T16:06:59.999Z</time></trkpt><trkpt lat="41.70207062368266" lon="15.728694478352466"><ele>543.75</ele><time>2026-04-14T16:07:00.999Z</time></trkpt><trkpt lat="41.70212052471364" lon="15.728539996326221"><ele>543.5</ele><time>2026-04-14T16:07:01.999Z</time></trkpt><trkpt lat="41.702174059709606" lon="15.728386406812284"><ele>543.25</ele><time>2026-04-14T16:07:03Z</time></trkpt><trkpt lat="41.70222779744284" lon="15.728251808996955"><ele>543.0</ele><time>2026-04-14T16:07:04Z</time></trkpt><trkpt lat="41.702281033170145" lon="15.728109833932647"><ele>543.0</ele><time>2026-04-14T16:07:05Z</time></trkpt><trkpt lat="41.702330814595776" lon="15.72798811483672"><ele>543.0</ele><time>2026-04-14T16:07:06Z</time></trkpt><trkpt lat="41.70237847490671" lon="15.727872411916797"><ele>543.0</ele><time>2026-04-14T16:07:07Z</time></trkpt><trkpt lat="41.70243051096094" lon="15.727765174457215"><ele>543.0</ele><time>2026-04-14T16:07:08Z</time></trkpt><trkpt lat="41.702489899139294" lon="15.727590989226076"><ele>543.0</ele><time>2026-04-14T16:07:09Z</time></trkpt><trkpt lat="41.702537588957114" lon="15.727405429550485"><ele>543.1999999999999</ele><time>2026-04-14T16:07:10Z</time></trkpt><trkpt lat="41.70257603990839" lon="15.727258256230769"><ele>543.4</ele><time>2026-04-14T16:07:11Z</time></trkpt><trkpt lat="41.702641128651734" lon="15.72712182083684"><ele>543.5999999999999</ele><time>2026-04-14T16:07:12Z</time></trkpt><trkpt lat="41.702679463087954" lon="15.726999399902411"><ele>543.8</ele><time>2026-04-14T16:07:13Z</time></trkpt><trkpt lat="41.70272378607156" lon="15.72690501128274"><ele>544.0</ele><time>2026-04-14T16:07:14Z</time></trkpt><trkpt lat="41.702758048636134" lon="15.726802663528023"><ele>544.1666666666667</ele><time>2026-04-14T16:07:15Z</time></trkpt><trkpt lat="41.702779291590744" lon="15.726716216804036"><ele>544.3333333333334</ele><time>2026-04-14T16:07:17Z</time></trkpt><trkpt lat="41.7027578400784" lon="15.726611673003148"><ele>544.5</ele><time>2026-04-14T16:07:20Z</time></trkpt><trkpt lat="41.70268060293917" lon="15.726568761401861"><ele>544.6666666666666</ele><time>2026-04-14T16:07:22Z</time></trkpt><trkpt lat="41.702607393425005" lon="15.726449201558108"><ele>544.8333333333333</ele><time>2026-04-14T16:07:24Z</time></trkpt><trkpt lat="41.70253825723258" lon="15.726419679037914"><ele>545.0</ele><time>2026-04-14T16:07:25Z</time></trkpt><trkpt lat="41.70246747843456" lon="15.726407610441312"><ele>545.0</ele><time>2026-04-14T16:07:26Z</time></trkpt><trkpt lat="41.70240151716188" lon="15.726390655068924"><ele>545.0</ele><time>2026-04-14T16:07:27Z</time></trkpt><trkpt lat="41.70231682113199" lon="15.72635709392963"><ele>545.0</ele><time>2026-04-14T16:07:28Z</time></trkpt><trkpt lat="41.70223999664859" lon="15.726377466497922"><ele>545.0</ele><time>2026-04-14T16:07:29Z</time></trkpt><trkpt lat="41.70233297382311" lon="15.726388460072476"><ele>545.0</ele><time>2026-04-14T16:07:30Z</time></trkpt><trkpt lat="41.70216887905915" lon="15.726369810235767"><ele>545.0</ele><time>2026-04-14T16:07:32Z</time></trkpt><trkpt lat="41.702096802117595" lon="15.726383376915464"><ele>545.0</ele><time>2026-04-14T16:07:34Z</time></trkpt><trkpt lat="41.702069784917555" lon="15.726244251349978"><ele>545.0</ele><time>2026-04-14T16:07:36Z</time></trkpt><trkpt lat="41.702293223522" lon="15.726122643476991"><ele>545.0</ele><time>2026-04-14T16:07:42Z</time></trkpt><trkpt lat="41.70235565641344" lon="15.72608738439418"><ele>545.0</ele><time>2026-04-14T16:07:44Z</time></trkpt><trkpt lat="41.702285412688106" lon="15.72609877491275"><ele>545.0</ele><time>2026-04-14T16:08:50.999Z</time></trkpt><trkpt lat="41.702316829576084" lon="15.726014818493452"><ele>547.0</ele><time>2026-04-14T16:09:00.999Z</time></trkpt><trkpt lat="41.702275600014836" lon="15.725945188253693"><ele>547.0</ele><time>2026-04-14T16:09:25Z</time></trkpt></trkseg></trk></gpx>